<?xml version="1.0" encoding="UTF-8" standalone="no" ?>
<gpx xmlns="http://www.topografix.com/GPX/1/1" xmlns:xsi="http://www.w3.org/2001/XMLSchema-instance" xsi:schemaLocation="http://www.topografix.com/GPX/1/1 http://www.topografix.com/GPX/1/1/gpx.xsd" version="1.1" creator="VisuGPX - https://www.visugpx.com">
  <metadata>
    <name>M R T EVAUX LES BAINS 2</name>
    <desc><![CDATA[DEPART DU CAMPING,]]></desc>
  </metadata>
  <trk>
    <name><![CDATA[M R T EVAUX LES BAINS 2_1]]></name>
    <trkseg>
      <trkpt lat="46.17865" lon="2.48902">
        <ele>453</ele>
        <time>2015-04-06T13:30:23Z</time>
      </trkpt>
      <trkpt lat="46.17864" lon="2.48941">
        <ele>454</ele>
        <time>2015-04-06T13:31:03Z</time>
      </trkpt>
      <trkpt lat="46.17865" lon="2.48945">
        <ele>454</ele>
        <time>2015-04-06T13:31:05Z</time>
      </trkpt>
      <trkpt lat="46.17866" lon="2.48948">
        <ele>453</ele>
        <time>2015-04-06T13:31:07Z</time>
      </trkpt>
      <trkpt lat="46.17867" lon="2.48951">
        <ele>453</ele>
        <time>2015-04-06T13:31:09Z</time>
      </trkpt>
      <trkpt lat="46.17868" lon="2.48956">
        <ele>452</ele>
        <time>2015-04-06T13:31:12Z</time>
      </trkpt>
      <trkpt lat="46.17868" lon="2.4896">
        <ele>452</ele>
        <time>2015-04-06T13:31:15Z</time>
      </trkpt>
      <trkpt lat="46.17869" lon="2.48962">
        <ele>452</ele>
        <time>2015-04-06T13:31:17Z</time>
      </trkpt>
      <trkpt lat="46.17868" lon="2.48966">
        <ele>452</ele>
        <time>2015-04-06T13:31:20Z</time>
      </trkpt>
      <trkpt lat="46.17867" lon="2.48968">
        <ele>452</ele>
        <time>2015-04-06T13:31:22Z</time>
      </trkpt>
      <trkpt lat="46.17865" lon="2.48971">
        <ele>452</ele>
        <time>2015-04-06T13:31:24Z</time>
      </trkpt>
      <trkpt lat="46.17862" lon="2.48975">
        <ele>451</ele>
        <time>2015-04-06T13:31:27Z</time>
      </trkpt>
      <trkpt lat="46.1786" lon="2.48978">
        <ele>451</ele>
        <time>2015-04-06T13:31:29Z</time>
      </trkpt>
      <trkpt lat="46.17858" lon="2.48981">
        <ele>451</ele>
        <time>2015-04-06T13:31:31Z</time>
      </trkpt>
      <trkpt lat="46.17856" lon="2.48984">
        <ele>451</ele>
        <time>2015-04-06T13:31:33Z</time>
      </trkpt>
      <trkpt lat="46.17854" lon="2.48987">
        <ele>450</ele>
        <time>2015-04-06T13:31:35Z</time>
      </trkpt>
      <trkpt lat="46.17852" lon="2.4899">
        <ele>450</ele>
        <time>2015-04-06T13:31:37Z</time>
      </trkpt>
      <trkpt lat="46.1785" lon="2.48993">
        <ele>449</ele>
        <time>2015-04-06T13:31:39Z</time>
      </trkpt>
      <trkpt lat="46.17849" lon="2.48996">
        <ele>449</ele>
        <time>2015-04-06T13:31:41Z</time>
      </trkpt>
      <trkpt lat="46.17847" lon="2.48999">
        <ele>448</ele>
        <time>2015-04-06T13:31:43Z</time>
      </trkpt>
      <trkpt lat="46.17844" lon="2.49003">
        <ele>447</ele>
        <time>2015-04-06T13:31:46Z</time>
      </trkpt>
      <trkpt lat="46.1784" lon="2.49006">
        <ele>446</ele>
        <time>2015-04-06T13:31:49Z</time>
      </trkpt>
      <trkpt lat="46.17838" lon="2.49008">
        <ele>446</ele>
        <time>2015-04-06T13:31:51Z</time>
      </trkpt>
      <trkpt lat="46.17835" lon="2.4901">
        <ele>446</ele>
        <time>2015-04-06T13:31:53Z</time>
      </trkpt>
      <trkpt lat="46.17832" lon="2.49011">
        <ele>446</ele>
        <time>2015-04-06T13:31:55Z</time>
      </trkpt>
      <trkpt lat="46.17829" lon="2.49011">
        <ele>445</ele>
        <time>2015-04-06T13:31:57Z</time>
      </trkpt>
      <trkpt lat="46.17826" lon="2.49011">
        <ele>445</ele>
        <time>2015-04-06T13:31:59Z</time>
      </trkpt>
      <trkpt lat="46.17823" lon="2.4901">
        <ele>445</ele>
        <time>2015-04-06T13:32:01Z</time>
      </trkpt>
      <trkpt lat="46.17821" lon="2.49009">
        <ele>445</ele>
        <time>2015-04-06T13:32:03Z</time>
      </trkpt>
      <trkpt lat="46.17818" lon="2.49008">
        <ele>445</ele>
        <time>2015-04-06T13:32:05Z</time>
      </trkpt>
      <trkpt lat="46.17815" lon="2.49006">
        <ele>445</ele>
        <time>2015-04-06T13:32:07Z</time>
      </trkpt>
      <trkpt lat="46.17812" lon="2.49004">
        <ele>445</ele>
        <time>2015-04-06T13:32:09Z</time>
      </trkpt>
      <trkpt lat="46.17809" lon="2.49003">
        <ele>445</ele>
        <time>2015-04-06T13:32:11Z</time>
      </trkpt>
      <trkpt lat="46.17807" lon="2.49001">
        <ele>445</ele>
        <time>2015-04-06T13:32:13Z</time>
      </trkpt>
      <trkpt lat="46.17803" lon="2.48997">
        <ele>445</ele>
        <time>2015-04-06T13:32:16Z</time>
      </trkpt>
      <trkpt lat="46.17801" lon="2.48995">
        <ele>445</ele>
        <time>2015-04-06T13:32:18Z</time>
      </trkpt>
      <trkpt lat="46.17799" lon="2.48993">
        <ele>445</ele>
        <time>2015-04-06T13:32:20Z</time>
      </trkpt>
      <trkpt lat="46.17796" lon="2.48988">
        <ele>445</ele>
        <time>2015-04-06T13:32:22Z</time>
      </trkpt>
      <trkpt lat="46.17793" lon="2.48982">
        <ele>445</ele>
        <time>2015-04-06T13:32:24Z</time>
      </trkpt>
      <trkpt lat="46.17792" lon="2.48978">
        <ele>445</ele>
        <time>2015-04-06T13:32:26Z</time>
      </trkpt>
      <trkpt lat="46.17791" lon="2.48975">
        <ele>445</ele>
        <time>2015-04-06T13:32:28Z</time>
      </trkpt>
      <trkpt lat="46.17792" lon="2.48972">
        <ele>445</ele>
        <time>2015-04-06T13:32:30Z</time>
      </trkpt>
      <trkpt lat="46.17791" lon="2.48967">
        <ele>445</ele>
        <time>2015-04-06T13:32:32Z</time>
      </trkpt>
      <trkpt lat="46.17791" lon="2.48962">
        <ele>445</ele>
        <time>2015-04-06T13:32:34Z</time>
      </trkpt>
      <trkpt lat="46.17791" lon="2.48957">
        <ele>445</ele>
        <time>2015-04-06T13:32:36Z</time>
      </trkpt>
      <trkpt lat="46.17792" lon="2.48953">
        <ele>445</ele>
        <time>2015-04-06T13:32:38Z</time>
      </trkpt>
      <trkpt lat="46.17792" lon="2.48949">
        <ele>445</ele>
        <time>2015-04-06T13:32:40Z</time>
      </trkpt>
      <trkpt lat="46.17791" lon="2.48945">
        <ele>446</ele>
        <time>2015-04-06T13:32:42Z</time>
      </trkpt>
      <trkpt lat="46.17791" lon="2.4894">
        <ele>446</ele>
        <time>2015-04-06T13:32:44Z</time>
      </trkpt>
      <trkpt lat="46.17789" lon="2.48937">
        <ele>446</ele>
        <time>2015-04-06T13:32:46Z</time>
      </trkpt>
      <trkpt lat="46.17789" lon="2.48933">
        <ele>446</ele>
        <time>2015-04-06T13:32:48Z</time>
      </trkpt>
      <trkpt lat="46.17788" lon="2.48929">
        <ele>446</ele>
        <time>2015-04-06T13:32:50Z</time>
      </trkpt>
      <trkpt lat="46.17787" lon="2.48924">
        <ele>446</ele>
        <time>2015-04-06T13:32:52Z</time>
      </trkpt>
      <trkpt lat="46.17787" lon="2.48919">
        <ele>446</ele>
        <time>2015-04-06T13:32:54Z</time>
      </trkpt>
      <trkpt lat="46.17786" lon="2.48914">
        <ele>446</ele>
        <time>2015-04-06T13:32:56Z</time>
      </trkpt>
      <trkpt lat="46.17786" lon="2.4891">
        <ele>446</ele>
        <time>2015-04-06T13:32:58Z</time>
      </trkpt>
      <trkpt lat="46.17785" lon="2.48906">
        <ele>446</ele>
        <time>2015-04-06T13:33:00Z</time>
      </trkpt>
      <trkpt lat="46.17784" lon="2.48903">
        <ele>446</ele>
        <time>2015-04-06T13:33:02Z</time>
      </trkpt>
      <trkpt lat="46.17783" lon="2.48899">
        <ele>446</ele>
        <time>2015-04-06T13:33:04Z</time>
      </trkpt>
      <trkpt lat="46.17781" lon="2.48896">
        <ele>446</ele>
        <time>2015-04-06T13:33:06Z</time>
      </trkpt>
      <trkpt lat="46.1778" lon="2.48891">
        <ele>446</ele>
        <time>2015-04-06T13:33:09Z</time>
      </trkpt>
      <trkpt lat="46.17777" lon="2.48887">
        <ele>446</ele>
        <time>2015-04-06T13:33:12Z</time>
      </trkpt>
      <trkpt lat="46.17775" lon="2.48883">
        <ele>445</ele>
        <time>2015-04-06T13:33:15Z</time>
      </trkpt>
      <trkpt lat="46.17773" lon="2.4888">
        <ele>445</ele>
        <time>2015-04-06T13:33:17Z</time>
      </trkpt>
      <trkpt lat="46.17771" lon="2.48878">
        <ele>444</ele>
        <time>2015-04-06T13:33:19Z</time>
      </trkpt>
      <trkpt lat="46.17769" lon="2.48876">
        <ele>444</ele>
        <time>2015-04-06T13:33:21Z</time>
      </trkpt>
      <trkpt lat="46.17767" lon="2.48873">
        <ele>443</ele>
        <time>2015-04-06T13:33:23Z</time>
      </trkpt>
      <trkpt lat="46.17765" lon="2.48869">
        <ele>443</ele>
        <time>2015-04-06T13:33:25Z</time>
      </trkpt>
      <trkpt lat="46.17763" lon="2.48867">
        <ele>443</ele>
        <time>2015-04-06T13:33:27Z</time>
      </trkpt>
      <trkpt lat="46.1776" lon="2.48864">
        <ele>443</ele>
        <time>2015-04-06T13:33:29Z</time>
      </trkpt>
      <trkpt lat="46.17758" lon="2.4886">
        <ele>443</ele>
        <time>2015-04-06T13:33:31Z</time>
      </trkpt>
      <trkpt lat="46.17755" lon="2.48856">
        <ele>443</ele>
        <time>2015-04-06T13:33:33Z</time>
      </trkpt>
      <trkpt lat="46.17752" lon="2.48853">
        <ele>443</ele>
        <time>2015-04-06T13:33:36Z</time>
      </trkpt>
      <trkpt lat="46.1775" lon="2.4885">
        <ele>443</ele>
        <time>2015-04-06T13:33:38Z</time>
      </trkpt>
      <trkpt lat="46.17748" lon="2.48846">
        <ele>443</ele>
        <time>2015-04-06T13:33:40Z</time>
      </trkpt>
      <trkpt lat="46.17745" lon="2.48841">
        <ele>443</ele>
        <time>2015-04-06T13:33:42Z</time>
      </trkpt>
      <trkpt lat="46.17743" lon="2.48838">
        <ele>443</ele>
        <time>2015-04-06T13:33:44Z</time>
      </trkpt>
      <trkpt lat="46.17741" lon="2.48834">
        <ele>443</ele>
        <time>2015-04-06T13:33:46Z</time>
      </trkpt>
      <trkpt lat="46.17739" lon="2.4883">
        <ele>443</ele>
        <time>2015-04-06T13:33:48Z</time>
      </trkpt>
      <trkpt lat="46.17736" lon="2.48826">
        <ele>443</ele>
        <time>2015-04-06T13:33:50Z</time>
      </trkpt>
      <trkpt lat="46.17735" lon="2.48822">
        <ele>444</ele>
        <time>2015-04-06T13:33:52Z</time>
      </trkpt>
      <trkpt lat="46.17735" lon="2.48819">
        <ele>444</ele>
        <time>2015-04-06T13:33:54Z</time>
      </trkpt>
      <trkpt lat="46.17733" lon="2.48815">
        <ele>446</ele>
        <time>2015-04-06T13:33:56Z</time>
      </trkpt>
      <trkpt lat="46.17732" lon="2.48811">
        <ele>447</ele>
        <time>2015-04-06T13:33:58Z</time>
      </trkpt>
      <trkpt lat="46.17731" lon="2.48806">
        <ele>448</ele>
        <time>2015-04-06T13:34:00Z</time>
      </trkpt>
      <trkpt lat="46.1773" lon="2.48802">
        <ele>448</ele>
        <time>2015-04-06T13:34:02Z</time>
      </trkpt>
      <trkpt lat="46.17729" lon="2.48798">
        <ele>448</ele>
        <time>2015-04-06T13:34:04Z</time>
      </trkpt>
      <trkpt lat="46.17729" lon="2.48794">
        <ele>448</ele>
        <time>2015-04-06T13:34:06Z</time>
      </trkpt>
      <trkpt lat="46.17728" lon="2.4879">
        <ele>448</ele>
        <time>2015-04-06T13:34:08Z</time>
      </trkpt>
      <trkpt lat="46.17728" lon="2.48786">
        <ele>448</ele>
        <time>2015-04-06T13:34:10Z</time>
      </trkpt>
      <trkpt lat="46.17727" lon="2.48781">
        <ele>448</ele>
        <time>2015-04-06T13:34:12Z</time>
      </trkpt>
      <trkpt lat="46.17727" lon="2.48777">
        <ele>448</ele>
        <time>2015-04-06T13:34:14Z</time>
      </trkpt>
      <trkpt lat="46.17726" lon="2.48772">
        <ele>448</ele>
        <time>2015-04-06T13:34:16Z</time>
      </trkpt>
      <trkpt lat="46.17725" lon="2.48767">
        <ele>448</ele>
        <time>2015-04-06T13:34:18Z</time>
      </trkpt>
      <trkpt lat="46.17724" lon="2.48763">
        <ele>448</ele>
        <time>2015-04-06T13:34:20Z</time>
      </trkpt>
      <trkpt lat="46.17723" lon="2.48759">
        <ele>448</ele>
        <time>2015-04-06T13:34:22Z</time>
      </trkpt>
      <trkpt lat="46.17723" lon="2.48755">
        <ele>448</ele>
        <time>2015-04-06T13:34:24Z</time>
      </trkpt>
      <trkpt lat="46.17722" lon="2.4875">
        <ele>448</ele>
        <time>2015-04-06T13:34:26Z</time>
      </trkpt>
      <trkpt lat="46.17721" lon="2.48746">
        <ele>448</ele>
        <time>2015-04-06T13:34:28Z</time>
      </trkpt>
      <trkpt lat="46.1772" lon="2.48742">
        <ele>448</ele>
        <time>2015-04-06T13:34:30Z</time>
      </trkpt>
      <trkpt lat="46.17718" lon="2.48738">
        <ele>448</ele>
        <time>2015-04-06T13:34:32Z</time>
      </trkpt>
      <trkpt lat="46.17716" lon="2.48733">
        <ele>448</ele>
        <time>2015-04-06T13:34:34Z</time>
      </trkpt>
      <trkpt lat="46.17715" lon="2.48729">
        <ele>448</ele>
        <time>2015-04-06T13:34:36Z</time>
      </trkpt>
      <trkpt lat="46.17714" lon="2.48725">
        <ele>448</ele>
        <time>2015-04-06T13:34:38Z</time>
      </trkpt>
      <trkpt lat="46.17713" lon="2.4872">
        <ele>448</ele>
        <time>2015-04-06T13:34:40Z</time>
      </trkpt>
      <trkpt lat="46.17713" lon="2.48716">
        <ele>448</ele>
        <time>2015-04-06T13:34:42Z</time>
      </trkpt>
      <trkpt lat="46.17712" lon="2.48712">
        <ele>448</ele>
        <time>2015-04-06T13:34:44Z</time>
      </trkpt>
      <trkpt lat="46.17712" lon="2.48709">
        <ele>448</ele>
        <time>2015-04-06T13:34:46Z</time>
      </trkpt>
      <trkpt lat="46.17712" lon="2.48704">
        <ele>448</ele>
        <time>2015-04-06T13:34:48Z</time>
      </trkpt>
      <trkpt lat="46.17712" lon="2.487">
        <ele>448</ele>
        <time>2015-04-06T13:34:50Z</time>
      </trkpt>
      <trkpt lat="46.17712" lon="2.48696">
        <ele>448</ele>
        <time>2015-04-06T13:34:52Z</time>
      </trkpt>
      <trkpt lat="46.17713" lon="2.48692">
        <ele>448</ele>
        <time>2015-04-06T13:34:54Z</time>
      </trkpt>
      <trkpt lat="46.17713" lon="2.48687">
        <ele>449</ele>
        <time>2015-04-06T13:34:56Z</time>
      </trkpt>
      <trkpt lat="46.17713" lon="2.48683">
        <ele>449</ele>
        <time>2015-04-06T13:34:58Z</time>
      </trkpt>
      <trkpt lat="46.17713" lon="2.48679">
        <ele>449</ele>
        <time>2015-04-06T13:35:00Z</time>
      </trkpt>
      <trkpt lat="46.17713" lon="2.48674">
        <ele>449</ele>
        <time>2015-04-06T13:35:02Z</time>
      </trkpt>
      <trkpt lat="46.17713" lon="2.4867">
        <ele>449</ele>
        <time>2015-04-06T13:35:04Z</time>
      </trkpt>
      <trkpt lat="46.17713" lon="2.48665">
        <ele>449</ele>
        <time>2015-04-06T13:35:06Z</time>
      </trkpt>
      <trkpt lat="46.17714" lon="2.48661">
        <ele>449</ele>
        <time>2015-04-06T13:35:08Z</time>
      </trkpt>
      <trkpt lat="46.17714" lon="2.48657">
        <ele>449</ele>
        <time>2015-04-06T13:35:10Z</time>
      </trkpt>
      <trkpt lat="46.17714" lon="2.48652">
        <ele>449</ele>
        <time>2015-04-06T13:35:12Z</time>
      </trkpt>
      <trkpt lat="46.17713" lon="2.48647">
        <ele>449</ele>
        <time>2015-04-06T13:35:14Z</time>
      </trkpt>
      <trkpt lat="46.17712" lon="2.48642">
        <ele>449</ele>
        <time>2015-04-06T13:35:16Z</time>
      </trkpt>
      <trkpt lat="46.17712" lon="2.48638">
        <ele>449</ele>
        <time>2015-04-06T13:35:18Z</time>
      </trkpt>
      <trkpt lat="46.17712" lon="2.48634">
        <ele>449</ele>
        <time>2015-04-06T13:35:20Z</time>
      </trkpt>
      <trkpt lat="46.17712" lon="2.4863">
        <ele>449</ele>
        <time>2015-04-06T13:35:22Z</time>
      </trkpt>
      <trkpt lat="46.17712" lon="2.48626">
        <ele>449</ele>
        <time>2015-04-06T13:35:24Z</time>
      </trkpt>
      <trkpt lat="46.17712" lon="2.48621">
        <ele>449</ele>
        <time>2015-04-06T13:35:26Z</time>
      </trkpt>
      <trkpt lat="46.17711" lon="2.48617">
        <ele>449</ele>
        <time>2015-04-06T13:35:28Z</time>
      </trkpt>
      <trkpt lat="46.17711" lon="2.48613">
        <ele>449</ele>
        <time>2015-04-06T13:35:30Z</time>
      </trkpt>
      <trkpt lat="46.1771" lon="2.48609">
        <ele>449</ele>
        <time>2015-04-06T13:35:32Z</time>
      </trkpt>
      <trkpt lat="46.17709" lon="2.48604">
        <ele>449</ele>
        <time>2015-04-06T13:35:34Z</time>
      </trkpt>
      <trkpt lat="46.17709" lon="2.486">
        <ele>449</ele>
        <time>2015-04-06T13:35:36Z</time>
      </trkpt>
      <trkpt lat="46.17711" lon="2.48595">
        <ele>449</ele>
        <time>2015-04-06T13:35:38Z</time>
      </trkpt>
      <trkpt lat="46.17712" lon="2.4859">
        <ele>449</ele>
        <time>2015-04-06T13:35:40Z</time>
      </trkpt>
      <trkpt lat="46.17713" lon="2.48585">
        <ele>449</ele>
        <time>2015-04-06T13:35:42Z</time>
      </trkpt>
      <trkpt lat="46.17714" lon="2.48581">
        <ele>449</ele>
        <time>2015-04-06T13:35:44Z</time>
      </trkpt>
      <trkpt lat="46.17714" lon="2.48576">
        <ele>449</ele>
        <time>2015-04-06T13:35:46Z</time>
      </trkpt>
      <trkpt lat="46.17714" lon="2.48571">
        <ele>449</ele>
        <time>2015-04-06T13:35:48Z</time>
      </trkpt>
      <trkpt lat="46.17714" lon="2.48567">
        <ele>449</ele>
        <time>2015-04-06T13:35:50Z</time>
      </trkpt>
      <trkpt lat="46.17717" lon="2.48563">
        <ele>449</ele>
        <time>2015-04-06T13:35:52Z</time>
      </trkpt>
      <trkpt lat="46.1772" lon="2.48557">
        <ele>449</ele>
        <time>2015-04-06T13:35:54Z</time>
      </trkpt>
      <trkpt lat="46.1772" lon="2.48553">
        <ele>449</ele>
        <time>2015-04-06T13:35:56Z</time>
      </trkpt>
      <trkpt lat="46.1772" lon="2.4855">
        <ele>449</ele>
        <time>2015-04-06T13:35:58Z</time>
      </trkpt>
      <trkpt lat="46.1772" lon="2.48545">
        <ele>449</ele>
        <time>2015-04-06T13:36:00Z</time>
      </trkpt>
      <trkpt lat="46.1772" lon="2.48541">
        <ele>449</ele>
        <time>2015-04-06T13:36:02Z</time>
      </trkpt>
      <trkpt lat="46.1772" lon="2.48537">
        <ele>449</ele>
        <time>2015-04-06T13:36:04Z</time>
      </trkpt>
      <trkpt lat="46.17719" lon="2.48533">
        <ele>449</ele>
        <time>2015-04-06T13:36:06Z</time>
      </trkpt>
      <trkpt lat="46.17719" lon="2.48529">
        <ele>449</ele>
        <time>2015-04-06T13:36:08Z</time>
      </trkpt>
      <trkpt lat="46.17719" lon="2.48525">
        <ele>449</ele>
        <time>2015-04-06T13:36:10Z</time>
      </trkpt>
      <trkpt lat="46.17719" lon="2.48521">
        <ele>449</ele>
        <time>2015-04-06T13:36:12Z</time>
      </trkpt>
      <trkpt lat="46.17719" lon="2.48517">
        <ele>449</ele>
        <time>2015-04-06T13:36:14Z</time>
      </trkpt>
      <trkpt lat="46.17718" lon="2.48513">
        <ele>449</ele>
        <time>2015-04-06T13:36:16Z</time>
      </trkpt>
      <trkpt lat="46.17718" lon="2.48509">
        <ele>449</ele>
        <time>2015-04-06T13:36:18Z</time>
      </trkpt>
      <trkpt lat="46.17718" lon="2.48504">
        <ele>449</ele>
        <time>2015-04-06T13:36:20Z</time>
      </trkpt>
      <trkpt lat="46.17717" lon="2.485">
        <ele>449</ele>
        <time>2015-04-06T13:36:22Z</time>
      </trkpt>
      <trkpt lat="46.17717" lon="2.48496">
        <ele>449</ele>
        <time>2015-04-06T13:36:24Z</time>
      </trkpt>
      <trkpt lat="46.17716" lon="2.48492">
        <ele>449</ele>
        <time>2015-04-06T13:36:26Z</time>
      </trkpt>
      <trkpt lat="46.17715" lon="2.48488">
        <ele>449</ele>
        <time>2015-04-06T13:36:28Z</time>
      </trkpt>
      <trkpt lat="46.17715" lon="2.48484">
        <ele>449</ele>
        <time>2015-04-06T13:36:30Z</time>
      </trkpt>
      <trkpt lat="46.17714" lon="2.4848">
        <ele>449</ele>
        <time>2015-04-06T13:36:32Z</time>
      </trkpt>
      <trkpt lat="46.17712" lon="2.48477">
        <ele>450</ele>
        <time>2015-04-06T13:36:34Z</time>
      </trkpt>
      <trkpt lat="46.17712" lon="2.48473">
        <ele>450</ele>
        <time>2015-04-06T13:36:36Z</time>
      </trkpt>
      <trkpt lat="46.17711" lon="2.48469">
        <ele>451</ele>
        <time>2015-04-06T13:36:38Z</time>
      </trkpt>
      <trkpt lat="46.17709" lon="2.48466">
        <ele>451</ele>
        <time>2015-04-06T13:36:40Z</time>
      </trkpt>
      <trkpt lat="46.17706" lon="2.48463">
        <ele>451</ele>
        <time>2015-04-06T13:36:43Z</time>
      </trkpt>
      <trkpt lat="46.17703" lon="2.4846">
        <ele>451</ele>
        <time>2015-04-06T13:36:45Z</time>
      </trkpt>
      <trkpt lat="46.17699" lon="2.48455">
        <ele>451</ele>
        <time>2015-04-06T13:36:48Z</time>
      </trkpt>
      <trkpt lat="46.17697" lon="2.4845">
        <ele>451</ele>
        <time>2015-04-06T13:36:51Z</time>
      </trkpt>
      <trkpt lat="46.17696" lon="2.48446">
        <ele>451</ele>
        <time>2015-04-06T13:36:53Z</time>
      </trkpt>
      <trkpt lat="46.17696" lon="2.48442">
        <ele>451</ele>
        <time>2015-04-06T13:36:55Z</time>
      </trkpt>
      <trkpt lat="46.17696" lon="2.48438">
        <ele>451</ele>
        <time>2015-04-06T13:36:57Z</time>
      </trkpt>
      <trkpt lat="46.17696" lon="2.48433">
        <ele>451</ele>
        <time>2015-04-06T13:36:59Z</time>
      </trkpt>
      <trkpt lat="46.17696" lon="2.48428">
        <ele>451</ele>
        <time>2015-04-06T13:37:01Z</time>
      </trkpt>
      <trkpt lat="46.17698" lon="2.48424">
        <ele>451</ele>
        <time>2015-04-06T13:37:03Z</time>
      </trkpt>
      <trkpt lat="46.17698" lon="2.4842">
        <ele>451</ele>
        <time>2015-04-06T13:37:05Z</time>
      </trkpt>
      <trkpt lat="46.17697" lon="2.48416">
        <ele>451</ele>
        <time>2015-04-06T13:37:07Z</time>
      </trkpt>
      <trkpt lat="46.17697" lon="2.48411">
        <ele>451</ele>
        <time>2015-04-06T13:37:09Z</time>
      </trkpt>
      <trkpt lat="46.17699" lon="2.48408">
        <ele>451</ele>
        <time>2015-04-06T13:37:11Z</time>
      </trkpt>
      <trkpt lat="46.177" lon="2.48404">
        <ele>451</ele>
        <time>2015-04-06T13:37:13Z</time>
      </trkpt>
      <trkpt lat="46.17701" lon="2.484">
        <ele>451</ele>
        <time>2015-04-06T13:37:15Z</time>
      </trkpt>
      <trkpt lat="46.17702" lon="2.48397">
        <ele>451</ele>
        <time>2015-04-06T13:37:17Z</time>
      </trkpt>
      <trkpt lat="46.17703" lon="2.48393">
        <ele>451</ele>
        <time>2015-04-06T13:37:19Z</time>
      </trkpt>
      <trkpt lat="46.17704" lon="2.48389">
        <ele>451</ele>
        <time>2015-04-06T13:37:21Z</time>
      </trkpt>
      <trkpt lat="46.17706" lon="2.48384">
        <ele>452</ele>
        <time>2015-04-06T13:37:23Z</time>
      </trkpt>
      <trkpt lat="46.17708" lon="2.48381">
        <ele>453</ele>
        <time>2015-04-06T13:37:25Z</time>
      </trkpt>
      <trkpt lat="46.17711" lon="2.48378">
        <ele>454</ele>
        <time>2015-04-06T13:37:27Z</time>
      </trkpt>
      <trkpt lat="46.17713" lon="2.48373">
        <ele>455</ele>
        <time>2015-04-06T13:37:29Z</time>
      </trkpt>
      <trkpt lat="46.17715" lon="2.48369">
        <ele>455</ele>
        <time>2015-04-06T13:37:31Z</time>
      </trkpt>
      <trkpt lat="46.17717" lon="2.48365">
        <ele>456</ele>
        <time>2015-04-06T13:37:33Z</time>
      </trkpt>
      <trkpt lat="46.17718" lon="2.48362">
        <ele>457</ele>
        <time>2015-04-06T13:37:35Z</time>
      </trkpt>
      <trkpt lat="46.1772" lon="2.48358">
        <ele>457</ele>
        <time>2015-04-06T13:37:37Z</time>
      </trkpt>
      <trkpt lat="46.17721" lon="2.48355">
        <ele>457</ele>
        <time>2015-04-06T13:37:39Z</time>
      </trkpt>
      <trkpt lat="46.17724" lon="2.4835">
        <ele>457</ele>
        <time>2015-04-06T13:37:42Z</time>
      </trkpt>
      <trkpt lat="46.17726" lon="2.48348">
        <ele>457</ele>
        <time>2015-04-06T13:37:44Z</time>
      </trkpt>
      <trkpt lat="46.17729" lon="2.48346">
        <ele>457</ele>
        <time>2015-04-06T13:37:46Z</time>
      </trkpt>
      <trkpt lat="46.17732" lon="2.48345">
        <ele>457</ele>
        <time>2015-04-06T13:37:48Z</time>
      </trkpt>
      <trkpt lat="46.17734" lon="2.48342">
        <ele>457</ele>
        <time>2015-04-06T13:37:50Z</time>
      </trkpt>
      <trkpt lat="46.17735" lon="2.48339">
        <ele>457</ele>
        <time>2015-04-06T13:37:52Z</time>
      </trkpt>
      <trkpt lat="46.17736" lon="2.48335">
        <ele>457</ele>
        <time>2015-04-06T13:37:54Z</time>
      </trkpt>
      <trkpt lat="46.17737" lon="2.48331">
        <ele>457</ele>
        <time>2015-04-06T13:37:56Z</time>
      </trkpt>
      <trkpt lat="46.17739" lon="2.48328">
        <ele>457</ele>
        <time>2015-04-06T13:37:58Z</time>
      </trkpt>
      <trkpt lat="46.17741" lon="2.48326">
        <ele>457</ele>
        <time>2015-04-06T13:38:00Z</time>
      </trkpt>
      <trkpt lat="46.17743" lon="2.48323">
        <ele>457</ele>
        <time>2015-04-06T13:38:02Z</time>
      </trkpt>
      <trkpt lat="46.17745" lon="2.48319">
        <ele>457</ele>
        <time>2015-04-06T13:38:04Z</time>
      </trkpt>
      <trkpt lat="46.17747" lon="2.48317">
        <ele>457</ele>
        <time>2015-04-06T13:38:06Z</time>
      </trkpt>
      <trkpt lat="46.1775" lon="2.48314">
        <ele>457</ele>
        <time>2015-04-06T13:38:08Z</time>
      </trkpt>
      <trkpt lat="46.17754" lon="2.4831">
        <ele>456</ele>
        <time>2015-04-06T13:38:11Z</time>
      </trkpt>
      <trkpt lat="46.17756" lon="2.48308">
        <ele>456</ele>
        <time>2015-04-06T13:38:13Z</time>
      </trkpt>
      <trkpt lat="46.17759" lon="2.48306">
        <ele>455</ele>
        <time>2015-04-06T13:38:15Z</time>
      </trkpt>
      <trkpt lat="46.17762" lon="2.48304">
        <ele>455</ele>
        <time>2015-04-06T13:38:17Z</time>
      </trkpt>
      <trkpt lat="46.17765" lon="2.48302">
        <ele>455</ele>
        <time>2015-04-06T13:38:19Z</time>
      </trkpt>
      <trkpt lat="46.17768" lon="2.483">
        <ele>455</ele>
        <time>2015-04-06T13:38:21Z</time>
      </trkpt>
      <trkpt lat="46.1777" lon="2.48296">
        <ele>454</ele>
        <time>2015-04-06T13:38:23Z</time>
      </trkpt>
      <trkpt lat="46.17773" lon="2.48294">
        <ele>453</ele>
        <time>2015-04-06T13:38:25Z</time>
      </trkpt>
      <trkpt lat="46.17776" lon="2.48291">
        <ele>453</ele>
        <time>2015-04-06T13:38:27Z</time>
      </trkpt>
      <trkpt lat="46.17778" lon="2.48288">
        <ele>453</ele>
        <time>2015-04-06T13:38:29Z</time>
      </trkpt>
      <trkpt lat="46.17781" lon="2.48286">
        <ele>452</ele>
        <time>2015-04-06T13:38:31Z</time>
      </trkpt>
      <trkpt lat="46.17784" lon="2.48283">
        <ele>452</ele>
        <time>2015-04-06T13:38:33Z</time>
      </trkpt>
      <trkpt lat="46.17787" lon="2.4828">
        <ele>452</ele>
        <time>2015-04-06T13:38:35Z</time>
      </trkpt>
      <trkpt lat="46.17789" lon="2.48277">
        <ele>452</ele>
        <time>2015-04-06T13:38:37Z</time>
      </trkpt>
      <trkpt lat="46.17792" lon="2.48274">
        <ele>452</ele>
        <time>2015-04-06T13:38:39Z</time>
      </trkpt>
      <trkpt lat="46.17795" lon="2.48272">
        <ele>452</ele>
        <time>2015-04-06T13:38:41Z</time>
      </trkpt>
      <trkpt lat="46.17798" lon="2.48268">
        <ele>452</ele>
        <time>2015-04-06T13:38:43Z</time>
      </trkpt>
      <trkpt lat="46.178" lon="2.48265">
        <ele>452</ele>
        <time>2015-04-06T13:38:45Z</time>
      </trkpt>
      <trkpt lat="46.17802" lon="2.48262">
        <ele>452</ele>
        <time>2015-04-06T13:38:47Z</time>
      </trkpt>
      <trkpt lat="46.17804" lon="2.48259">
        <ele>452</ele>
        <time>2015-04-06T13:38:49Z</time>
      </trkpt>
      <trkpt lat="46.17807" lon="2.48256">
        <ele>452</ele>
        <time>2015-04-06T13:38:51Z</time>
      </trkpt>
      <trkpt lat="46.1781" lon="2.48253">
        <ele>452</ele>
        <time>2015-04-06T13:38:53Z</time>
      </trkpt>
      <trkpt lat="46.17812" lon="2.48251">
        <ele>452</ele>
        <time>2015-04-06T13:38:55Z</time>
      </trkpt>
      <trkpt lat="46.17815" lon="2.48248">
        <ele>452</ele>
        <time>2015-04-06T13:38:57Z</time>
      </trkpt>
      <trkpt lat="46.17817" lon="2.48246">
        <ele>452</ele>
        <time>2015-04-06T13:38:59Z</time>
      </trkpt>
      <trkpt lat="46.17819" lon="2.48244">
        <ele>452</ele>
        <time>2015-04-06T13:39:01Z</time>
      </trkpt>
      <trkpt lat="46.17823" lon="2.4824">
        <ele>452</ele>
        <time>2015-04-06T13:39:04Z</time>
      </trkpt>
      <trkpt lat="46.17826" lon="2.48236">
        <ele>452</ele>
        <time>2015-04-06T13:39:07Z</time>
      </trkpt>
      <trkpt lat="46.17829" lon="2.48232">
        <ele>451</ele>
        <time>2015-04-06T13:39:10Z</time>
      </trkpt>
      <trkpt lat="46.17833" lon="2.48229">
        <ele>451</ele>
        <time>2015-04-06T13:39:13Z</time>
      </trkpt>
      <trkpt lat="46.17835" lon="2.48226">
        <ele>451</ele>
        <time>2015-04-06T13:39:15Z</time>
      </trkpt>
      <trkpt lat="46.17838" lon="2.48224">
        <ele>451</ele>
        <time>2015-04-06T13:39:17Z</time>
      </trkpt>
      <trkpt lat="46.1784" lon="2.48221">
        <ele>451</ele>
        <time>2015-04-06T13:39:19Z</time>
      </trkpt>
      <trkpt lat="46.17843" lon="2.48219">
        <ele>451</ele>
        <time>2015-04-06T13:39:21Z</time>
      </trkpt>
      <trkpt lat="46.17845" lon="2.48217">
        <ele>451</ele>
        <time>2015-04-06T13:39:23Z</time>
      </trkpt>
      <trkpt lat="46.17847" lon="2.48215">
        <ele>451</ele>
        <time>2015-04-06T13:39:25Z</time>
      </trkpt>
      <trkpt lat="46.1785" lon="2.48213">
        <ele>451</ele>
        <time>2015-04-06T13:39:27Z</time>
      </trkpt>
      <trkpt lat="46.17852" lon="2.48211">
        <ele>451</ele>
        <time>2015-04-06T13:39:29Z</time>
      </trkpt>
      <trkpt lat="46.17855" lon="2.48209">
        <ele>451</ele>
        <time>2015-04-06T13:39:31Z</time>
      </trkpt>
      <trkpt lat="46.17858" lon="2.48207">
        <ele>451</ele>
        <time>2015-04-06T13:39:33Z</time>
      </trkpt>
      <trkpt lat="46.17861" lon="2.48205">
        <ele>451</ele>
        <time>2015-04-06T13:39:35Z</time>
      </trkpt>
      <trkpt lat="46.17863" lon="2.48203">
        <ele>451</ele>
        <time>2015-04-06T13:39:37Z</time>
      </trkpt>
      <trkpt lat="46.17865" lon="2.482">
        <ele>451</ele>
        <time>2015-04-06T13:39:39Z</time>
      </trkpt>
      <trkpt lat="46.17868" lon="2.48195">
        <ele>451</ele>
        <time>2015-04-06T13:39:42Z</time>
      </trkpt>
      <trkpt lat="46.1787" lon="2.48192">
        <ele>451</ele>
        <time>2015-04-06T13:39:44Z</time>
      </trkpt>
      <trkpt lat="46.17872" lon="2.48189">
        <ele>451</ele>
        <time>2015-04-06T13:39:46Z</time>
      </trkpt>
      <trkpt lat="46.17874" lon="2.48186">
        <ele>451</ele>
        <time>2015-04-06T13:39:48Z</time>
      </trkpt>
      <trkpt lat="46.17876" lon="2.48183">
        <ele>451</ele>
        <time>2015-04-06T13:39:50Z</time>
      </trkpt>
      <trkpt lat="46.17878" lon="2.48179">
        <ele>451</ele>
        <time>2015-04-06T13:39:52Z</time>
      </trkpt>
      <trkpt lat="46.17879" lon="2.48176">
        <ele>451</ele>
        <time>2015-04-06T13:39:54Z</time>
      </trkpt>
      <trkpt lat="46.17881" lon="2.48172">
        <ele>451</ele>
        <time>2015-04-06T13:39:56Z</time>
      </trkpt>
      <trkpt lat="46.17883" lon="2.48168">
        <ele>451</ele>
        <time>2015-04-06T13:39:58Z</time>
      </trkpt>
      <trkpt lat="46.17884" lon="2.48165">
        <ele>451</ele>
        <time>2015-04-06T13:40:00Z</time>
      </trkpt>
      <trkpt lat="46.17888" lon="2.48162">
        <ele>451</ele>
        <time>2015-04-06T13:40:02Z</time>
      </trkpt>
      <trkpt lat="46.17889" lon="2.48159">
        <ele>451</ele>
        <time>2015-04-06T13:40:04Z</time>
      </trkpt>
      <trkpt lat="46.1789" lon="2.48155">
        <ele>451</ele>
        <time>2015-04-06T13:40:06Z</time>
      </trkpt>
      <trkpt lat="46.17892" lon="2.48151">
        <ele>451</ele>
        <time>2015-04-06T13:40:08Z</time>
      </trkpt>
      <trkpt lat="46.17893" lon="2.48147">
        <ele>451</ele>
        <time>2015-04-06T13:40:10Z</time>
      </trkpt>
      <trkpt lat="46.17895" lon="2.48144">
        <ele>451</ele>
        <time>2015-04-06T13:40:12Z</time>
      </trkpt>
      <trkpt lat="46.17897" lon="2.4814">
        <ele>451</ele>
        <time>2015-04-06T13:40:14Z</time>
      </trkpt>
      <trkpt lat="46.17898" lon="2.48136">
        <ele>451</ele>
        <time>2015-04-06T13:40:16Z</time>
      </trkpt>
      <trkpt lat="46.179" lon="2.48133">
        <ele>451</ele>
        <time>2015-04-06T13:40:18Z</time>
      </trkpt>
      <trkpt lat="46.17901" lon="2.48129">
        <ele>451</ele>
        <time>2015-04-06T13:40:20Z</time>
      </trkpt>
      <trkpt lat="46.17903" lon="2.48125">
        <ele>451</ele>
        <time>2015-04-06T13:40:22Z</time>
      </trkpt>
      <trkpt lat="46.17904" lon="2.48121">
        <ele>451</ele>
        <time>2015-04-06T13:40:24Z</time>
      </trkpt>
      <trkpt lat="46.17905" lon="2.48117">
        <ele>451</ele>
        <time>2015-04-06T13:40:26Z</time>
      </trkpt>
      <trkpt lat="46.17906" lon="2.48113">
        <ele>451</ele>
        <time>2015-04-06T13:40:28Z</time>
      </trkpt>
      <trkpt lat="46.17907" lon="2.48109">
        <ele>451</ele>
        <time>2015-04-06T13:40:30Z</time>
      </trkpt>
      <trkpt lat="46.17908" lon="2.48105">
        <ele>451</ele>
        <time>2015-04-06T13:40:32Z</time>
      </trkpt>
      <trkpt lat="46.1791" lon="2.48101">
        <ele>451</ele>
        <time>2015-04-06T13:40:34Z</time>
      </trkpt>
      <trkpt lat="46.17912" lon="2.48097">
        <ele>451</ele>
        <time>2015-04-06T13:40:36Z</time>
      </trkpt>
      <trkpt lat="46.17913" lon="2.48093">
        <ele>451</ele>
        <time>2015-04-06T13:40:38Z</time>
      </trkpt>
      <trkpt lat="46.17914" lon="2.4809">
        <ele>451</ele>
        <time>2015-04-06T13:40:40Z</time>
      </trkpt>
      <trkpt lat="46.17915" lon="2.48085">
        <ele>451</ele>
        <time>2015-04-06T13:40:42Z</time>
      </trkpt>
      <trkpt lat="46.17917" lon="2.48081">
        <ele>451</ele>
        <time>2015-04-06T13:40:44Z</time>
      </trkpt>
      <trkpt lat="46.17918" lon="2.48077">
        <ele>451</ele>
        <time>2015-04-06T13:40:46Z</time>
      </trkpt>
      <trkpt lat="46.17919" lon="2.48073">
        <ele>451</ele>
        <time>2015-04-06T13:40:48Z</time>
      </trkpt>
      <trkpt lat="46.1792" lon="2.48069">
        <ele>451</ele>
        <time>2015-04-06T13:40:50Z</time>
      </trkpt>
      <trkpt lat="46.17921" lon="2.48065">
        <ele>451</ele>
        <time>2015-04-06T13:40:52Z</time>
      </trkpt>
      <trkpt lat="46.17921" lon="2.48061">
        <ele>451</ele>
        <time>2015-04-06T13:40:54Z</time>
      </trkpt>
      <trkpt lat="46.17922" lon="2.48057">
        <ele>451</ele>
        <time>2015-04-06T13:40:56Z</time>
      </trkpt>
      <trkpt lat="46.17923" lon="2.48053">
        <ele>451</ele>
        <time>2015-04-06T13:40:58Z</time>
      </trkpt>
      <trkpt lat="46.17924" lon="2.48049">
        <ele>451</ele>
        <time>2015-04-06T13:41:00Z</time>
      </trkpt>
      <trkpt lat="46.17924" lon="2.48045">
        <ele>451</ele>
        <time>2015-04-06T13:41:02Z</time>
      </trkpt>
      <trkpt lat="46.17925" lon="2.48041">
        <ele>451</ele>
        <time>2015-04-06T13:41:04Z</time>
      </trkpt>
      <trkpt lat="46.17926" lon="2.48037">
        <ele>451</ele>
        <time>2015-04-06T13:41:06Z</time>
      </trkpt>
      <trkpt lat="46.17927" lon="2.48032">
        <ele>451</ele>
        <time>2015-04-06T13:41:08Z</time>
      </trkpt>
      <trkpt lat="46.17927" lon="2.48028">
        <ele>451</ele>
        <time>2015-04-06T13:41:10Z</time>
      </trkpt>
      <trkpt lat="46.17928" lon="2.48023">
        <ele>451</ele>
        <time>2015-04-06T13:41:12Z</time>
      </trkpt>
      <trkpt lat="46.17928" lon="2.48019">
        <ele>451</ele>
        <time>2015-04-06T13:41:14Z</time>
      </trkpt>
      <trkpt lat="46.17928" lon="2.48015">
        <ele>451</ele>
        <time>2015-04-06T13:41:16Z</time>
      </trkpt>
      <trkpt lat="46.17928" lon="2.4801">
        <ele>451</ele>
        <time>2015-04-06T13:41:18Z</time>
      </trkpt>
      <trkpt lat="46.17929" lon="2.48007">
        <ele>451</ele>
        <time>2015-04-06T13:41:20Z</time>
      </trkpt>
      <trkpt lat="46.17929" lon="2.48002">
        <ele>451</ele>
        <time>2015-04-06T13:41:22Z</time>
      </trkpt>
      <trkpt lat="46.1793" lon="2.47998">
        <ele>451</ele>
        <time>2015-04-06T13:41:24Z</time>
      </trkpt>
      <trkpt lat="46.1793" lon="2.47993">
        <ele>451</ele>
        <time>2015-04-06T13:41:26Z</time>
      </trkpt>
      <trkpt lat="46.17931" lon="2.47989">
        <ele>451</ele>
        <time>2015-04-06T13:41:28Z</time>
      </trkpt>
      <trkpt lat="46.17931" lon="2.47985">
        <ele>451</ele>
        <time>2015-04-06T13:41:30Z</time>
      </trkpt>
      <trkpt lat="46.17931" lon="2.4798">
        <ele>451</ele>
        <time>2015-04-06T13:41:32Z</time>
      </trkpt>
      <trkpt lat="46.17932" lon="2.47976">
        <ele>451</ele>
        <time>2015-04-06T13:41:34Z</time>
      </trkpt>
      <trkpt lat="46.17932" lon="2.47972">
        <ele>451</ele>
        <time>2015-04-06T13:41:36Z</time>
      </trkpt>
      <trkpt lat="46.17933" lon="2.47968">
        <ele>451</ele>
        <time>2015-04-06T13:41:38Z</time>
      </trkpt>
      <trkpt lat="46.17933" lon="2.47964">
        <ele>451</ele>
        <time>2015-04-06T13:41:40Z</time>
      </trkpt>
      <trkpt lat="46.17933" lon="2.47959">
        <ele>451</ele>
        <time>2015-04-06T13:41:42Z</time>
      </trkpt>
      <trkpt lat="46.17934" lon="2.47955">
        <ele>451</ele>
        <time>2015-04-06T13:41:44Z</time>
      </trkpt>
      <trkpt lat="46.17934" lon="2.47951">
        <ele>451</ele>
        <time>2015-04-06T13:41:46Z</time>
      </trkpt>
      <trkpt lat="46.17934" lon="2.47947">
        <ele>451</ele>
        <time>2015-04-06T13:41:48Z</time>
      </trkpt>
      <trkpt lat="46.17935" lon="2.47943">
        <ele>451</ele>
        <time>2015-04-06T13:41:50Z</time>
      </trkpt>
      <trkpt lat="46.17935" lon="2.4794">
        <ele>451</ele>
        <time>2015-04-06T13:41:52Z</time>
      </trkpt>
      <trkpt lat="46.17936" lon="2.47936">
        <ele>451</ele>
        <time>2015-04-06T13:41:54Z</time>
      </trkpt>
      <trkpt lat="46.17936" lon="2.47932">
        <ele>451</ele>
        <time>2015-04-06T13:41:56Z</time>
      </trkpt>
      <trkpt lat="46.17938" lon="2.47927">
        <ele>451</ele>
        <time>2015-04-06T13:41:58Z</time>
      </trkpt>
      <trkpt lat="46.17939" lon="2.47923">
        <ele>451</ele>
        <time>2015-04-06T13:42:00Z</time>
      </trkpt>
      <trkpt lat="46.17939" lon="2.47919">
        <ele>451</ele>
        <time>2015-04-06T13:42:02Z</time>
      </trkpt>
      <trkpt lat="46.1794" lon="2.47915">
        <ele>451</ele>
        <time>2015-04-06T13:42:04Z</time>
      </trkpt>
      <trkpt lat="46.17941" lon="2.4791">
        <ele>451</ele>
        <time>2015-04-06T13:42:06Z</time>
      </trkpt>
      <trkpt lat="46.17942" lon="2.47906">
        <ele>451</ele>
        <time>2015-04-06T13:42:08Z</time>
      </trkpt>
      <trkpt lat="46.17943" lon="2.47903">
        <ele>451</ele>
        <time>2015-04-06T13:42:10Z</time>
      </trkpt>
      <trkpt lat="46.17945" lon="2.47898">
        <ele>451</ele>
        <time>2015-04-06T13:42:12Z</time>
      </trkpt>
      <trkpt lat="46.17946" lon="2.47894">
        <ele>451</ele>
        <time>2015-04-06T13:42:14Z</time>
      </trkpt>
      <trkpt lat="46.17947" lon="2.4789">
        <ele>451</ele>
        <time>2015-04-06T13:42:16Z</time>
      </trkpt>
      <trkpt lat="46.17947" lon="2.47886">
        <ele>451</ele>
        <time>2015-04-06T13:42:18Z</time>
      </trkpt>
      <trkpt lat="46.17948" lon="2.47882">
        <ele>451</ele>
        <time>2015-04-06T13:42:20Z</time>
      </trkpt>
      <trkpt lat="46.17949" lon="2.47878">
        <ele>451</ele>
        <time>2015-04-06T13:42:22Z</time>
      </trkpt>
      <trkpt lat="46.1795" lon="2.47874">
        <ele>451</ele>
        <time>2015-04-06T13:42:24Z</time>
      </trkpt>
      <trkpt lat="46.17951" lon="2.47869">
        <ele>451</ele>
        <time>2015-04-06T13:42:26Z</time>
      </trkpt>
      <trkpt lat="46.17952" lon="2.47865">
        <ele>451</ele>
        <time>2015-04-06T13:42:28Z</time>
      </trkpt>
      <trkpt lat="46.17952" lon="2.47861">
        <ele>451</ele>
        <time>2015-04-06T13:42:30Z</time>
      </trkpt>
      <trkpt lat="46.17953" lon="2.47857">
        <ele>451</ele>
        <time>2015-04-06T13:42:32Z</time>
      </trkpt>
      <trkpt lat="46.17954" lon="2.47853">
        <ele>451</ele>
        <time>2015-04-06T13:42:34Z</time>
      </trkpt>
      <trkpt lat="46.17955" lon="2.47849">
        <ele>451</ele>
        <time>2015-04-06T13:42:36Z</time>
      </trkpt>
      <trkpt lat="46.17955" lon="2.47845">
        <ele>451</ele>
        <time>2015-04-06T13:42:38Z</time>
      </trkpt>
      <trkpt lat="46.17956" lon="2.47841">
        <ele>451</ele>
        <time>2015-04-06T13:42:40Z</time>
      </trkpt>
      <trkpt lat="46.17957" lon="2.47836">
        <ele>451</ele>
        <time>2015-04-06T13:42:42Z</time>
      </trkpt>
      <trkpt lat="46.17957" lon="2.47832">
        <ele>451</ele>
        <time>2015-04-06T13:42:44Z</time>
      </trkpt>
      <trkpt lat="46.17958" lon="2.47828">
        <ele>451</ele>
        <time>2015-04-06T13:42:46Z</time>
      </trkpt>
      <trkpt lat="46.17958" lon="2.47824">
        <ele>451</ele>
        <time>2015-04-06T13:42:48Z</time>
      </trkpt>
      <trkpt lat="46.17959" lon="2.4782">
        <ele>451</ele>
        <time>2015-04-06T13:42:50Z</time>
      </trkpt>
      <trkpt lat="46.1796" lon="2.47816">
        <ele>451</ele>
        <time>2015-04-06T13:42:52Z</time>
      </trkpt>
      <trkpt lat="46.1796" lon="2.47812">
        <ele>451</ele>
        <time>2015-04-06T13:42:54Z</time>
      </trkpt>
      <trkpt lat="46.1796" lon="2.47807">
        <ele>451</ele>
        <time>2015-04-06T13:42:56Z</time>
      </trkpt>
      <trkpt lat="46.17961" lon="2.47803">
        <ele>451</ele>
        <time>2015-04-06T13:42:58Z</time>
      </trkpt>
      <trkpt lat="46.17961" lon="2.47798">
        <ele>451</ele>
        <time>2015-04-06T13:43:00Z</time>
      </trkpt>
      <trkpt lat="46.17962" lon="2.47794">
        <ele>451</ele>
        <time>2015-04-06T13:43:02Z</time>
      </trkpt>
      <trkpt lat="46.17962" lon="2.4779">
        <ele>451</ele>
        <time>2015-04-06T13:43:04Z</time>
      </trkpt>
      <trkpt lat="46.17963" lon="2.47786">
        <ele>451</ele>
        <time>2015-04-06T13:43:06Z</time>
      </trkpt>
      <trkpt lat="46.17963" lon="2.47782">
        <ele>451</ele>
        <time>2015-04-06T13:43:08Z</time>
      </trkpt>
      <trkpt lat="46.17964" lon="2.47778">
        <ele>451</ele>
        <time>2015-04-06T13:43:10Z</time>
      </trkpt>
      <trkpt lat="46.17964" lon="2.47773">
        <ele>450</ele>
        <time>2015-04-06T13:43:12Z</time>
      </trkpt>
      <trkpt lat="46.17964" lon="2.47769">
        <ele>450</ele>
        <time>2015-04-06T13:43:14Z</time>
      </trkpt>
      <trkpt lat="46.17965" lon="2.47765">
        <ele>450</ele>
        <time>2015-04-06T13:43:16Z</time>
      </trkpt>
      <trkpt lat="46.17965" lon="2.47761">
        <ele>449</ele>
        <time>2015-04-06T13:43:18Z</time>
      </trkpt>
      <trkpt lat="46.17965" lon="2.47757">
        <ele>449</ele>
        <time>2015-04-06T13:43:20Z</time>
      </trkpt>
      <trkpt lat="46.17966" lon="2.47753">
        <ele>449</ele>
        <time>2015-04-06T13:43:22Z</time>
      </trkpt>
      <trkpt lat="46.17966" lon="2.47748">
        <ele>449</ele>
        <time>2015-04-06T13:43:24Z</time>
      </trkpt>
      <trkpt lat="46.17966" lon="2.47744">
        <ele>448</ele>
        <time>2015-04-06T13:43:26Z</time>
      </trkpt>
      <trkpt lat="46.17967" lon="2.47739">
        <ele>448</ele>
        <time>2015-04-06T13:43:28Z</time>
      </trkpt>
      <trkpt lat="46.17967" lon="2.47735">
        <ele>447</ele>
        <time>2015-04-06T13:43:30Z</time>
      </trkpt>
      <trkpt lat="46.17967" lon="2.47731">
        <ele>447</ele>
        <time>2015-04-06T13:43:32Z</time>
      </trkpt>
      <trkpt lat="46.17968" lon="2.47727">
        <ele>446</ele>
        <time>2015-04-06T13:43:34Z</time>
      </trkpt>
      <trkpt lat="46.17968" lon="2.47722">
        <ele>446</ele>
        <time>2015-04-06T13:43:36Z</time>
      </trkpt>
      <trkpt lat="46.17969" lon="2.47718">
        <ele>446</ele>
        <time>2015-04-06T13:43:38Z</time>
      </trkpt>
      <trkpt lat="46.1797" lon="2.47713">
        <ele>446</ele>
        <time>2015-04-06T13:43:40Z</time>
      </trkpt>
      <trkpt lat="46.17971" lon="2.47709">
        <ele>446</ele>
        <time>2015-04-06T13:43:42Z</time>
      </trkpt>
      <trkpt lat="46.17971" lon="2.47705">
        <ele>446</ele>
        <time>2015-04-06T13:43:44Z</time>
      </trkpt>
      <trkpt lat="46.17972" lon="2.477">
        <ele>446</ele>
        <time>2015-04-06T13:43:46Z</time>
      </trkpt>
      <trkpt lat="46.17973" lon="2.47696">
        <ele>446</ele>
        <time>2015-04-06T13:43:48Z</time>
      </trkpt>
      <trkpt lat="46.17973" lon="2.47692">
        <ele>446</ele>
        <time>2015-04-06T13:43:50Z</time>
      </trkpt>
      <trkpt lat="46.17974" lon="2.47689">
        <ele>446</ele>
        <time>2015-04-06T13:43:52Z</time>
      </trkpt>
      <trkpt lat="46.17975" lon="2.47684">
        <ele>446</ele>
        <time>2015-04-06T13:43:54Z</time>
      </trkpt>
      <trkpt lat="46.17976" lon="2.4768">
        <ele>446</ele>
        <time>2015-04-06T13:43:56Z</time>
      </trkpt>
      <trkpt lat="46.17977" lon="2.47676">
        <ele>446</ele>
        <time>2015-04-06T13:43:58Z</time>
      </trkpt>
      <trkpt lat="46.17978" lon="2.47672">
        <ele>446</ele>
        <time>2015-04-06T13:44:00Z</time>
      </trkpt>
      <trkpt lat="46.17978" lon="2.47668">
        <ele>445</ele>
        <time>2015-04-06T13:44:02Z</time>
      </trkpt>
      <trkpt lat="46.17979" lon="2.47664">
        <ele>445</ele>
        <time>2015-04-06T13:44:04Z</time>
      </trkpt>
      <trkpt lat="46.1798" lon="2.47659">
        <ele>445</ele>
        <time>2015-04-06T13:44:06Z</time>
      </trkpt>
      <trkpt lat="46.17981" lon="2.47655">
        <ele>445</ele>
        <time>2015-04-06T13:44:08Z</time>
      </trkpt>
      <trkpt lat="46.17981" lon="2.47651">
        <ele>445</ele>
        <time>2015-04-06T13:44:10Z</time>
      </trkpt>
      <trkpt lat="46.17982" lon="2.47647">
        <ele>444</ele>
        <time>2015-04-06T13:44:12Z</time>
      </trkpt>
      <trkpt lat="46.17983" lon="2.47643">
        <ele>444</ele>
        <time>2015-04-06T13:44:14Z</time>
      </trkpt>
      <trkpt lat="46.17984" lon="2.47639">
        <ele>444</ele>
        <time>2015-04-06T13:44:16Z</time>
      </trkpt>
      <trkpt lat="46.17985" lon="2.47635">
        <ele>444</ele>
        <time>2015-04-06T13:44:18Z</time>
      </trkpt>
      <trkpt lat="46.17986" lon="2.47631">
        <ele>444</ele>
        <time>2015-04-06T13:44:20Z</time>
      </trkpt>
      <trkpt lat="46.17987" lon="2.47627">
        <ele>444</ele>
        <time>2015-04-06T13:44:22Z</time>
      </trkpt>
      <trkpt lat="46.17987" lon="2.47623">
        <ele>444</ele>
        <time>2015-04-06T13:44:24Z</time>
      </trkpt>
      <trkpt lat="46.17989" lon="2.47619">
        <ele>444</ele>
        <time>2015-04-06T13:44:26Z</time>
      </trkpt>
      <trkpt lat="46.1799" lon="2.47615">
        <ele>443</ele>
        <time>2015-04-06T13:44:28Z</time>
      </trkpt>
      <trkpt lat="46.17991" lon="2.47611">
        <ele>443</ele>
        <time>2015-04-06T13:44:30Z</time>
      </trkpt>
      <trkpt lat="46.17992" lon="2.47607">
        <ele>443</ele>
        <time>2015-04-06T13:44:32Z</time>
      </trkpt>
      <trkpt lat="46.17993" lon="2.47603">
        <ele>442</ele>
        <time>2015-04-06T13:44:34Z</time>
      </trkpt>
      <trkpt lat="46.17995" lon="2.476">
        <ele>442</ele>
        <time>2015-04-06T13:44:36Z</time>
      </trkpt>
      <trkpt lat="46.17995" lon="2.47596">
        <ele>442</ele>
        <time>2015-04-06T13:44:38Z</time>
      </trkpt>
      <trkpt lat="46.17997" lon="2.47592">
        <ele>442</ele>
        <time>2015-04-06T13:44:40Z</time>
      </trkpt>
      <trkpt lat="46.17999" lon="2.47589">
        <ele>442</ele>
        <time>2015-04-06T13:44:42Z</time>
      </trkpt>
      <trkpt lat="46.18" lon="2.47585">
        <ele>442</ele>
        <time>2015-04-06T13:44:44Z</time>
      </trkpt>
      <trkpt lat="46.18002" lon="2.47581">
        <ele>442</ele>
        <time>2015-04-06T13:44:46Z</time>
      </trkpt>
      <trkpt lat="46.18003" lon="2.47577">
        <ele>442</ele>
        <time>2015-04-06T13:44:48Z</time>
      </trkpt>
      <trkpt lat="46.18004" lon="2.47573">
        <ele>441</ele>
        <time>2015-04-06T13:44:50Z</time>
      </trkpt>
      <trkpt lat="46.18006" lon="2.4757">
        <ele>441</ele>
        <time>2015-04-06T13:44:52Z</time>
      </trkpt>
      <trkpt lat="46.18008" lon="2.47567">
        <ele>441</ele>
        <time>2015-04-06T13:44:54Z</time>
      </trkpt>
      <trkpt lat="46.1801" lon="2.47563">
        <ele>441</ele>
        <time>2015-04-06T13:44:56Z</time>
      </trkpt>
      <trkpt lat="46.18011" lon="2.4756">
        <ele>441</ele>
        <time>2015-04-06T13:44:58Z</time>
      </trkpt>
      <trkpt lat="46.18013" lon="2.47556">
        <ele>441</ele>
        <time>2015-04-06T13:45:00Z</time>
      </trkpt>
      <trkpt lat="46.18014" lon="2.47553">
        <ele>441</ele>
        <time>2015-04-06T13:45:02Z</time>
      </trkpt>
      <trkpt lat="46.18016" lon="2.47549">
        <ele>441</ele>
        <time>2015-04-06T13:45:04Z</time>
      </trkpt>
      <trkpt lat="46.18018" lon="2.47546">
        <ele>440</ele>
        <time>2015-04-06T13:45:06Z</time>
      </trkpt>
      <trkpt lat="46.1802" lon="2.47542">
        <ele>440</ele>
        <time>2015-04-06T13:45:08Z</time>
      </trkpt>
      <trkpt lat="46.18022" lon="2.47538">
        <ele>440</ele>
        <time>2015-04-06T13:45:10Z</time>
      </trkpt>
      <trkpt lat="46.18023" lon="2.47535">
        <ele>440</ele>
        <time>2015-04-06T13:45:12Z</time>
      </trkpt>
      <trkpt lat="46.18025" lon="2.47531">
        <ele>440</ele>
        <time>2015-04-06T13:45:14Z</time>
      </trkpt>
      <trkpt lat="46.18026" lon="2.47528">
        <ele>440</ele>
        <time>2015-04-06T13:45:16Z</time>
      </trkpt>
      <trkpt lat="46.18028" lon="2.47525">
        <ele>439</ele>
        <time>2015-04-06T13:45:18Z</time>
      </trkpt>
      <trkpt lat="46.18029" lon="2.47522">
        <ele>439</ele>
        <time>2015-04-06T13:45:20Z</time>
      </trkpt>
      <trkpt lat="46.18031" lon="2.47518">
        <ele>439</ele>
        <time>2015-04-06T13:45:22Z</time>
      </trkpt>
      <trkpt lat="46.18032" lon="2.47514">
        <ele>439</ele>
        <time>2015-04-06T13:45:24Z</time>
      </trkpt>
      <trkpt lat="46.18033" lon="2.4751">
        <ele>439</ele>
        <time>2015-04-06T13:45:26Z</time>
      </trkpt>
      <trkpt lat="46.18034" lon="2.47507">
        <ele>439</ele>
        <time>2015-04-06T13:45:28Z</time>
      </trkpt>
      <trkpt lat="46.18035" lon="2.47503">
        <ele>439</ele>
        <time>2015-04-06T13:45:30Z</time>
      </trkpt>
      <trkpt lat="46.18036" lon="2.475">
        <ele>439</ele>
        <time>2015-04-06T13:45:32Z</time>
      </trkpt>
      <trkpt lat="46.18038" lon="2.47496">
        <ele>439</ele>
        <time>2015-04-06T13:45:34Z</time>
      </trkpt>
      <trkpt lat="46.1804" lon="2.47493">
        <ele>439</ele>
        <time>2015-04-06T13:45:36Z</time>
      </trkpt>
      <trkpt lat="46.18042" lon="2.47489">
        <ele>439</ele>
        <time>2015-04-06T13:45:38Z</time>
      </trkpt>
      <trkpt lat="46.18044" lon="2.47485">
        <ele>439</ele>
        <time>2015-04-06T13:45:40Z</time>
      </trkpt>
      <trkpt lat="46.18045" lon="2.47482">
        <ele>439</ele>
        <time>2015-04-06T13:45:42Z</time>
      </trkpt>
      <trkpt lat="46.18047" lon="2.47478">
        <ele>439</ele>
        <time>2015-04-06T13:45:44Z</time>
      </trkpt>
      <trkpt lat="46.18048" lon="2.47474">
        <ele>439</ele>
        <time>2015-04-06T13:45:46Z</time>
      </trkpt>
      <trkpt lat="46.1805" lon="2.4747">
        <ele>439</ele>
        <time>2015-04-06T13:45:48Z</time>
      </trkpt>
      <trkpt lat="46.18051" lon="2.47467">
        <ele>439</ele>
        <time>2015-04-06T13:45:50Z</time>
      </trkpt>
      <trkpt lat="46.18053" lon="2.47463">
        <ele>439</ele>
        <time>2015-04-06T13:45:52Z</time>
      </trkpt>
      <trkpt lat="46.18054" lon="2.4746">
        <ele>439</ele>
        <time>2015-04-06T13:45:54Z</time>
      </trkpt>
      <trkpt lat="46.18055" lon="2.47456">
        <ele>439</ele>
        <time>2015-04-06T13:45:56Z</time>
      </trkpt>
      <trkpt lat="46.18057" lon="2.47452">
        <ele>439</ele>
        <time>2015-04-06T13:45:58Z</time>
      </trkpt>
      <trkpt lat="46.18058" lon="2.47448">
        <ele>439</ele>
        <time>2015-04-06T13:46:00Z</time>
      </trkpt>
      <trkpt lat="46.1806" lon="2.47445">
        <ele>439</ele>
        <time>2015-04-06T13:46:02Z</time>
      </trkpt>
      <trkpt lat="46.18062" lon="2.47441">
        <ele>439</ele>
        <time>2015-04-06T13:46:04Z</time>
      </trkpt>
      <trkpt lat="46.18064" lon="2.47438">
        <ele>439</ele>
        <time>2015-04-06T13:46:06Z</time>
      </trkpt>
      <trkpt lat="46.18066" lon="2.47434">
        <ele>439</ele>
        <time>2015-04-06T13:46:08Z</time>
      </trkpt>
      <trkpt lat="46.18068" lon="2.4743">
        <ele>439</ele>
        <time>2015-04-06T13:46:10Z</time>
      </trkpt>
      <trkpt lat="46.18069" lon="2.47426">
        <ele>439</ele>
        <time>2015-04-06T13:46:12Z</time>
      </trkpt>
      <trkpt lat="46.18071" lon="2.47422">
        <ele>439</ele>
        <time>2015-04-06T13:46:14Z</time>
      </trkpt>
      <trkpt lat="46.18072" lon="2.47419">
        <ele>439</ele>
        <time>2015-04-06T13:46:16Z</time>
      </trkpt>
      <trkpt lat="46.18073" lon="2.47415">
        <ele>439</ele>
        <time>2015-04-06T13:46:18Z</time>
      </trkpt>
      <trkpt lat="46.18073" lon="2.47413">
        <ele>439</ele>
        <time>2015-04-06T13:46:20Z</time>
      </trkpt>
      <trkpt lat="46.18074" lon="2.47412">
        <ele>439</ele>
        <time>2015-04-06T13:46:32Z</time>
      </trkpt>
      <trkpt lat="46.18076" lon="2.47408">
        <ele>439</ele>
        <time>2015-04-06T13:46:34Z</time>
      </trkpt>
      <trkpt lat="46.18078" lon="2.47405">
        <ele>438</ele>
        <time>2015-04-06T13:46:36Z</time>
      </trkpt>
      <trkpt lat="46.18079" lon="2.47401">
        <ele>437</ele>
        <time>2015-04-06T13:46:38Z</time>
      </trkpt>
      <trkpt lat="46.18081" lon="2.47397">
        <ele>437</ele>
        <time>2015-04-06T13:46:40Z</time>
      </trkpt>
      <trkpt lat="46.18083" lon="2.47393">
        <ele>437</ele>
        <time>2015-04-06T13:46:42Z</time>
      </trkpt>
      <trkpt lat="46.18084" lon="2.47389">
        <ele>437</ele>
        <time>2015-04-06T13:46:44Z</time>
      </trkpt>
      <trkpt lat="46.18086" lon="2.47385">
        <ele>437</ele>
        <time>2015-04-06T13:46:46Z</time>
      </trkpt>
      <trkpt lat="46.18088" lon="2.47381">
        <ele>437</ele>
        <time>2015-04-06T13:46:48Z</time>
      </trkpt>
      <trkpt lat="46.1809" lon="2.47377">
        <ele>437</ele>
        <time>2015-04-06T13:46:51Z</time>
      </trkpt>
      <trkpt lat="46.18092" lon="2.47373">
        <ele>437</ele>
        <time>2015-04-06T13:46:53Z</time>
      </trkpt>
      <trkpt lat="46.18093" lon="2.47369">
        <ele>437</ele>
        <time>2015-04-06T13:46:55Z</time>
      </trkpt>
      <trkpt lat="46.18095" lon="2.47365">
        <ele>437</ele>
        <time>2015-04-06T13:46:57Z</time>
      </trkpt>
      <trkpt lat="46.18096" lon="2.47362">
        <ele>437</ele>
        <time>2015-04-06T13:46:59Z</time>
      </trkpt>
      <trkpt lat="46.18098" lon="2.47358">
        <ele>437</ele>
        <time>2015-04-06T13:47:01Z</time>
      </trkpt>
      <trkpt lat="46.18099" lon="2.47355">
        <ele>437</ele>
        <time>2015-04-06T13:47:03Z</time>
      </trkpt>
      <trkpt lat="46.18101" lon="2.47352">
        <ele>437</ele>
        <time>2015-04-06T13:47:05Z</time>
      </trkpt>
      <trkpt lat="46.18103" lon="2.47347">
        <ele>437</ele>
        <time>2015-04-06T13:47:07Z</time>
      </trkpt>
      <trkpt lat="46.18105" lon="2.47343">
        <ele>437</ele>
        <time>2015-04-06T13:47:09Z</time>
      </trkpt>
      <trkpt lat="46.18107" lon="2.47339">
        <ele>437</ele>
        <time>2015-04-06T13:47:11Z</time>
      </trkpt>
      <trkpt lat="46.18109" lon="2.47336">
        <ele>437</ele>
        <time>2015-04-06T13:47:13Z</time>
      </trkpt>
      <trkpt lat="46.1811" lon="2.47332">
        <ele>437</ele>
        <time>2015-04-06T13:47:15Z</time>
      </trkpt>
      <trkpt lat="46.18112" lon="2.47329">
        <ele>437</ele>
        <time>2015-04-06T13:47:17Z</time>
      </trkpt>
      <trkpt lat="46.18113" lon="2.47325">
        <ele>437</ele>
        <time>2015-04-06T13:47:19Z</time>
      </trkpt>
      <trkpt lat="46.18115" lon="2.47321">
        <ele>437</ele>
        <time>2015-04-06T13:47:21Z</time>
      </trkpt>
      <trkpt lat="46.18117" lon="2.47317">
        <ele>437</ele>
        <time>2015-04-06T13:47:23Z</time>
      </trkpt>
      <trkpt lat="46.18118" lon="2.47313">
        <ele>437</ele>
        <time>2015-04-06T13:47:25Z</time>
      </trkpt>
      <trkpt lat="46.1812" lon="2.47309">
        <ele>437</ele>
        <time>2015-04-06T13:47:27Z</time>
      </trkpt>
      <trkpt lat="46.18121" lon="2.47306">
        <ele>437</ele>
        <time>2015-04-06T13:47:29Z</time>
      </trkpt>
      <trkpt lat="46.18123" lon="2.47303">
        <ele>437</ele>
        <time>2015-04-06T13:47:31Z</time>
      </trkpt>
      <trkpt lat="46.18125" lon="2.47299">
        <ele>437</ele>
        <time>2015-04-06T13:47:33Z</time>
      </trkpt>
      <trkpt lat="46.18127" lon="2.47295">
        <ele>437</ele>
        <time>2015-04-06T13:47:35Z</time>
      </trkpt>
      <trkpt lat="46.18128" lon="2.47291">
        <ele>437</ele>
        <time>2015-04-06T13:47:37Z</time>
      </trkpt>
      <trkpt lat="46.18129" lon="2.47288">
        <ele>437</ele>
        <time>2015-04-06T13:47:39Z</time>
      </trkpt>
      <trkpt lat="46.18131" lon="2.47284">
        <ele>437</ele>
        <time>2015-04-06T13:47:41Z</time>
      </trkpt>
      <trkpt lat="46.18133" lon="2.47281">
        <ele>437</ele>
        <time>2015-04-06T13:47:43Z</time>
      </trkpt>
      <trkpt lat="46.18135" lon="2.47276">
        <ele>437</ele>
        <time>2015-04-06T13:47:45Z</time>
      </trkpt>
      <trkpt lat="46.18137" lon="2.47272">
        <ele>437</ele>
        <time>2015-04-06T13:47:47Z</time>
      </trkpt>
      <trkpt lat="46.18138" lon="2.47269">
        <ele>437</ele>
        <time>2015-04-06T13:47:49Z</time>
      </trkpt>
      <trkpt lat="46.1814" lon="2.47265">
        <ele>437</ele>
        <time>2015-04-06T13:47:51Z</time>
      </trkpt>
      <trkpt lat="46.18141" lon="2.47261">
        <ele>437</ele>
        <time>2015-04-06T13:47:53Z</time>
      </trkpt>
      <trkpt lat="46.18142" lon="2.47257">
        <ele>436</ele>
        <time>2015-04-06T13:47:55Z</time>
      </trkpt>
      <trkpt lat="46.18143" lon="2.47253">
        <ele>436</ele>
        <time>2015-04-06T13:47:57Z</time>
      </trkpt>
      <trkpt lat="46.18144" lon="2.47249">
        <ele>436</ele>
        <time>2015-04-06T13:47:59Z</time>
      </trkpt>
      <trkpt lat="46.18145" lon="2.47245">
        <ele>436</ele>
        <time>2015-04-06T13:48:01Z</time>
      </trkpt>
      <trkpt lat="46.18146" lon="2.4724">
        <ele>435</ele>
        <time>2015-04-06T13:48:03Z</time>
      </trkpt>
      <trkpt lat="46.18147" lon="2.47236">
        <ele>435</ele>
        <time>2015-04-06T13:48:05Z</time>
      </trkpt>
      <trkpt lat="46.18147" lon="2.47232">
        <ele>434</ele>
        <time>2015-04-06T13:48:07Z</time>
      </trkpt>
      <trkpt lat="46.18148" lon="2.47228">
        <ele>434</ele>
        <time>2015-04-06T13:48:09Z</time>
      </trkpt>
      <trkpt lat="46.18149" lon="2.47223">
        <ele>433</ele>
        <time>2015-04-06T13:48:11Z</time>
      </trkpt>
      <trkpt lat="46.18149" lon="2.47219">
        <ele>433</ele>
        <time>2015-04-06T13:48:13Z</time>
      </trkpt>
      <trkpt lat="46.1815" lon="2.47215">
        <ele>432</ele>
        <time>2015-04-06T13:48:15Z</time>
      </trkpt>
      <trkpt lat="46.18151" lon="2.47211">
        <ele>432</ele>
        <time>2015-04-06T13:48:17Z</time>
      </trkpt>
      <trkpt lat="46.18152" lon="2.47207">
        <ele>432</ele>
        <time>2015-04-06T13:48:19Z</time>
      </trkpt>
      <trkpt lat="46.18152" lon="2.47203">
        <ele>432</ele>
        <time>2015-04-06T13:48:21Z</time>
      </trkpt>
      <trkpt lat="46.18153" lon="2.47199">
        <ele>432</ele>
        <time>2015-04-06T13:48:23Z</time>
      </trkpt>
      <trkpt lat="46.18154" lon="2.47195">
        <ele>432</ele>
        <time>2015-04-06T13:48:25Z</time>
      </trkpt>
      <trkpt lat="46.18155" lon="2.47191">
        <ele>432</ele>
        <time>2015-04-06T13:48:27Z</time>
      </trkpt>
      <trkpt lat="46.18156" lon="2.47187">
        <ele>432</ele>
        <time>2015-04-06T13:48:29Z</time>
      </trkpt>
      <trkpt lat="46.18156" lon="2.47183">
        <ele>431</ele>
        <time>2015-04-06T13:48:31Z</time>
      </trkpt>
      <trkpt lat="46.18156" lon="2.47179">
        <ele>431</ele>
        <time>2015-04-06T13:48:33Z</time>
      </trkpt>
      <trkpt lat="46.18155" lon="2.47176">
        <ele>430</ele>
        <time>2015-04-06T13:48:35Z</time>
      </trkpt>
      <trkpt lat="46.18154" lon="2.47172">
        <ele>430</ele>
        <time>2015-04-06T13:48:37Z</time>
      </trkpt>
      <trkpt lat="46.18154" lon="2.47167">
        <ele>430</ele>
        <time>2015-04-06T13:48:39Z</time>
      </trkpt>
      <trkpt lat="46.18154" lon="2.47163">
        <ele>429</ele>
        <time>2015-04-06T13:48:41Z</time>
      </trkpt>
      <trkpt lat="46.18155" lon="2.47158">
        <ele>429</ele>
        <time>2015-04-06T13:48:43Z</time>
      </trkpt>
      <trkpt lat="46.18156" lon="2.47154">
        <ele>429</ele>
        <time>2015-04-06T13:48:45Z</time>
      </trkpt>
      <trkpt lat="46.18156" lon="2.4715">
        <ele>428</ele>
        <time>2015-04-06T13:48:47Z</time>
      </trkpt>
      <trkpt lat="46.18157" lon="2.47146">
        <ele>427</ele>
        <time>2015-04-06T13:48:49Z</time>
      </trkpt>
      <trkpt lat="46.18157" lon="2.47142">
        <ele>426</ele>
        <time>2015-04-06T13:48:51Z</time>
      </trkpt>
      <trkpt lat="46.18157" lon="2.47138">
        <ele>425</ele>
        <time>2015-04-06T13:48:53Z</time>
      </trkpt>
      <trkpt lat="46.18158" lon="2.47134">
        <ele>424</ele>
        <time>2015-04-06T13:48:55Z</time>
      </trkpt>
      <trkpt lat="46.18158" lon="2.4713">
        <ele>423</ele>
        <time>2015-04-06T13:48:57Z</time>
      </trkpt>
      <trkpt lat="46.18161" lon="2.47126">
        <ele>422</ele>
        <time>2015-04-06T13:48:59Z</time>
      </trkpt>
      <trkpt lat="46.18162" lon="2.47123">
        <ele>422</ele>
        <time>2015-04-06T13:49:01Z</time>
      </trkpt>
      <trkpt lat="46.18164" lon="2.47119">
        <ele>422</ele>
        <time>2015-04-06T13:49:03Z</time>
      </trkpt>
      <trkpt lat="46.18166" lon="2.47115">
        <ele>422</ele>
        <time>2015-04-06T13:49:05Z</time>
      </trkpt>
      <trkpt lat="46.18167" lon="2.47112">
        <ele>422</ele>
        <time>2015-04-06T13:49:07Z</time>
      </trkpt>
      <trkpt lat="46.18169" lon="2.47108">
        <ele>422</ele>
        <time>2015-04-06T13:49:09Z</time>
      </trkpt>
      <trkpt lat="46.18171" lon="2.47105">
        <ele>422</ele>
        <time>2015-04-06T13:49:11Z</time>
      </trkpt>
      <trkpt lat="46.18172" lon="2.471">
        <ele>422</ele>
        <time>2015-04-06T13:49:13Z</time>
      </trkpt>
      <trkpt lat="46.18174" lon="2.47096">
        <ele>422</ele>
        <time>2015-04-06T13:49:15Z</time>
      </trkpt>
      <trkpt lat="46.18176" lon="2.47093">
        <ele>422</ele>
        <time>2015-04-06T13:49:17Z</time>
      </trkpt>
      <trkpt lat="46.18177" lon="2.4709">
        <ele>422</ele>
        <time>2015-04-06T13:49:19Z</time>
      </trkpt>
      <trkpt lat="46.18179" lon="2.47086">
        <ele>421</ele>
        <time>2015-04-06T13:49:21Z</time>
      </trkpt>
      <trkpt lat="46.18181" lon="2.47083">
        <ele>421</ele>
        <time>2015-04-06T13:49:23Z</time>
      </trkpt>
      <trkpt lat="46.18183" lon="2.4708">
        <ele>421</ele>
        <time>2015-04-06T13:49:25Z</time>
      </trkpt>
      <trkpt lat="46.18185" lon="2.47078">
        <ele>420</ele>
        <time>2015-04-06T13:49:27Z</time>
      </trkpt>
      <trkpt lat="46.18187" lon="2.47076">
        <ele>420</ele>
        <time>2015-04-06T13:49:29Z</time>
      </trkpt>
      <trkpt lat="46.18191" lon="2.47073">
        <ele>419</ele>
        <time>2015-04-06T13:49:32Z</time>
      </trkpt>
      <trkpt lat="46.18193" lon="2.47071">
        <ele>418</ele>
        <time>2015-04-06T13:49:34Z</time>
      </trkpt>
      <trkpt lat="46.18195" lon="2.47069">
        <ele>418</ele>
        <time>2015-04-06T13:49:36Z</time>
      </trkpt>
      <trkpt lat="46.18198" lon="2.47066">
        <ele>417</ele>
        <time>2015-04-06T13:49:38Z</time>
      </trkpt>
      <trkpt lat="46.182" lon="2.47065">
        <ele>416</ele>
        <time>2015-04-06T13:49:40Z</time>
      </trkpt>
      <trkpt lat="46.18202" lon="2.47063">
        <ele>415</ele>
        <time>2015-04-06T13:49:42Z</time>
      </trkpt>
      <trkpt lat="46.18205" lon="2.47062">
        <ele>414</ele>
        <time>2015-04-06T13:49:44Z</time>
      </trkpt>
      <trkpt lat="46.18207" lon="2.47059">
        <ele>413</ele>
        <time>2015-04-06T13:49:46Z</time>
      </trkpt>
      <trkpt lat="46.18209" lon="2.47057">
        <ele>413</ele>
        <time>2015-04-06T13:49:48Z</time>
      </trkpt>
      <trkpt lat="46.1821" lon="2.47053">
        <ele>412</ele>
        <time>2015-04-06T13:49:50Z</time>
      </trkpt>
      <trkpt lat="46.18211" lon="2.4705">
        <ele>412</ele>
        <time>2015-04-06T13:49:52Z</time>
      </trkpt>
      <trkpt lat="46.18213" lon="2.47046">
        <ele>412</ele>
        <time>2015-04-06T13:49:54Z</time>
      </trkpt>
      <trkpt lat="46.18214" lon="2.47043">
        <ele>411</ele>
        <time>2015-04-06T13:49:56Z</time>
      </trkpt>
      <trkpt lat="46.18215" lon="2.4704">
        <ele>411</ele>
        <time>2015-04-06T13:49:58Z</time>
      </trkpt>
      <trkpt lat="46.18217" lon="2.47036">
        <ele>410</ele>
        <time>2015-04-06T13:50:00Z</time>
      </trkpt>
      <trkpt lat="46.18219" lon="2.47033">
        <ele>410</ele>
        <time>2015-04-06T13:50:02Z</time>
      </trkpt>
      <trkpt lat="46.1822" lon="2.47029">
        <ele>409</ele>
        <time>2015-04-06T13:50:04Z</time>
      </trkpt>
      <trkpt lat="46.18221" lon="2.47025">
        <ele>409</ele>
        <time>2015-04-06T13:50:06Z</time>
      </trkpt>
      <trkpt lat="46.18222" lon="2.47022">
        <ele>409</ele>
        <time>2015-04-06T13:50:08Z</time>
      </trkpt>
      <trkpt lat="46.18224" lon="2.47018">
        <ele>409</ele>
        <time>2015-04-06T13:50:10Z</time>
      </trkpt>
      <trkpt lat="46.18225" lon="2.47014">
        <ele>408</ele>
        <time>2015-04-06T13:50:12Z</time>
      </trkpt>
      <trkpt lat="46.18225" lon="2.4701">
        <ele>408</ele>
        <time>2015-04-06T13:50:14Z</time>
      </trkpt>
      <trkpt lat="46.18226" lon="2.47006">
        <ele>408</ele>
        <time>2015-04-06T13:50:16Z</time>
      </trkpt>
      <trkpt lat="46.18226" lon="2.47002">
        <ele>408</ele>
        <time>2015-04-06T13:50:18Z</time>
      </trkpt>
      <trkpt lat="46.18226" lon="2.46998">
        <ele>408</ele>
        <time>2015-04-06T13:50:20Z</time>
      </trkpt>
      <trkpt lat="46.18225" lon="2.46994">
        <ele>408</ele>
        <time>2015-04-06T13:50:22Z</time>
      </trkpt>
      <trkpt lat="46.18224" lon="2.4699">
        <ele>408</ele>
        <time>2015-04-06T13:50:24Z</time>
      </trkpt>
      <trkpt lat="46.18223" lon="2.46987">
        <ele>408</ele>
        <time>2015-04-06T13:50:26Z</time>
      </trkpt>
      <trkpt lat="46.18222" lon="2.46983">
        <ele>408</ele>
        <time>2015-04-06T13:50:28Z</time>
      </trkpt>
      <trkpt lat="46.18221" lon="2.4698">
        <ele>408</ele>
        <time>2015-04-06T13:50:30Z</time>
      </trkpt>
      <trkpt lat="46.18219" lon="2.46977">
        <ele>408</ele>
        <time>2015-04-06T13:50:32Z</time>
      </trkpt>
      <trkpt lat="46.18218" lon="2.46973">
        <ele>408</ele>
        <time>2015-04-06T13:50:34Z</time>
      </trkpt>
      <trkpt lat="46.18216" lon="2.4697">
        <ele>408</ele>
        <time>2015-04-06T13:50:36Z</time>
      </trkpt>
      <trkpt lat="46.18215" lon="2.46967">
        <ele>408</ele>
        <time>2015-04-06T13:50:38Z</time>
      </trkpt>
      <trkpt lat="46.18214" lon="2.46964">
        <ele>408</ele>
        <time>2015-04-06T13:50:40Z</time>
      </trkpt>
      <trkpt lat="46.18213" lon="2.4696">
        <ele>408</ele>
        <time>2015-04-06T13:50:42Z</time>
      </trkpt>
      <trkpt lat="46.18211" lon="2.46957">
        <ele>408</ele>
        <time>2015-04-06T13:50:44Z</time>
      </trkpt>
      <trkpt lat="46.1821" lon="2.46953">
        <ele>408</ele>
        <time>2015-04-06T13:50:46Z</time>
      </trkpt>
      <trkpt lat="46.18209" lon="2.4695">
        <ele>408</ele>
        <time>2015-04-06T13:50:48Z</time>
      </trkpt>
      <trkpt lat="46.18208" lon="2.46949">
        <ele>408</ele>
        <time>2015-04-06T13:51:09Z</time>
      </trkpt>
      <trkpt lat="46.18207" lon="2.46946">
        <ele>408</ele>
        <time>2015-04-06T13:51:11Z</time>
      </trkpt>
      <trkpt lat="46.18205" lon="2.46943">
        <ele>408</ele>
        <time>2015-04-06T13:51:13Z</time>
      </trkpt>
      <trkpt lat="46.18204" lon="2.4694">
        <ele>408</ele>
        <time>2015-04-06T13:51:15Z</time>
      </trkpt>
      <trkpt lat="46.18203" lon="2.46936">
        <ele>408</ele>
        <time>2015-04-06T13:51:17Z</time>
      </trkpt>
      <trkpt lat="46.18201" lon="2.46933">
        <ele>408</ele>
        <time>2015-04-06T13:51:19Z</time>
      </trkpt>
      <trkpt lat="46.18201" lon="2.4693">
        <ele>408</ele>
        <time>2015-04-06T13:51:21Z</time>
      </trkpt>
      <trkpt lat="46.18199" lon="2.46925">
        <ele>408</ele>
        <time>2015-04-06T13:51:24Z</time>
      </trkpt>
      <trkpt lat="46.18198" lon="2.46923">
        <ele>408</ele>
        <time>2015-04-06T13:51:26Z</time>
      </trkpt>
      <trkpt lat="46.18196" lon="2.46921">
        <ele>408</ele>
        <time>2015-04-06T13:51:28Z</time>
      </trkpt>
      <trkpt lat="46.18193" lon="2.46919">
        <ele>408</ele>
        <time>2015-04-06T13:51:30Z</time>
      </trkpt>
      <trkpt lat="46.1819" lon="2.46919">
        <ele>408</ele>
        <time>2015-04-06T13:51:33Z</time>
      </trkpt>
      <trkpt lat="46.18187" lon="2.4692">
        <ele>408</ele>
        <time>2015-04-06T13:51:35Z</time>
      </trkpt>
      <trkpt lat="46.18184" lon="2.46921">
        <ele>408</ele>
        <time>2015-04-06T13:51:37Z</time>
      </trkpt>
      <trkpt lat="46.18182" lon="2.46922">
        <ele>408</ele>
        <time>2015-04-06T13:51:39Z</time>
      </trkpt>
      <trkpt lat="46.18179" lon="2.46923">
        <ele>408</ele>
        <time>2015-04-06T13:51:41Z</time>
      </trkpt>
      <trkpt lat="46.18176" lon="2.46924">
        <ele>407</ele>
        <time>2015-04-06T13:51:43Z</time>
      </trkpt>
      <trkpt lat="46.18174" lon="2.46925">
        <ele>407</ele>
        <time>2015-04-06T13:51:45Z</time>
      </trkpt>
      <trkpt lat="46.18171" lon="2.46926">
        <ele>407</ele>
        <time>2015-04-06T13:51:47Z</time>
      </trkpt>
      <trkpt lat="46.18169" lon="2.46927">
        <ele>407</ele>
        <time>2015-04-06T13:51:49Z</time>
      </trkpt>
      <trkpt lat="46.18166" lon="2.46928">
        <ele>407</ele>
        <time>2015-04-06T13:51:51Z</time>
      </trkpt>
      <trkpt lat="46.18164" lon="2.46929">
        <ele>406</ele>
        <time>2015-04-06T13:51:53Z</time>
      </trkpt>
      <trkpt lat="46.18161" lon="2.4693">
        <ele>406</ele>
        <time>2015-04-06T13:51:55Z</time>
      </trkpt>
      <trkpt lat="46.18158" lon="2.46932">
        <ele>406</ele>
        <time>2015-04-06T13:51:57Z</time>
      </trkpt>
      <trkpt lat="46.18156" lon="2.46933">
        <ele>406</ele>
        <time>2015-04-06T13:51:59Z</time>
      </trkpt>
      <trkpt lat="46.18153" lon="2.46933">
        <ele>405</ele>
        <time>2015-04-06T13:52:01Z</time>
      </trkpt>
      <trkpt lat="46.18151" lon="2.46934">
        <ele>405</ele>
        <time>2015-04-06T13:52:03Z</time>
      </trkpt>
      <trkpt lat="46.18148" lon="2.46935">
        <ele>405</ele>
        <time>2015-04-06T13:52:05Z</time>
      </trkpt>
      <trkpt lat="46.18146" lon="2.46936">
        <ele>404</ele>
        <time>2015-04-06T13:52:07Z</time>
      </trkpt>
      <trkpt lat="46.18143" lon="2.46937">
        <ele>404</ele>
        <time>2015-04-06T13:52:09Z</time>
      </trkpt>
      <trkpt lat="46.1814" lon="2.46939">
        <ele>404</ele>
        <time>2015-04-06T13:52:11Z</time>
      </trkpt>
      <trkpt lat="46.18137" lon="2.46939">
        <ele>404</ele>
        <time>2015-04-06T13:52:13Z</time>
      </trkpt>
      <trkpt lat="46.18135" lon="2.46941">
        <ele>404</ele>
        <time>2015-04-06T13:52:15Z</time>
      </trkpt>
      <trkpt lat="46.18132" lon="2.46942">
        <ele>403</ele>
        <time>2015-04-06T13:52:17Z</time>
      </trkpt>
      <trkpt lat="46.18129" lon="2.46943">
        <ele>403</ele>
        <time>2015-04-06T13:52:19Z</time>
      </trkpt>
      <trkpt lat="46.18127" lon="2.46945">
        <ele>402</ele>
        <time>2015-04-06T13:52:21Z</time>
      </trkpt>
      <trkpt lat="46.18124" lon="2.46947">
        <ele>402</ele>
        <time>2015-04-06T13:52:23Z</time>
      </trkpt>
      <trkpt lat="46.18121" lon="2.46948">
        <ele>402</ele>
        <time>2015-04-06T13:52:25Z</time>
      </trkpt>
      <trkpt lat="46.18119" lon="2.4695">
        <ele>401</ele>
        <time>2015-04-06T13:52:27Z</time>
      </trkpt>
      <trkpt lat="46.18116" lon="2.46953">
        <ele>400</ele>
        <time>2015-04-06T13:52:30Z</time>
      </trkpt>
      <trkpt lat="46.18113" lon="2.46955">
        <ele>400</ele>
        <time>2015-04-06T13:52:32Z</time>
      </trkpt>
      <trkpt lat="46.1811" lon="2.46956">
        <ele>399</ele>
        <time>2015-04-06T13:52:34Z</time>
      </trkpt>
      <trkpt lat="46.18108" lon="2.46958">
        <ele>398</ele>
        <time>2015-04-06T13:52:36Z</time>
      </trkpt>
      <trkpt lat="46.18105" lon="2.4696">
        <ele>398</ele>
        <time>2015-04-06T13:52:38Z</time>
      </trkpt>
      <trkpt lat="46.18102" lon="2.46961">
        <ele>397</ele>
        <time>2015-04-06T13:52:40Z</time>
      </trkpt>
      <trkpt lat="46.18099" lon="2.46963">
        <ele>397</ele>
        <time>2015-04-06T13:52:42Z</time>
      </trkpt>
      <trkpt lat="46.18097" lon="2.46965">
        <ele>397</ele>
        <time>2015-04-06T13:52:44Z</time>
      </trkpt>
      <trkpt lat="46.18094" lon="2.46967">
        <ele>397</ele>
        <time>2015-04-06T13:52:46Z</time>
      </trkpt>
      <trkpt lat="46.18091" lon="2.46969">
        <ele>397</ele>
        <time>2015-04-06T13:52:48Z</time>
      </trkpt>
      <trkpt lat="46.18088" lon="2.4697">
        <ele>397</ele>
        <time>2015-04-06T13:52:50Z</time>
      </trkpt>
      <trkpt lat="46.18085" lon="2.46972">
        <ele>397</ele>
        <time>2015-04-06T13:52:52Z</time>
      </trkpt>
      <trkpt lat="46.18082" lon="2.46974">
        <ele>397</ele>
        <time>2015-04-06T13:52:54Z</time>
      </trkpt>
      <trkpt lat="46.18079" lon="2.46975">
        <ele>397</ele>
        <time>2015-04-06T13:52:56Z</time>
      </trkpt>
      <trkpt lat="46.18077" lon="2.46976">
        <ele>397</ele>
        <time>2015-04-06T13:52:58Z</time>
      </trkpt>
      <trkpt lat="46.18073" lon="2.46979">
        <ele>396</ele>
        <time>2015-04-06T13:53:00Z</time>
      </trkpt>
      <trkpt lat="46.18071" lon="2.4698">
        <ele>396</ele>
        <time>2015-04-06T13:53:02Z</time>
      </trkpt>
      <trkpt lat="46.18068" lon="2.46982">
        <ele>396</ele>
        <time>2015-04-06T13:53:04Z</time>
      </trkpt>
      <trkpt lat="46.18065" lon="2.46983">
        <ele>395</ele>
        <time>2015-04-06T13:53:06Z</time>
      </trkpt>
      <trkpt lat="46.18063" lon="2.46985">
        <ele>395</ele>
        <time>2015-04-06T13:53:08Z</time>
      </trkpt>
      <trkpt lat="46.18061" lon="2.46987">
        <ele>395</ele>
        <time>2015-04-06T13:53:10Z</time>
      </trkpt>
      <trkpt lat="46.18059" lon="2.46988">
        <ele>395</ele>
        <time>2015-04-06T13:53:12Z</time>
      </trkpt>
      <trkpt lat="46.18057" lon="2.46988">
        <ele>394</ele>
        <time>2015-04-06T13:53:15Z</time>
      </trkpt>
      <trkpt lat="46.18055" lon="2.46989">
        <ele>392</ele>
        <time>2015-04-06T13:53:17Z</time>
      </trkpt>
      <trkpt lat="46.18052" lon="2.46991">
        <ele>392</ele>
        <time>2015-04-06T13:53:19Z</time>
      </trkpt>
      <trkpt lat="46.18049" lon="2.46993">
        <ele>391</ele>
        <time>2015-04-06T13:53:21Z</time>
      </trkpt>
      <trkpt lat="46.18047" lon="2.46995">
        <ele>391</ele>
        <time>2015-04-06T13:53:23Z</time>
      </trkpt>
      <trkpt lat="46.18044" lon="2.46997">
        <ele>391</ele>
        <time>2015-04-06T13:53:25Z</time>
      </trkpt>
      <trkpt lat="46.18041" lon="2.46998">
        <ele>391</ele>
        <time>2015-04-06T13:53:27Z</time>
      </trkpt>
      <trkpt lat="46.18038" lon="2.46999">
        <ele>391</ele>
        <time>2015-04-06T13:53:29Z</time>
      </trkpt>
      <trkpt lat="46.18035" lon="2.47001">
        <ele>391</ele>
        <time>2015-04-06T13:53:31Z</time>
      </trkpt>
      <trkpt lat="46.18032" lon="2.47003">
        <ele>391</ele>
        <time>2015-04-06T13:53:33Z</time>
      </trkpt>
      <trkpt lat="46.18029" lon="2.47005">
        <ele>390</ele>
        <time>2015-04-06T13:53:35Z</time>
      </trkpt>
      <trkpt lat="46.18027" lon="2.47007">
        <ele>390</ele>
        <time>2015-04-06T13:53:37Z</time>
      </trkpt>
      <trkpt lat="46.18025" lon="2.47008">
        <ele>390</ele>
        <time>2015-04-06T13:53:39Z</time>
      </trkpt>
      <trkpt lat="46.18021" lon="2.47011">
        <ele>390</ele>
        <time>2015-04-06T13:53:42Z</time>
      </trkpt>
      <trkpt lat="46.18018" lon="2.47013">
        <ele>390</ele>
        <time>2015-04-06T13:53:44Z</time>
      </trkpt>
      <trkpt lat="46.18015" lon="2.47015">
        <ele>390</ele>
        <time>2015-04-06T13:53:46Z</time>
      </trkpt>
      <trkpt lat="46.18012" lon="2.47016">
        <ele>390</ele>
        <time>2015-04-06T13:53:48Z</time>
      </trkpt>
      <trkpt lat="46.1801" lon="2.47016">
        <ele>390</ele>
        <time>2015-04-06T13:53:50Z</time>
      </trkpt>
      <trkpt lat="46.18009" lon="2.47013">
        <ele>390</ele>
        <time>2015-04-06T13:53:53Z</time>
      </trkpt>
      <trkpt lat="46.1801" lon="2.47009">
        <ele>390</ele>
        <time>2015-04-06T13:53:56Z</time>
      </trkpt>
      <trkpt lat="46.18012" lon="2.47007">
        <ele>389</ele>
        <time>2015-04-06T13:53:58Z</time>
      </trkpt>
      <trkpt lat="46.18015" lon="2.47005">
        <ele>389</ele>
        <time>2015-04-06T13:54:00Z</time>
      </trkpt>
      <trkpt lat="46.18017" lon="2.47004">
        <ele>388</ele>
        <time>2015-04-06T13:54:02Z</time>
      </trkpt>
      <trkpt lat="46.18021" lon="2.47001">
        <ele>388</ele>
        <time>2015-04-06T13:54:05Z</time>
      </trkpt>
      <trkpt lat="46.18023" lon="2.46999">
        <ele>388</ele>
        <time>2015-04-06T13:54:07Z</time>
      </trkpt>
      <trkpt lat="46.18025" lon="2.46995">
        <ele>388</ele>
        <time>2015-04-06T13:54:09Z</time>
      </trkpt>
      <trkpt lat="46.18027" lon="2.46992">
        <ele>388</ele>
        <time>2015-04-06T13:54:11Z</time>
      </trkpt>
      <trkpt lat="46.1803" lon="2.4699">
        <ele>388</ele>
        <time>2015-04-06T13:54:13Z</time>
      </trkpt>
      <trkpt lat="46.18032" lon="2.46987">
        <ele>387</ele>
        <time>2015-04-06T13:54:15Z</time>
      </trkpt>
      <trkpt lat="46.18036" lon="2.46983">
        <ele>386</ele>
        <time>2015-04-06T13:54:18Z</time>
      </trkpt>
      <trkpt lat="46.18039" lon="2.46981">
        <ele>386</ele>
        <time>2015-04-06T13:54:20Z</time>
      </trkpt>
      <trkpt lat="46.18041" lon="2.46978">
        <ele>386</ele>
        <time>2015-04-06T13:54:22Z</time>
      </trkpt>
      <trkpt lat="46.18044" lon="2.46974">
        <ele>386</ele>
        <time>2015-04-06T13:54:25Z</time>
      </trkpt>
      <trkpt lat="46.18046" lon="2.46972">
        <ele>386</ele>
        <time>2015-04-06T13:54:27Z</time>
      </trkpt>
      <trkpt lat="46.18049" lon="2.4697">
        <ele>386</ele>
        <time>2015-04-06T13:54:29Z</time>
      </trkpt>
      <trkpt lat="46.18052" lon="2.46968">
        <ele>386</ele>
        <time>2015-04-06T13:54:31Z</time>
      </trkpt>
      <trkpt lat="46.18054" lon="2.46965">
        <ele>386</ele>
        <time>2015-04-06T13:54:33Z</time>
      </trkpt>
      <trkpt lat="46.18057" lon="2.46962">
        <ele>386</ele>
        <time>2015-04-06T13:54:35Z</time>
      </trkpt>
      <trkpt lat="46.18059" lon="2.46959">
        <ele>386</ele>
        <time>2015-04-06T13:54:37Z</time>
      </trkpt>
      <trkpt lat="46.18062" lon="2.46957">
        <ele>386</ele>
        <time>2015-04-06T13:54:39Z</time>
      </trkpt>
      <trkpt lat="46.18064" lon="2.46955">
        <ele>386</ele>
        <time>2015-04-06T13:54:41Z</time>
      </trkpt>
      <trkpt lat="46.18066" lon="2.46952">
        <ele>386</ele>
        <time>2015-04-06T13:54:43Z</time>
      </trkpt>
      <trkpt lat="46.18068" lon="2.46948">
        <ele>385</ele>
        <time>2015-04-06T13:54:45Z</time>
      </trkpt>
      <trkpt lat="46.1807" lon="2.46943">
        <ele>385</ele>
        <time>2015-04-06T13:54:47Z</time>
      </trkpt>
      <trkpt lat="46.18072" lon="2.4694">
        <ele>384</ele>
        <time>2015-04-06T13:54:49Z</time>
      </trkpt>
      <trkpt lat="46.18073" lon="2.46936">
        <ele>384</ele>
        <time>2015-04-06T13:54:51Z</time>
      </trkpt>
      <trkpt lat="46.18076" lon="2.46931">
        <ele>383</ele>
        <time>2015-04-06T13:54:54Z</time>
      </trkpt>
      <trkpt lat="46.18078" lon="2.46929">
        <ele>383</ele>
        <time>2015-04-06T13:54:56Z</time>
      </trkpt>
      <trkpt lat="46.18081" lon="2.46926">
        <ele>382</ele>
        <time>2015-04-06T13:54:59Z</time>
      </trkpt>
      <trkpt lat="46.18084" lon="2.46924">
        <ele>382</ele>
        <time>2015-04-06T13:55:01Z</time>
      </trkpt>
      <trkpt lat="46.18085" lon="2.46921">
        <ele>381</ele>
        <time>2015-04-06T13:55:03Z</time>
      </trkpt>
      <trkpt lat="46.18087" lon="2.46918">
        <ele>381</ele>
        <time>2015-04-06T13:55:05Z</time>
      </trkpt>
      <trkpt lat="46.18089" lon="2.46914">
        <ele>380</ele>
        <time>2015-04-06T13:55:07Z</time>
      </trkpt>
      <trkpt lat="46.18092" lon="2.46911">
        <ele>380</ele>
        <time>2015-04-06T13:55:09Z</time>
      </trkpt>
      <trkpt lat="46.18093" lon="2.46908">
        <ele>380</ele>
        <time>2015-04-06T13:55:11Z</time>
      </trkpt>
      <trkpt lat="46.18095" lon="2.46905">
        <ele>379</ele>
        <time>2015-04-06T13:55:13Z</time>
      </trkpt>
      <trkpt lat="46.18098" lon="2.46904">
        <ele>378</ele>
        <time>2015-04-06T13:55:15Z</time>
      </trkpt>
      <trkpt lat="46.181" lon="2.46902">
        <ele>378</ele>
        <time>2015-04-06T13:55:17Z</time>
      </trkpt>
      <trkpt lat="46.18102" lon="2.46899">
        <ele>378</ele>
        <time>2015-04-06T13:55:19Z</time>
      </trkpt>
      <trkpt lat="46.18105" lon="2.46896">
        <ele>378</ele>
        <time>2015-04-06T13:55:21Z</time>
      </trkpt>
      <trkpt lat="46.18108" lon="2.46893">
        <ele>378</ele>
        <time>2015-04-06T13:55:23Z</time>
      </trkpt>
      <trkpt lat="46.1811" lon="2.4689">
        <ele>377</ele>
        <time>2015-04-06T13:55:25Z</time>
      </trkpt>
      <trkpt lat="46.18113" lon="2.46887">
        <ele>377</ele>
        <time>2015-04-06T13:55:28Z</time>
      </trkpt>
      <trkpt lat="46.18115" lon="2.46884">
        <ele>376</ele>
        <time>2015-04-06T13:55:30Z</time>
      </trkpt>
      <trkpt lat="46.18117" lon="2.46881">
        <ele>376</ele>
        <time>2015-04-06T13:55:32Z</time>
      </trkpt>
      <trkpt lat="46.18119" lon="2.46878">
        <ele>375</ele>
        <time>2015-04-06T13:55:34Z</time>
      </trkpt>
      <trkpt lat="46.18121" lon="2.46875">
        <ele>374</ele>
        <time>2015-04-06T13:55:36Z</time>
      </trkpt>
      <trkpt lat="46.18124" lon="2.46871">
        <ele>374</ele>
        <time>2015-04-06T13:55:39Z</time>
      </trkpt>
      <trkpt lat="46.18126" lon="2.46869">
        <ele>374</ele>
        <time>2015-04-06T13:55:41Z</time>
      </trkpt>
      <trkpt lat="46.18129" lon="2.46866">
        <ele>373</ele>
        <time>2015-04-06T13:55:43Z</time>
      </trkpt>
      <trkpt lat="46.1813" lon="2.46863">
        <ele>373</ele>
        <time>2015-04-06T13:55:45Z</time>
      </trkpt>
      <trkpt lat="46.18132" lon="2.46859">
        <ele>372</ele>
        <time>2015-04-06T13:55:47Z</time>
      </trkpt>
      <trkpt lat="46.18132" lon="2.46855">
        <ele>372</ele>
        <time>2015-04-06T13:55:49Z</time>
      </trkpt>
      <trkpt lat="46.18134" lon="2.46851">
        <ele>371</ele>
        <time>2015-04-06T13:55:51Z</time>
      </trkpt>
      <trkpt lat="46.18136" lon="2.46849">
        <ele>371</ele>
        <time>2015-04-06T13:55:53Z</time>
      </trkpt>
      <trkpt lat="46.18137" lon="2.46845">
        <ele>371</ele>
        <time>2015-04-06T13:55:55Z</time>
      </trkpt>
      <trkpt lat="46.18139" lon="2.46842">
        <ele>370</ele>
        <time>2015-04-06T13:55:57Z</time>
      </trkpt>
      <trkpt lat="46.1814" lon="2.46837">
        <ele>370</ele>
        <time>2015-04-06T13:55:59Z</time>
      </trkpt>
      <trkpt lat="46.18142" lon="2.46833">
        <ele>370</ele>
        <time>2015-04-06T13:56:01Z</time>
      </trkpt>
      <trkpt lat="46.18144" lon="2.4683">
        <ele>370</ele>
        <time>2015-04-06T13:56:03Z</time>
      </trkpt>
      <trkpt lat="46.18145" lon="2.46827">
        <ele>370</ele>
        <time>2015-04-06T13:56:05Z</time>
      </trkpt>
      <trkpt lat="46.18148" lon="2.46821">
        <ele>369</ele>
        <time>2015-04-06T13:56:08Z</time>
      </trkpt>
      <trkpt lat="46.18148" lon="2.46818">
        <ele>368</ele>
        <time>2015-04-06T13:56:10Z</time>
      </trkpt>
      <trkpt lat="46.1815" lon="2.46816">
        <ele>367</ele>
        <time>2015-04-06T13:56:12Z</time>
      </trkpt>
      <trkpt lat="46.18152" lon="2.46812">
        <ele>367</ele>
        <time>2015-04-06T13:56:14Z</time>
      </trkpt>
      <trkpt lat="46.18153" lon="2.46808">
        <ele>367</ele>
        <time>2015-04-06T13:56:16Z</time>
      </trkpt>
      <trkpt lat="46.18156" lon="2.46804">
        <ele>367</ele>
        <time>2015-04-06T13:56:18Z</time>
      </trkpt>
      <trkpt lat="46.18157" lon="2.468">
        <ele>366</ele>
        <time>2015-04-06T13:56:20Z</time>
      </trkpt>
      <trkpt lat="46.18159" lon="2.46798">
        <ele>366</ele>
        <time>2015-04-06T13:56:22Z</time>
      </trkpt>
      <trkpt lat="46.18161" lon="2.46794">
        <ele>366</ele>
        <time>2015-04-06T13:56:24Z</time>
      </trkpt>
      <trkpt lat="46.18163" lon="2.46791">
        <ele>366</ele>
        <time>2015-04-06T13:56:26Z</time>
      </trkpt>
      <trkpt lat="46.18164" lon="2.46788">
        <ele>366</ele>
        <time>2015-04-06T13:56:28Z</time>
      </trkpt>
      <trkpt lat="46.18165" lon="2.46784">
        <ele>366</ele>
        <time>2015-04-06T13:56:30Z</time>
      </trkpt>
      <trkpt lat="46.18167" lon="2.4678">
        <ele>366</ele>
        <time>2015-04-06T13:56:32Z</time>
      </trkpt>
      <trkpt lat="46.18169" lon="2.46777">
        <ele>366</ele>
        <time>2015-04-06T13:56:34Z</time>
      </trkpt>
      <trkpt lat="46.1817" lon="2.46773">
        <ele>366</ele>
        <time>2015-04-06T13:56:36Z</time>
      </trkpt>
      <trkpt lat="46.18172" lon="2.46768">
        <ele>366</ele>
        <time>2015-04-06T13:56:39Z</time>
      </trkpt>
      <trkpt lat="46.18173" lon="2.46765">
        <ele>365</ele>
        <time>2015-04-06T13:56:41Z</time>
      </trkpt>
      <trkpt lat="46.18174" lon="2.46762">
        <ele>365</ele>
        <time>2015-04-06T13:56:43Z</time>
      </trkpt>
      <trkpt lat="46.18176" lon="2.46758">
        <ele>365</ele>
        <time>2015-04-06T13:56:45Z</time>
      </trkpt>
      <trkpt lat="46.18177" lon="2.46754">
        <ele>364</ele>
        <time>2015-04-06T13:56:47Z</time>
      </trkpt>
      <trkpt lat="46.18178" lon="2.4675">
        <ele>364</ele>
        <time>2015-04-06T13:56:49Z</time>
      </trkpt>
      <trkpt lat="46.18181" lon="2.46746">
        <ele>364</ele>
        <time>2015-04-06T13:56:52Z</time>
      </trkpt>
      <trkpt lat="46.18184" lon="2.46743">
        <ele>364</ele>
        <time>2015-04-06T13:56:54Z</time>
      </trkpt>
      <trkpt lat="46.18187" lon="2.46741">
        <ele>364</ele>
        <time>2015-04-06T13:56:56Z</time>
      </trkpt>
      <trkpt lat="46.18188" lon="2.46737">
        <ele>364</ele>
        <time>2015-04-06T13:56:58Z</time>
      </trkpt>
      <trkpt lat="46.1819" lon="2.46734">
        <ele>364</ele>
        <time>2015-04-06T13:57:00Z</time>
      </trkpt>
      <trkpt lat="46.18193" lon="2.46732">
        <ele>363</ele>
        <time>2015-04-06T13:57:02Z</time>
      </trkpt>
      <trkpt lat="46.18195" lon="2.46729">
        <ele>363</ele>
        <time>2015-04-06T13:57:04Z</time>
      </trkpt>
      <trkpt lat="46.18198" lon="2.46726">
        <ele>362</ele>
        <time>2015-04-06T13:57:07Z</time>
      </trkpt>
      <trkpt lat="46.182" lon="2.46724">
        <ele>362</ele>
        <time>2015-04-06T13:57:09Z</time>
      </trkpt>
      <trkpt lat="46.18203" lon="2.46722">
        <ele>362</ele>
        <time>2015-04-06T13:57:11Z</time>
      </trkpt>
      <trkpt lat="46.18207" lon="2.46719">
        <ele>361</ele>
        <time>2015-04-06T13:57:14Z</time>
      </trkpt>
      <trkpt lat="46.1821" lon="2.46717">
        <ele>360</ele>
        <time>2015-04-06T13:57:16Z</time>
      </trkpt>
      <trkpt lat="46.18213" lon="2.46713">
        <ele>360</ele>
        <time>2015-04-06T13:57:20Z</time>
      </trkpt>
      <trkpt lat="46.18216" lon="2.46712">
        <ele>359</ele>
        <time>2015-04-06T13:57:22Z</time>
      </trkpt>
      <trkpt lat="46.1822" lon="2.46712">
        <ele>359</ele>
        <time>2015-04-06T13:57:24Z</time>
      </trkpt>
      <trkpt lat="46.18223" lon="2.46712">
        <ele>359</ele>
        <time>2015-04-06T13:57:27Z</time>
      </trkpt>
      <trkpt lat="46.18226" lon="2.46712">
        <ele>359</ele>
        <time>2015-04-06T13:57:29Z</time>
      </trkpt>
      <trkpt lat="46.18229" lon="2.46711">
        <ele>359</ele>
        <time>2015-04-06T13:57:31Z</time>
      </trkpt>
      <trkpt lat="46.18232" lon="2.4671">
        <ele>359</ele>
        <time>2015-04-06T13:57:34Z</time>
      </trkpt>
      <trkpt lat="46.18235" lon="2.4671">
        <ele>359</ele>
        <time>2015-04-06T13:57:36Z</time>
      </trkpt>
      <trkpt lat="46.18237" lon="2.4671">
        <ele>358</ele>
        <time>2015-04-06T13:57:38Z</time>
      </trkpt>
      <trkpt lat="46.1824" lon="2.46708">
        <ele>357</ele>
        <time>2015-04-06T13:57:41Z</time>
      </trkpt>
      <trkpt lat="46.18244" lon="2.46709">
        <ele>357</ele>
        <time>2015-04-06T13:57:43Z</time>
      </trkpt>
      <trkpt lat="46.18246" lon="2.46708">
        <ele>357</ele>
        <time>2015-04-06T13:57:45Z</time>
      </trkpt>
      <trkpt lat="46.18251" lon="2.46706">
        <ele>357</ele>
        <time>2015-04-06T13:57:48Z</time>
      </trkpt>
      <trkpt lat="46.18253" lon="2.46705">
        <ele>356</ele>
        <time>2015-04-06T13:57:50Z</time>
      </trkpt>
      <trkpt lat="46.18256" lon="2.46704">
        <ele>356</ele>
        <time>2015-04-06T13:57:52Z</time>
      </trkpt>
      <trkpt lat="46.18261" lon="2.46704">
        <ele>355</ele>
        <time>2015-04-06T13:57:55Z</time>
      </trkpt>
      <trkpt lat="46.18264" lon="2.46704">
        <ele>355</ele>
        <time>2015-04-06T13:57:57Z</time>
      </trkpt>
      <trkpt lat="46.18268" lon="2.46702">
        <ele>355</ele>
        <time>2015-04-06T13:57:59Z</time>
      </trkpt>
      <trkpt lat="46.18271" lon="2.46702">
        <ele>355</ele>
        <time>2015-04-06T13:58:01Z</time>
      </trkpt>
      <trkpt lat="46.18275" lon="2.46703">
        <ele>355</ele>
        <time>2015-04-06T13:58:03Z</time>
      </trkpt>
      <trkpt lat="46.18278" lon="2.46703">
        <ele>355</ele>
        <time>2015-04-06T13:58:05Z</time>
      </trkpt>
      <trkpt lat="46.18281" lon="2.46704">
        <ele>355</ele>
        <time>2015-04-06T13:58:07Z</time>
      </trkpt>
      <trkpt lat="46.18283" lon="2.46704">
        <ele>354</ele>
        <time>2015-04-06T13:58:09Z</time>
      </trkpt>
      <trkpt lat="46.18287" lon="2.46705">
        <ele>353</ele>
        <time>2015-04-06T13:58:12Z</time>
      </trkpt>
      <trkpt lat="46.18289" lon="2.46705">
        <ele>353</ele>
        <time>2015-04-06T13:58:14Z</time>
      </trkpt>
      <trkpt lat="46.18293" lon="2.46706">
        <ele>351</ele>
        <time>2015-04-06T13:58:17Z</time>
      </trkpt>
      <trkpt lat="46.18298" lon="2.46706">
        <ele>350</ele>
        <time>2015-04-06T13:58:20Z</time>
      </trkpt>
      <trkpt lat="46.183" lon="2.46707">
        <ele>349</ele>
        <time>2015-04-06T13:58:22Z</time>
      </trkpt>
      <trkpt lat="46.18303" lon="2.46707">
        <ele>349</ele>
        <time>2015-04-06T13:58:24Z</time>
      </trkpt>
      <trkpt lat="46.18306" lon="2.46707">
        <ele>348</ele>
        <time>2015-04-06T13:58:26Z</time>
      </trkpt>
      <trkpt lat="46.18309" lon="2.46707">
        <ele>348</ele>
        <time>2015-04-06T13:58:28Z</time>
      </trkpt>
      <trkpt lat="46.18311" lon="2.46706">
        <ele>347</ele>
        <time>2015-04-06T13:58:30Z</time>
      </trkpt>
      <trkpt lat="46.18314" lon="2.46706">
        <ele>346</ele>
        <time>2015-04-06T13:58:32Z</time>
      </trkpt>
      <trkpt lat="46.18317" lon="2.46706">
        <ele>346</ele>
        <time>2015-04-06T13:58:34Z</time>
      </trkpt>
      <trkpt lat="46.1832" lon="2.46706">
        <ele>345</ele>
        <time>2015-04-06T13:58:36Z</time>
      </trkpt>
      <trkpt lat="46.18324" lon="2.46705">
        <ele>344</ele>
        <time>2015-04-06T13:58:38Z</time>
      </trkpt>
      <trkpt lat="46.18326" lon="2.46704">
        <ele>343</ele>
        <time>2015-04-06T13:58:40Z</time>
      </trkpt>
      <trkpt lat="46.18331" lon="2.46703">
        <ele>342</ele>
        <time>2015-04-06T13:58:43Z</time>
      </trkpt>
      <trkpt lat="46.18335" lon="2.46702">
        <ele>342</ele>
        <time>2015-04-06T13:58:45Z</time>
      </trkpt>
      <trkpt lat="46.18339" lon="2.467">
        <ele>341</ele>
        <time>2015-04-06T13:58:48Z</time>
      </trkpt>
      <trkpt lat="46.18342" lon="2.46698">
        <ele>341</ele>
        <time>2015-04-06T13:58:50Z</time>
      </trkpt>
      <trkpt lat="46.18346" lon="2.46697">
        <ele>340</ele>
        <time>2015-04-06T13:58:53Z</time>
      </trkpt>
      <trkpt lat="46.1835" lon="2.46698">
        <ele>340</ele>
        <time>2015-04-06T13:58:56Z</time>
      </trkpt>
      <trkpt lat="46.18354" lon="2.467">
        <ele>340</ele>
        <time>2015-04-06T13:58:59Z</time>
      </trkpt>
      <trkpt lat="46.18357" lon="2.46701">
        <ele>340</ele>
        <time>2015-04-06T13:59:01Z</time>
      </trkpt>
      <trkpt lat="46.18363" lon="2.46702">
        <ele>340</ele>
        <time>2015-04-06T13:59:04Z</time>
      </trkpt>
      <trkpt lat="46.18366" lon="2.46702">
        <ele>340</ele>
        <time>2015-04-06T13:59:06Z</time>
      </trkpt>
      <trkpt lat="46.18371" lon="2.46701">
        <ele>340</ele>
        <time>2015-04-06T13:59:09Z</time>
      </trkpt>
      <trkpt lat="46.18373" lon="2.467">
        <ele>340</ele>
        <time>2015-04-06T13:59:11Z</time>
      </trkpt>
      <trkpt lat="46.18376" lon="2.46697">
        <ele>340</ele>
        <time>2015-04-06T13:59:13Z</time>
      </trkpt>
      <trkpt lat="46.18379" lon="2.46695">
        <ele>340</ele>
        <time>2015-04-06T13:59:15Z</time>
      </trkpt>
      <trkpt lat="46.18382" lon="2.46693">
        <ele>340</ele>
        <time>2015-04-06T13:59:17Z</time>
      </trkpt>
      <trkpt lat="46.18384" lon="2.4669">
        <ele>340</ele>
        <time>2015-04-06T13:59:19Z</time>
      </trkpt>
      <trkpt lat="46.18386" lon="2.46685">
        <ele>340</ele>
        <time>2015-04-06T13:59:22Z</time>
      </trkpt>
      <trkpt lat="46.18389" lon="2.46679">
        <ele>340</ele>
        <time>2015-04-06T13:59:25Z</time>
      </trkpt>
      <trkpt lat="46.18389" lon="2.46675">
        <ele>340</ele>
        <time>2015-04-06T13:59:27Z</time>
      </trkpt>
      <trkpt lat="46.18391" lon="2.46671">
        <ele>340</ele>
        <time>2015-04-06T13:59:29Z</time>
      </trkpt>
      <trkpt lat="46.18392" lon="2.46666">
        <ele>340</ele>
        <time>2015-04-06T13:59:31Z</time>
      </trkpt>
      <trkpt lat="46.18394" lon="2.46661">
        <ele>340</ele>
        <time>2015-04-06T13:59:33Z</time>
      </trkpt>
      <trkpt lat="46.18396" lon="2.46657">
        <ele>340</ele>
        <time>2015-04-06T13:59:35Z</time>
      </trkpt>
      <trkpt lat="46.18397" lon="2.46654">
        <ele>340</ele>
        <time>2015-04-06T13:59:37Z</time>
      </trkpt>
      <trkpt lat="46.18398" lon="2.46651">
        <ele>340</ele>
        <time>2015-04-06T13:59:39Z</time>
      </trkpt>
      <trkpt lat="46.18399" lon="2.46649">
        <ele>340</ele>
        <time>2015-04-06T13:59:41Z</time>
      </trkpt>
      <trkpt lat="46.18401" lon="2.46647">
        <ele>340</ele>
        <time>2015-04-06T13:59:43Z</time>
      </trkpt>
      <trkpt lat="46.18403" lon="2.46644">
        <ele>340</ele>
        <time>2015-04-06T13:59:45Z</time>
      </trkpt>
      <trkpt lat="46.18405" lon="2.4664">
        <ele>340</ele>
        <time>2015-04-06T13:59:48Z</time>
      </trkpt>
      <trkpt lat="46.18407" lon="2.46637">
        <ele>339</ele>
        <time>2015-04-06T13:59:50Z</time>
      </trkpt>
      <trkpt lat="46.1841" lon="2.46635">
        <ele>338</ele>
        <time>2015-04-06T13:59:52Z</time>
      </trkpt>
      <trkpt lat="46.18413" lon="2.46631">
        <ele>337</ele>
        <time>2015-04-06T13:59:55Z</time>
      </trkpt>
      <trkpt lat="46.18415" lon="2.46628">
        <ele>336</ele>
        <time>2015-04-06T13:59:57Z</time>
      </trkpt>
      <trkpt lat="46.18416" lon="2.46625">
        <ele>335</ele>
        <time>2015-04-06T13:59:59Z</time>
      </trkpt>
      <trkpt lat="46.18418" lon="2.4662">
        <ele>335</ele>
        <time>2015-04-06T14:00:01Z</time>
      </trkpt>
      <trkpt lat="46.1842" lon="2.46617">
        <ele>335</ele>
        <time>2015-04-06T14:00:03Z</time>
      </trkpt>
      <trkpt lat="46.18423" lon="2.46614">
        <ele>335</ele>
        <time>2015-04-06T14:00:05Z</time>
      </trkpt>
      <trkpt lat="46.18425" lon="2.46611">
        <ele>335</ele>
        <time>2015-04-06T14:00:07Z</time>
      </trkpt>
      <trkpt lat="46.18426" lon="2.46607">
        <ele>335</ele>
        <time>2015-04-06T14:00:09Z</time>
      </trkpt>
      <trkpt lat="46.18429" lon="2.46604">
        <ele>335</ele>
        <time>2015-04-06T14:00:11Z</time>
      </trkpt>
      <trkpt lat="46.18431" lon="2.46601">
        <ele>335</ele>
        <time>2015-04-06T14:00:13Z</time>
      </trkpt>
      <trkpt lat="46.18433" lon="2.46598">
        <ele>335</ele>
        <time>2015-04-06T14:00:15Z</time>
      </trkpt>
      <trkpt lat="46.18434" lon="2.46594">
        <ele>335</ele>
        <time>2015-04-06T14:00:17Z</time>
      </trkpt>
      <trkpt lat="46.18436" lon="2.46591">
        <ele>335</ele>
        <time>2015-04-06T14:00:19Z</time>
      </trkpt>
      <trkpt lat="46.18438" lon="2.46587">
        <ele>335</ele>
        <time>2015-04-06T14:00:21Z</time>
      </trkpt>
      <trkpt lat="46.18439" lon="2.46581">
        <ele>335</ele>
        <time>2015-04-06T14:00:23Z</time>
      </trkpt>
      <trkpt lat="46.18441" lon="2.46578">
        <ele>335</ele>
        <time>2015-04-06T14:00:25Z</time>
      </trkpt>
      <trkpt lat="46.18442" lon="2.46574">
        <ele>335</ele>
        <time>2015-04-06T14:00:27Z</time>
      </trkpt>
      <trkpt lat="46.18443" lon="2.4657">
        <ele>335</ele>
        <time>2015-04-06T14:00:29Z</time>
      </trkpt>
      <trkpt lat="46.18445" lon="2.46568">
        <ele>335</ele>
        <time>2015-04-06T14:00:31Z</time>
      </trkpt>
      <trkpt lat="46.18447" lon="2.46564">
        <ele>334</ele>
        <time>2015-04-06T14:00:33Z</time>
      </trkpt>
      <trkpt lat="46.18449" lon="2.4656">
        <ele>334</ele>
        <time>2015-04-06T14:00:35Z</time>
      </trkpt>
      <trkpt lat="46.18449" lon="2.46556">
        <ele>334</ele>
        <time>2015-04-06T14:00:37Z</time>
      </trkpt>
      <trkpt lat="46.1845" lon="2.46552">
        <ele>334</ele>
        <time>2015-04-06T14:00:39Z</time>
      </trkpt>
      <trkpt lat="46.18452" lon="2.46548">
        <ele>334</ele>
        <time>2015-04-06T14:00:41Z</time>
      </trkpt>
      <trkpt lat="46.18453" lon="2.46542">
        <ele>334</ele>
        <time>2015-04-06T14:00:43Z</time>
      </trkpt>
      <trkpt lat="46.18454" lon="2.46535">
        <ele>334</ele>
        <time>2015-04-06T14:00:45Z</time>
      </trkpt>
      <trkpt lat="46.18456" lon="2.4653">
        <ele>334</ele>
        <time>2015-04-06T14:00:48Z</time>
      </trkpt>
      <trkpt lat="46.18458" lon="2.46527">
        <ele>334</ele>
        <time>2015-04-06T14:00:50Z</time>
      </trkpt>
      <trkpt lat="46.18461" lon="2.46522">
        <ele>334</ele>
        <time>2015-04-06T14:00:53Z</time>
      </trkpt>
      <trkpt lat="46.18462" lon="2.46518">
        <ele>334</ele>
        <time>2015-04-06T14:00:55Z</time>
      </trkpt>
      <trkpt lat="46.18463" lon="2.46514">
        <ele>334</ele>
        <time>2015-04-06T14:00:57Z</time>
      </trkpt>
      <trkpt lat="46.18464" lon="2.4651">
        <ele>334</ele>
        <time>2015-04-06T14:01:00Z</time>
      </trkpt>
      <trkpt lat="46.18464" lon="2.46509">
        <ele>334</ele>
        <time>2015-04-06T14:01:03Z</time>
      </trkpt>
      <trkpt lat="46.18465" lon="2.46511">
        <ele>334</ele>
        <time>2015-04-06T14:01:05Z</time>
      </trkpt>
      <trkpt lat="46.18465" lon="2.46509">
        <ele>334</ele>
        <time>2015-04-06T14:01:07Z</time>
      </trkpt>
      <trkpt lat="46.18464" lon="2.46506">
        <ele>334</ele>
        <time>2015-04-06T14:01:11Z</time>
      </trkpt>
      <trkpt lat="46.18462" lon="2.46506">
        <ele>334</ele>
        <time>2015-04-06T14:01:21Z</time>
      </trkpt>
      <trkpt lat="46.18462" lon="2.46508">
        <ele>334</ele>
        <time>2015-04-06T14:01:26Z</time>
      </trkpt>
      <trkpt lat="46.18461" lon="2.46506">
        <ele>334</ele>
        <time>2015-04-06T14:01:35Z</time>
      </trkpt>
      <trkpt lat="46.1846" lon="2.46503">
        <ele>335</ele>
        <time>2015-04-06T14:01:41Z</time>
      </trkpt>
      <trkpt lat="46.1846" lon="2.46502">
        <ele>336</ele>
        <time>2015-04-06T14:01:45Z</time>
      </trkpt>
      <trkpt lat="46.18459" lon="2.465">
        <ele>337</ele>
        <time>2015-04-06T14:01:47Z</time>
      </trkpt>
      <trkpt lat="46.18459" lon="2.46498">
        <ele>338</ele>
        <time>2015-04-06T14:01:49Z</time>
      </trkpt>
      <trkpt lat="46.18459" lon="2.46495">
        <ele>339</ele>
        <time>2015-04-06T14:01:51Z</time>
      </trkpt>
      <trkpt lat="46.18459" lon="2.46492">
        <ele>340</ele>
        <time>2015-04-06T14:01:53Z</time>
      </trkpt>
      <trkpt lat="46.1846" lon="2.46488">
        <ele>340</ele>
        <time>2015-04-06T14:01:55Z</time>
      </trkpt>
      <trkpt lat="46.1846" lon="2.46482">
        <ele>340</ele>
        <time>2015-04-06T14:01:58Z</time>
      </trkpt>
      <trkpt lat="46.1846" lon="2.46478">
        <ele>340</ele>
        <time>2015-04-06T14:02:01Z</time>
      </trkpt>
      <trkpt lat="46.18461" lon="2.46475">
        <ele>340</ele>
        <time>2015-04-06T14:02:03Z</time>
      </trkpt>
      <trkpt lat="46.18461" lon="2.46472">
        <ele>340</ele>
        <time>2015-04-06T14:02:05Z</time>
      </trkpt>
      <trkpt lat="46.18461" lon="2.46469">
        <ele>340</ele>
        <time>2015-04-06T14:02:07Z</time>
      </trkpt>
      <trkpt lat="46.18462" lon="2.46465">
        <ele>340</ele>
        <time>2015-04-06T14:02:09Z</time>
      </trkpt>
      <trkpt lat="46.18462" lon="2.46461">
        <ele>339</ele>
        <time>2015-04-06T14:02:11Z</time>
      </trkpt>
      <trkpt lat="46.18461" lon="2.46456">
        <ele>339</ele>
        <time>2015-04-06T14:02:13Z</time>
      </trkpt>
      <trkpt lat="46.1846" lon="2.46451">
        <ele>339</ele>
        <time>2015-04-06T14:02:15Z</time>
      </trkpt>
      <trkpt lat="46.18458" lon="2.46449">
        <ele>339</ele>
        <time>2015-04-06T14:02:17Z</time>
      </trkpt>
      <trkpt lat="46.1846" lon="2.46451">
        <ele>339</ele>
        <time>2015-04-06T14:02:21Z</time>
      </trkpt>
      <trkpt lat="46.18461" lon="2.46449">
        <ele>339</ele>
        <time>2015-04-06T14:02:29Z</time>
      </trkpt>
      <trkpt lat="46.1846" lon="2.46447">
        <ele>338</ele>
        <time>2015-04-06T14:02:35Z</time>
      </trkpt>
      <trkpt lat="46.18457" lon="2.46445">
        <ele>338</ele>
        <time>2015-04-06T14:02:38Z</time>
      </trkpt>
      <trkpt lat="46.18452" lon="2.46444">
        <ele>337</ele>
        <time>2015-04-06T14:02:41Z</time>
      </trkpt>
      <trkpt lat="46.1845" lon="2.46443">
        <ele>336</ele>
        <time>2015-04-06T14:02:43Z</time>
      </trkpt>
      <trkpt lat="46.18447" lon="2.46443">
        <ele>336</ele>
        <time>2015-04-06T14:02:45Z</time>
      </trkpt>
      <trkpt lat="46.18444" lon="2.46441">
        <ele>336</ele>
        <time>2015-04-06T14:02:47Z</time>
      </trkpt>
      <trkpt lat="46.18441" lon="2.46441">
        <ele>335</ele>
        <time>2015-04-06T14:02:49Z</time>
      </trkpt>
      <trkpt lat="46.18438" lon="2.4644">
        <ele>335</ele>
        <time>2015-04-06T14:02:51Z</time>
      </trkpt>
      <trkpt lat="46.18435" lon="2.4644">
        <ele>335</ele>
        <time>2015-04-06T14:02:53Z</time>
      </trkpt>
      <trkpt lat="46.18431" lon="2.46441">
        <ele>335</ele>
        <time>2015-04-06T14:02:55Z</time>
      </trkpt>
      <trkpt lat="46.18427" lon="2.46442">
        <ele>334</ele>
        <time>2015-04-06T14:02:58Z</time>
      </trkpt>
      <trkpt lat="46.18422" lon="2.46444">
        <ele>334</ele>
        <time>2015-04-06T14:03:01Z</time>
      </trkpt>
      <trkpt lat="46.18418" lon="2.46446">
        <ele>334</ele>
        <time>2015-04-06T14:03:04Z</time>
      </trkpt>
      <trkpt lat="46.18415" lon="2.46448">
        <ele>334</ele>
        <time>2015-04-06T14:03:06Z</time>
      </trkpt>
      <trkpt lat="46.1841" lon="2.46451">
        <ele>334</ele>
        <time>2015-04-06T14:03:10Z</time>
      </trkpt>
      <trkpt lat="46.18408" lon="2.46454">
        <ele>334</ele>
        <time>2015-04-06T14:03:12Z</time>
      </trkpt>
      <trkpt lat="46.18405" lon="2.46457">
        <ele>333</ele>
        <time>2015-04-06T14:03:15Z</time>
      </trkpt>
      <trkpt lat="46.18403" lon="2.4646">
        <ele>333</ele>
        <time>2015-04-06T14:03:17Z</time>
      </trkpt>
      <trkpt lat="46.18399" lon="2.46463">
        <ele>333</ele>
        <time>2015-04-06T14:03:20Z</time>
      </trkpt>
      <trkpt lat="46.18397" lon="2.46466">
        <ele>333</ele>
        <time>2015-04-06T14:03:23Z</time>
      </trkpt>
      <trkpt lat="46.18397" lon="2.46464">
        <ele>333</ele>
        <time>2015-04-06T14:03:28Z</time>
      </trkpt>
      <trkpt lat="46.18398" lon="2.46463">
        <ele>333</ele>
        <time>2015-04-06T14:03:32Z</time>
      </trkpt>
      <trkpt lat="46.18399" lon="2.46464">
        <ele>333</ele>
        <time>2015-04-06T14:03:34Z</time>
      </trkpt>
      <trkpt lat="46.18402" lon="2.46462">
        <ele>334</ele>
        <time>2015-04-06T14:03:37Z</time>
      </trkpt>
      <trkpt lat="46.18404" lon="2.46462">
        <ele>335</ele>
        <time>2015-04-06T14:03:39Z</time>
      </trkpt>
      <trkpt lat="46.18406" lon="2.46462">
        <ele>336</ele>
        <time>2015-04-06T14:03:41Z</time>
      </trkpt>
      <trkpt lat="46.18409" lon="2.46458">
        <ele>337</ele>
        <time>2015-04-06T14:03:44Z</time>
      </trkpt>
      <trkpt lat="46.1841" lon="2.46456">
        <ele>337</ele>
        <time>2015-04-06T14:03:46Z</time>
      </trkpt>
      <trkpt lat="46.18409" lon="2.46454">
        <ele>337</ele>
        <time>2015-04-06T14:03:48Z</time>
      </trkpt>
      <trkpt lat="46.1841" lon="2.46451">
        <ele>337</ele>
        <time>2015-04-06T14:03:50Z</time>
      </trkpt>
      <trkpt lat="46.18409" lon="2.46445">
        <ele>337</ele>
        <time>2015-04-06T14:03:53Z</time>
      </trkpt>
      <trkpt lat="46.18408" lon="2.46443">
        <ele>337</ele>
        <time>2015-04-06T14:03:55Z</time>
      </trkpt>
      <trkpt lat="46.18405" lon="2.4644">
        <ele>337</ele>
        <time>2015-04-06T14:03:57Z</time>
      </trkpt>
      <trkpt lat="46.18403" lon="2.46439">
        <ele>337</ele>
        <time>2015-04-06T14:03:59Z</time>
      </trkpt>
      <trkpt lat="46.18399" lon="2.46437">
        <ele>337</ele>
        <time>2015-04-06T14:04:02Z</time>
      </trkpt>
      <trkpt lat="46.18396" lon="2.46437">
        <ele>337</ele>
        <time>2015-04-06T14:04:05Z</time>
      </trkpt>
      <trkpt lat="46.18394" lon="2.46435">
        <ele>337</ele>
        <time>2015-04-06T14:04:08Z</time>
      </trkpt>
      <trkpt lat="46.18393" lon="2.46431">
        <ele>337</ele>
        <time>2015-04-06T14:04:10Z</time>
      </trkpt>
      <trkpt lat="46.18392" lon="2.46427">
        <ele>337</ele>
        <time>2015-04-06T14:04:12Z</time>
      </trkpt>
      <trkpt lat="46.18391" lon="2.46422">
        <ele>337</ele>
        <time>2015-04-06T14:04:14Z</time>
      </trkpt>
      <trkpt lat="46.18391" lon="2.46418">
        <ele>337</ele>
        <time>2015-04-06T14:04:16Z</time>
      </trkpt>
      <trkpt lat="46.18393" lon="2.46414">
        <ele>336</ele>
        <time>2015-04-06T14:04:18Z</time>
      </trkpt>
      <trkpt lat="46.18394" lon="2.46409">
        <ele>336</ele>
        <time>2015-04-06T14:04:21Z</time>
      </trkpt>
      <trkpt lat="46.18394" lon="2.46406">
        <ele>336</ele>
        <time>2015-04-06T14:04:23Z</time>
      </trkpt>
      <trkpt lat="46.18393" lon="2.46402">
        <ele>336</ele>
        <time>2015-04-06T14:04:25Z</time>
      </trkpt>
      <trkpt lat="46.18392" lon="2.46397">
        <ele>336</ele>
        <time>2015-04-06T14:04:27Z</time>
      </trkpt>
      <trkpt lat="46.18391" lon="2.46393">
        <ele>336</ele>
        <time>2015-04-06T14:04:29Z</time>
      </trkpt>
      <trkpt lat="46.1839" lon="2.46389">
        <ele>336</ele>
        <time>2015-04-06T14:04:31Z</time>
      </trkpt>
      <trkpt lat="46.18389" lon="2.46386">
        <ele>336</ele>
        <time>2015-04-06T14:04:33Z</time>
      </trkpt>
      <trkpt lat="46.18388" lon="2.46382">
        <ele>336</ele>
        <time>2015-04-06T14:04:36Z</time>
      </trkpt>
      <trkpt lat="46.18388" lon="2.46378">
        <ele>336</ele>
        <time>2015-04-06T14:04:38Z</time>
      </trkpt>
      <trkpt lat="46.18386" lon="2.46374">
        <ele>336</ele>
        <time>2015-04-06T14:04:40Z</time>
      </trkpt>
      <trkpt lat="46.18385" lon="2.4637">
        <ele>336</ele>
        <time>2015-04-06T14:04:42Z</time>
      </trkpt>
      <trkpt lat="46.18384" lon="2.46365">
        <ele>336</ele>
        <time>2015-04-06T14:04:44Z</time>
      </trkpt>
      <trkpt lat="46.18383" lon="2.46363">
        <ele>336</ele>
        <time>2015-04-06T14:04:46Z</time>
      </trkpt>
      <trkpt lat="46.18383" lon="2.4636">
        <ele>336</ele>
        <time>2015-04-06T14:04:48Z</time>
      </trkpt>
      <trkpt lat="46.18382" lon="2.46355">
        <ele>336</ele>
        <time>2015-04-06T14:04:51Z</time>
      </trkpt>
      <trkpt lat="46.18382" lon="2.46353">
        <ele>336</ele>
        <time>2015-04-06T14:04:53Z</time>
      </trkpt>
      <trkpt lat="46.1838" lon="2.46349">
        <ele>336</ele>
        <time>2015-04-06T14:04:55Z</time>
      </trkpt>
      <trkpt lat="46.18379" lon="2.46345">
        <ele>336</ele>
        <time>2015-04-06T14:04:57Z</time>
      </trkpt>
      <trkpt lat="46.18379" lon="2.46342">
        <ele>336</ele>
        <time>2015-04-06T14:04:59Z</time>
      </trkpt>
      <trkpt lat="46.18378" lon="2.46338">
        <ele>337</ele>
        <time>2015-04-06T14:05:01Z</time>
      </trkpt>
      <trkpt lat="46.18377" lon="2.46335">
        <ele>337</ele>
        <time>2015-04-06T14:05:03Z</time>
      </trkpt>
      <trkpt lat="46.18376" lon="2.4633">
        <ele>338</ele>
        <time>2015-04-06T14:05:06Z</time>
      </trkpt>
      <trkpt lat="46.18375" lon="2.46327">
        <ele>338</ele>
        <time>2015-04-06T14:05:08Z</time>
      </trkpt>
      <trkpt lat="46.18375" lon="2.46324">
        <ele>338</ele>
        <time>2015-04-06T14:05:10Z</time>
      </trkpt>
      <trkpt lat="46.18375" lon="2.46319">
        <ele>339</ele>
        <time>2015-04-06T14:05:13Z</time>
      </trkpt>
      <trkpt lat="46.18374" lon="2.46316">
        <ele>339</ele>
        <time>2015-04-06T14:05:15Z</time>
      </trkpt>
      <trkpt lat="46.18373" lon="2.46312">
        <ele>340</ele>
        <time>2015-04-06T14:05:17Z</time>
      </trkpt>
      <trkpt lat="46.18372" lon="2.46309">
        <ele>340</ele>
        <time>2015-04-06T14:05:19Z</time>
      </trkpt>
      <trkpt lat="46.18369" lon="2.46307">
        <ele>341</ele>
        <time>2015-04-06T14:05:22Z</time>
      </trkpt>
      <trkpt lat="46.18368" lon="2.46308">
        <ele>341</ele>
        <time>2015-04-06T14:05:24Z</time>
      </trkpt>
      <trkpt lat="46.18367" lon="2.46311">
        <ele>341</ele>
        <time>2015-04-06T14:05:26Z</time>
      </trkpt>
      <trkpt lat="46.18367" lon="2.46317">
        <ele>341</ele>
        <time>2015-04-06T14:05:29Z</time>
      </trkpt>
      <trkpt lat="46.18368" lon="2.46322">
        <ele>342</ele>
        <time>2015-04-06T14:05:32Z</time>
      </trkpt>
      <trkpt lat="46.18368" lon="2.46326">
        <ele>342</ele>
        <time>2015-04-06T14:05:34Z</time>
      </trkpt>
      <trkpt lat="46.18367" lon="2.4633">
        <ele>342</ele>
        <time>2015-04-06T14:05:36Z</time>
      </trkpt>
      <trkpt lat="46.18367" lon="2.46335">
        <ele>343</ele>
        <time>2015-04-06T14:05:38Z</time>
      </trkpt>
      <trkpt lat="46.18368" lon="2.46339">
        <ele>345</ele>
        <time>2015-04-06T14:05:41Z</time>
      </trkpt>
      <trkpt lat="46.18368" lon="2.46343">
        <ele>345</ele>
        <time>2015-04-06T14:05:44Z</time>
      </trkpt>
      <trkpt lat="46.18369" lon="2.46346">
        <ele>345</ele>
        <time>2015-04-06T14:05:46Z</time>
      </trkpt>
      <trkpt lat="46.18369" lon="2.4635">
        <ele>346</ele>
        <time>2015-04-06T14:05:48Z</time>
      </trkpt>
      <trkpt lat="46.18369" lon="2.46354">
        <ele>346</ele>
        <time>2015-04-06T14:05:50Z</time>
      </trkpt>
      <trkpt lat="46.18369" lon="2.46357">
        <ele>346</ele>
        <time>2015-04-06T14:05:52Z</time>
      </trkpt>
      <trkpt lat="46.18368" lon="2.46361">
        <ele>346</ele>
        <time>2015-04-06T14:05:54Z</time>
      </trkpt>
      <trkpt lat="46.18367" lon="2.46364">
        <ele>346</ele>
        <time>2015-04-06T14:05:56Z</time>
      </trkpt>
      <trkpt lat="46.18367" lon="2.46368">
        <ele>346</ele>
        <time>2015-04-06T14:05:58Z</time>
      </trkpt>
      <trkpt lat="46.18366" lon="2.46371">
        <ele>346</ele>
        <time>2015-04-06T14:06:01Z</time>
      </trkpt>
      <trkpt lat="46.18365" lon="2.46374">
        <ele>346</ele>
        <time>2015-04-06T14:06:03Z</time>
      </trkpt>
      <trkpt lat="46.18364" lon="2.46377">
        <ele>345</ele>
        <time>2015-04-06T14:06:05Z</time>
      </trkpt>
      <trkpt lat="46.18363" lon="2.46381">
        <ele>344</ele>
        <time>2015-04-06T14:06:07Z</time>
      </trkpt>
      <trkpt lat="46.18362" lon="2.46385">
        <ele>344</ele>
        <time>2015-04-06T14:06:09Z</time>
      </trkpt>
      <trkpt lat="46.18361" lon="2.46388">
        <ele>344</ele>
        <time>2015-04-06T14:06:11Z</time>
      </trkpt>
      <trkpt lat="46.18361" lon="2.46391">
        <ele>344</ele>
        <time>2015-04-06T14:06:13Z</time>
      </trkpt>
      <trkpt lat="46.18358" lon="2.46396">
        <ele>344</ele>
        <time>2015-04-06T14:06:17Z</time>
      </trkpt>
      <trkpt lat="46.18356" lon="2.46402">
        <ele>344</ele>
        <time>2015-04-06T14:06:21Z</time>
      </trkpt>
      <trkpt lat="46.18354" lon="2.46403">
        <ele>344</ele>
        <time>2015-04-06T14:06:23Z</time>
      </trkpt>
      <trkpt lat="46.18354" lon="2.464">
        <ele>344</ele>
        <time>2015-04-06T14:06:28Z</time>
      </trkpt>
      <trkpt lat="46.18354" lon="2.46397">
        <ele>344</ele>
        <time>2015-04-06T14:06:30Z</time>
      </trkpt>
      <trkpt lat="46.18355" lon="2.46394">
        <ele>344</ele>
        <time>2015-04-06T14:06:32Z</time>
      </trkpt>
      <trkpt lat="46.18355" lon="2.46391">
        <ele>344</ele>
        <time>2015-04-06T14:06:34Z</time>
      </trkpt>
      <trkpt lat="46.18355" lon="2.46389">
        <ele>344</ele>
        <time>2015-04-06T14:06:36Z</time>
      </trkpt>
      <trkpt lat="46.18355" lon="2.46382">
        <ele>344</ele>
        <time>2015-04-06T14:06:40Z</time>
      </trkpt>
      <trkpt lat="46.18356" lon="2.46377">
        <ele>344</ele>
        <time>2015-04-06T14:06:44Z</time>
      </trkpt>
      <trkpt lat="46.18357" lon="2.46374">
        <ele>344</ele>
        <time>2015-04-06T14:06:46Z</time>
      </trkpt>
      <trkpt lat="46.18357" lon="2.46368">
        <ele>344</ele>
        <time>2015-04-06T14:06:49Z</time>
      </trkpt>
      <trkpt lat="46.18356" lon="2.46363">
        <ele>344</ele>
        <time>2015-04-06T14:06:51Z</time>
      </trkpt>
      <trkpt lat="46.18358" lon="2.46356">
        <ele>345</ele>
        <time>2015-04-06T14:06:55Z</time>
      </trkpt>
      <trkpt lat="46.18358" lon="2.4635">
        <ele>346</ele>
        <time>2015-04-06T14:06:58Z</time>
      </trkpt>
      <trkpt lat="46.18358" lon="2.46346">
        <ele>346</ele>
        <time>2015-04-06T14:07:00Z</time>
      </trkpt>
      <trkpt lat="46.18358" lon="2.46342">
        <ele>347</ele>
        <time>2015-04-06T14:07:02Z</time>
      </trkpt>
      <trkpt lat="46.18358" lon="2.46339">
        <ele>347</ele>
        <time>2015-04-06T14:07:04Z</time>
      </trkpt>
      <trkpt lat="46.18358" lon="2.46336">
        <ele>347</ele>
        <time>2015-04-06T14:07:06Z</time>
      </trkpt>
      <trkpt lat="46.18357" lon="2.46333">
        <ele>348</ele>
        <time>2015-04-06T14:07:08Z</time>
      </trkpt>
      <trkpt lat="46.18357" lon="2.46329">
        <ele>348</ele>
        <time>2015-04-06T14:07:10Z</time>
      </trkpt>
      <trkpt lat="46.18357" lon="2.46326">
        <ele>348</ele>
        <time>2015-04-06T14:07:12Z</time>
      </trkpt>
      <trkpt lat="46.18356" lon="2.4632">
        <ele>349</ele>
        <time>2015-04-06T14:07:16Z</time>
      </trkpt>
      <trkpt lat="46.18356" lon="2.46315">
        <ele>349</ele>
        <time>2015-04-06T14:07:18Z</time>
      </trkpt>
      <trkpt lat="46.18354" lon="2.4631">
        <ele>349</ele>
        <time>2015-04-06T14:07:21Z</time>
      </trkpt>
      <trkpt lat="46.18354" lon="2.46306">
        <ele>349</ele>
        <time>2015-04-06T14:07:23Z</time>
      </trkpt>
      <trkpt lat="46.18352" lon="2.463">
        <ele>349</ele>
        <time>2015-04-06T14:07:27Z</time>
      </trkpt>
      <trkpt lat="46.1835" lon="2.46296">
        <ele>349</ele>
        <time>2015-04-06T14:07:29Z</time>
      </trkpt>
      <trkpt lat="46.18348" lon="2.46293">
        <ele>349</ele>
        <time>2015-04-06T14:07:31Z</time>
      </trkpt>
      <trkpt lat="46.18346" lon="2.46288">
        <ele>350</ele>
        <time>2015-04-06T14:07:34Z</time>
      </trkpt>
      <trkpt lat="46.18345" lon="2.46286">
        <ele>351</ele>
        <time>2015-04-06T14:07:36Z</time>
      </trkpt>
      <trkpt lat="46.18341" lon="2.46281">
        <ele>352</ele>
        <time>2015-04-06T14:07:39Z</time>
      </trkpt>
      <trkpt lat="46.18338" lon="2.46277">
        <ele>354</ele>
        <time>2015-04-06T14:07:42Z</time>
      </trkpt>
      <trkpt lat="46.18335" lon="2.46278">
        <ele>355</ele>
        <time>2015-04-06T14:07:45Z</time>
      </trkpt>
      <trkpt lat="46.18332" lon="2.46276">
        <ele>356</ele>
        <time>2015-04-06T14:07:48Z</time>
      </trkpt>
      <trkpt lat="46.18329" lon="2.46275">
        <ele>357</ele>
        <time>2015-04-06T14:07:50Z</time>
      </trkpt>
      <trkpt lat="46.18326" lon="2.46274">
        <ele>357</ele>
        <time>2015-04-06T14:07:53Z</time>
      </trkpt>
      <trkpt lat="46.18324" lon="2.46274">
        <ele>357</ele>
        <time>2015-04-06T14:07:55Z</time>
      </trkpt>
      <trkpt lat="46.18319" lon="2.46273">
        <ele>358</ele>
        <time>2015-04-06T14:07:59Z</time>
      </trkpt>
      <trkpt lat="46.18317" lon="2.46272">
        <ele>359</ele>
        <time>2015-04-06T14:08:01Z</time>
      </trkpt>
      <trkpt lat="46.18314" lon="2.46271">
        <ele>360</ele>
        <time>2015-04-06T14:08:04Z</time>
      </trkpt>
      <trkpt lat="46.18312" lon="2.46269">
        <ele>362</ele>
        <time>2015-04-06T14:08:06Z</time>
      </trkpt>
      <trkpt lat="46.1831" lon="2.4627">
        <ele>362</ele>
        <time>2015-04-06T14:08:09Z</time>
      </trkpt>
      <trkpt lat="46.18308" lon="2.4627">
        <ele>362</ele>
        <time>2015-04-06T14:08:11Z</time>
      </trkpt>
      <trkpt lat="46.18305" lon="2.4627">
        <ele>362</ele>
        <time>2015-04-06T14:08:14Z</time>
      </trkpt>
      <trkpt lat="46.18303" lon="2.4627">
        <ele>362</ele>
        <time>2015-04-06T14:08:16Z</time>
      </trkpt>
      <trkpt lat="46.18298" lon="2.46269">
        <ele>362</ele>
        <time>2015-04-06T14:08:19Z</time>
      </trkpt>
      <trkpt lat="46.18296" lon="2.4627">
        <ele>362</ele>
        <time>2015-04-06T14:08:21Z</time>
      </trkpt>
      <trkpt lat="46.18292" lon="2.4627">
        <ele>362</ele>
        <time>2015-04-06T14:08:24Z</time>
      </trkpt>
      <trkpt lat="46.18289" lon="2.4627">
        <ele>362</ele>
        <time>2015-04-06T14:08:26Z</time>
      </trkpt>
      <trkpt lat="46.18285" lon="2.46271">
        <ele>362</ele>
        <time>2015-04-06T14:08:30Z</time>
      </trkpt>
      <trkpt lat="46.18282" lon="2.46271">
        <ele>362</ele>
        <time>2015-04-06T14:08:32Z</time>
      </trkpt>
      <trkpt lat="46.1828" lon="2.46271">
        <ele>362</ele>
        <time>2015-04-06T14:08:34Z</time>
      </trkpt>
      <trkpt lat="46.18277" lon="2.4627">
        <ele>362</ele>
        <time>2015-04-06T14:08:36Z</time>
      </trkpt>
      <trkpt lat="46.18274" lon="2.46269">
        <ele>362</ele>
        <time>2015-04-06T14:08:40Z</time>
      </trkpt>
      <trkpt lat="46.18271" lon="2.46268">
        <ele>363</ele>
        <time>2015-04-06T14:08:42Z</time>
      </trkpt>
      <trkpt lat="46.18269" lon="2.46266">
        <ele>364</ele>
        <time>2015-04-06T14:08:44Z</time>
      </trkpt>
      <trkpt lat="46.18266" lon="2.46266">
        <ele>364</ele>
        <time>2015-04-06T14:08:46Z</time>
      </trkpt>
      <trkpt lat="46.18262" lon="2.46263">
        <ele>365</ele>
        <time>2015-04-06T14:08:49Z</time>
      </trkpt>
      <trkpt lat="46.18259" lon="2.4626">
        <ele>366</ele>
        <time>2015-04-06T14:08:51Z</time>
      </trkpt>
      <trkpt lat="46.18254" lon="2.46256">
        <ele>369</ele>
        <time>2015-04-06T14:08:55Z</time>
      </trkpt>
      <trkpt lat="46.18251" lon="2.46252">
        <ele>369</ele>
        <time>2015-04-06T14:08:57Z</time>
      </trkpt>
      <trkpt lat="46.18249" lon="2.46248">
        <ele>370</ele>
        <time>2015-04-06T14:09:00Z</time>
      </trkpt>
      <trkpt lat="46.18247" lon="2.46245">
        <ele>370</ele>
        <time>2015-04-06T14:09:03Z</time>
      </trkpt>
      <trkpt lat="46.18247" lon="2.46242">
        <ele>370</ele>
        <time>2015-04-06T14:09:05Z</time>
      </trkpt>
      <trkpt lat="46.18247" lon="2.46239">
        <ele>370</ele>
        <time>2015-04-06T14:09:07Z</time>
      </trkpt>
      <trkpt lat="46.18247" lon="2.46236">
        <ele>370</ele>
        <time>2015-04-06T14:09:11Z</time>
      </trkpt>
      <trkpt lat="46.18248" lon="2.46234">
        <ele>371</ele>
        <time>2015-04-06T14:09:13Z</time>
      </trkpt>
      <trkpt lat="46.18249" lon="2.4623">
        <ele>372</ele>
        <time>2015-04-06T14:09:16Z</time>
      </trkpt>
      <trkpt lat="46.1825" lon="2.46227">
        <ele>372</ele>
        <time>2015-04-06T14:09:18Z</time>
      </trkpt>
      <trkpt lat="46.18251" lon="2.46223">
        <ele>372</ele>
        <time>2015-04-06T14:09:21Z</time>
      </trkpt>
      <trkpt lat="46.18251" lon="2.4622">
        <ele>372</ele>
        <time>2015-04-06T14:09:23Z</time>
      </trkpt>
      <trkpt lat="46.18247" lon="2.46215">
        <ele>373</ele>
        <time>2015-04-06T14:09:28Z</time>
      </trkpt>
      <trkpt lat="46.18245" lon="2.46214">
        <ele>374</ele>
        <time>2015-04-06T14:09:31Z</time>
      </trkpt>
      <trkpt lat="46.18242" lon="2.46215">
        <ele>374</ele>
        <time>2015-04-06T14:09:33Z</time>
      </trkpt>
      <trkpt lat="46.1824" lon="2.46219">
        <ele>375</ele>
        <time>2015-04-06T14:09:36Z</time>
      </trkpt>
      <trkpt lat="46.18238" lon="2.46221">
        <ele>376</ele>
        <time>2015-04-06T14:09:38Z</time>
      </trkpt>
      <trkpt lat="46.18236" lon="2.46224">
        <ele>376</ele>
        <time>2015-04-06T14:09:41Z</time>
      </trkpt>
      <trkpt lat="46.18236" lon="2.46227">
        <ele>378</ele>
        <time>2015-04-06T14:09:43Z</time>
      </trkpt>
      <trkpt lat="46.18232" lon="2.46231">
        <ele>381</ele>
        <time>2015-04-06T14:09:46Z</time>
      </trkpt>
      <trkpt lat="46.18231" lon="2.46234">
        <ele>382</ele>
        <time>2015-04-06T14:09:48Z</time>
      </trkpt>
      <trkpt lat="46.1823" lon="2.4624">
        <ele>383</ele>
        <time>2015-04-06T14:09:51Z</time>
      </trkpt>
      <trkpt lat="46.18229" lon="2.46245">
        <ele>384</ele>
        <time>2015-04-06T14:09:53Z</time>
      </trkpt>
      <trkpt lat="46.18226" lon="2.46251">
        <ele>387</ele>
        <time>2015-04-06T14:09:56Z</time>
      </trkpt>
      <trkpt lat="46.18225" lon="2.46255">
        <ele>388</ele>
        <time>2015-04-06T14:09:59Z</time>
      </trkpt>
      <trkpt lat="46.18225" lon="2.46259">
        <ele>388</ele>
        <time>2015-04-06T14:10:02Z</time>
      </trkpt>
      <trkpt lat="46.18224" lon="2.46262">
        <ele>388</ele>
        <time>2015-04-06T14:10:04Z</time>
      </trkpt>
      <trkpt lat="46.18224" lon="2.46267">
        <ele>388</ele>
        <time>2015-04-06T14:10:08Z</time>
      </trkpt>
      <trkpt lat="46.18224" lon="2.46269">
        <ele>388</ele>
        <time>2015-04-06T14:10:10Z</time>
      </trkpt>
      <trkpt lat="46.18224" lon="2.46275">
        <ele>388</ele>
        <time>2015-04-06T14:10:13Z</time>
      </trkpt>
      <trkpt lat="46.18224" lon="2.46278">
        <ele>388</ele>
        <time>2015-04-06T14:10:15Z</time>
      </trkpt>
      <trkpt lat="46.18224" lon="2.46283">
        <ele>388</ele>
        <time>2015-04-06T14:10:18Z</time>
      </trkpt>
      <trkpt lat="46.18223" lon="2.46286">
        <ele>387</ele>
        <time>2015-04-06T14:10:20Z</time>
      </trkpt>
      <trkpt lat="46.18223" lon="2.46292">
        <ele>386</ele>
        <time>2015-04-06T14:10:24Z</time>
      </trkpt>
      <trkpt lat="46.18224" lon="2.46295">
        <ele>386</ele>
        <time>2015-04-06T14:10:26Z</time>
      </trkpt>
      <trkpt lat="46.18225" lon="2.463">
        <ele>384</ele>
        <time>2015-04-06T14:10:29Z</time>
      </trkpt>
      <trkpt lat="46.18225" lon="2.46304">
        <ele>382</ele>
        <time>2015-04-06T14:10:32Z</time>
      </trkpt>
      <trkpt lat="46.18226" lon="2.4631">
        <ele>381</ele>
        <time>2015-04-06T14:10:36Z</time>
      </trkpt>
      <trkpt lat="46.18227" lon="2.46314">
        <ele>381</ele>
        <time>2015-04-06T14:10:38Z</time>
      </trkpt>
      <trkpt lat="46.18227" lon="2.46318">
        <ele>381</ele>
        <time>2015-04-06T14:10:40Z</time>
      </trkpt>
      <trkpt lat="46.18226" lon="2.46322">
        <ele>381</ele>
        <time>2015-04-06T14:10:43Z</time>
      </trkpt>
      <trkpt lat="46.18225" lon="2.46328">
        <ele>381</ele>
        <time>2015-04-06T14:10:47Z</time>
      </trkpt>
      <trkpt lat="46.18224" lon="2.46331">
        <ele>381</ele>
        <time>2015-04-06T14:10:49Z</time>
      </trkpt>
      <trkpt lat="46.18224" lon="2.46334">
        <ele>381</ele>
        <time>2015-04-06T14:10:51Z</time>
      </trkpt>
      <trkpt lat="46.18222" lon="2.46337">
        <ele>381</ele>
        <time>2015-04-06T14:10:54Z</time>
      </trkpt>
      <trkpt lat="46.1822" lon="2.46342">
        <ele>381</ele>
        <time>2015-04-06T14:10:57Z</time>
      </trkpt>
      <trkpt lat="46.18219" lon="2.46344">
        <ele>380</ele>
        <time>2015-04-06T14:10:59Z</time>
      </trkpt>
      <trkpt lat="46.18217" lon="2.46349">
        <ele>380</ele>
        <time>2015-04-06T14:11:01Z</time>
      </trkpt>
      <trkpt lat="46.18214" lon="2.46352">
        <ele>380</ele>
        <time>2015-04-06T14:11:04Z</time>
      </trkpt>
      <trkpt lat="46.18212" lon="2.46354">
        <ele>380</ele>
        <time>2015-04-06T14:11:06Z</time>
      </trkpt>
      <trkpt lat="46.1821" lon="2.46356">
        <ele>380</ele>
        <time>2015-04-06T14:11:08Z</time>
      </trkpt>
      <trkpt lat="46.18208" lon="2.46357">
        <ele>380</ele>
        <time>2015-04-06T14:11:10Z</time>
      </trkpt>
      <trkpt lat="46.18204" lon="2.46358">
        <ele>380</ele>
        <time>2015-04-06T14:11:13Z</time>
      </trkpt>
      <trkpt lat="46.18202" lon="2.4636">
        <ele>380</ele>
        <time>2015-04-06T14:11:15Z</time>
      </trkpt>
      <trkpt lat="46.182" lon="2.46362">
        <ele>380</ele>
        <time>2015-04-06T14:11:17Z</time>
      </trkpt>
      <trkpt lat="46.18198" lon="2.46362">
        <ele>380</ele>
        <time>2015-04-06T14:11:19Z</time>
      </trkpt>
      <trkpt lat="46.18196" lon="2.46361">
        <ele>380</ele>
        <time>2015-04-06T14:11:21Z</time>
      </trkpt>
      <trkpt lat="46.18194" lon="2.46355">
        <ele>381</ele>
        <time>2015-04-06T14:11:25Z</time>
      </trkpt>
      <trkpt lat="46.18193" lon="2.46351">
        <ele>381</ele>
        <time>2015-04-06T14:11:27Z</time>
      </trkpt>
      <trkpt lat="46.18194" lon="2.46346">
        <ele>382</ele>
        <time>2015-04-06T14:11:30Z</time>
      </trkpt>
      <trkpt lat="46.18194" lon="2.46343">
        <ele>383</ele>
        <time>2015-04-06T14:11:32Z</time>
      </trkpt>
      <trkpt lat="46.18194" lon="2.4634">
        <ele>383</ele>
        <time>2015-04-06T14:11:34Z</time>
      </trkpt>
      <trkpt lat="46.18193" lon="2.46337">
        <ele>383</ele>
        <time>2015-04-06T14:11:36Z</time>
      </trkpt>
      <trkpt lat="46.18193" lon="2.46331">
        <ele>383</ele>
        <time>2015-04-06T14:11:39Z</time>
      </trkpt>
      <trkpt lat="46.18192" lon="2.46327">
        <ele>383</ele>
        <time>2015-04-06T14:11:42Z</time>
      </trkpt>
      <trkpt lat="46.18192" lon="2.46322">
        <ele>383</ele>
        <time>2015-04-06T14:11:45Z</time>
      </trkpt>
      <trkpt lat="46.18192" lon="2.46319">
        <ele>384</ele>
        <time>2015-04-06T14:11:47Z</time>
      </trkpt>
      <trkpt lat="46.18191" lon="2.46316">
        <ele>385</ele>
        <time>2015-04-06T14:11:49Z</time>
      </trkpt>
      <trkpt lat="46.1819" lon="2.46314">
        <ele>386</ele>
        <time>2015-04-06T14:11:51Z</time>
      </trkpt>
      <trkpt lat="46.1819" lon="2.46311">
        <ele>386</ele>
        <time>2015-04-06T14:11:53Z</time>
      </trkpt>
      <trkpt lat="46.18188" lon="2.46304">
        <ele>388</ele>
        <time>2015-04-06T14:11:57Z</time>
      </trkpt>
      <trkpt lat="46.18187" lon="2.46301">
        <ele>388</ele>
        <time>2015-04-06T14:11:59Z</time>
      </trkpt>
      <trkpt lat="46.18186" lon="2.46298">
        <ele>389</ele>
        <time>2015-04-06T14:12:01Z</time>
      </trkpt>
      <trkpt lat="46.18185" lon="2.46294">
        <ele>389</ele>
        <time>2015-04-06T14:12:03Z</time>
      </trkpt>
      <trkpt lat="46.18184" lon="2.46289">
        <ele>389</ele>
        <time>2015-04-06T14:12:07Z</time>
      </trkpt>
      <trkpt lat="46.18182" lon="2.46285">
        <ele>389</ele>
        <time>2015-04-06T14:12:09Z</time>
      </trkpt>
      <trkpt lat="46.18182" lon="2.46281">
        <ele>389</ele>
        <time>2015-04-06T14:12:11Z</time>
      </trkpt>
      <trkpt lat="46.1818" lon="2.46278">
        <ele>389</ele>
        <time>2015-04-06T14:12:13Z</time>
      </trkpt>
      <trkpt lat="46.18179" lon="2.46273">
        <ele>389</ele>
        <time>2015-04-06T14:12:15Z</time>
      </trkpt>
      <trkpt lat="46.18177" lon="2.46269">
        <ele>389</ele>
        <time>2015-04-06T14:12:18Z</time>
      </trkpt>
      <trkpt lat="46.18175" lon="2.46266">
        <ele>390</ele>
        <time>2015-04-06T14:12:20Z</time>
      </trkpt>
      <trkpt lat="46.18174" lon="2.46263">
        <ele>391</ele>
        <time>2015-04-06T14:12:22Z</time>
      </trkpt>
      <trkpt lat="46.18172" lon="2.46261">
        <ele>393</ele>
        <time>2015-04-06T14:12:24Z</time>
      </trkpt>
      <trkpt lat="46.18171" lon="2.4626">
        <ele>395</ele>
        <time>2015-04-06T14:12:27Z</time>
      </trkpt>
      <trkpt lat="46.1817" lon="2.46258">
        <ele>395</ele>
        <time>2015-04-06T14:12:29Z</time>
      </trkpt>
      <trkpt lat="46.18169" lon="2.46257">
        <ele>396</ele>
        <time>2015-04-06T14:12:31Z</time>
      </trkpt>
      <trkpt lat="46.18166" lon="2.46254">
        <ele>398</ele>
        <time>2015-04-06T14:12:34Z</time>
      </trkpt>
      <trkpt lat="46.18165" lon="2.46252">
        <ele>398</ele>
        <time>2015-04-06T14:12:36Z</time>
      </trkpt>
      <trkpt lat="46.18163" lon="2.46248">
        <ele>398</ele>
        <time>2015-04-06T14:12:38Z</time>
      </trkpt>
      <trkpt lat="46.18161" lon="2.46244">
        <ele>398</ele>
        <time>2015-04-06T14:12:41Z</time>
      </trkpt>
      <trkpt lat="46.1816" lon="2.4624">
        <ele>399</ele>
        <time>2015-04-06T14:12:43Z</time>
      </trkpt>
      <trkpt lat="46.18159" lon="2.46237">
        <ele>399</ele>
        <time>2015-04-06T14:12:45Z</time>
      </trkpt>
      <trkpt lat="46.18159" lon="2.46234">
        <ele>399</ele>
        <time>2015-04-06T14:12:47Z</time>
      </trkpt>
      <trkpt lat="46.18158" lon="2.46232">
        <ele>399</ele>
        <time>2015-04-06T14:12:49Z</time>
      </trkpt>
      <trkpt lat="46.18156" lon="2.46229">
        <ele>399</ele>
        <time>2015-04-06T14:12:52Z</time>
      </trkpt>
      <trkpt lat="46.18156" lon="2.46226">
        <ele>399</ele>
        <time>2015-04-06T14:12:54Z</time>
      </trkpt>
      <trkpt lat="46.18154" lon="2.46221">
        <ele>399</ele>
        <time>2015-04-06T14:12:57Z</time>
      </trkpt>
      <trkpt lat="46.18153" lon="2.46217">
        <ele>399</ele>
        <time>2015-04-06T14:12:59Z</time>
      </trkpt>
      <trkpt lat="46.18153" lon="2.46212">
        <ele>400</ele>
        <time>2015-04-06T14:13:02Z</time>
      </trkpt>
      <trkpt lat="46.18152" lon="2.46208">
        <ele>401</ele>
        <time>2015-04-06T14:13:05Z</time>
      </trkpt>
      <trkpt lat="46.18152" lon="2.46204">
        <ele>401</ele>
        <time>2015-04-06T14:13:08Z</time>
      </trkpt>
      <trkpt lat="46.18152" lon="2.462">
        <ele>401</ele>
        <time>2015-04-06T14:13:10Z</time>
      </trkpt>
      <trkpt lat="46.18152" lon="2.46196">
        <ele>401</ele>
        <time>2015-04-06T14:13:13Z</time>
      </trkpt>
      <trkpt lat="46.18152" lon="2.46193">
        <ele>401</ele>
        <time>2015-04-06T14:13:15Z</time>
      </trkpt>
      <trkpt lat="46.18152" lon="2.4619">
        <ele>401</ele>
        <time>2015-04-06T14:13:17Z</time>
      </trkpt>
      <trkpt lat="46.18153" lon="2.46187">
        <ele>401</ele>
        <time>2015-04-06T14:13:19Z</time>
      </trkpt>
      <trkpt lat="46.18153" lon="2.46184">
        <ele>401</ele>
        <time>2015-04-06T14:13:21Z</time>
      </trkpt>
      <trkpt lat="46.18154" lon="2.4618">
        <ele>402</ele>
        <time>2015-04-06T14:13:24Z</time>
      </trkpt>
      <trkpt lat="46.18155" lon="2.46177">
        <ele>404</ele>
        <time>2015-04-06T14:13:26Z</time>
      </trkpt>
      <trkpt lat="46.18154" lon="2.46171">
        <ele>405</ele>
        <time>2015-04-06T14:13:29Z</time>
      </trkpt>
      <trkpt lat="46.18154" lon="2.46168">
        <ele>405</ele>
        <time>2015-04-06T14:13:31Z</time>
      </trkpt>
      <trkpt lat="46.18154" lon="2.46162">
        <ele>405</ele>
        <time>2015-04-06T14:13:34Z</time>
      </trkpt>
      <trkpt lat="46.18155" lon="2.46158">
        <ele>405</ele>
        <time>2015-04-06T14:13:36Z</time>
      </trkpt>
      <trkpt lat="46.18154" lon="2.46152">
        <ele>405</ele>
        <time>2015-04-06T14:13:39Z</time>
      </trkpt>
      <trkpt lat="46.18153" lon="2.46148">
        <ele>405</ele>
        <time>2015-04-06T14:13:42Z</time>
      </trkpt>
      <trkpt lat="46.18151" lon="2.46144">
        <ele>406</ele>
        <time>2015-04-06T14:13:46Z</time>
      </trkpt>
      <trkpt lat="46.18149" lon="2.46142">
        <ele>406</ele>
        <time>2015-04-06T14:13:48Z</time>
      </trkpt>
      <trkpt lat="46.18148" lon="2.46139">
        <ele>406</ele>
        <time>2015-04-06T14:13:50Z</time>
      </trkpt>
      <trkpt lat="46.18147" lon="2.46137">
        <ele>406</ele>
        <time>2015-04-06T14:13:52Z</time>
      </trkpt>
      <trkpt lat="46.18145" lon="2.46134">
        <ele>406</ele>
        <time>2015-04-06T14:13:54Z</time>
      </trkpt>
      <trkpt lat="46.18143" lon="2.4613">
        <ele>406</ele>
        <time>2015-04-06T14:13:56Z</time>
      </trkpt>
      <trkpt lat="46.18141" lon="2.46126">
        <ele>406</ele>
        <time>2015-04-06T14:13:59Z</time>
      </trkpt>
      <trkpt lat="46.1814" lon="2.46123">
        <ele>406</ele>
        <time>2015-04-06T14:14:01Z</time>
      </trkpt>
      <trkpt lat="46.18138" lon="2.4612">
        <ele>407</ele>
        <time>2015-04-06T14:14:03Z</time>
      </trkpt>
      <trkpt lat="46.18135" lon="2.46117">
        <ele>407</ele>
        <time>2015-04-06T14:14:06Z</time>
      </trkpt>
      <trkpt lat="46.18134" lon="2.46116">
        <ele>408</ele>
        <time>2015-04-06T14:14:08Z</time>
      </trkpt>
      <trkpt lat="46.18132" lon="2.46114">
        <ele>408</ele>
        <time>2015-04-06T14:14:10Z</time>
      </trkpt>
      <trkpt lat="46.18131" lon="2.46111">
        <ele>409</ele>
        <time>2015-04-06T14:14:12Z</time>
      </trkpt>
      <trkpt lat="46.18129" lon="2.4611">
        <ele>409</ele>
        <time>2015-04-06T14:14:14Z</time>
      </trkpt>
      <trkpt lat="46.18128" lon="2.46107">
        <ele>410</ele>
        <time>2015-04-06T14:14:16Z</time>
      </trkpt>
      <trkpt lat="46.18127" lon="2.46105">
        <ele>410</ele>
        <time>2015-04-06T14:14:18Z</time>
      </trkpt>
      <trkpt lat="46.18125" lon="2.46102">
        <ele>410</ele>
        <time>2015-04-06T14:14:20Z</time>
      </trkpt>
      <trkpt lat="46.18124" lon="2.461">
        <ele>411</ele>
        <time>2015-04-06T14:14:22Z</time>
      </trkpt>
      <trkpt lat="46.18122" lon="2.46097">
        <ele>411</ele>
        <time>2015-04-06T14:14:24Z</time>
      </trkpt>
      <trkpt lat="46.18119" lon="2.46094">
        <ele>412</ele>
        <time>2015-04-06T14:14:26Z</time>
      </trkpt>
      <trkpt lat="46.18118" lon="2.46091">
        <ele>413</ele>
        <time>2015-04-06T14:14:28Z</time>
      </trkpt>
      <trkpt lat="46.18116" lon="2.46089">
        <ele>414</ele>
        <time>2015-04-06T14:14:30Z</time>
      </trkpt>
      <trkpt lat="46.18115" lon="2.46086">
        <ele>414</ele>
        <time>2015-04-06T14:14:32Z</time>
      </trkpt>
      <trkpt lat="46.18113" lon="2.46084">
        <ele>415</ele>
        <time>2015-04-06T14:14:34Z</time>
      </trkpt>
      <trkpt lat="46.18111" lon="2.4608">
        <ele>415</ele>
        <time>2015-04-06T14:14:36Z</time>
      </trkpt>
      <trkpt lat="46.1811" lon="2.46077">
        <ele>415</ele>
        <time>2015-04-06T14:14:38Z</time>
      </trkpt>
      <trkpt lat="46.18108" lon="2.46075">
        <ele>415</ele>
        <time>2015-04-06T14:14:40Z</time>
      </trkpt>
      <trkpt lat="46.18105" lon="2.4607">
        <ele>416</ele>
        <time>2015-04-06T14:14:43Z</time>
      </trkpt>
      <trkpt lat="46.18104" lon="2.46068">
        <ele>416</ele>
        <time>2015-04-06T14:14:45Z</time>
      </trkpt>
      <trkpt lat="46.18102" lon="2.46065">
        <ele>416</ele>
        <time>2015-04-06T14:14:47Z</time>
      </trkpt>
      <trkpt lat="46.181" lon="2.46062">
        <ele>416</ele>
        <time>2015-04-06T14:14:49Z</time>
      </trkpt>
      <trkpt lat="46.18097" lon="2.46058">
        <ele>416</ele>
        <time>2015-04-06T14:14:52Z</time>
      </trkpt>
      <trkpt lat="46.18096" lon="2.46056">
        <ele>416</ele>
        <time>2015-04-06T14:14:54Z</time>
      </trkpt>
      <trkpt lat="46.18095" lon="2.46054">
        <ele>416</ele>
        <time>2015-04-06T14:14:56Z</time>
      </trkpt>
      <trkpt lat="46.18092" lon="2.4605">
        <ele>416</ele>
        <time>2015-04-06T14:14:58Z</time>
      </trkpt>
      <trkpt lat="46.18091" lon="2.46048">
        <ele>416</ele>
        <time>2015-04-06T14:15:00Z</time>
      </trkpt>
      <trkpt lat="46.18089" lon="2.46044">
        <ele>416</ele>
        <time>2015-04-06T14:15:02Z</time>
      </trkpt>
      <trkpt lat="46.18087" lon="2.46041">
        <ele>416</ele>
        <time>2015-04-06T14:15:04Z</time>
      </trkpt>
      <trkpt lat="46.18085" lon="2.46037">
        <ele>416</ele>
        <time>2015-04-06T14:15:07Z</time>
      </trkpt>
      <trkpt lat="46.18082" lon="2.46033">
        <ele>416</ele>
        <time>2015-04-06T14:15:09Z</time>
      </trkpt>
      <trkpt lat="46.18081" lon="2.4603">
        <ele>416</ele>
        <time>2015-04-06T14:15:11Z</time>
      </trkpt>
      <trkpt lat="46.18079" lon="2.46026">
        <ele>416</ele>
        <time>2015-04-06T14:15:13Z</time>
      </trkpt>
      <trkpt lat="46.18077" lon="2.46022">
        <ele>416</ele>
        <time>2015-04-06T14:15:16Z</time>
      </trkpt>
      <trkpt lat="46.18077" lon="2.46018">
        <ele>416</ele>
        <time>2015-04-06T14:15:18Z</time>
      </trkpt>
      <trkpt lat="46.18076" lon="2.46015">
        <ele>417</ele>
        <time>2015-04-06T14:15:20Z</time>
      </trkpt>
      <trkpt lat="46.18076" lon="2.46011">
        <ele>418</ele>
        <time>2015-04-06T14:15:22Z</time>
      </trkpt>
      <trkpt lat="46.18075" lon="2.46005">
        <ele>418</ele>
        <time>2015-04-06T14:15:25Z</time>
      </trkpt>
      <trkpt lat="46.18075" lon="2.46002">
        <ele>418</ele>
        <time>2015-04-06T14:15:27Z</time>
      </trkpt>
      <trkpt lat="46.18077" lon="2.45996">
        <ele>418</ele>
        <time>2015-04-06T14:15:31Z</time>
      </trkpt>
      <trkpt lat="46.18077" lon="2.45993">
        <ele>418</ele>
        <time>2015-04-06T14:15:33Z</time>
      </trkpt>
      <trkpt lat="46.18078" lon="2.45989">
        <ele>418</ele>
        <time>2015-04-06T14:15:35Z</time>
      </trkpt>
      <trkpt lat="46.18079" lon="2.45985">
        <ele>418</ele>
        <time>2015-04-06T14:15:37Z</time>
      </trkpt>
      <trkpt lat="46.18081" lon="2.4598">
        <ele>418</ele>
        <time>2015-04-06T14:15:40Z</time>
      </trkpt>
      <trkpt lat="46.18082" lon="2.45975">
        <ele>418</ele>
        <time>2015-04-06T14:15:43Z</time>
      </trkpt>
      <trkpt lat="46.18083" lon="2.45971">
        <ele>419</ele>
        <time>2015-04-06T14:15:46Z</time>
      </trkpt>
      <trkpt lat="46.18083" lon="2.45966">
        <ele>420</ele>
        <time>2015-04-06T14:15:48Z</time>
      </trkpt>
      <trkpt lat="46.18085" lon="2.45961">
        <ele>420</ele>
        <time>2015-04-06T14:15:51Z</time>
      </trkpt>
      <trkpt lat="46.18085" lon="2.45957">
        <ele>421</ele>
        <time>2015-04-06T14:15:53Z</time>
      </trkpt>
      <trkpt lat="46.18086" lon="2.45951">
        <ele>422</ele>
        <time>2015-04-06T14:15:56Z</time>
      </trkpt>
      <trkpt lat="46.18086" lon="2.45948">
        <ele>422</ele>
        <time>2015-04-06T14:15:58Z</time>
      </trkpt>
      <trkpt lat="46.18085" lon="2.45942">
        <ele>422</ele>
        <time>2015-04-06T14:16:01Z</time>
      </trkpt>
      <trkpt lat="46.18083" lon="2.45938">
        <ele>422</ele>
        <time>2015-04-06T14:16:04Z</time>
      </trkpt>
      <trkpt lat="46.18081" lon="2.45936">
        <ele>422</ele>
        <time>2015-04-06T14:16:06Z</time>
      </trkpt>
      <trkpt lat="46.18078" lon="2.45935">
        <ele>422</ele>
        <time>2015-04-06T14:16:08Z</time>
      </trkpt>
      <trkpt lat="46.18075" lon="2.45933">
        <ele>422</ele>
        <time>2015-04-06T14:16:11Z</time>
      </trkpt>
      <trkpt lat="46.18073" lon="2.45932">
        <ele>422</ele>
        <time>2015-04-06T14:16:13Z</time>
      </trkpt>
      <trkpt lat="46.18071" lon="2.45931">
        <ele>423</ele>
        <time>2015-04-06T14:16:15Z</time>
      </trkpt>
      <trkpt lat="46.18067" lon="2.45929">
        <ele>423</ele>
        <time>2015-04-06T14:16:18Z</time>
      </trkpt>
      <trkpt lat="46.18064" lon="2.45928">
        <ele>423</ele>
        <time>2015-04-06T14:16:20Z</time>
      </trkpt>
      <trkpt lat="46.18061" lon="2.45926">
        <ele>424</ele>
        <time>2015-04-06T14:16:23Z</time>
      </trkpt>
      <trkpt lat="46.18059" lon="2.45925">
        <ele>424</ele>
        <time>2015-04-06T14:16:25Z</time>
      </trkpt>
      <trkpt lat="46.18055" lon="2.45923">
        <ele>425</ele>
        <time>2015-04-06T14:16:28Z</time>
      </trkpt>
      <trkpt lat="46.18053" lon="2.45921">
        <ele>425</ele>
        <time>2015-04-06T14:16:30Z</time>
      </trkpt>
      <trkpt lat="46.18051" lon="2.4592">
        <ele>425</ele>
        <time>2015-04-06T14:16:32Z</time>
      </trkpt>
      <trkpt lat="46.18047" lon="2.45919">
        <ele>426</ele>
        <time>2015-04-06T14:16:35Z</time>
      </trkpt>
      <trkpt lat="46.18044" lon="2.45917">
        <ele>426</ele>
        <time>2015-04-06T14:16:38Z</time>
      </trkpt>
      <trkpt lat="46.1804" lon="2.45916">
        <ele>427</ele>
        <time>2015-04-06T14:16:41Z</time>
      </trkpt>
      <trkpt lat="46.18037" lon="2.45915">
        <ele>427</ele>
        <time>2015-04-06T14:16:44Z</time>
      </trkpt>
      <trkpt lat="46.18035" lon="2.45914">
        <ele>428</ele>
        <time>2015-04-06T14:16:46Z</time>
      </trkpt>
      <trkpt lat="46.18031" lon="2.45913">
        <ele>428</ele>
        <time>2015-04-06T14:16:50Z</time>
      </trkpt>
      <trkpt lat="46.18029" lon="2.45913">
        <ele>429</ele>
        <time>2015-04-06T14:16:52Z</time>
      </trkpt>
      <trkpt lat="46.18026" lon="2.45912">
        <ele>429</ele>
        <time>2015-04-06T14:16:55Z</time>
      </trkpt>
      <trkpt lat="46.18023" lon="2.45911">
        <ele>429</ele>
        <time>2015-04-06T14:16:57Z</time>
      </trkpt>
      <trkpt lat="46.18018" lon="2.4591">
        <ele>429</ele>
        <time>2015-04-06T14:17:00Z</time>
      </trkpt>
      <trkpt lat="46.18016" lon="2.45909">
        <ele>429</ele>
        <time>2015-04-06T14:17:02Z</time>
      </trkpt>
      <trkpt lat="46.18012" lon="2.45909">
        <ele>429</ele>
        <time>2015-04-06T14:17:05Z</time>
      </trkpt>
      <trkpt lat="46.1801" lon="2.45909">
        <ele>430</ele>
        <time>2015-04-06T14:17:07Z</time>
      </trkpt>
      <trkpt lat="46.18006" lon="2.45909">
        <ele>430</ele>
        <time>2015-04-06T14:17:10Z</time>
      </trkpt>
      <trkpt lat="46.18003" lon="2.45909">
        <ele>430</ele>
        <time>2015-04-06T14:17:12Z</time>
      </trkpt>
      <trkpt lat="46.18" lon="2.45908">
        <ele>431</ele>
        <time>2015-04-06T14:17:15Z</time>
      </trkpt>
      <trkpt lat="46.17997" lon="2.45908">
        <ele>431</ele>
        <time>2015-04-06T14:17:17Z</time>
      </trkpt>
      <trkpt lat="46.17994" lon="2.45908">
        <ele>431</ele>
        <time>2015-04-06T14:17:19Z</time>
      </trkpt>
      <trkpt lat="46.17992" lon="2.45908">
        <ele>431</ele>
        <time>2015-04-06T14:17:21Z</time>
      </trkpt>
      <trkpt lat="46.17989" lon="2.45908">
        <ele>432</ele>
        <time>2015-04-06T14:17:23Z</time>
      </trkpt>
      <trkpt lat="46.17985" lon="2.45907">
        <ele>432</ele>
        <time>2015-04-06T14:17:26Z</time>
      </trkpt>
      <trkpt lat="46.17983" lon="2.45906">
        <ele>432</ele>
        <time>2015-04-06T14:17:28Z</time>
      </trkpt>
      <trkpt lat="46.1798" lon="2.45906">
        <ele>433</ele>
        <time>2015-04-06T14:17:30Z</time>
      </trkpt>
      <trkpt lat="46.17978" lon="2.45906">
        <ele>433</ele>
        <time>2015-04-06T14:17:32Z</time>
      </trkpt>
      <trkpt lat="46.17974" lon="2.45905">
        <ele>434</ele>
        <time>2015-04-06T14:17:35Z</time>
      </trkpt>
      <trkpt lat="46.17971" lon="2.45905">
        <ele>434</ele>
        <time>2015-04-06T14:17:37Z</time>
      </trkpt>
      <trkpt lat="46.17968" lon="2.45904">
        <ele>434</ele>
        <time>2015-04-06T14:17:40Z</time>
      </trkpt>
      <trkpt lat="46.17965" lon="2.45903">
        <ele>434</ele>
        <time>2015-04-06T14:17:42Z</time>
      </trkpt>
      <trkpt lat="46.17961" lon="2.45903">
        <ele>435</ele>
        <time>2015-04-06T14:17:45Z</time>
      </trkpt>
      <trkpt lat="46.17959" lon="2.45902">
        <ele>435</ele>
        <time>2015-04-06T14:17:47Z</time>
      </trkpt>
      <trkpt lat="46.17955" lon="2.45902">
        <ele>435</ele>
        <time>2015-04-06T14:17:50Z</time>
      </trkpt>
      <trkpt lat="46.17953" lon="2.45901">
        <ele>436</ele>
        <time>2015-04-06T14:17:52Z</time>
      </trkpt>
      <trkpt lat="46.17949" lon="2.459">
        <ele>436</ele>
        <time>2015-04-06T14:17:55Z</time>
      </trkpt>
      <trkpt lat="46.17946" lon="2.45899">
        <ele>436</ele>
        <time>2015-04-06T14:17:57Z</time>
      </trkpt>
      <trkpt lat="46.17943" lon="2.45897">
        <ele>437</ele>
        <time>2015-04-06T14:17:59Z</time>
      </trkpt>
      <trkpt lat="46.17941" lon="2.45896">
        <ele>437</ele>
        <time>2015-04-06T14:18:01Z</time>
      </trkpt>
      <trkpt lat="46.17938" lon="2.45896">
        <ele>437</ele>
        <time>2015-04-06T14:18:03Z</time>
      </trkpt>
      <trkpt lat="46.17935" lon="2.45894">
        <ele>437</ele>
        <time>2015-04-06T14:18:05Z</time>
      </trkpt>
      <trkpt lat="46.17932" lon="2.45893">
        <ele>438</ele>
        <time>2015-04-06T14:18:08Z</time>
      </trkpt>
      <trkpt lat="46.17928" lon="2.45891">
        <ele>438</ele>
        <time>2015-04-06T14:18:11Z</time>
      </trkpt>
      <trkpt lat="46.17925" lon="2.45889">
        <ele>438</ele>
        <time>2015-04-06T14:18:13Z</time>
      </trkpt>
      <trkpt lat="46.17922" lon="2.45887">
        <ele>438</ele>
        <time>2015-04-06T14:18:16Z</time>
      </trkpt>
      <trkpt lat="46.1792" lon="2.45885">
        <ele>438</ele>
        <time>2015-04-06T14:18:18Z</time>
      </trkpt>
      <trkpt lat="46.17915" lon="2.45883">
        <ele>439</ele>
        <time>2015-04-06T14:18:22Z</time>
      </trkpt>
      <trkpt lat="46.17912" lon="2.45881">
        <ele>439</ele>
        <time>2015-04-06T14:18:24Z</time>
      </trkpt>
      <trkpt lat="46.1791" lon="2.45879">
        <ele>439</ele>
        <time>2015-04-06T14:18:26Z</time>
      </trkpt>
      <trkpt lat="46.17907" lon="2.45877">
        <ele>439</ele>
        <time>2015-04-06T14:18:28Z</time>
      </trkpt>
      <trkpt lat="46.17903" lon="2.45874">
        <ele>440</ele>
        <time>2015-04-06T14:18:32Z</time>
      </trkpt>
      <trkpt lat="46.17901" lon="2.45872">
        <ele>440</ele>
        <time>2015-04-06T14:18:34Z</time>
      </trkpt>
      <trkpt lat="46.17897" lon="2.45868">
        <ele>440</ele>
        <time>2015-04-06T14:18:38Z</time>
      </trkpt>
      <trkpt lat="46.17895" lon="2.45867">
        <ele>440</ele>
        <time>2015-04-06T14:18:40Z</time>
      </trkpt>
      <trkpt lat="46.17891" lon="2.45864">
        <ele>440</ele>
        <time>2015-04-06T14:18:44Z</time>
      </trkpt>
      <trkpt lat="46.1789" lon="2.45862">
        <ele>440</ele>
        <time>2015-04-06T14:18:46Z</time>
      </trkpt>
      <trkpt lat="46.17889" lon="2.45862">
        <ele>441</ele>
        <time>2015-04-06T14:19:26Z</time>
      </trkpt>
      <trkpt lat="46.17889" lon="2.45868">
        <ele>441</ele>
        <time>2015-04-06T14:19:29Z</time>
      </trkpt>
      <trkpt lat="46.1789" lon="2.45871">
        <ele>441</ele>
        <time>2015-04-06T14:19:31Z</time>
      </trkpt>
      <trkpt lat="46.17889" lon="2.45877">
        <ele>441</ele>
        <time>2015-04-06T14:19:35Z</time>
      </trkpt>
      <trkpt lat="46.17891" lon="2.45876">
        <ele>441</ele>
        <time>2015-04-06T14:19:56Z</time>
      </trkpt>
      <trkpt lat="46.17891" lon="2.45874">
        <ele>441</ele>
        <time>2015-04-06T14:20:05Z</time>
      </trkpt>
      <trkpt lat="46.1789" lon="2.45869">
        <ele>441</ele>
        <time>2015-04-06T14:20:09Z</time>
      </trkpt>
      <trkpt lat="46.17889" lon="2.45867">
        <ele>441</ele>
        <time>2015-04-06T14:20:26Z</time>
      </trkpt>
      <trkpt lat="46.17889" lon="2.45865">
        <ele>441</ele>
        <time>2015-04-06T14:20:28Z</time>
      </trkpt>
      <trkpt lat="46.17889" lon="2.45862">
        <ele>441</ele>
        <time>2015-04-06T14:20:30Z</time>
      </trkpt>
      <trkpt lat="46.17888" lon="2.45861">
        <ele>441</ele>
        <time>2015-04-06T14:20:32Z</time>
      </trkpt>
      <trkpt lat="46.17886" lon="2.45861">
        <ele>441</ele>
        <time>2015-04-06T14:20:37Z</time>
      </trkpt>
      <trkpt lat="46.17885" lon="2.45862">
        <ele>441</ele>
        <time>2015-04-06T14:20:39Z</time>
      </trkpt>
      <trkpt lat="46.17886" lon="2.4586">
        <ele>442</ele>
        <time>2015-04-06T14:20:44Z</time>
      </trkpt>
      <trkpt lat="46.17887" lon="2.4586">
        <ele>442</ele>
        <time>2015-04-06T14:20:46Z</time>
      </trkpt>
      <trkpt lat="46.17889" lon="2.4586">
        <ele>442</ele>
        <time>2015-04-06T14:20:52Z</time>
      </trkpt>
      <trkpt lat="46.17887" lon="2.45861">
        <ele>442</ele>
        <time>2015-04-06T14:20:59Z</time>
      </trkpt>
      <trkpt lat="46.17889" lon="2.4586">
        <ele>442</ele>
        <time>2015-04-06T14:21:11Z</time>
      </trkpt>
      <trkpt lat="46.17887" lon="2.4586">
        <ele>444</ele>
        <time>2015-04-06T14:22:09Z</time>
      </trkpt>
      <trkpt lat="46.17887" lon="2.45858">
        <ele>444</ele>
        <time>2015-04-06T14:22:22Z</time>
      </trkpt>
      <trkpt lat="46.17885" lon="2.45854">
        <ele>444</ele>
        <time>2015-04-06T14:22:26Z</time>
      </trkpt>
      <trkpt lat="46.17884" lon="2.45852">
        <ele>444</ele>
        <time>2015-04-06T14:22:28Z</time>
      </trkpt>
      <trkpt lat="46.17883" lon="2.45849">
        <ele>444</ele>
        <time>2015-04-06T14:22:32Z</time>
      </trkpt>
      <trkpt lat="46.17881" lon="2.45848">
        <ele>444</ele>
        <time>2015-04-06T14:22:34Z</time>
      </trkpt>
      <trkpt lat="46.1788" lon="2.45844">
        <ele>444</ele>
        <time>2015-04-06T14:22:43Z</time>
      </trkpt>
      <trkpt lat="46.1788" lon="2.45843">
        <ele>444</ele>
        <time>2015-04-06T14:22:52Z</time>
      </trkpt>
      <trkpt lat="46.17878" lon="2.45838">
        <ele>444</ele>
        <time>2015-04-06T14:22:56Z</time>
      </trkpt>
      <trkpt lat="46.17877" lon="2.45836">
        <ele>444</ele>
        <time>2015-04-06T14:22:58Z</time>
      </trkpt>
      <trkpt lat="46.17876" lon="2.45835">
        <ele>444</ele>
        <time>2015-04-06T14:23:08Z</time>
      </trkpt>
      <trkpt lat="46.17875" lon="2.45833">
        <ele>444</ele>
        <time>2015-04-06T14:23:11Z</time>
      </trkpt>
      <trkpt lat="46.17874" lon="2.45831">
        <ele>444</ele>
        <time>2015-04-06T14:23:21Z</time>
      </trkpt>
      <trkpt lat="46.17873" lon="2.45828">
        <ele>444</ele>
        <time>2015-04-06T14:23:24Z</time>
      </trkpt>
      <trkpt lat="46.17871" lon="2.45825">
        <ele>444</ele>
        <time>2015-04-06T14:23:26Z</time>
      </trkpt>
      <trkpt lat="46.1787" lon="2.45821">
        <ele>444</ele>
        <time>2015-04-06T14:23:30Z</time>
      </trkpt>
      <trkpt lat="46.17869" lon="2.45819">
        <ele>444</ele>
        <time>2015-04-06T14:23:32Z</time>
      </trkpt>
      <trkpt lat="46.17868" lon="2.45816">
        <ele>444</ele>
        <time>2015-04-06T14:23:36Z</time>
      </trkpt>
      <trkpt lat="46.17867" lon="2.45814">
        <ele>444</ele>
        <time>2015-04-06T14:23:38Z</time>
      </trkpt>
      <trkpt lat="46.17865" lon="2.4581">
        <ele>444</ele>
        <time>2015-04-06T14:23:42Z</time>
      </trkpt>
      <trkpt lat="46.17864" lon="2.45807">
        <ele>444</ele>
        <time>2015-04-06T14:23:49Z</time>
      </trkpt>
      <trkpt lat="46.17863" lon="2.45804">
        <ele>444</ele>
        <time>2015-04-06T14:23:51Z</time>
      </trkpt>
      <trkpt lat="46.17861" lon="2.458">
        <ele>444</ele>
        <time>2015-04-06T14:23:53Z</time>
      </trkpt>
      <trkpt lat="46.1786" lon="2.45797">
        <ele>444</ele>
        <time>2015-04-06T14:23:55Z</time>
      </trkpt>
      <trkpt lat="46.17858" lon="2.45793">
        <ele>444</ele>
        <time>2015-04-06T14:23:57Z</time>
      </trkpt>
      <trkpt lat="46.17857" lon="2.45789">
        <ele>444</ele>
        <time>2015-04-06T14:23:59Z</time>
      </trkpt>
      <trkpt lat="46.17854" lon="2.45783">
        <ele>444</ele>
        <time>2015-04-06T14:24:02Z</time>
      </trkpt>
      <trkpt lat="46.17852" lon="2.4578">
        <ele>444</ele>
        <time>2015-04-06T14:24:04Z</time>
      </trkpt>
      <trkpt lat="46.17849" lon="2.45777">
        <ele>444</ele>
        <time>2015-04-06T14:24:06Z</time>
      </trkpt>
      <trkpt lat="46.17847" lon="2.45773">
        <ele>444</ele>
        <time>2015-04-06T14:24:08Z</time>
      </trkpt>
      <trkpt lat="46.17845" lon="2.4577">
        <ele>444</ele>
        <time>2015-04-06T14:24:10Z</time>
      </trkpt>
      <trkpt lat="46.17842" lon="2.45767">
        <ele>444</ele>
        <time>2015-04-06T14:24:12Z</time>
      </trkpt>
      <trkpt lat="46.1784" lon="2.45763">
        <ele>444</ele>
        <time>2015-04-06T14:24:14Z</time>
      </trkpt>
      <trkpt lat="46.17837" lon="2.45759">
        <ele>444</ele>
        <time>2015-04-06T14:24:17Z</time>
      </trkpt>
      <trkpt lat="46.17834" lon="2.45756">
        <ele>444</ele>
        <time>2015-04-06T14:24:19Z</time>
      </trkpt>
      <trkpt lat="46.17831" lon="2.45752">
        <ele>444</ele>
        <time>2015-04-06T14:24:22Z</time>
      </trkpt>
      <trkpt lat="46.17829" lon="2.45749">
        <ele>444</ele>
        <time>2015-04-06T14:24:24Z</time>
      </trkpt>
      <trkpt lat="46.17826" lon="2.45746">
        <ele>444</ele>
        <time>2015-04-06T14:24:26Z</time>
      </trkpt>
      <trkpt lat="46.17824" lon="2.45743">
        <ele>444</ele>
        <time>2015-04-06T14:24:28Z</time>
      </trkpt>
      <trkpt lat="46.17821" lon="2.4574">
        <ele>444</ele>
        <time>2015-04-06T14:24:30Z</time>
      </trkpt>
      <trkpt lat="46.17819" lon="2.45736">
        <ele>444</ele>
        <time>2015-04-06T14:24:32Z</time>
      </trkpt>
      <trkpt lat="46.17816" lon="2.45733">
        <ele>444</ele>
        <time>2015-04-06T14:24:34Z</time>
      </trkpt>
      <trkpt lat="46.17813" lon="2.4573">
        <ele>444</ele>
        <time>2015-04-06T14:24:36Z</time>
      </trkpt>
      <trkpt lat="46.1781" lon="2.45727">
        <ele>444</ele>
        <time>2015-04-06T14:24:38Z</time>
      </trkpt>
      <trkpt lat="46.17807" lon="2.45724">
        <ele>444</ele>
        <time>2015-04-06T14:24:40Z</time>
      </trkpt>
      <trkpt lat="46.17804" lon="2.45721">
        <ele>444</ele>
        <time>2015-04-06T14:24:42Z</time>
      </trkpt>
      <trkpt lat="46.17801" lon="2.45719">
        <ele>444</ele>
        <time>2015-04-06T14:24:44Z</time>
      </trkpt>
      <trkpt lat="46.17798" lon="2.45717">
        <ele>444</ele>
        <time>2015-04-06T14:24:46Z</time>
      </trkpt>
      <trkpt lat="46.17795" lon="2.45715">
        <ele>444</ele>
        <time>2015-04-06T14:24:48Z</time>
      </trkpt>
      <trkpt lat="46.17793" lon="2.45713">
        <ele>444</ele>
        <time>2015-04-06T14:24:50Z</time>
      </trkpt>
      <trkpt lat="46.1779" lon="2.45711">
        <ele>444</ele>
        <time>2015-04-06T14:24:52Z</time>
      </trkpt>
      <trkpt lat="46.17787" lon="2.4571">
        <ele>444</ele>
        <time>2015-04-06T14:24:54Z</time>
      </trkpt>
      <trkpt lat="46.17783" lon="2.45707">
        <ele>444</ele>
        <time>2015-04-06T14:24:57Z</time>
      </trkpt>
      <trkpt lat="46.1778" lon="2.45705">
        <ele>444</ele>
        <time>2015-04-06T14:24:59Z</time>
      </trkpt>
      <trkpt lat="46.17777" lon="2.45704">
        <ele>444</ele>
        <time>2015-04-06T14:25:01Z</time>
      </trkpt>
      <trkpt lat="46.17774" lon="2.45703">
        <ele>444</ele>
        <time>2015-04-06T14:25:03Z</time>
      </trkpt>
      <trkpt lat="46.17771" lon="2.45702">
        <ele>444</ele>
        <time>2015-04-06T14:25:05Z</time>
      </trkpt>
      <trkpt lat="46.17767" lon="2.45701">
        <ele>444</ele>
        <time>2015-04-06T14:25:07Z</time>
      </trkpt>
      <trkpt lat="46.17764" lon="2.457">
        <ele>444</ele>
        <time>2015-04-06T14:25:09Z</time>
      </trkpt>
      <trkpt lat="46.1776" lon="2.457">
        <ele>444</ele>
        <time>2015-04-06T14:25:12Z</time>
      </trkpt>
      <trkpt lat="46.17757" lon="2.45699">
        <ele>444</ele>
        <time>2015-04-06T14:25:14Z</time>
      </trkpt>
      <trkpt lat="46.17752" lon="2.45699">
        <ele>444</ele>
        <time>2015-04-06T14:25:17Z</time>
      </trkpt>
      <trkpt lat="46.17749" lon="2.45701">
        <ele>444</ele>
        <time>2015-04-06T14:25:19Z</time>
      </trkpt>
      <trkpt lat="46.17746" lon="2.45703">
        <ele>444</ele>
        <time>2015-04-06T14:25:21Z</time>
      </trkpt>
      <trkpt lat="46.17743" lon="2.45706">
        <ele>444</ele>
        <time>2015-04-06T14:25:23Z</time>
      </trkpt>
      <trkpt lat="46.17741" lon="2.45709">
        <ele>444</ele>
        <time>2015-04-06T14:25:25Z</time>
      </trkpt>
      <trkpt lat="46.17738" lon="2.45712">
        <ele>444</ele>
        <time>2015-04-06T14:25:27Z</time>
      </trkpt>
      <trkpt lat="46.17736" lon="2.45715">
        <ele>444</ele>
        <time>2015-04-06T14:25:29Z</time>
      </trkpt>
      <trkpt lat="46.17732" lon="2.45719">
        <ele>444</ele>
        <time>2015-04-06T14:25:32Z</time>
      </trkpt>
      <trkpt lat="46.1773" lon="2.45721">
        <ele>444</ele>
        <time>2015-04-06T14:25:34Z</time>
      </trkpt>
      <trkpt lat="46.17727" lon="2.45724">
        <ele>444</ele>
        <time>2015-04-06T14:25:36Z</time>
      </trkpt>
      <trkpt lat="46.17724" lon="2.45726">
        <ele>444</ele>
        <time>2015-04-06T14:25:38Z</time>
      </trkpt>
      <trkpt lat="46.17721" lon="2.45728">
        <ele>444</ele>
        <time>2015-04-06T14:25:40Z</time>
      </trkpt>
      <trkpt lat="46.17718" lon="2.45729">
        <ele>444</ele>
        <time>2015-04-06T14:25:42Z</time>
      </trkpt>
      <trkpt lat="46.17715" lon="2.45731">
        <ele>444</ele>
        <time>2015-04-06T14:25:44Z</time>
      </trkpt>
      <trkpt lat="46.17711" lon="2.45731">
        <ele>444</ele>
        <time>2015-04-06T14:25:47Z</time>
      </trkpt>
      <trkpt lat="46.17708" lon="2.45732">
        <ele>444</ele>
        <time>2015-04-06T14:25:49Z</time>
      </trkpt>
      <trkpt lat="46.17703" lon="2.45732">
        <ele>444</ele>
        <time>2015-04-06T14:25:52Z</time>
      </trkpt>
      <trkpt lat="46.177" lon="2.45732">
        <ele>444</ele>
        <time>2015-04-06T14:25:54Z</time>
      </trkpt>
      <trkpt lat="46.17696" lon="2.45731">
        <ele>444</ele>
        <time>2015-04-06T14:25:57Z</time>
      </trkpt>
      <trkpt lat="46.17693" lon="2.45731">
        <ele>444</ele>
        <time>2015-04-06T14:25:59Z</time>
      </trkpt>
      <trkpt lat="46.17688" lon="2.4573">
        <ele>444</ele>
        <time>2015-04-06T14:26:02Z</time>
      </trkpt>
      <trkpt lat="46.17685" lon="2.45729">
        <ele>444</ele>
        <time>2015-04-06T14:26:04Z</time>
      </trkpt>
      <trkpt lat="46.17682" lon="2.45729">
        <ele>444</ele>
        <time>2015-04-06T14:26:06Z</time>
      </trkpt>
      <trkpt lat="46.17679" lon="2.45728">
        <ele>444</ele>
        <time>2015-04-06T14:26:08Z</time>
      </trkpt>
      <trkpt lat="46.17676" lon="2.45728">
        <ele>443</ele>
        <time>2015-04-06T14:26:10Z</time>
      </trkpt>
      <trkpt lat="46.17672" lon="2.45726">
        <ele>443</ele>
        <time>2015-04-06T14:26:12Z</time>
      </trkpt>
      <trkpt lat="46.17669" lon="2.45726">
        <ele>443</ele>
        <time>2015-04-06T14:26:14Z</time>
      </trkpt>
      <trkpt lat="46.17667" lon="2.45726">
        <ele>443</ele>
        <time>2015-04-06T14:26:16Z</time>
      </trkpt>
      <trkpt lat="46.17664" lon="2.45726">
        <ele>443</ele>
        <time>2015-04-06T14:26:18Z</time>
      </trkpt>
      <trkpt lat="46.17661" lon="2.45726">
        <ele>443</ele>
        <time>2015-04-06T14:26:20Z</time>
      </trkpt>
      <trkpt lat="46.17658" lon="2.45727">
        <ele>443</ele>
        <time>2015-04-06T14:26:22Z</time>
      </trkpt>
      <trkpt lat="46.17655" lon="2.45728">
        <ele>443</ele>
        <time>2015-04-06T14:26:24Z</time>
      </trkpt>
      <trkpt lat="46.17652" lon="2.4573">
        <ele>443</ele>
        <time>2015-04-06T14:26:26Z</time>
      </trkpt>
      <trkpt lat="46.17649" lon="2.45732">
        <ele>443</ele>
        <time>2015-04-06T14:26:28Z</time>
      </trkpt>
      <trkpt lat="46.17646" lon="2.45735">
        <ele>443</ele>
        <time>2015-04-06T14:26:30Z</time>
      </trkpt>
      <trkpt lat="46.17644" lon="2.45738">
        <ele>443</ele>
        <time>2015-04-06T14:26:32Z</time>
      </trkpt>
      <trkpt lat="46.17641" lon="2.4574">
        <ele>443</ele>
        <time>2015-04-06T14:26:34Z</time>
      </trkpt>
      <trkpt lat="46.17639" lon="2.45743">
        <ele>443</ele>
        <time>2015-04-06T14:26:36Z</time>
      </trkpt>
      <trkpt lat="46.17636" lon="2.45746">
        <ele>443</ele>
        <time>2015-04-06T14:26:39Z</time>
      </trkpt>
      <trkpt lat="46.17633" lon="2.4575">
        <ele>443</ele>
        <time>2015-04-06T14:26:42Z</time>
      </trkpt>
      <trkpt lat="46.1763" lon="2.45752">
        <ele>443</ele>
        <time>2015-04-06T14:26:44Z</time>
      </trkpt>
      <trkpt lat="46.17628" lon="2.45755">
        <ele>443</ele>
        <time>2015-04-06T14:26:46Z</time>
      </trkpt>
      <trkpt lat="46.17627" lon="2.45758">
        <ele>443</ele>
        <time>2015-04-06T14:26:48Z</time>
      </trkpt>
      <trkpt lat="46.17627" lon="2.45762">
        <ele>443</ele>
        <time>2015-04-06T14:26:50Z</time>
      </trkpt>
      <trkpt lat="46.17627" lon="2.45765">
        <ele>443</ele>
        <time>2015-04-06T14:26:52Z</time>
      </trkpt>
      <trkpt lat="46.17627" lon="2.45769">
        <ele>443</ele>
        <time>2015-04-06T14:26:54Z</time>
      </trkpt>
      <trkpt lat="46.17626" lon="2.45771">
        <ele>443</ele>
        <time>2015-04-06T14:27:00Z</time>
      </trkpt>
      <trkpt lat="46.17627" lon="2.45772">
        <ele>442</ele>
        <time>2015-04-06T14:27:04Z</time>
      </trkpt>
      <trkpt lat="46.1763" lon="2.45775">
        <ele>442</ele>
        <time>2015-04-06T14:27:06Z</time>
      </trkpt>
      <trkpt lat="46.17632" lon="2.45778">
        <ele>441</ele>
        <time>2015-04-06T14:27:08Z</time>
      </trkpt>
      <trkpt lat="46.17633" lon="2.45781">
        <ele>440</ele>
        <time>2015-04-06T14:27:10Z</time>
      </trkpt>
      <trkpt lat="46.17634" lon="2.45785">
        <ele>440</ele>
        <time>2015-04-06T14:27:12Z</time>
      </trkpt>
      <trkpt lat="46.17636" lon="2.45788">
        <ele>439</ele>
        <time>2015-04-06T14:27:14Z</time>
      </trkpt>
      <trkpt lat="46.17638" lon="2.45792">
        <ele>438</ele>
        <time>2015-04-06T14:27:17Z</time>
      </trkpt>
      <trkpt lat="46.1764" lon="2.45796">
        <ele>437</ele>
        <time>2015-04-06T14:27:19Z</time>
      </trkpt>
      <trkpt lat="46.17641" lon="2.45799">
        <ele>436</ele>
        <time>2015-04-06T14:27:21Z</time>
      </trkpt>
      <trkpt lat="46.17642" lon="2.45802">
        <ele>436</ele>
        <time>2015-04-06T14:27:23Z</time>
      </trkpt>
      <trkpt lat="46.17643" lon="2.45806">
        <ele>436</ele>
        <time>2015-04-06T14:27:25Z</time>
      </trkpt>
      <trkpt lat="46.17645" lon="2.4581">
        <ele>436</ele>
        <time>2015-04-06T14:27:27Z</time>
      </trkpt>
      <trkpt lat="46.17646" lon="2.45813">
        <ele>436</ele>
        <time>2015-04-06T14:27:29Z</time>
      </trkpt>
      <trkpt lat="46.17647" lon="2.45817">
        <ele>436</ele>
        <time>2015-04-06T14:27:31Z</time>
      </trkpt>
      <trkpt lat="46.17648" lon="2.4582">
        <ele>436</ele>
        <time>2015-04-06T14:27:33Z</time>
      </trkpt>
      <trkpt lat="46.17649" lon="2.45824">
        <ele>436</ele>
        <time>2015-04-06T14:27:35Z</time>
      </trkpt>
      <trkpt lat="46.1765" lon="2.45827">
        <ele>436</ele>
        <time>2015-04-06T14:27:37Z</time>
      </trkpt>
      <trkpt lat="46.1765" lon="2.45831">
        <ele>436</ele>
        <time>2015-04-06T14:27:39Z</time>
      </trkpt>
      <trkpt lat="46.17651" lon="2.45834">
        <ele>436</ele>
        <time>2015-04-06T14:27:41Z</time>
      </trkpt>
      <trkpt lat="46.17651" lon="2.45838">
        <ele>436</ele>
        <time>2015-04-06T14:27:43Z</time>
      </trkpt>
      <trkpt lat="46.17652" lon="2.45842">
        <ele>436</ele>
        <time>2015-04-06T14:27:45Z</time>
      </trkpt>
      <trkpt lat="46.17651" lon="2.45846">
        <ele>436</ele>
        <time>2015-04-06T14:27:47Z</time>
      </trkpt>
      <trkpt lat="46.17651" lon="2.4585">
        <ele>436</ele>
        <time>2015-04-06T14:27:49Z</time>
      </trkpt>
      <trkpt lat="46.17651" lon="2.45854">
        <ele>436</ele>
        <time>2015-04-06T14:27:51Z</time>
      </trkpt>
      <trkpt lat="46.17651" lon="2.45858">
        <ele>436</ele>
        <time>2015-04-06T14:27:53Z</time>
      </trkpt>
      <trkpt lat="46.17651" lon="2.45862">
        <ele>436</ele>
        <time>2015-04-06T14:27:55Z</time>
      </trkpt>
      <trkpt lat="46.1765" lon="2.45867">
        <ele>436</ele>
        <time>2015-04-06T14:27:57Z</time>
      </trkpt>
      <trkpt lat="46.1765" lon="2.45871">
        <ele>436</ele>
        <time>2015-04-06T14:27:59Z</time>
      </trkpt>
      <trkpt lat="46.1765" lon="2.45876">
        <ele>436</ele>
        <time>2015-04-06T14:28:01Z</time>
      </trkpt>
      <trkpt lat="46.1765" lon="2.4588">
        <ele>436</ele>
        <time>2015-04-06T14:28:03Z</time>
      </trkpt>
      <trkpt lat="46.17649" lon="2.45884">
        <ele>436</ele>
        <time>2015-04-06T14:28:05Z</time>
      </trkpt>
      <trkpt lat="46.17649" lon="2.45889">
        <ele>436</ele>
        <time>2015-04-06T14:28:07Z</time>
      </trkpt>
      <trkpt lat="46.17649" lon="2.45893">
        <ele>436</ele>
        <time>2015-04-06T14:28:09Z</time>
      </trkpt>
      <trkpt lat="46.17646" lon="2.45895">
        <ele>436</ele>
        <time>2015-04-06T14:28:13Z</time>
      </trkpt>
      <trkpt lat="46.17645" lon="2.45895">
        <ele>436</ele>
        <time>2015-04-06T14:28:15Z</time>
      </trkpt>
      <trkpt lat="46.17646" lon="2.45897">
        <ele>436</ele>
        <time>2015-04-06T14:28:17Z</time>
      </trkpt>
      <trkpt lat="46.17648" lon="2.45899">
        <ele>435</ele>
        <time>2015-04-06T14:28:19Z</time>
      </trkpt>
      <trkpt lat="46.17648" lon="2.45902">
        <ele>435</ele>
        <time>2015-04-06T14:28:21Z</time>
      </trkpt>
      <trkpt lat="46.17647" lon="2.45906">
        <ele>435</ele>
        <time>2015-04-06T14:28:23Z</time>
      </trkpt>
      <trkpt lat="46.17646" lon="2.4591">
        <ele>435</ele>
        <time>2015-04-06T14:28:25Z</time>
      </trkpt>
      <trkpt lat="46.17645" lon="2.45914">
        <ele>435</ele>
        <time>2015-04-06T14:28:27Z</time>
      </trkpt>
      <trkpt lat="46.17644" lon="2.45918">
        <ele>434</ele>
        <time>2015-04-06T14:28:29Z</time>
      </trkpt>
      <trkpt lat="46.17643" lon="2.45922">
        <ele>434</ele>
        <time>2015-04-06T14:28:31Z</time>
      </trkpt>
      <trkpt lat="46.17642" lon="2.45926">
        <ele>434</ele>
        <time>2015-04-06T14:28:33Z</time>
      </trkpt>
      <trkpt lat="46.17641" lon="2.4593">
        <ele>434</ele>
        <time>2015-04-06T14:28:35Z</time>
      </trkpt>
      <trkpt lat="46.1764" lon="2.45934">
        <ele>434</ele>
        <time>2015-04-06T14:28:37Z</time>
      </trkpt>
      <trkpt lat="46.17638" lon="2.45938">
        <ele>434</ele>
        <time>2015-04-06T14:28:39Z</time>
      </trkpt>
      <trkpt lat="46.17637" lon="2.45942">
        <ele>434</ele>
        <time>2015-04-06T14:28:41Z</time>
      </trkpt>
      <trkpt lat="46.17636" lon="2.45947">
        <ele>434</ele>
        <time>2015-04-06T14:28:43Z</time>
      </trkpt>
      <trkpt lat="46.17634" lon="2.45951">
        <ele>434</ele>
        <time>2015-04-06T14:28:45Z</time>
      </trkpt>
      <trkpt lat="46.17633" lon="2.45954">
        <ele>434</ele>
        <time>2015-04-06T14:28:47Z</time>
      </trkpt>
      <trkpt lat="46.17631" lon="2.45958">
        <ele>434</ele>
        <time>2015-04-06T14:28:49Z</time>
      </trkpt>
      <trkpt lat="46.1763" lon="2.45962">
        <ele>434</ele>
        <time>2015-04-06T14:28:51Z</time>
      </trkpt>
      <trkpt lat="46.17629" lon="2.45966">
        <ele>434</ele>
        <time>2015-04-06T14:28:53Z</time>
      </trkpt>
      <trkpt lat="46.17628" lon="2.4597">
        <ele>434</ele>
        <time>2015-04-06T14:28:55Z</time>
      </trkpt>
      <trkpt lat="46.17627" lon="2.45974">
        <ele>434</ele>
        <time>2015-04-06T14:28:57Z</time>
      </trkpt>
      <trkpt lat="46.17626" lon="2.45978">
        <ele>434</ele>
        <time>2015-04-06T14:28:59Z</time>
      </trkpt>
      <trkpt lat="46.17625" lon="2.45982">
        <ele>434</ele>
        <time>2015-04-06T14:29:01Z</time>
      </trkpt>
      <trkpt lat="46.17624" lon="2.45986">
        <ele>433</ele>
        <time>2015-04-06T14:29:03Z</time>
      </trkpt>
      <trkpt lat="46.17622" lon="2.45989">
        <ele>433</ele>
        <time>2015-04-06T14:29:05Z</time>
      </trkpt>
      <trkpt lat="46.1762" lon="2.45993">
        <ele>433</ele>
        <time>2015-04-06T14:29:07Z</time>
      </trkpt>
      <trkpt lat="46.17619" lon="2.45997">
        <ele>433</ele>
        <time>2015-04-06T14:29:09Z</time>
      </trkpt>
      <trkpt lat="46.17618" lon="2.46001">
        <ele>433</ele>
        <time>2015-04-06T14:29:11Z</time>
      </trkpt>
      <trkpt lat="46.17616" lon="2.46005">
        <ele>433</ele>
        <time>2015-04-06T14:29:13Z</time>
      </trkpt>
      <trkpt lat="46.17615" lon="2.46009">
        <ele>432</ele>
        <time>2015-04-06T14:29:15Z</time>
      </trkpt>
      <trkpt lat="46.17614" lon="2.46013">
        <ele>432</ele>
        <time>2015-04-06T14:29:17Z</time>
      </trkpt>
      <trkpt lat="46.17613" lon="2.46017">
        <ele>432</ele>
        <time>2015-04-06T14:29:19Z</time>
      </trkpt>
      <trkpt lat="46.17612" lon="2.46022">
        <ele>432</ele>
        <time>2015-04-06T14:29:21Z</time>
      </trkpt>
      <trkpt lat="46.17611" lon="2.46026">
        <ele>431</ele>
        <time>2015-04-06T14:29:23Z</time>
      </trkpt>
      <trkpt lat="46.17611" lon="2.46031">
        <ele>431</ele>
        <time>2015-04-06T14:29:25Z</time>
      </trkpt>
      <trkpt lat="46.1761" lon="2.46035">
        <ele>430</ele>
        <time>2015-04-06T14:29:27Z</time>
      </trkpt>
      <trkpt lat="46.1761" lon="2.46039">
        <ele>430</ele>
        <time>2015-04-06T14:29:29Z</time>
      </trkpt>
      <trkpt lat="46.17609" lon="2.46043">
        <ele>429</ele>
        <time>2015-04-06T14:29:31Z</time>
      </trkpt>
      <trkpt lat="46.17608" lon="2.46047">
        <ele>429</ele>
        <time>2015-04-06T14:29:33Z</time>
      </trkpt>
      <trkpt lat="46.17607" lon="2.46051">
        <ele>429</ele>
        <time>2015-04-06T14:29:35Z</time>
      </trkpt>
      <trkpt lat="46.17606" lon="2.46056">
        <ele>429</ele>
        <time>2015-04-06T14:29:37Z</time>
      </trkpt>
      <trkpt lat="46.17606" lon="2.4606">
        <ele>429</ele>
        <time>2015-04-06T14:29:39Z</time>
      </trkpt>
      <trkpt lat="46.17605" lon="2.46064">
        <ele>428</ele>
        <time>2015-04-06T14:29:41Z</time>
      </trkpt>
      <trkpt lat="46.17604" lon="2.46068">
        <ele>428</ele>
        <time>2015-04-06T14:29:43Z</time>
      </trkpt>
      <trkpt lat="46.17604" lon="2.46072">
        <ele>428</ele>
        <time>2015-04-06T14:29:45Z</time>
      </trkpt>
      <trkpt lat="46.17603" lon="2.46076">
        <ele>428</ele>
        <time>2015-04-06T14:29:47Z</time>
      </trkpt>
      <trkpt lat="46.17602" lon="2.4608">
        <ele>428</ele>
        <time>2015-04-06T14:29:49Z</time>
      </trkpt>
      <trkpt lat="46.17601" lon="2.46085">
        <ele>427</ele>
        <time>2015-04-06T14:29:51Z</time>
      </trkpt>
      <trkpt lat="46.17601" lon="2.46089">
        <ele>427</ele>
        <time>2015-04-06T14:29:53Z</time>
      </trkpt>
      <trkpt lat="46.17599" lon="2.46093">
        <ele>427</ele>
        <time>2015-04-06T14:29:55Z</time>
      </trkpt>
      <trkpt lat="46.17599" lon="2.46096">
        <ele>426</ele>
        <time>2015-04-06T14:29:57Z</time>
      </trkpt>
      <trkpt lat="46.17598" lon="2.461">
        <ele>426</ele>
        <time>2015-04-06T14:30:00Z</time>
      </trkpt>
      <trkpt lat="46.17597" lon="2.46104">
        <ele>426</ele>
        <time>2015-04-06T14:30:02Z</time>
      </trkpt>
      <trkpt lat="46.17596" lon="2.46109">
        <ele>426</ele>
        <time>2015-04-06T14:30:05Z</time>
      </trkpt>
      <trkpt lat="46.17595" lon="2.46112">
        <ele>426</ele>
        <time>2015-04-06T14:30:07Z</time>
      </trkpt>
      <trkpt lat="46.17594" lon="2.46115">
        <ele>426</ele>
        <time>2015-04-06T14:30:09Z</time>
      </trkpt>
      <trkpt lat="46.17593" lon="2.46119">
        <ele>425</ele>
        <time>2015-04-06T14:30:12Z</time>
      </trkpt>
      <trkpt lat="46.17592" lon="2.46122">
        <ele>425</ele>
        <time>2015-04-06T14:30:14Z</time>
      </trkpt>
      <trkpt lat="46.17591" lon="2.46125">
        <ele>424</ele>
        <time>2015-04-06T14:30:16Z</time>
      </trkpt>
      <trkpt lat="46.1759" lon="2.46129">
        <ele>423</ele>
        <time>2015-04-06T14:30:19Z</time>
      </trkpt>
      <trkpt lat="46.17588" lon="2.46133">
        <ele>423</ele>
        <time>2015-04-06T14:30:21Z</time>
      </trkpt>
      <trkpt lat="46.17588" lon="2.46136">
        <ele>423</ele>
        <time>2015-04-06T14:30:23Z</time>
      </trkpt>
      <trkpt lat="46.17587" lon="2.46139">
        <ele>423</ele>
        <time>2015-04-06T14:30:25Z</time>
      </trkpt>
      <trkpt lat="46.17585" lon="2.46142">
        <ele>423</ele>
        <time>2015-04-06T14:30:27Z</time>
      </trkpt>
      <trkpt lat="46.17585" lon="2.46146">
        <ele>423</ele>
        <time>2015-04-06T14:30:29Z</time>
      </trkpt>
      <trkpt lat="46.17583" lon="2.46149">
        <ele>423</ele>
        <time>2015-04-06T14:30:31Z</time>
      </trkpt>
      <trkpt lat="46.17583" lon="2.46152">
        <ele>423</ele>
        <time>2015-04-06T14:30:33Z</time>
      </trkpt>
      <trkpt lat="46.17581" lon="2.46154">
        <ele>423</ele>
        <time>2015-04-06T14:30:35Z</time>
      </trkpt>
      <trkpt lat="46.1758" lon="2.46157">
        <ele>423</ele>
        <time>2015-04-06T14:30:37Z</time>
      </trkpt>
      <trkpt lat="46.1758" lon="2.4616">
        <ele>423</ele>
        <time>2015-04-06T14:30:39Z</time>
      </trkpt>
      <trkpt lat="46.17579" lon="2.46164">
        <ele>423</ele>
        <time>2015-04-06T14:30:41Z</time>
      </trkpt>
      <trkpt lat="46.17577" lon="2.46167">
        <ele>423</ele>
        <time>2015-04-06T14:30:43Z</time>
      </trkpt>
      <trkpt lat="46.17576" lon="2.4617">
        <ele>423</ele>
        <time>2015-04-06T14:30:45Z</time>
      </trkpt>
      <trkpt lat="46.17575" lon="2.46174">
        <ele>423</ele>
        <time>2015-04-06T14:30:47Z</time>
      </trkpt>
      <trkpt lat="46.17574" lon="2.46177">
        <ele>423</ele>
        <time>2015-04-06T14:30:49Z</time>
      </trkpt>
      <trkpt lat="46.17572" lon="2.4618">
        <ele>423</ele>
        <time>2015-04-06T14:30:51Z</time>
      </trkpt>
      <trkpt lat="46.17571" lon="2.46183">
        <ele>423</ele>
        <time>2015-04-06T14:30:53Z</time>
      </trkpt>
      <trkpt lat="46.1757" lon="2.46186">
        <ele>423</ele>
        <time>2015-04-06T14:30:55Z</time>
      </trkpt>
      <trkpt lat="46.17569" lon="2.4619">
        <ele>423</ele>
        <time>2015-04-06T14:30:57Z</time>
      </trkpt>
      <trkpt lat="46.17567" lon="2.46193">
        <ele>423</ele>
        <time>2015-04-06T14:30:59Z</time>
      </trkpt>
      <trkpt lat="46.17566" lon="2.46196">
        <ele>423</ele>
        <time>2015-04-06T14:31:01Z</time>
      </trkpt>
      <trkpt lat="46.17564" lon="2.46199">
        <ele>423</ele>
        <time>2015-04-06T14:31:03Z</time>
      </trkpt>
      <trkpt lat="46.17563" lon="2.46203">
        <ele>423</ele>
        <time>2015-04-06T14:31:05Z</time>
      </trkpt>
      <trkpt lat="46.17562" lon="2.46207">
        <ele>423</ele>
        <time>2015-04-06T14:31:07Z</time>
      </trkpt>
      <trkpt lat="46.17561" lon="2.46211">
        <ele>423</ele>
        <time>2015-04-06T14:31:09Z</time>
      </trkpt>
      <trkpt lat="46.17559" lon="2.46215">
        <ele>423</ele>
        <time>2015-04-06T14:31:11Z</time>
      </trkpt>
      <trkpt lat="46.17558" lon="2.46218">
        <ele>423</ele>
        <time>2015-04-06T14:31:13Z</time>
      </trkpt>
      <trkpt lat="46.17556" lon="2.46222">
        <ele>423</ele>
        <time>2015-04-06T14:31:15Z</time>
      </trkpt>
      <trkpt lat="46.17555" lon="2.46225">
        <ele>423</ele>
        <time>2015-04-06T14:31:17Z</time>
      </trkpt>
      <trkpt lat="46.17553" lon="2.46228">
        <ele>423</ele>
        <time>2015-04-06T14:31:19Z</time>
      </trkpt>
      <trkpt lat="46.17551" lon="2.46232">
        <ele>423</ele>
        <time>2015-04-06T14:31:22Z</time>
      </trkpt>
      <trkpt lat="46.17551" lon="2.46234">
        <ele>422</ele>
        <time>2015-04-06T14:31:25Z</time>
      </trkpt>
      <trkpt lat="46.17549" lon="2.46237">
        <ele>422</ele>
        <time>2015-04-06T14:31:27Z</time>
      </trkpt>
      <trkpt lat="46.17548" lon="2.4624">
        <ele>421</ele>
        <time>2015-04-06T14:31:29Z</time>
      </trkpt>
      <trkpt lat="46.17547" lon="2.46244">
        <ele>421</ele>
        <time>2015-04-06T14:31:31Z</time>
      </trkpt>
      <trkpt lat="46.17545" lon="2.46247">
        <ele>420</ele>
        <time>2015-04-06T14:31:33Z</time>
      </trkpt>
      <trkpt lat="46.17544" lon="2.4625">
        <ele>420</ele>
        <time>2015-04-06T14:31:35Z</time>
      </trkpt>
      <trkpt lat="46.17543" lon="2.46253">
        <ele>419</ele>
        <time>2015-04-06T14:31:37Z</time>
      </trkpt>
      <trkpt lat="46.17541" lon="2.46257">
        <ele>419</ele>
        <time>2015-04-06T14:31:39Z</time>
      </trkpt>
      <trkpt lat="46.1754" lon="2.4626">
        <ele>418</ele>
        <time>2015-04-06T14:31:41Z</time>
      </trkpt>
      <trkpt lat="46.17538" lon="2.46263">
        <ele>418</ele>
        <time>2015-04-06T14:31:43Z</time>
      </trkpt>
      <trkpt lat="46.17537" lon="2.46267">
        <ele>418</ele>
        <time>2015-04-06T14:31:45Z</time>
      </trkpt>
      <trkpt lat="46.17535" lon="2.4627">
        <ele>417</ele>
        <time>2015-04-06T14:31:47Z</time>
      </trkpt>
      <trkpt lat="46.17535" lon="2.46273">
        <ele>417</ele>
        <time>2015-04-06T14:31:49Z</time>
      </trkpt>
      <trkpt lat="46.17533" lon="2.46277">
        <ele>416</ele>
        <time>2015-04-06T14:31:51Z</time>
      </trkpt>
      <trkpt lat="46.17532" lon="2.4628">
        <ele>416</ele>
        <time>2015-04-06T14:31:53Z</time>
      </trkpt>
      <trkpt lat="46.17531" lon="2.46284">
        <ele>415</ele>
        <time>2015-04-06T14:31:55Z</time>
      </trkpt>
      <trkpt lat="46.1753" lon="2.46287">
        <ele>415</ele>
        <time>2015-04-06T14:31:57Z</time>
      </trkpt>
      <trkpt lat="46.17527" lon="2.46291">
        <ele>414</ele>
        <time>2015-04-06T14:32:00Z</time>
      </trkpt>
      <trkpt lat="46.17526" lon="2.46294">
        <ele>414</ele>
        <time>2015-04-06T14:32:02Z</time>
      </trkpt>
      <trkpt lat="46.17524" lon="2.46298">
        <ele>413</ele>
        <time>2015-04-06T14:32:04Z</time>
      </trkpt>
      <trkpt lat="46.17522" lon="2.46302">
        <ele>412</ele>
        <time>2015-04-06T14:32:07Z</time>
      </trkpt>
      <trkpt lat="46.1752" lon="2.46305">
        <ele>411</ele>
        <time>2015-04-06T14:32:09Z</time>
      </trkpt>
      <trkpt lat="46.17518" lon="2.46308">
        <ele>411</ele>
        <time>2015-04-06T14:32:11Z</time>
      </trkpt>
      <trkpt lat="46.17517" lon="2.46312">
        <ele>410</ele>
        <time>2015-04-06T14:32:13Z</time>
      </trkpt>
      <trkpt lat="46.17515" lon="2.46316">
        <ele>410</ele>
        <time>2015-04-06T14:32:16Z</time>
      </trkpt>
      <trkpt lat="46.17513" lon="2.46317">
        <ele>409</ele>
        <time>2015-04-06T14:32:18Z</time>
      </trkpt>
      <trkpt lat="46.17511" lon="2.46319">
        <ele>407</ele>
        <time>2015-04-06T14:32:20Z</time>
      </trkpt>
      <trkpt lat="46.17508" lon="2.46322">
        <ele>406</ele>
        <time>2015-04-06T14:32:23Z</time>
      </trkpt>
      <trkpt lat="46.17506" lon="2.46323">
        <ele>405</ele>
        <time>2015-04-06T14:32:25Z</time>
      </trkpt>
      <trkpt lat="46.17504" lon="2.46326">
        <ele>405</ele>
        <time>2015-04-06T14:32:27Z</time>
      </trkpt>
      <trkpt lat="46.17502" lon="2.46328">
        <ele>404</ele>
        <time>2015-04-06T14:32:29Z</time>
      </trkpt>
      <trkpt lat="46.175" lon="2.46331">
        <ele>404</ele>
        <time>2015-04-06T14:32:31Z</time>
      </trkpt>
      <trkpt lat="46.17497" lon="2.46334">
        <ele>402</ele>
        <time>2015-04-06T14:32:34Z</time>
      </trkpt>
      <trkpt lat="46.17494" lon="2.46336">
        <ele>402</ele>
        <time>2015-04-06T14:32:36Z</time>
      </trkpt>
      <trkpt lat="46.17492" lon="2.46338">
        <ele>402</ele>
        <time>2015-04-06T14:32:38Z</time>
      </trkpt>
      <trkpt lat="46.17489" lon="2.4634">
        <ele>402</ele>
        <time>2015-04-06T14:32:41Z</time>
      </trkpt>
      <trkpt lat="46.17485" lon="2.46341">
        <ele>402</ele>
        <time>2015-04-06T14:32:44Z</time>
      </trkpt>
      <trkpt lat="46.17484" lon="2.46342">
        <ele>402</ele>
        <time>2015-04-06T14:32:46Z</time>
      </trkpt>
      <trkpt lat="46.17482" lon="2.46345">
        <ele>402</ele>
        <time>2015-04-06T14:32:48Z</time>
      </trkpt>
      <trkpt lat="46.1748" lon="2.46348">
        <ele>402</ele>
        <time>2015-04-06T14:32:50Z</time>
      </trkpt>
      <trkpt lat="46.1748" lon="2.46352">
        <ele>402</ele>
        <time>2015-04-06T14:32:52Z</time>
      </trkpt>
      <trkpt lat="46.17479" lon="2.46355">
        <ele>402</ele>
        <time>2015-04-06T14:32:54Z</time>
      </trkpt>
      <trkpt lat="46.17478" lon="2.46358">
        <ele>402</ele>
        <time>2015-04-06T14:32:56Z</time>
      </trkpt>
      <trkpt lat="46.17477" lon="2.46362">
        <ele>402</ele>
        <time>2015-04-06T14:32:58Z</time>
      </trkpt>
      <trkpt lat="46.17476" lon="2.46365">
        <ele>402</ele>
        <time>2015-04-06T14:33:00Z</time>
      </trkpt>
      <trkpt lat="46.17476" lon="2.46368">
        <ele>402</ele>
        <time>2015-04-06T14:33:02Z</time>
      </trkpt>
      <trkpt lat="46.17474" lon="2.46371">
        <ele>402</ele>
        <time>2015-04-06T14:33:04Z</time>
      </trkpt>
      <trkpt lat="46.17473" lon="2.46375">
        <ele>401</ele>
        <time>2015-04-06T14:33:06Z</time>
      </trkpt>
      <trkpt lat="46.17472" lon="2.46378">
        <ele>401</ele>
        <time>2015-04-06T14:33:08Z</time>
      </trkpt>
      <trkpt lat="46.17471" lon="2.46381">
        <ele>400</ele>
        <time>2015-04-06T14:33:10Z</time>
      </trkpt>
      <trkpt lat="46.1747" lon="2.46385">
        <ele>399</ele>
        <time>2015-04-06T14:33:12Z</time>
      </trkpt>
      <trkpt lat="46.1747" lon="2.46389">
        <ele>399</ele>
        <time>2015-04-06T14:33:15Z</time>
      </trkpt>
      <trkpt lat="46.17469" lon="2.46393">
        <ele>399</ele>
        <time>2015-04-06T14:33:17Z</time>
      </trkpt>
      <trkpt lat="46.17468" lon="2.46397">
        <ele>399</ele>
        <time>2015-04-06T14:33:19Z</time>
      </trkpt>
      <trkpt lat="46.17467" lon="2.464">
        <ele>399</ele>
        <time>2015-04-06T14:33:21Z</time>
      </trkpt>
      <trkpt lat="46.17467" lon="2.46404">
        <ele>399</ele>
        <time>2015-04-06T14:33:24Z</time>
      </trkpt>
      <trkpt lat="46.17465" lon="2.46407">
        <ele>399</ele>
        <time>2015-04-06T14:33:26Z</time>
      </trkpt>
      <trkpt lat="46.17463" lon="2.4641">
        <ele>399</ele>
        <time>2015-04-06T14:33:28Z</time>
      </trkpt>
      <trkpt lat="46.17462" lon="2.46414">
        <ele>399</ele>
        <time>2015-04-06T14:33:30Z</time>
      </trkpt>
      <trkpt lat="46.17462" lon="2.46418">
        <ele>399</ele>
        <time>2015-04-06T14:33:33Z</time>
      </trkpt>
      <trkpt lat="46.17461" lon="2.46419">
        <ele>399</ele>
        <time>2015-04-06T14:33:36Z</time>
      </trkpt>
      <trkpt lat="46.17461" lon="2.46421">
        <ele>400</ele>
        <time>2015-04-06T14:33:40Z</time>
      </trkpt>
      <trkpt lat="46.17462" lon="2.46419">
        <ele>400</ele>
        <time>2015-04-06T14:33:45Z</time>
      </trkpt>
      <trkpt lat="46.17463" lon="2.46419">
        <ele>400</ele>
        <time>2015-04-06T14:33:47Z</time>
      </trkpt>
      <trkpt lat="46.17462" lon="2.46421">
        <ele>400</ele>
        <time>2015-04-06T14:33:49Z</time>
      </trkpt>
      <trkpt lat="46.17461" lon="2.46424">
        <ele>400</ele>
        <time>2015-04-06T14:33:51Z</time>
      </trkpt>
      <trkpt lat="46.17461" lon="2.46427">
        <ele>400</ele>
        <time>2015-04-06T14:33:53Z</time>
      </trkpt>
      <trkpt lat="46.17459" lon="2.46429">
        <ele>400</ele>
        <time>2015-04-06T14:33:55Z</time>
      </trkpt>
      <trkpt lat="46.17458" lon="2.46433">
        <ele>400</ele>
        <time>2015-04-06T14:33:57Z</time>
      </trkpt>
      <trkpt lat="46.17459" lon="2.46437">
        <ele>400</ele>
        <time>2015-04-06T14:33:59Z</time>
      </trkpt>
      <trkpt lat="46.17458" lon="2.46442">
        <ele>400</ele>
        <time>2015-04-06T14:34:01Z</time>
      </trkpt>
      <trkpt lat="46.17457" lon="2.46446">
        <ele>400</ele>
        <time>2015-04-06T14:34:03Z</time>
      </trkpt>
      <trkpt lat="46.17456" lon="2.4645">
        <ele>400</ele>
        <time>2015-04-06T14:34:05Z</time>
      </trkpt>
      <trkpt lat="46.17456" lon="2.46452">
        <ele>400</ele>
        <time>2015-04-06T14:34:07Z</time>
      </trkpt>
      <trkpt lat="46.17456" lon="2.46454">
        <ele>400</ele>
        <time>2015-04-06T14:34:09Z</time>
      </trkpt>
      <trkpt lat="46.17455" lon="2.46456">
        <ele>400</ele>
        <time>2015-04-06T14:34:11Z</time>
      </trkpt>
      <trkpt lat="46.17455" lon="2.46459">
        <ele>400</ele>
        <time>2015-04-06T14:34:14Z</time>
      </trkpt>
      <trkpt lat="46.17453" lon="2.46463">
        <ele>399</ele>
        <time>2015-04-06T14:34:17Z</time>
      </trkpt>
      <trkpt lat="46.17452" lon="2.46466">
        <ele>398</ele>
        <time>2015-04-06T14:34:19Z</time>
      </trkpt>
      <trkpt lat="46.17451" lon="2.4647">
        <ele>398</ele>
        <time>2015-04-06T14:34:21Z</time>
      </trkpt>
      <trkpt lat="46.17451" lon="2.46473">
        <ele>398</ele>
        <time>2015-04-06T14:34:23Z</time>
      </trkpt>
      <trkpt lat="46.1745" lon="2.46476">
        <ele>398</ele>
        <time>2015-04-06T14:34:26Z</time>
      </trkpt>
      <trkpt lat="46.17449" lon="2.46479">
        <ele>398</ele>
        <time>2015-04-06T14:34:28Z</time>
      </trkpt>
      <trkpt lat="46.17448" lon="2.46483">
        <ele>398</ele>
        <time>2015-04-06T14:34:30Z</time>
      </trkpt>
      <trkpt lat="46.17447" lon="2.46487">
        <ele>398</ele>
        <time>2015-04-06T14:34:32Z</time>
      </trkpt>
      <trkpt lat="46.17447" lon="2.46491">
        <ele>398</ele>
        <time>2015-04-06T14:34:34Z</time>
      </trkpt>
      <trkpt lat="46.17448" lon="2.46494">
        <ele>398</ele>
        <time>2015-04-06T14:34:36Z</time>
      </trkpt>
      <trkpt lat="46.17448" lon="2.46498">
        <ele>397</ele>
        <time>2015-04-06T14:34:41Z</time>
      </trkpt>
      <trkpt lat="46.17447" lon="2.465">
        <ele>395</ele>
        <time>2015-04-06T14:34:43Z</time>
      </trkpt>
      <trkpt lat="46.17446" lon="2.46503">
        <ele>393</ele>
        <time>2015-04-06T14:34:45Z</time>
      </trkpt>
      <trkpt lat="46.17445" lon="2.46507">
        <ele>391</ele>
        <time>2015-04-06T14:34:47Z</time>
      </trkpt>
      <trkpt lat="46.17443" lon="2.46509">
        <ele>391</ele>
        <time>2015-04-06T14:34:49Z</time>
      </trkpt>
      <trkpt lat="46.17442" lon="2.46511">
        <ele>391</ele>
        <time>2015-04-06T14:34:51Z</time>
      </trkpt>
      <trkpt lat="46.1744" lon="2.46513">
        <ele>390</ele>
        <time>2015-04-06T14:34:53Z</time>
      </trkpt>
      <trkpt lat="46.17439" lon="2.46515">
        <ele>389</ele>
        <time>2015-04-06T14:34:55Z</time>
      </trkpt>
      <trkpt lat="46.17436" lon="2.46516">
        <ele>389</ele>
        <time>2015-04-06T14:34:57Z</time>
      </trkpt>
      <trkpt lat="46.17433" lon="2.46519">
        <ele>389</ele>
        <time>2015-04-06T14:34:59Z</time>
      </trkpt>
      <trkpt lat="46.17431" lon="2.46521">
        <ele>389</ele>
        <time>2015-04-06T14:35:01Z</time>
      </trkpt>
      <trkpt lat="46.17429" lon="2.46525">
        <ele>389</ele>
        <time>2015-04-06T14:35:04Z</time>
      </trkpt>
      <trkpt lat="46.17427" lon="2.46527">
        <ele>389</ele>
        <time>2015-04-06T14:35:06Z</time>
      </trkpt>
      <trkpt lat="46.17426" lon="2.46528">
        <ele>388</ele>
        <time>2015-04-06T14:35:08Z</time>
      </trkpt>
      <trkpt lat="46.17422" lon="2.46531">
        <ele>386</ele>
        <time>2015-04-06T14:35:11Z</time>
      </trkpt>
      <trkpt lat="46.1742" lon="2.46532">
        <ele>386</ele>
        <time>2015-04-06T14:35:13Z</time>
      </trkpt>
      <trkpt lat="46.17416" lon="2.46535">
        <ele>386</ele>
        <time>2015-04-06T14:35:16Z</time>
      </trkpt>
      <trkpt lat="46.17413" lon="2.46537">
        <ele>386</ele>
        <time>2015-04-06T14:35:19Z</time>
      </trkpt>
      <trkpt lat="46.17412" lon="2.46539">
        <ele>386</ele>
        <time>2015-04-06T14:35:21Z</time>
      </trkpt>
      <trkpt lat="46.17411" lon="2.46541">
        <ele>386</ele>
        <time>2015-04-06T14:35:23Z</time>
      </trkpt>
      <trkpt lat="46.1741" lon="2.46543">
        <ele>384</ele>
        <time>2015-04-06T14:35:25Z</time>
      </trkpt>
      <trkpt lat="46.17408" lon="2.46544">
        <ele>383</ele>
        <time>2015-04-06T14:35:27Z</time>
      </trkpt>
      <trkpt lat="46.17406" lon="2.46545">
        <ele>381</ele>
        <time>2015-04-06T14:35:29Z</time>
      </trkpt>
      <trkpt lat="46.17405" lon="2.46547">
        <ele>380</ele>
        <time>2015-04-06T14:35:31Z</time>
      </trkpt>
      <trkpt lat="46.17404" lon="2.46548">
        <ele>378</ele>
        <time>2015-04-06T14:35:33Z</time>
      </trkpt>
      <trkpt lat="46.17403" lon="2.46549">
        <ele>376</ele>
        <time>2015-04-06T14:35:35Z</time>
      </trkpt>
      <trkpt lat="46.17401" lon="2.46549">
        <ele>375</ele>
        <time>2015-04-06T14:35:37Z</time>
      </trkpt>
      <trkpt lat="46.174" lon="2.46549">
        <ele>373</ele>
        <time>2015-04-06T14:35:39Z</time>
      </trkpt>
      <trkpt lat="46.17398" lon="2.46549">
        <ele>372</ele>
        <time>2015-04-06T14:35:41Z</time>
      </trkpt>
      <trkpt lat="46.17397" lon="2.46549">
        <ele>371</ele>
        <time>2015-04-06T14:35:43Z</time>
      </trkpt>
      <trkpt lat="46.17395" lon="2.4655">
        <ele>370</ele>
        <time>2015-04-06T14:35:45Z</time>
      </trkpt>
      <trkpt lat="46.17394" lon="2.46552">
        <ele>367</ele>
        <time>2015-04-06T14:35:48Z</time>
      </trkpt>
      <trkpt lat="46.17393" lon="2.46554">
        <ele>366</ele>
        <time>2015-04-06T14:35:50Z</time>
      </trkpt>
      <trkpt lat="46.17393" lon="2.46556">
        <ele>365</ele>
        <time>2015-04-06T14:35:52Z</time>
      </trkpt>
      <trkpt lat="46.17394" lon="2.46557">
        <ele>364</ele>
        <time>2015-04-06T14:35:55Z</time>
      </trkpt>
      <trkpt lat="46.17396" lon="2.46559">
        <ele>364</ele>
        <time>2015-04-06T14:35:57Z</time>
      </trkpt>
      <trkpt lat="46.17397" lon="2.4656">
        <ele>364</ele>
        <time>2015-04-06T14:35:59Z</time>
      </trkpt>
      <trkpt lat="46.17398" lon="2.46562">
        <ele>364</ele>
        <time>2015-04-06T14:36:01Z</time>
      </trkpt>
      <trkpt lat="46.174" lon="2.46564">
        <ele>364</ele>
        <time>2015-04-06T14:36:03Z</time>
      </trkpt>
      <trkpt lat="46.17401" lon="2.46566">
        <ele>364</ele>
        <time>2015-04-06T14:36:05Z</time>
      </trkpt>
      <trkpt lat="46.17403" lon="2.46566">
        <ele>365</ele>
        <time>2015-04-06T14:36:07Z</time>
      </trkpt>
      <trkpt lat="46.17404" lon="2.46567">
        <ele>365</ele>
        <time>2015-04-06T14:36:09Z</time>
      </trkpt>
      <trkpt lat="46.17404" lon="2.46569">
        <ele>366</ele>
        <time>2015-04-06T14:36:11Z</time>
      </trkpt>
      <trkpt lat="46.17403" lon="2.46574">
        <ele>369</ele>
        <time>2015-04-06T14:36:14Z</time>
      </trkpt>
      <trkpt lat="46.17403" lon="2.46578">
        <ele>371</ele>
        <time>2015-04-06T14:36:16Z</time>
      </trkpt>
      <trkpt lat="46.17402" lon="2.46582">
        <ele>376</ele>
        <time>2015-04-06T14:36:19Z</time>
      </trkpt>
      <trkpt lat="46.17404" lon="2.46584">
        <ele>380</ele>
        <time>2015-04-06T14:36:22Z</time>
      </trkpt>
      <trkpt lat="46.17405" lon="2.46585">
        <ele>382</ele>
        <time>2015-04-06T14:36:24Z</time>
      </trkpt>
      <trkpt lat="46.17404" lon="2.46588">
        <ele>383</ele>
        <time>2015-04-06T14:36:28Z</time>
      </trkpt>
      <trkpt lat="46.17403" lon="2.4659">
        <ele>383</ele>
        <time>2015-04-06T14:36:30Z</time>
      </trkpt>
      <trkpt lat="46.17403" lon="2.46591">
        <ele>383</ele>
        <time>2015-04-06T14:36:32Z</time>
      </trkpt>
      <trkpt lat="46.17403" lon="2.46593">
        <ele>383</ele>
        <time>2015-04-06T14:36:35Z</time>
      </trkpt>
      <trkpt lat="46.17401" lon="2.46595">
        <ele>383</ele>
        <time>2015-04-06T14:36:38Z</time>
      </trkpt>
      <trkpt lat="46.174" lon="2.46596">
        <ele>383</ele>
        <time>2015-04-06T14:36:41Z</time>
      </trkpt>
      <trkpt lat="46.17398" lon="2.466">
        <ele>383</ele>
        <time>2015-04-06T14:36:44Z</time>
      </trkpt>
      <trkpt lat="46.17397" lon="2.46601">
        <ele>385</ele>
        <time>2015-04-06T14:36:47Z</time>
      </trkpt>
      <trkpt lat="46.17396" lon="2.46602">
        <ele>391</ele>
        <time>2015-04-06T14:36:53Z</time>
      </trkpt>
      <trkpt lat="46.17395" lon="2.466">
        <ele>394</ele>
        <time>2015-04-06T14:37:01Z</time>
      </trkpt>
      <trkpt lat="46.17395" lon="2.46599">
        <ele>394</ele>
        <time>2015-04-06T14:37:05Z</time>
      </trkpt>
      <trkpt lat="46.17394" lon="2.466">
        <ele>394</ele>
        <time>2015-04-06T14:37:13Z</time>
      </trkpt>
      <trkpt lat="46.17393" lon="2.46601">
        <ele>394</ele>
        <time>2015-04-06T14:37:18Z</time>
      </trkpt>
      <trkpt lat="46.17391" lon="2.466">
        <ele>394</ele>
        <time>2015-04-06T14:37:20Z</time>
      </trkpt>
      <trkpt lat="46.17388" lon="2.46601">
        <ele>398</ele>
        <time>2015-04-06T14:37:24Z</time>
      </trkpt>
      <trkpt lat="46.17388" lon="2.46602">
        <ele>403</ele>
        <time>2015-04-06T14:37:33Z</time>
      </trkpt>
      <trkpt lat="46.17386" lon="2.46603">
        <ele>403</ele>
        <time>2015-04-06T14:37:35Z</time>
      </trkpt>
      <trkpt lat="46.17385" lon="2.46605">
        <ele>403</ele>
        <time>2015-04-06T14:37:37Z</time>
      </trkpt>
      <trkpt lat="46.17387" lon="2.46604">
        <ele>403</ele>
        <time>2015-04-06T14:37:40Z</time>
      </trkpt>
      <trkpt lat="46.17387" lon="2.466">
        <ele>403</ele>
        <time>2015-04-06T14:37:42Z</time>
      </trkpt>
      <trkpt lat="46.17386" lon="2.46595">
        <ele>403</ele>
        <time>2015-04-06T14:37:44Z</time>
      </trkpt>
      <trkpt lat="46.17384" lon="2.46591">
        <ele>403</ele>
        <time>2015-04-06T14:37:46Z</time>
      </trkpt>
      <trkpt lat="46.17381" lon="2.46591">
        <ele>403</ele>
        <time>2015-04-06T14:37:48Z</time>
      </trkpt>
      <trkpt lat="46.17378" lon="2.46593">
        <ele>403</ele>
        <time>2015-04-06T14:37:50Z</time>
      </trkpt>
      <trkpt lat="46.17375" lon="2.46595">
        <ele>403</ele>
        <time>2015-04-06T14:37:52Z</time>
      </trkpt>
      <trkpt lat="46.17373" lon="2.46597">
        <ele>403</ele>
        <time>2015-04-06T14:37:54Z</time>
      </trkpt>
      <trkpt lat="46.17372" lon="2.466">
        <ele>403</ele>
        <time>2015-04-06T14:37:56Z</time>
      </trkpt>
      <trkpt lat="46.17371" lon="2.46601">
        <ele>403</ele>
        <time>2015-04-06T14:38:00Z</time>
      </trkpt>
      <trkpt lat="46.17369" lon="2.46599">
        <ele>403</ele>
        <time>2015-04-06T14:38:02Z</time>
      </trkpt>
      <trkpt lat="46.17368" lon="2.46597">
        <ele>403</ele>
        <time>2015-04-06T14:38:04Z</time>
      </trkpt>
      <trkpt lat="46.17366" lon="2.46596">
        <ele>403</ele>
        <time>2015-04-06T14:38:06Z</time>
      </trkpt>
      <trkpt lat="46.17365" lon="2.46596">
        <ele>403</ele>
        <time>2015-04-06T14:38:09Z</time>
      </trkpt>
      <trkpt lat="46.17363" lon="2.46596">
        <ele>404</ele>
        <time>2015-04-06T14:38:15Z</time>
      </trkpt>
      <trkpt lat="46.17362" lon="2.46596">
        <ele>407</ele>
        <time>2015-04-06T14:38:18Z</time>
      </trkpt>
      <trkpt lat="46.17363" lon="2.46594">
        <ele>411</ele>
        <time>2015-04-06T14:38:23Z</time>
      </trkpt>
      <trkpt lat="46.17364" lon="2.46595">
        <ele>411</ele>
        <time>2015-04-06T14:38:29Z</time>
      </trkpt>
      <trkpt lat="46.17363" lon="2.46594">
        <ele>411</ele>
        <time>2015-04-06T14:38:34Z</time>
      </trkpt>
      <trkpt lat="46.17362" lon="2.46596">
        <ele>412</ele>
        <time>2015-04-06T14:38:38Z</time>
      </trkpt>
      <trkpt lat="46.17363" lon="2.46599">
        <ele>412</ele>
        <time>2015-04-06T14:38:40Z</time>
      </trkpt>
      <trkpt lat="46.17363" lon="2.46601">
        <ele>412</ele>
        <time>2015-04-06T14:38:42Z</time>
      </trkpt>
      <trkpt lat="46.17365" lon="2.46606">
        <ele>412</ele>
        <time>2015-04-06T14:38:45Z</time>
      </trkpt>
      <trkpt lat="46.17366" lon="2.4661">
        <ele>412</ele>
        <time>2015-04-06T14:38:47Z</time>
      </trkpt>
      <trkpt lat="46.17365" lon="2.46609">
        <ele>412</ele>
        <time>2015-04-06T14:38:51Z</time>
      </trkpt>
      <trkpt lat="46.17362" lon="2.46608">
        <ele>411</ele>
        <time>2015-04-06T14:38:53Z</time>
      </trkpt>
      <trkpt lat="46.1736" lon="2.46605">
        <ele>411</ele>
        <time>2015-04-06T14:38:55Z</time>
      </trkpt>
      <trkpt lat="46.17358" lon="2.46604">
        <ele>411</ele>
        <time>2015-04-06T14:38:57Z</time>
      </trkpt>
      <trkpt lat="46.17355" lon="2.46606">
        <ele>411</ele>
        <time>2015-04-06T14:39:00Z</time>
      </trkpt>
      <trkpt lat="46.17353" lon="2.46606">
        <ele>411</ele>
        <time>2015-04-06T14:39:03Z</time>
      </trkpt>
      <trkpt lat="46.17352" lon="2.46606">
        <ele>411</ele>
        <time>2015-04-06T14:39:07Z</time>
      </trkpt>
      <trkpt lat="46.17352" lon="2.46604">
        <ele>411</ele>
        <time>2015-04-06T14:39:10Z</time>
      </trkpt>
      <trkpt lat="46.17353" lon="2.46602">
        <ele>413</ele>
        <time>2015-04-06T14:39:14Z</time>
      </trkpt>
      <trkpt lat="46.17354" lon="2.46599">
        <ele>413</ele>
        <time>2015-04-06T14:39:17Z</time>
      </trkpt>
      <trkpt lat="46.17354" lon="2.46596">
        <ele>410</ele>
        <time>2015-04-06T14:39:26Z</time>
      </trkpt>
      <trkpt lat="46.17354" lon="2.46598">
        <ele>409</ele>
        <time>2015-04-06T14:39:32Z</time>
      </trkpt>
      <trkpt lat="46.17354" lon="2.466">
        <ele>409</ele>
        <time>2015-04-06T14:39:34Z</time>
      </trkpt>
      <trkpt lat="46.17354" lon="2.46601">
        <ele>413</ele>
        <time>2015-04-06T14:39:46Z</time>
      </trkpt>
      <trkpt lat="46.17354" lon="2.46603">
        <ele>413</ele>
        <time>2015-04-06T14:39:50Z</time>
      </trkpt>
      <trkpt lat="46.17355" lon="2.46605">
        <ele>413</ele>
        <time>2015-04-06T14:39:52Z</time>
      </trkpt>
      <trkpt lat="46.17355" lon="2.46607">
        <ele>413</ele>
        <time>2015-04-06T14:39:54Z</time>
      </trkpt>
      <trkpt lat="46.17355" lon="2.46608">
        <ele>413</ele>
        <time>2015-04-06T14:39:57Z</time>
      </trkpt>
      <trkpt lat="46.17354" lon="2.4661">
        <ele>414</ele>
        <time>2015-04-06T14:40:06Z</time>
      </trkpt>
      <trkpt lat="46.17355" lon="2.46608">
        <ele>414</ele>
        <time>2015-04-06T14:40:15Z</time>
      </trkpt>
      <trkpt lat="46.17355" lon="2.46605">
        <ele>414</ele>
        <time>2015-04-06T14:40:28Z</time>
      </trkpt>
      <trkpt lat="46.17355" lon="2.46604">
        <ele>414</ele>
        <time>2015-04-06T14:40:31Z</time>
      </trkpt>
      <trkpt lat="46.17355" lon="2.46602">
        <ele>414</ele>
        <time>2015-04-06T14:40:34Z</time>
      </trkpt>
      <trkpt lat="46.17356" lon="2.46603">
        <ele>414</ele>
        <time>2015-04-06T14:40:41Z</time>
      </trkpt>
      <trkpt lat="46.17356" lon="2.46605">
        <ele>414</ele>
        <time>2015-04-06T14:40:46Z</time>
      </trkpt>
      <trkpt lat="46.17357" lon="2.46608">
        <ele>410</ele>
        <time>2015-04-06T14:40:52Z</time>
      </trkpt>
      <trkpt lat="46.17357" lon="2.4661">
        <ele>409</ele>
        <time>2015-04-06T14:40:54Z</time>
      </trkpt>
      <trkpt lat="46.17357" lon="2.46612">
        <ele>406</ele>
        <time>2015-04-06T14:40:57Z</time>
      </trkpt>
      <trkpt lat="46.17359" lon="2.46611">
        <ele>403</ele>
        <time>2015-04-06T14:41:00Z</time>
      </trkpt>
      <trkpt lat="46.1736" lon="2.4661">
        <ele>400</ele>
        <time>2015-04-06T14:41:04Z</time>
      </trkpt>
      <trkpt lat="46.17361" lon="2.46607">
        <ele>400</ele>
        <time>2015-04-06T14:41:06Z</time>
      </trkpt>
      <trkpt lat="46.17362" lon="2.46607">
        <ele>400</ele>
        <time>2015-04-06T14:41:08Z</time>
      </trkpt>
      <trkpt lat="46.17364" lon="2.46607">
        <ele>400</ele>
        <time>2015-04-06T14:41:11Z</time>
      </trkpt>
      <trkpt lat="46.17365" lon="2.46608">
        <ele>400</ele>
        <time>2015-04-06T14:41:13Z</time>
      </trkpt>
      <trkpt lat="46.17366" lon="2.46609">
        <ele>400</ele>
        <time>2015-04-06T14:41:15Z</time>
      </trkpt>
      <trkpt lat="46.17368" lon="2.4661">
        <ele>401</ele>
        <time>2015-04-06T14:41:17Z</time>
      </trkpt>
      <trkpt lat="46.17368" lon="2.46608">
        <ele>402</ele>
        <time>2015-04-06T14:41:21Z</time>
      </trkpt>
      <trkpt lat="46.17367" lon="2.46606">
        <ele>403</ele>
        <time>2015-04-06T14:41:23Z</time>
      </trkpt>
      <trkpt lat="46.17366" lon="2.46605">
        <ele>406</ele>
        <time>2015-04-06T14:41:27Z</time>
      </trkpt>
      <trkpt lat="46.17364" lon="2.46605">
        <ele>410</ele>
        <time>2015-04-06T14:41:31Z</time>
      </trkpt>
      <trkpt lat="46.17364" lon="2.46604">
        <ele>414</ele>
        <time>2015-04-06T14:41:38Z</time>
      </trkpt>
      <trkpt lat="46.17366" lon="2.46605">
        <ele>414</ele>
        <time>2015-04-06T14:41:40Z</time>
      </trkpt>
      <trkpt lat="46.17368" lon="2.46606">
        <ele>414</ele>
        <time>2015-04-06T14:41:42Z</time>
      </trkpt>
      <trkpt lat="46.1737" lon="2.46608">
        <ele>412</ele>
        <time>2015-04-06T14:41:44Z</time>
      </trkpt>
      <trkpt lat="46.17371" lon="2.46607">
        <ele>410</ele>
        <time>2015-04-06T14:41:46Z</time>
      </trkpt>
      <trkpt lat="46.17373" lon="2.4661">
        <ele>409</ele>
        <time>2015-04-06T14:41:48Z</time>
      </trkpt>
      <trkpt lat="46.17376" lon="2.46612">
        <ele>407</ele>
        <time>2015-04-06T14:41:50Z</time>
      </trkpt>
      <trkpt lat="46.17379" lon="2.46613">
        <ele>406</ele>
        <time>2015-04-06T14:41:52Z</time>
      </trkpt>
      <trkpt lat="46.17382" lon="2.46615">
        <ele>403</ele>
        <time>2015-04-06T14:41:55Z</time>
      </trkpt>
      <trkpt lat="46.17384" lon="2.46615">
        <ele>402</ele>
        <time>2015-04-06T14:41:57Z</time>
      </trkpt>
      <trkpt lat="46.17386" lon="2.46614">
        <ele>400</ele>
        <time>2015-04-06T14:41:59Z</time>
      </trkpt>
      <trkpt lat="46.17389" lon="2.46614">
        <ele>398</ele>
        <time>2015-04-06T14:42:01Z</time>
      </trkpt>
      <trkpt lat="46.1739" lon="2.46613">
        <ele>396</ele>
        <time>2015-04-06T14:42:03Z</time>
      </trkpt>
      <trkpt lat="46.17393" lon="2.46613">
        <ele>394</ele>
        <time>2015-04-06T14:42:06Z</time>
      </trkpt>
      <trkpt lat="46.17395" lon="2.46614">
        <ele>392</ele>
        <time>2015-04-06T14:42:08Z</time>
      </trkpt>
      <trkpt lat="46.17397" lon="2.46616">
        <ele>391</ele>
        <time>2015-04-06T14:42:10Z</time>
      </trkpt>
      <trkpt lat="46.17397" lon="2.46614">
        <ele>388</ele>
        <time>2015-04-06T14:42:17Z</time>
      </trkpt>
      <trkpt lat="46.17398" lon="2.46613">
        <ele>388</ele>
        <time>2015-04-06T14:42:20Z</time>
      </trkpt>
      <trkpt lat="46.174" lon="2.46614">
        <ele>387</ele>
        <time>2015-04-06T14:42:22Z</time>
      </trkpt>
      <trkpt lat="46.17404" lon="2.46615">
        <ele>384</ele>
        <time>2015-04-06T14:42:25Z</time>
      </trkpt>
      <trkpt lat="46.17406" lon="2.46616">
        <ele>382</ele>
        <time>2015-04-06T14:42:27Z</time>
      </trkpt>
      <trkpt lat="46.1741" lon="2.46617">
        <ele>381</ele>
        <time>2015-04-06T14:42:30Z</time>
      </trkpt>
      <trkpt lat="46.17412" lon="2.46617">
        <ele>380</ele>
        <time>2015-04-06T14:42:32Z</time>
      </trkpt>
      <trkpt lat="46.17413" lon="2.46618">
        <ele>379</ele>
        <time>2015-04-06T14:42:34Z</time>
      </trkpt>
      <trkpt lat="46.17415" lon="2.46619">
        <ele>379</ele>
        <time>2015-04-06T14:42:36Z</time>
      </trkpt>
      <trkpt lat="46.17417" lon="2.46619">
        <ele>379</ele>
        <time>2015-04-06T14:42:38Z</time>
      </trkpt>
      <trkpt lat="46.1742" lon="2.4662">
        <ele>379</ele>
        <time>2015-04-06T14:42:40Z</time>
      </trkpt>
      <trkpt lat="46.17422" lon="2.46619">
        <ele>379</ele>
        <time>2015-04-06T14:42:43Z</time>
      </trkpt>
      <trkpt lat="46.17423" lon="2.4662">
        <ele>379</ele>
        <time>2015-04-06T14:42:45Z</time>
      </trkpt>
      <trkpt lat="46.17426" lon="2.46621">
        <ele>379</ele>
        <time>2015-04-06T14:42:48Z</time>
      </trkpt>
      <trkpt lat="46.17428" lon="2.46622">
        <ele>379</ele>
        <time>2015-04-06T14:42:50Z</time>
      </trkpt>
      <trkpt lat="46.17431" lon="2.46622">
        <ele>379</ele>
        <time>2015-04-06T14:42:52Z</time>
      </trkpt>
      <trkpt lat="46.17434" lon="2.46621">
        <ele>379</ele>
        <time>2015-04-06T14:42:55Z</time>
      </trkpt>
      <trkpt lat="46.17437" lon="2.4662">
        <ele>379</ele>
        <time>2015-04-06T14:42:58Z</time>
      </trkpt>
      <trkpt lat="46.1744" lon="2.46619">
        <ele>379</ele>
        <time>2015-04-06T14:43:00Z</time>
      </trkpt>
      <trkpt lat="46.17443" lon="2.46618">
        <ele>379</ele>
        <time>2015-04-06T14:43:03Z</time>
      </trkpt>
      <trkpt lat="46.17445" lon="2.46617">
        <ele>379</ele>
        <time>2015-04-06T14:43:05Z</time>
      </trkpt>
      <trkpt lat="46.17447" lon="2.46616">
        <ele>379</ele>
        <time>2015-04-06T14:43:07Z</time>
      </trkpt>
      <trkpt lat="46.1745" lon="2.46616">
        <ele>379</ele>
        <time>2015-04-06T14:43:09Z</time>
      </trkpt>
      <trkpt lat="46.17452" lon="2.46616">
        <ele>379</ele>
        <time>2015-04-06T14:43:11Z</time>
      </trkpt>
      <trkpt lat="46.17455" lon="2.46616">
        <ele>379</ele>
        <time>2015-04-06T14:43:13Z</time>
      </trkpt>
      <trkpt lat="46.17457" lon="2.46616">
        <ele>379</ele>
        <time>2015-04-06T14:43:16Z</time>
      </trkpt>
      <trkpt lat="46.17457" lon="2.46618">
        <ele>379</ele>
        <time>2015-04-06T14:43:19Z</time>
      </trkpt>
      <trkpt lat="46.17459" lon="2.46619">
        <ele>379</ele>
        <time>2015-04-06T14:43:22Z</time>
      </trkpt>
      <trkpt lat="46.17461" lon="2.46618">
        <ele>379</ele>
        <time>2015-04-06T14:43:24Z</time>
      </trkpt>
      <trkpt lat="46.17463" lon="2.46618">
        <ele>379</ele>
        <time>2015-04-06T14:43:26Z</time>
      </trkpt>
      <trkpt lat="46.17466" lon="2.46618">
        <ele>379</ele>
        <time>2015-04-06T14:43:29Z</time>
      </trkpt>
      <trkpt lat="46.17468" lon="2.46619">
        <ele>379</ele>
        <time>2015-04-06T14:43:31Z</time>
      </trkpt>
      <trkpt lat="46.1747" lon="2.46619">
        <ele>378</ele>
        <time>2015-04-06T14:43:33Z</time>
      </trkpt>
      <trkpt lat="46.17472" lon="2.46618">
        <ele>378</ele>
        <time>2015-04-06T14:43:35Z</time>
      </trkpt>
      <trkpt lat="46.17473" lon="2.46618">
        <ele>378</ele>
        <time>2015-04-06T14:43:37Z</time>
      </trkpt>
      <trkpt lat="46.17475" lon="2.46618">
        <ele>377</ele>
        <time>2015-04-06T14:43:39Z</time>
      </trkpt>
      <trkpt lat="46.17478" lon="2.46619">
        <ele>377</ele>
        <time>2015-04-06T14:43:42Z</time>
      </trkpt>
      <trkpt lat="46.17478" lon="2.4662">
        <ele>377</ele>
        <time>2015-04-06T14:43:44Z</time>
      </trkpt>
      <trkpt lat="46.17479" lon="2.46621">
        <ele>376</ele>
        <time>2015-04-06T14:43:46Z</time>
      </trkpt>
      <trkpt lat="46.17479" lon="2.46623">
        <ele>376</ele>
        <time>2015-04-06T14:43:49Z</time>
      </trkpt>
      <trkpt lat="46.1748" lon="2.46622">
        <ele>376</ele>
        <time>2015-04-06T14:43:52Z</time>
      </trkpt>
      <trkpt lat="46.17482" lon="2.4662">
        <ele>376</ele>
        <time>2015-04-06T14:43:54Z</time>
      </trkpt>
      <trkpt lat="46.17484" lon="2.46617">
        <ele>376</ele>
        <time>2015-04-06T14:43:57Z</time>
      </trkpt>
      <trkpt lat="46.17485" lon="2.46616">
        <ele>377</ele>
        <time>2015-04-06T14:44:01Z</time>
      </trkpt>
      <trkpt lat="46.17487" lon="2.46615">
        <ele>378</ele>
        <time>2015-04-06T14:44:03Z</time>
      </trkpt>
      <trkpt lat="46.17488" lon="2.46615">
        <ele>379</ele>
        <time>2015-04-06T14:44:05Z</time>
      </trkpt>
      <trkpt lat="46.1749" lon="2.46614">
        <ele>379</ele>
        <time>2015-04-06T14:44:07Z</time>
      </trkpt>
      <trkpt lat="46.17493" lon="2.46614">
        <ele>380</ele>
        <time>2015-04-06T14:44:10Z</time>
      </trkpt>
      <trkpt lat="46.17495" lon="2.46614">
        <ele>380</ele>
        <time>2015-04-06T14:44:12Z</time>
      </trkpt>
      <trkpt lat="46.17498" lon="2.46613">
        <ele>380</ele>
        <time>2015-04-06T14:44:14Z</time>
      </trkpt>
      <trkpt lat="46.17501" lon="2.46612">
        <ele>380</ele>
        <time>2015-04-06T14:44:17Z</time>
      </trkpt>
      <trkpt lat="46.17504" lon="2.46612">
        <ele>380</ele>
        <time>2015-04-06T14:44:19Z</time>
      </trkpt>
      <trkpt lat="46.17505" lon="2.46611">
        <ele>381</ele>
        <time>2015-04-06T14:44:21Z</time>
      </trkpt>
      <trkpt lat="46.17507" lon="2.46611">
        <ele>382</ele>
        <time>2015-04-06T14:44:23Z</time>
      </trkpt>
      <trkpt lat="46.17509" lon="2.46611">
        <ele>382</ele>
        <time>2015-04-06T14:44:25Z</time>
      </trkpt>
      <trkpt lat="46.17511" lon="2.4661">
        <ele>383</ele>
        <time>2015-04-06T14:44:27Z</time>
      </trkpt>
      <trkpt lat="46.17514" lon="2.46608">
        <ele>384</ele>
        <time>2015-04-06T14:44:30Z</time>
      </trkpt>
      <trkpt lat="46.17516" lon="2.46608">
        <ele>384</ele>
        <time>2015-04-06T14:44:32Z</time>
      </trkpt>
      <trkpt lat="46.17518" lon="2.46607">
        <ele>384</ele>
        <time>2015-04-06T14:44:34Z</time>
      </trkpt>
      <trkpt lat="46.17521" lon="2.46608">
        <ele>384</ele>
        <time>2015-04-06T14:44:36Z</time>
      </trkpt>
      <trkpt lat="46.17524" lon="2.46609">
        <ele>384</ele>
        <time>2015-04-06T14:44:39Z</time>
      </trkpt>
      <trkpt lat="46.17526" lon="2.4661">
        <ele>384</ele>
        <time>2015-04-06T14:44:41Z</time>
      </trkpt>
      <trkpt lat="46.1753" lon="2.46615">
        <ele>384</ele>
        <time>2015-04-06T14:44:44Z</time>
      </trkpt>
      <trkpt lat="46.17533" lon="2.46619">
        <ele>384</ele>
        <time>2015-04-06T14:44:47Z</time>
      </trkpt>
      <trkpt lat="46.17533" lon="2.46621">
        <ele>384</ele>
        <time>2015-04-06T14:44:49Z</time>
      </trkpt>
      <trkpt lat="46.17533" lon="2.46623">
        <ele>384</ele>
        <time>2015-04-06T14:44:52Z</time>
      </trkpt>
      <trkpt lat="46.17533" lon="2.46625">
        <ele>384</ele>
        <time>2015-04-06T14:45:00Z</time>
      </trkpt>
      <trkpt lat="46.17532" lon="2.46625">
        <ele>384</ele>
        <time>2015-04-06T14:45:02Z</time>
      </trkpt>
      <trkpt lat="46.1753" lon="2.46625">
        <ele>384</ele>
        <time>2015-04-06T14:45:04Z</time>
      </trkpt>
      <trkpt lat="46.17529" lon="2.46625">
        <ele>384</ele>
        <time>2015-04-06T14:45:06Z</time>
      </trkpt>
      <trkpt lat="46.17527" lon="2.46625">
        <ele>384</ele>
        <time>2015-04-06T14:45:08Z</time>
      </trkpt>
      <trkpt lat="46.17525" lon="2.46625">
        <ele>384</ele>
        <time>2015-04-06T14:45:10Z</time>
      </trkpt>
      <trkpt lat="46.17523" lon="2.46625">
        <ele>384</ele>
        <time>2015-04-06T14:45:12Z</time>
      </trkpt>
      <trkpt lat="46.17521" lon="2.46626">
        <ele>384</ele>
        <time>2015-04-06T14:45:14Z</time>
      </trkpt>
      <trkpt lat="46.17519" lon="2.46627">
        <ele>384</ele>
        <time>2015-04-06T14:45:16Z</time>
      </trkpt>
      <trkpt lat="46.17516" lon="2.46628">
        <ele>384</ele>
        <time>2015-04-06T14:45:19Z</time>
      </trkpt>
      <trkpt lat="46.17514" lon="2.46629">
        <ele>384</ele>
        <time>2015-04-06T14:45:21Z</time>
      </trkpt>
      <trkpt lat="46.17513" lon="2.46632">
        <ele>384</ele>
        <time>2015-04-06T14:45:23Z</time>
      </trkpt>
      <trkpt lat="46.17511" lon="2.46636">
        <ele>384</ele>
        <time>2015-04-06T14:45:26Z</time>
      </trkpt>
      <trkpt lat="46.17511" lon="2.46637">
        <ele>384</ele>
        <time>2015-04-06T14:45:28Z</time>
      </trkpt>
      <trkpt lat="46.17512" lon="2.46638">
        <ele>384</ele>
        <time>2015-04-06T14:45:30Z</time>
      </trkpt>
      <trkpt lat="46.17514" lon="2.46639">
        <ele>384</ele>
        <time>2015-04-06T14:45:32Z</time>
      </trkpt>
      <trkpt lat="46.17516" lon="2.46639">
        <ele>384</ele>
        <time>2015-04-06T14:45:34Z</time>
      </trkpt>
      <trkpt lat="46.17517" lon="2.46638">
        <ele>384</ele>
        <time>2015-04-06T14:45:36Z</time>
      </trkpt>
      <trkpt lat="46.17519" lon="2.46637">
        <ele>384</ele>
        <time>2015-04-06T14:45:38Z</time>
      </trkpt>
      <trkpt lat="46.1752" lon="2.46637">
        <ele>385</ele>
        <time>2015-04-06T14:45:40Z</time>
      </trkpt>
      <trkpt lat="46.17521" lon="2.46638">
        <ele>386</ele>
        <time>2015-04-06T14:45:42Z</time>
      </trkpt>
      <trkpt lat="46.17523" lon="2.46639">
        <ele>386</ele>
        <time>2015-04-06T14:45:44Z</time>
      </trkpt>
      <trkpt lat="46.17525" lon="2.4664">
        <ele>387</ele>
        <time>2015-04-06T14:45:46Z</time>
      </trkpt>
      <trkpt lat="46.17526" lon="2.46641">
        <ele>387</ele>
        <time>2015-04-06T14:45:48Z</time>
      </trkpt>
      <trkpt lat="46.17527" lon="2.46642">
        <ele>387</ele>
        <time>2015-04-06T14:45:50Z</time>
      </trkpt>
      <trkpt lat="46.17529" lon="2.46642">
        <ele>389</ele>
        <time>2015-04-06T14:45:52Z</time>
      </trkpt>
      <trkpt lat="46.17531" lon="2.46642">
        <ele>389</ele>
        <time>2015-04-06T14:45:54Z</time>
      </trkpt>
      <trkpt lat="46.17532" lon="2.46644">
        <ele>390</ele>
        <time>2015-04-06T14:45:56Z</time>
      </trkpt>
      <trkpt lat="46.17534" lon="2.46645">
        <ele>390</ele>
        <time>2015-04-06T14:45:58Z</time>
      </trkpt>
      <trkpt lat="46.17536" lon="2.46645">
        <ele>391</ele>
        <time>2015-04-06T14:46:00Z</time>
      </trkpt>
      <trkpt lat="46.17539" lon="2.46645">
        <ele>391</ele>
        <time>2015-04-06T14:46:03Z</time>
      </trkpt>
      <trkpt lat="46.17542" lon="2.46648">
        <ele>391</ele>
        <time>2015-04-06T14:46:05Z</time>
      </trkpt>
      <trkpt lat="46.17543" lon="2.4665">
        <ele>391</ele>
        <time>2015-04-06T14:46:07Z</time>
      </trkpt>
      <trkpt lat="46.17544" lon="2.46651">
        <ele>391</ele>
        <time>2015-04-06T14:46:10Z</time>
      </trkpt>
      <trkpt lat="46.17545" lon="2.46654">
        <ele>392</ele>
        <time>2015-04-06T14:46:12Z</time>
      </trkpt>
      <trkpt lat="46.17547" lon="2.46655">
        <ele>394</ele>
        <time>2015-04-06T14:46:14Z</time>
      </trkpt>
      <trkpt lat="46.17551" lon="2.46656">
        <ele>395</ele>
        <time>2015-04-06T14:46:17Z</time>
      </trkpt>
      <trkpt lat="46.17553" lon="2.46657">
        <ele>396</ele>
        <time>2015-04-06T14:46:19Z</time>
      </trkpt>
      <trkpt lat="46.17556" lon="2.46658">
        <ele>397</ele>
        <time>2015-04-06T14:46:21Z</time>
      </trkpt>
      <trkpt lat="46.17559" lon="2.46659">
        <ele>397</ele>
        <time>2015-04-06T14:46:24Z</time>
      </trkpt>
      <trkpt lat="46.17562" lon="2.4666">
        <ele>397</ele>
        <time>2015-04-06T14:46:27Z</time>
      </trkpt>
      <trkpt lat="46.17564" lon="2.46661">
        <ele>397</ele>
        <time>2015-04-06T14:46:29Z</time>
      </trkpt>
      <trkpt lat="46.17566" lon="2.46662">
        <ele>397</ele>
        <time>2015-04-06T14:46:31Z</time>
      </trkpt>
      <trkpt lat="46.17567" lon="2.46665">
        <ele>397</ele>
        <time>2015-04-06T14:46:33Z</time>
      </trkpt>
      <trkpt lat="46.17569" lon="2.46667">
        <ele>397</ele>
        <time>2015-04-06T14:46:35Z</time>
      </trkpt>
      <trkpt lat="46.1757" lon="2.46668">
        <ele>397</ele>
        <time>2015-04-06T14:46:37Z</time>
      </trkpt>
      <trkpt lat="46.17571" lon="2.46669">
        <ele>397</ele>
        <time>2015-04-06T14:46:39Z</time>
      </trkpt>
      <trkpt lat="46.17572" lon="2.4667">
        <ele>397</ele>
        <time>2015-04-06T14:46:41Z</time>
      </trkpt>
      <trkpt lat="46.17573" lon="2.46672">
        <ele>398</ele>
        <time>2015-04-06T14:46:44Z</time>
      </trkpt>
      <trkpt lat="46.17574" lon="2.46674">
        <ele>398</ele>
        <time>2015-04-06T14:46:46Z</time>
      </trkpt>
      <trkpt lat="46.17576" lon="2.46676">
        <ele>399</ele>
        <time>2015-04-06T14:46:48Z</time>
      </trkpt>
      <trkpt lat="46.17577" lon="2.4668">
        <ele>399</ele>
        <time>2015-04-06T14:46:50Z</time>
      </trkpt>
      <trkpt lat="46.17577" lon="2.46685">
        <ele>400</ele>
        <time>2015-04-06T14:46:52Z</time>
      </trkpt>
      <trkpt lat="46.17578" lon="2.46688">
        <ele>400</ele>
        <time>2015-04-06T14:46:54Z</time>
      </trkpt>
      <trkpt lat="46.1758" lon="2.46692">
        <ele>400</ele>
        <time>2015-04-06T14:46:57Z</time>
      </trkpt>
      <trkpt lat="46.17581" lon="2.46693">
        <ele>400</ele>
        <time>2015-04-06T14:46:59Z</time>
      </trkpt>
      <trkpt lat="46.17582" lon="2.46695">
        <ele>400</ele>
        <time>2015-04-06T14:47:01Z</time>
      </trkpt>
      <trkpt lat="46.17584" lon="2.46698">
        <ele>400</ele>
        <time>2015-04-06T14:47:03Z</time>
      </trkpt>
      <trkpt lat="46.17585" lon="2.46701">
        <ele>400</ele>
        <time>2015-04-06T14:47:05Z</time>
      </trkpt>
      <trkpt lat="46.17586" lon="2.46704">
        <ele>400</ele>
        <time>2015-04-06T14:47:07Z</time>
      </trkpt>
      <trkpt lat="46.17587" lon="2.46707">
        <ele>400</ele>
        <time>2015-04-06T14:47:09Z</time>
      </trkpt>
      <trkpt lat="46.17588" lon="2.4671">
        <ele>401</ele>
        <time>2015-04-06T14:47:11Z</time>
      </trkpt>
      <trkpt lat="46.17589" lon="2.46713">
        <ele>401</ele>
        <time>2015-04-06T14:47:13Z</time>
      </trkpt>
      <trkpt lat="46.17591" lon="2.46718">
        <ele>401</ele>
        <time>2015-04-06T14:47:16Z</time>
      </trkpt>
      <trkpt lat="46.17591" lon="2.4672">
        <ele>402</ele>
        <time>2015-04-06T14:47:18Z</time>
      </trkpt>
      <trkpt lat="46.17592" lon="2.46723">
        <ele>403</ele>
        <time>2015-04-06T14:47:20Z</time>
      </trkpt>
      <trkpt lat="46.17593" lon="2.46727">
        <ele>404</ele>
        <time>2015-04-06T14:47:23Z</time>
      </trkpt>
      <trkpt lat="46.17593" lon="2.4673">
        <ele>404</ele>
        <time>2015-04-06T14:47:25Z</time>
      </trkpt>
      <trkpt lat="46.17594" lon="2.46734">
        <ele>404</ele>
        <time>2015-04-06T14:47:28Z</time>
      </trkpt>
      <trkpt lat="46.17594" lon="2.46737">
        <ele>404</ele>
        <time>2015-04-06T14:47:30Z</time>
      </trkpt>
      <trkpt lat="46.17593" lon="2.46741">
        <ele>404</ele>
        <time>2015-04-06T14:47:33Z</time>
      </trkpt>
      <trkpt lat="46.17593" lon="2.46744">
        <ele>404</ele>
        <time>2015-04-06T14:47:35Z</time>
      </trkpt>
      <trkpt lat="46.17592" lon="2.46747">
        <ele>404</ele>
        <time>2015-04-06T14:47:37Z</time>
      </trkpt>
      <trkpt lat="46.17592" lon="2.4675">
        <ele>404</ele>
        <time>2015-04-06T14:47:39Z</time>
      </trkpt>
      <trkpt lat="46.17591" lon="2.46753">
        <ele>404</ele>
        <time>2015-04-06T14:47:41Z</time>
      </trkpt>
      <trkpt lat="46.17591" lon="2.46757">
        <ele>405</ele>
        <time>2015-04-06T14:47:44Z</time>
      </trkpt>
      <trkpt lat="46.1759" lon="2.46761">
        <ele>405</ele>
        <time>2015-04-06T14:47:47Z</time>
      </trkpt>
      <trkpt lat="46.1759" lon="2.46764">
        <ele>405</ele>
        <time>2015-04-06T14:47:49Z</time>
      </trkpt>
      <trkpt lat="46.1759" lon="2.46766">
        <ele>405</ele>
        <time>2015-04-06T14:47:51Z</time>
      </trkpt>
      <trkpt lat="46.1759" lon="2.46768">
        <ele>406</ele>
        <time>2015-04-06T14:47:53Z</time>
      </trkpt>
      <trkpt lat="46.1759" lon="2.46772">
        <ele>406</ele>
        <time>2015-04-06T14:47:55Z</time>
      </trkpt>
      <trkpt lat="46.17589" lon="2.46775">
        <ele>406</ele>
        <time>2015-04-06T14:47:57Z</time>
      </trkpt>
      <trkpt lat="46.17589" lon="2.46776">
        <ele>407</ele>
        <time>2015-04-06T14:47:59Z</time>
      </trkpt>
      <trkpt lat="46.17588" lon="2.46779">
        <ele>408</ele>
        <time>2015-04-06T14:48:01Z</time>
      </trkpt>
      <trkpt lat="46.17588" lon="2.46782">
        <ele>408</ele>
        <time>2015-04-06T14:48:03Z</time>
      </trkpt>
      <trkpt lat="46.17587" lon="2.46785">
        <ele>408</ele>
        <time>2015-04-06T14:48:05Z</time>
      </trkpt>
      <trkpt lat="46.17587" lon="2.46788">
        <ele>408</ele>
        <time>2015-04-06T14:48:07Z</time>
      </trkpt>
      <trkpt lat="46.17587" lon="2.46792">
        <ele>408</ele>
        <time>2015-04-06T14:48:09Z</time>
      </trkpt>
      <trkpt lat="46.17587" lon="2.46795">
        <ele>409</ele>
        <time>2015-04-06T14:48:11Z</time>
      </trkpt>
      <trkpt lat="46.17587" lon="2.46798">
        <ele>411</ele>
        <time>2015-04-06T14:48:13Z</time>
      </trkpt>
      <trkpt lat="46.17587" lon="2.46802">
        <ele>411</ele>
        <time>2015-04-06T14:48:16Z</time>
      </trkpt>
      <trkpt lat="46.17587" lon="2.46805">
        <ele>412</ele>
        <time>2015-04-06T14:48:18Z</time>
      </trkpt>
      <trkpt lat="46.17586" lon="2.46807">
        <ele>412</ele>
        <time>2015-04-06T14:48:20Z</time>
      </trkpt>
      <trkpt lat="46.17586" lon="2.46811">
        <ele>412</ele>
        <time>2015-04-06T14:48:22Z</time>
      </trkpt>
      <trkpt lat="46.17586" lon="2.46814">
        <ele>412</ele>
        <time>2015-04-06T14:48:24Z</time>
      </trkpt>
      <trkpt lat="46.17586" lon="2.46818">
        <ele>412</ele>
        <time>2015-04-06T14:48:27Z</time>
      </trkpt>
      <trkpt lat="46.17585" lon="2.46822">
        <ele>412</ele>
        <time>2015-04-06T14:48:30Z</time>
      </trkpt>
      <trkpt lat="46.17585" lon="2.46825">
        <ele>413</ele>
        <time>2015-04-06T14:48:32Z</time>
      </trkpt>
      <trkpt lat="46.17585" lon="2.46827">
        <ele>413</ele>
        <time>2015-04-06T14:48:34Z</time>
      </trkpt>
      <trkpt lat="46.17585" lon="2.4683">
        <ele>413</ele>
        <time>2015-04-06T14:48:36Z</time>
      </trkpt>
      <trkpt lat="46.17585" lon="2.46833">
        <ele>414</ele>
        <time>2015-04-06T14:48:38Z</time>
      </trkpt>
      <trkpt lat="46.17584" lon="2.46836">
        <ele>414</ele>
        <time>2015-04-06T14:48:40Z</time>
      </trkpt>
      <trkpt lat="46.17585" lon="2.46839">
        <ele>415</ele>
        <time>2015-04-06T14:48:42Z</time>
      </trkpt>
      <trkpt lat="46.17584" lon="2.46842">
        <ele>416</ele>
        <time>2015-04-06T14:48:44Z</time>
      </trkpt>
      <trkpt lat="46.17585" lon="2.46846">
        <ele>417</ele>
        <time>2015-04-06T14:48:47Z</time>
      </trkpt>
      <trkpt lat="46.17585" lon="2.46849">
        <ele>417</ele>
        <time>2015-04-06T14:48:49Z</time>
      </trkpt>
      <trkpt lat="46.17585" lon="2.46851">
        <ele>418</ele>
        <time>2015-04-06T14:48:51Z</time>
      </trkpt>
      <trkpt lat="46.17585" lon="2.46856">
        <ele>418</ele>
        <time>2015-04-06T14:48:54Z</time>
      </trkpt>
      <trkpt lat="46.17585" lon="2.46859">
        <ele>419</ele>
        <time>2015-04-06T14:48:56Z</time>
      </trkpt>
      <trkpt lat="46.17585" lon="2.46862">
        <ele>419</ele>
        <time>2015-04-06T14:48:58Z</time>
      </trkpt>
      <trkpt lat="46.17585" lon="2.46865">
        <ele>420</ele>
        <time>2015-04-06T14:49:00Z</time>
      </trkpt>
      <trkpt lat="46.17585" lon="2.46867">
        <ele>421</ele>
        <time>2015-04-06T14:49:02Z</time>
      </trkpt>
      <trkpt lat="46.17585" lon="2.4687">
        <ele>421</ele>
        <time>2015-04-06T14:49:04Z</time>
      </trkpt>
      <trkpt lat="46.17585" lon="2.46874">
        <ele>422</ele>
        <time>2015-04-06T14:49:07Z</time>
      </trkpt>
      <trkpt lat="46.17585" lon="2.46877">
        <ele>422</ele>
        <time>2015-04-06T14:49:09Z</time>
      </trkpt>
      <trkpt lat="46.17585" lon="2.46881">
        <ele>423</ele>
        <time>2015-04-06T14:49:12Z</time>
      </trkpt>
      <trkpt lat="46.17584" lon="2.46884">
        <ele>423</ele>
        <time>2015-04-06T14:49:14Z</time>
      </trkpt>
      <trkpt lat="46.17584" lon="2.46886">
        <ele>423</ele>
        <time>2015-04-06T14:49:16Z</time>
      </trkpt>
      <trkpt lat="46.17584" lon="2.46889">
        <ele>424</ele>
        <time>2015-04-06T14:49:18Z</time>
      </trkpt>
      <trkpt lat="46.17584" lon="2.46893">
        <ele>425</ele>
        <time>2015-04-06T14:49:21Z</time>
      </trkpt>
      <trkpt lat="46.17584" lon="2.46896">
        <ele>425</ele>
        <time>2015-04-06T14:49:23Z</time>
      </trkpt>
      <trkpt lat="46.17585" lon="2.46899">
        <ele>425</ele>
        <time>2015-04-06T14:49:26Z</time>
      </trkpt>
      <trkpt lat="46.17585" lon="2.46902">
        <ele>426</ele>
        <time>2015-04-06T14:49:28Z</time>
      </trkpt>
      <trkpt lat="46.17585" lon="2.46906">
        <ele>427</ele>
        <time>2015-04-06T14:49:31Z</time>
      </trkpt>
      <trkpt lat="46.17585" lon="2.4691">
        <ele>428</ele>
        <time>2015-04-06T14:49:33Z</time>
      </trkpt>
      <trkpt lat="46.17585" lon="2.46913">
        <ele>428</ele>
        <time>2015-04-06T14:49:35Z</time>
      </trkpt>
      <trkpt lat="46.17586" lon="2.46917">
        <ele>429</ele>
        <time>2015-04-06T14:49:38Z</time>
      </trkpt>
      <trkpt lat="46.17585" lon="2.4692">
        <ele>429</ele>
        <time>2015-04-06T14:49:40Z</time>
      </trkpt>
      <trkpt lat="46.17586" lon="2.46924">
        <ele>430</ele>
        <time>2015-04-06T14:49:43Z</time>
      </trkpt>
      <trkpt lat="46.17587" lon="2.46927">
        <ele>430</ele>
        <time>2015-04-06T14:49:45Z</time>
      </trkpt>
      <trkpt lat="46.17587" lon="2.46929">
        <ele>430</ele>
        <time>2015-04-06T14:49:47Z</time>
      </trkpt>
      <trkpt lat="46.17587" lon="2.46931">
        <ele>432</ele>
        <time>2015-04-06T14:50:01Z</time>
      </trkpt>
      <trkpt lat="46.17587" lon="2.46934">
        <ele>432</ele>
        <time>2015-04-06T14:50:03Z</time>
      </trkpt>
      <trkpt lat="46.17587" lon="2.46937">
        <ele>432</ele>
        <time>2015-04-06T14:50:05Z</time>
      </trkpt>
      <trkpt lat="46.17588" lon="2.4694">
        <ele>432</ele>
        <time>2015-04-06T14:50:07Z</time>
      </trkpt>
      <trkpt lat="46.17588" lon="2.46944">
        <ele>432</ele>
        <time>2015-04-06T14:50:09Z</time>
      </trkpt>
      <trkpt lat="46.17589" lon="2.46948">
        <ele>432</ele>
        <time>2015-04-06T14:50:11Z</time>
      </trkpt>
      <trkpt lat="46.17589" lon="2.46951">
        <ele>433</ele>
        <time>2015-04-06T14:50:13Z</time>
      </trkpt>
      <trkpt lat="46.1759" lon="2.46954">
        <ele>433</ele>
        <time>2015-04-06T14:50:15Z</time>
      </trkpt>
      <trkpt lat="46.1759" lon="2.46958">
        <ele>434</ele>
        <time>2015-04-06T14:50:17Z</time>
      </trkpt>
      <trkpt lat="46.17591" lon="2.46962">
        <ele>434</ele>
        <time>2015-04-06T14:50:19Z</time>
      </trkpt>
      <trkpt lat="46.17592" lon="2.46965">
        <ele>434</ele>
        <time>2015-04-06T14:50:21Z</time>
      </trkpt>
      <trkpt lat="46.17592" lon="2.46969">
        <ele>434</ele>
        <time>2015-04-06T14:50:23Z</time>
      </trkpt>
      <trkpt lat="46.17592" lon="2.46972">
        <ele>435</ele>
        <time>2015-04-06T14:50:25Z</time>
      </trkpt>
      <trkpt lat="46.17593" lon="2.46976">
        <ele>435</ele>
        <time>2015-04-06T14:50:27Z</time>
      </trkpt>
      <trkpt lat="46.17593" lon="2.46979">
        <ele>435</ele>
        <time>2015-04-06T14:50:29Z</time>
      </trkpt>
      <trkpt lat="46.17593" lon="2.46983">
        <ele>435</ele>
        <time>2015-04-06T14:50:31Z</time>
      </trkpt>
      <trkpt lat="46.17593" lon="2.46987">
        <ele>435</ele>
        <time>2015-04-06T14:50:33Z</time>
      </trkpt>
      <trkpt lat="46.17594" lon="2.46991">
        <ele>435</ele>
        <time>2015-04-06T14:50:35Z</time>
      </trkpt>
      <trkpt lat="46.17594" lon="2.46994">
        <ele>435</ele>
        <time>2015-04-06T14:50:37Z</time>
      </trkpt>
      <trkpt lat="46.17595" lon="2.46998">
        <ele>435</ele>
        <time>2015-04-06T14:50:39Z</time>
      </trkpt>
      <trkpt lat="46.17595" lon="2.47002">
        <ele>435</ele>
        <time>2015-04-06T14:50:41Z</time>
      </trkpt>
      <trkpt lat="46.17595" lon="2.47005">
        <ele>435</ele>
        <time>2015-04-06T14:50:43Z</time>
      </trkpt>
      <trkpt lat="46.17596" lon="2.47009">
        <ele>435</ele>
        <time>2015-04-06T14:50:45Z</time>
      </trkpt>
      <trkpt lat="46.17596" lon="2.47013">
        <ele>435</ele>
        <time>2015-04-06T14:50:47Z</time>
      </trkpt>
      <trkpt lat="46.17596" lon="2.47017">
        <ele>435</ele>
        <time>2015-04-06T14:50:49Z</time>
      </trkpt>
      <trkpt lat="46.17596" lon="2.47021">
        <ele>435</ele>
        <time>2015-04-06T14:50:51Z</time>
      </trkpt>
      <trkpt lat="46.17596" lon="2.47025">
        <ele>435</ele>
        <time>2015-04-06T14:50:53Z</time>
      </trkpt>
      <trkpt lat="46.17596" lon="2.47029">
        <ele>435</ele>
        <time>2015-04-06T14:50:55Z</time>
      </trkpt>
      <trkpt lat="46.17596" lon="2.47033">
        <ele>435</ele>
        <time>2015-04-06T14:50:57Z</time>
      </trkpt>
      <trkpt lat="46.17596" lon="2.47037">
        <ele>435</ele>
        <time>2015-04-06T14:50:59Z</time>
      </trkpt>
      <trkpt lat="46.17596" lon="2.47041">
        <ele>435</ele>
        <time>2015-04-06T14:51:01Z</time>
      </trkpt>
      <trkpt lat="46.17596" lon="2.47044">
        <ele>435</ele>
        <time>2015-04-06T14:51:03Z</time>
      </trkpt>
      <trkpt lat="46.17596" lon="2.47048">
        <ele>435</ele>
        <time>2015-04-06T14:51:05Z</time>
      </trkpt>
      <trkpt lat="46.17596" lon="2.47052">
        <ele>436</ele>
        <time>2015-04-06T14:51:07Z</time>
      </trkpt>
      <trkpt lat="46.17596" lon="2.47056">
        <ele>436</ele>
        <time>2015-04-06T14:51:09Z</time>
      </trkpt>
      <trkpt lat="46.17596" lon="2.47059">
        <ele>436</ele>
        <time>2015-04-06T14:51:11Z</time>
      </trkpt>
      <trkpt lat="46.17596" lon="2.47063">
        <ele>437</ele>
        <time>2015-04-06T14:51:13Z</time>
      </trkpt>
      <trkpt lat="46.17596" lon="2.47066">
        <ele>437</ele>
        <time>2015-04-06T14:51:15Z</time>
      </trkpt>
      <trkpt lat="46.17596" lon="2.47069">
        <ele>437</ele>
        <time>2015-04-06T14:51:17Z</time>
      </trkpt>
      <trkpt lat="46.17596" lon="2.47073">
        <ele>437</ele>
        <time>2015-04-06T14:51:19Z</time>
      </trkpt>
      <trkpt lat="46.17596" lon="2.47076">
        <ele>437</ele>
        <time>2015-04-06T14:51:21Z</time>
      </trkpt>
      <trkpt lat="46.17596" lon="2.4708">
        <ele>437</ele>
        <time>2015-04-06T14:51:23Z</time>
      </trkpt>
      <trkpt lat="46.17596" lon="2.47083">
        <ele>437</ele>
        <time>2015-04-06T14:51:25Z</time>
      </trkpt>
      <trkpt lat="46.17596" lon="2.47087">
        <ele>437</ele>
        <time>2015-04-06T14:51:27Z</time>
      </trkpt>
      <trkpt lat="46.17597" lon="2.4709">
        <ele>437</ele>
        <time>2015-04-06T14:51:29Z</time>
      </trkpt>
      <trkpt lat="46.17597" lon="2.47093">
        <ele>437</ele>
        <time>2015-04-06T14:51:31Z</time>
      </trkpt>
      <trkpt lat="46.17597" lon="2.47096">
        <ele>437</ele>
        <time>2015-04-06T14:51:33Z</time>
      </trkpt>
      <trkpt lat="46.17597" lon="2.471">
        <ele>437</ele>
        <time>2015-04-06T14:51:35Z</time>
      </trkpt>
      <trkpt lat="46.17597" lon="2.47104">
        <ele>437</ele>
        <time>2015-04-06T14:51:37Z</time>
      </trkpt>
      <trkpt lat="46.17597" lon="2.47108">
        <ele>437</ele>
        <time>2015-04-06T14:51:39Z</time>
      </trkpt>
      <trkpt lat="46.17597" lon="2.47112">
        <ele>437</ele>
        <time>2015-04-06T14:51:41Z</time>
      </trkpt>
      <trkpt lat="46.17597" lon="2.47115">
        <ele>437</ele>
        <time>2015-04-06T14:51:43Z</time>
      </trkpt>
      <trkpt lat="46.17597" lon="2.47119">
        <ele>437</ele>
        <time>2015-04-06T14:51:45Z</time>
      </trkpt>
      <trkpt lat="46.17597" lon="2.47123">
        <ele>437</ele>
        <time>2015-04-06T14:51:47Z</time>
      </trkpt>
      <trkpt lat="46.17597" lon="2.47126">
        <ele>437</ele>
        <time>2015-04-06T14:51:49Z</time>
      </trkpt>
      <trkpt lat="46.17597" lon="2.4713">
        <ele>437</ele>
        <time>2015-04-06T14:51:51Z</time>
      </trkpt>
      <trkpt lat="46.17597" lon="2.47131">
        <ele>437</ele>
        <time>2015-04-06T14:51:54Z</time>
      </trkpt>
      <trkpt lat="46.17598" lon="2.47134">
        <ele>438</ele>
        <time>2015-04-06T14:51:59Z</time>
      </trkpt>
      <trkpt lat="46.17598" lon="2.47137">
        <ele>438</ele>
        <time>2015-04-06T14:52:01Z</time>
      </trkpt>
      <trkpt lat="46.17598" lon="2.47141">
        <ele>438</ele>
        <time>2015-04-06T14:52:03Z</time>
      </trkpt>
      <trkpt lat="46.17598" lon="2.47144">
        <ele>438</ele>
        <time>2015-04-06T14:52:05Z</time>
      </trkpt>
      <trkpt lat="46.17598" lon="2.47148">
        <ele>438</ele>
        <time>2015-04-06T14:52:07Z</time>
      </trkpt>
      <trkpt lat="46.17598" lon="2.47151">
        <ele>438</ele>
        <time>2015-04-06T14:52:09Z</time>
      </trkpt>
      <trkpt lat="46.17598" lon="2.47154">
        <ele>438</ele>
        <time>2015-04-06T14:52:11Z</time>
      </trkpt>
      <trkpt lat="46.17599" lon="2.47157">
        <ele>439</ele>
        <time>2015-04-06T14:52:13Z</time>
      </trkpt>
      <trkpt lat="46.17599" lon="2.47161">
        <ele>439</ele>
        <time>2015-04-06T14:52:15Z</time>
      </trkpt>
      <trkpt lat="46.17599" lon="2.47164">
        <ele>439</ele>
        <time>2015-04-06T14:52:17Z</time>
      </trkpt>
      <trkpt lat="46.17599" lon="2.47168">
        <ele>439</ele>
        <time>2015-04-06T14:52:19Z</time>
      </trkpt>
      <trkpt lat="46.17599" lon="2.47171">
        <ele>439</ele>
        <time>2015-04-06T14:52:21Z</time>
      </trkpt>
      <trkpt lat="46.176" lon="2.47175">
        <ele>440</ele>
        <time>2015-04-06T14:52:23Z</time>
      </trkpt>
      <trkpt lat="46.176" lon="2.47179">
        <ele>440</ele>
        <time>2015-04-06T14:52:25Z</time>
      </trkpt>
      <trkpt lat="46.176" lon="2.47182">
        <ele>440</ele>
        <time>2015-04-06T14:52:27Z</time>
      </trkpt>
      <trkpt lat="46.17601" lon="2.47186">
        <ele>440</ele>
        <time>2015-04-06T14:52:29Z</time>
      </trkpt>
      <trkpt lat="46.17601" lon="2.47189">
        <ele>440</ele>
        <time>2015-04-06T14:52:31Z</time>
      </trkpt>
      <trkpt lat="46.17601" lon="2.47193">
        <ele>440</ele>
        <time>2015-04-06T14:52:33Z</time>
      </trkpt>
      <trkpt lat="46.17602" lon="2.47196">
        <ele>441</ele>
        <time>2015-04-06T14:52:35Z</time>
      </trkpt>
      <trkpt lat="46.17603" lon="2.472">
        <ele>441</ele>
        <time>2015-04-06T14:52:37Z</time>
      </trkpt>
      <trkpt lat="46.17603" lon="2.47203">
        <ele>441</ele>
        <time>2015-04-06T14:52:39Z</time>
      </trkpt>
      <trkpt lat="46.17604" lon="2.47206">
        <ele>441</ele>
        <time>2015-04-06T14:52:41Z</time>
      </trkpt>
      <trkpt lat="46.17605" lon="2.4721">
        <ele>441</ele>
        <time>2015-04-06T14:52:43Z</time>
      </trkpt>
      <trkpt lat="46.17606" lon="2.47214">
        <ele>441</ele>
        <time>2015-04-06T14:52:45Z</time>
      </trkpt>
      <trkpt lat="46.17606" lon="2.47217">
        <ele>441</ele>
        <time>2015-04-06T14:52:47Z</time>
      </trkpt>
      <trkpt lat="46.17607" lon="2.47221">
        <ele>441</ele>
        <time>2015-04-06T14:52:49Z</time>
      </trkpt>
      <trkpt lat="46.17608" lon="2.47224">
        <ele>441</ele>
        <time>2015-04-06T14:52:51Z</time>
      </trkpt>
      <trkpt lat="46.17609" lon="2.47228">
        <ele>442</ele>
        <time>2015-04-06T14:52:53Z</time>
      </trkpt>
      <trkpt lat="46.17609" lon="2.47231">
        <ele>442</ele>
        <time>2015-04-06T14:52:55Z</time>
      </trkpt>
      <trkpt lat="46.1761" lon="2.47234">
        <ele>442</ele>
        <time>2015-04-06T14:52:57Z</time>
      </trkpt>
      <trkpt lat="46.17611" lon="2.47238">
        <ele>442</ele>
        <time>2015-04-06T14:52:59Z</time>
      </trkpt>
      <trkpt lat="46.17612" lon="2.47241">
        <ele>442</ele>
        <time>2015-04-06T14:53:01Z</time>
      </trkpt>
      <trkpt lat="46.17613" lon="2.47244">
        <ele>442</ele>
        <time>2015-04-06T14:53:03Z</time>
      </trkpt>
      <trkpt lat="46.17614" lon="2.47247">
        <ele>442</ele>
        <time>2015-04-06T14:53:05Z</time>
      </trkpt>
      <trkpt lat="46.17615" lon="2.47251">
        <ele>442</ele>
        <time>2015-04-06T14:53:07Z</time>
      </trkpt>
      <trkpt lat="46.17616" lon="2.47254">
        <ele>442</ele>
        <time>2015-04-06T14:53:09Z</time>
      </trkpt>
      <trkpt lat="46.17617" lon="2.47257">
        <ele>442</ele>
        <time>2015-04-06T14:53:11Z</time>
      </trkpt>
      <trkpt lat="46.17617" lon="2.4726">
        <ele>442</ele>
        <time>2015-04-06T14:53:13Z</time>
      </trkpt>
      <trkpt lat="46.17618" lon="2.47264">
        <ele>442</ele>
        <time>2015-04-06T14:53:15Z</time>
      </trkpt>
      <trkpt lat="46.17619" lon="2.47268">
        <ele>442</ele>
        <time>2015-04-06T14:53:17Z</time>
      </trkpt>
      <trkpt lat="46.1762" lon="2.47271">
        <ele>442</ele>
        <time>2015-04-06T14:53:19Z</time>
      </trkpt>
      <trkpt lat="46.17621" lon="2.47275">
        <ele>442</ele>
        <time>2015-04-06T14:53:21Z</time>
      </trkpt>
      <trkpt lat="46.17622" lon="2.47278">
        <ele>442</ele>
        <time>2015-04-06T14:53:23Z</time>
      </trkpt>
      <trkpt lat="46.17623" lon="2.47282">
        <ele>442</ele>
        <time>2015-04-06T14:53:25Z</time>
      </trkpt>
      <trkpt lat="46.17624" lon="2.47285">
        <ele>442</ele>
        <time>2015-04-06T14:53:27Z</time>
      </trkpt>
      <trkpt lat="46.17625" lon="2.47288">
        <ele>442</ele>
        <time>2015-04-06T14:53:29Z</time>
      </trkpt>
      <trkpt lat="46.17626" lon="2.47291">
        <ele>442</ele>
        <time>2015-04-06T14:53:31Z</time>
      </trkpt>
      <trkpt lat="46.17627" lon="2.47295">
        <ele>442</ele>
        <time>2015-04-06T14:53:33Z</time>
      </trkpt>
      <trkpt lat="46.17627" lon="2.47299">
        <ele>442</ele>
        <time>2015-04-06T14:53:35Z</time>
      </trkpt>
      <trkpt lat="46.17628" lon="2.47302">
        <ele>442</ele>
        <time>2015-04-06T14:53:37Z</time>
      </trkpt>
      <trkpt lat="46.17629" lon="2.47306">
        <ele>442</ele>
        <time>2015-04-06T14:53:39Z</time>
      </trkpt>
      <trkpt lat="46.17631" lon="2.47309">
        <ele>442</ele>
        <time>2015-04-06T14:53:41Z</time>
      </trkpt>
      <trkpt lat="46.17632" lon="2.47313">
        <ele>442</ele>
        <time>2015-04-06T14:53:43Z</time>
      </trkpt>
      <trkpt lat="46.17632" lon="2.47317">
        <ele>442</ele>
        <time>2015-04-06T14:53:45Z</time>
      </trkpt>
      <trkpt lat="46.17633" lon="2.47321">
        <ele>442</ele>
        <time>2015-04-06T14:53:47Z</time>
      </trkpt>
      <trkpt lat="46.17634" lon="2.47324">
        <ele>442</ele>
        <time>2015-04-06T14:53:49Z</time>
      </trkpt>
      <trkpt lat="46.17635" lon="2.47328">
        <ele>442</ele>
        <time>2015-04-06T14:53:51Z</time>
      </trkpt>
      <trkpt lat="46.17636" lon="2.47332">
        <ele>442</ele>
        <time>2015-04-06T14:53:53Z</time>
      </trkpt>
      <trkpt lat="46.17638" lon="2.47335">
        <ele>442</ele>
        <time>2015-04-06T14:53:55Z</time>
      </trkpt>
      <trkpt lat="46.17639" lon="2.47339">
        <ele>442</ele>
        <time>2015-04-06T14:53:57Z</time>
      </trkpt>
      <trkpt lat="46.17639" lon="2.47342">
        <ele>442</ele>
        <time>2015-04-06T14:54:01Z</time>
      </trkpt>
      <trkpt lat="46.1764" lon="2.47346">
        <ele>443</ele>
        <time>2015-04-06T14:54:03Z</time>
      </trkpt>
      <trkpt lat="46.17641" lon="2.4735">
        <ele>443</ele>
        <time>2015-04-06T14:54:05Z</time>
      </trkpt>
      <trkpt lat="46.17642" lon="2.47354">
        <ele>443</ele>
        <time>2015-04-06T14:54:07Z</time>
      </trkpt>
      <trkpt lat="46.17643" lon="2.47358">
        <ele>443</ele>
        <time>2015-04-06T14:54:09Z</time>
      </trkpt>
      <trkpt lat="46.17644" lon="2.47362">
        <ele>443</ele>
        <time>2015-04-06T14:54:11Z</time>
      </trkpt>
      <trkpt lat="46.17645" lon="2.47366">
        <ele>443</ele>
        <time>2015-04-06T14:54:13Z</time>
      </trkpt>
      <trkpt lat="46.17645" lon="2.4737">
        <ele>443</ele>
        <time>2015-04-06T14:54:15Z</time>
      </trkpt>
      <trkpt lat="46.17646" lon="2.47374">
        <ele>443</ele>
        <time>2015-04-06T14:54:17Z</time>
      </trkpt>
      <trkpt lat="46.17647" lon="2.47377">
        <ele>443</ele>
        <time>2015-04-06T14:54:19Z</time>
      </trkpt>
      <trkpt lat="46.17648" lon="2.47381">
        <ele>443</ele>
        <time>2015-04-06T14:54:21Z</time>
      </trkpt>
      <trkpt lat="46.17648" lon="2.47385">
        <ele>443</ele>
        <time>2015-04-06T14:54:23Z</time>
      </trkpt>
      <trkpt lat="46.17648" lon="2.47388">
        <ele>443</ele>
        <time>2015-04-06T14:54:25Z</time>
      </trkpt>
      <trkpt lat="46.17649" lon="2.47393">
        <ele>443</ele>
        <time>2015-04-06T14:54:27Z</time>
      </trkpt>
      <trkpt lat="46.1765" lon="2.47397">
        <ele>443</ele>
        <time>2015-04-06T14:54:29Z</time>
      </trkpt>
      <trkpt lat="46.1765" lon="2.47401">
        <ele>443</ele>
        <time>2015-04-06T14:54:31Z</time>
      </trkpt>
      <trkpt lat="46.17651" lon="2.47405">
        <ele>443</ele>
        <time>2015-04-06T14:54:33Z</time>
      </trkpt>
      <trkpt lat="46.17652" lon="2.4741">
        <ele>443</ele>
        <time>2015-04-06T14:54:35Z</time>
      </trkpt>
      <trkpt lat="46.17653" lon="2.47414">
        <ele>443</ele>
        <time>2015-04-06T14:54:37Z</time>
      </trkpt>
      <trkpt lat="46.17653" lon="2.47418">
        <ele>443</ele>
        <time>2015-04-06T14:54:39Z</time>
      </trkpt>
      <trkpt lat="46.17654" lon="2.47422">
        <ele>443</ele>
        <time>2015-04-06T14:54:41Z</time>
      </trkpt>
      <trkpt lat="46.17655" lon="2.47426">
        <ele>443</ele>
        <time>2015-04-06T14:54:43Z</time>
      </trkpt>
      <trkpt lat="46.17656" lon="2.4743">
        <ele>443</ele>
        <time>2015-04-06T14:54:45Z</time>
      </trkpt>
      <trkpt lat="46.17658" lon="2.47433">
        <ele>443</ele>
        <time>2015-04-06T14:54:47Z</time>
      </trkpt>
      <trkpt lat="46.1766" lon="2.47436">
        <ele>443</ele>
        <time>2015-04-06T14:54:49Z</time>
      </trkpt>
      <trkpt lat="46.17661" lon="2.4744">
        <ele>443</ele>
        <time>2015-04-06T14:54:51Z</time>
      </trkpt>
      <trkpt lat="46.17663" lon="2.47443">
        <ele>443</ele>
        <time>2015-04-06T14:54:53Z</time>
      </trkpt>
      <trkpt lat="46.17664" lon="2.47446">
        <ele>443</ele>
        <time>2015-04-06T14:54:55Z</time>
      </trkpt>
      <trkpt lat="46.17666" lon="2.47451">
        <ele>443</ele>
        <time>2015-04-06T14:54:58Z</time>
      </trkpt>
      <trkpt lat="46.17668" lon="2.47455">
        <ele>443</ele>
        <time>2015-04-06T14:55:00Z</time>
      </trkpt>
      <trkpt lat="46.1767" lon="2.47459">
        <ele>443</ele>
        <time>2015-04-06T14:55:02Z</time>
      </trkpt>
      <trkpt lat="46.17671" lon="2.47462">
        <ele>443</ele>
        <time>2015-04-06T14:55:04Z</time>
      </trkpt>
      <trkpt lat="46.17672" lon="2.47466">
        <ele>443</ele>
        <time>2015-04-06T14:55:06Z</time>
      </trkpt>
      <trkpt lat="46.17674" lon="2.47471">
        <ele>443</ele>
        <time>2015-04-06T14:55:08Z</time>
      </trkpt>
      <trkpt lat="46.17675" lon="2.47475">
        <ele>443</ele>
        <time>2015-04-06T14:55:10Z</time>
      </trkpt>
      <trkpt lat="46.17677" lon="2.4748">
        <ele>443</ele>
        <time>2015-04-06T14:55:12Z</time>
      </trkpt>
      <trkpt lat="46.17678" lon="2.47483">
        <ele>443</ele>
        <time>2015-04-06T14:55:14Z</time>
      </trkpt>
      <trkpt lat="46.17679" lon="2.47487">
        <ele>443</ele>
        <time>2015-04-06T14:55:16Z</time>
      </trkpt>
      <trkpt lat="46.1768" lon="2.47491">
        <ele>443</ele>
        <time>2015-04-06T14:55:18Z</time>
      </trkpt>
      <trkpt lat="46.17682" lon="2.47495">
        <ele>443</ele>
        <time>2015-04-06T14:55:20Z</time>
      </trkpt>
      <trkpt lat="46.17683" lon="2.47499">
        <ele>443</ele>
        <time>2015-04-06T14:55:22Z</time>
      </trkpt>
      <trkpt lat="46.17685" lon="2.47502">
        <ele>443</ele>
        <time>2015-04-06T14:55:24Z</time>
      </trkpt>
      <trkpt lat="46.17686" lon="2.47505">
        <ele>443</ele>
        <time>2015-04-06T14:55:26Z</time>
      </trkpt>
      <trkpt lat="46.17687" lon="2.47509">
        <ele>443</ele>
        <time>2015-04-06T14:55:28Z</time>
      </trkpt>
      <trkpt lat="46.17688" lon="2.47513">
        <ele>443</ele>
        <time>2015-04-06T14:55:30Z</time>
      </trkpt>
      <trkpt lat="46.1769" lon="2.47517">
        <ele>443</ele>
        <time>2015-04-06T14:55:32Z</time>
      </trkpt>
      <trkpt lat="46.17691" lon="2.4752">
        <ele>443</ele>
        <time>2015-04-06T14:55:34Z</time>
      </trkpt>
      <trkpt lat="46.17692" lon="2.47524">
        <ele>443</ele>
        <time>2015-04-06T14:55:36Z</time>
      </trkpt>
      <trkpt lat="46.17693" lon="2.47528">
        <ele>443</ele>
        <time>2015-04-06T14:55:38Z</time>
      </trkpt>
      <trkpt lat="46.17694" lon="2.47532">
        <ele>443</ele>
        <time>2015-04-06T14:55:40Z</time>
      </trkpt>
      <trkpt lat="46.17695" lon="2.47535">
        <ele>443</ele>
        <time>2015-04-06T14:55:42Z</time>
      </trkpt>
      <trkpt lat="46.17696" lon="2.47539">
        <ele>443</ele>
        <time>2015-04-06T14:55:44Z</time>
      </trkpt>
      <trkpt lat="46.17697" lon="2.47543">
        <ele>443</ele>
        <time>2015-04-06T14:55:46Z</time>
      </trkpt>
      <trkpt lat="46.17698" lon="2.47547">
        <ele>443</ele>
        <time>2015-04-06T14:55:48Z</time>
      </trkpt>
      <trkpt lat="46.17699" lon="2.47551">
        <ele>443</ele>
        <time>2015-04-06T14:55:50Z</time>
      </trkpt>
      <trkpt lat="46.177" lon="2.47555">
        <ele>443</ele>
        <time>2015-04-06T14:55:52Z</time>
      </trkpt>
      <trkpt lat="46.17701" lon="2.47558">
        <ele>443</ele>
        <time>2015-04-06T14:55:54Z</time>
      </trkpt>
      <trkpt lat="46.17702" lon="2.47562">
        <ele>444</ele>
        <time>2015-04-06T14:55:56Z</time>
      </trkpt>
      <trkpt lat="46.17702" lon="2.47566">
        <ele>444</ele>
        <time>2015-04-06T14:55:58Z</time>
      </trkpt>
      <trkpt lat="46.17703" lon="2.4757">
        <ele>444</ele>
        <time>2015-04-06T14:56:00Z</time>
      </trkpt>
      <trkpt lat="46.17704" lon="2.47574">
        <ele>444</ele>
        <time>2015-04-06T14:56:02Z</time>
      </trkpt>
      <trkpt lat="46.17705" lon="2.47579">
        <ele>444</ele>
        <time>2015-04-06T14:56:04Z</time>
      </trkpt>
      <trkpt lat="46.17705" lon="2.47583">
        <ele>444</ele>
        <time>2015-04-06T14:56:06Z</time>
      </trkpt>
      <trkpt lat="46.17706" lon="2.47587">
        <ele>445</ele>
        <time>2015-04-06T14:56:08Z</time>
      </trkpt>
      <trkpt lat="46.17707" lon="2.47591">
        <ele>445</ele>
        <time>2015-04-06T14:56:10Z</time>
      </trkpt>
      <trkpt lat="46.17707" lon="2.47595">
        <ele>445</ele>
        <time>2015-04-06T14:56:12Z</time>
      </trkpt>
      <trkpt lat="46.17708" lon="2.47599">
        <ele>445</ele>
        <time>2015-04-06T14:56:14Z</time>
      </trkpt>
      <trkpt lat="46.17709" lon="2.47602">
        <ele>445</ele>
        <time>2015-04-06T14:56:16Z</time>
      </trkpt>
      <trkpt lat="46.17709" lon="2.47606">
        <ele>446</ele>
        <time>2015-04-06T14:56:18Z</time>
      </trkpt>
      <trkpt lat="46.1771" lon="2.47609">
        <ele>446</ele>
        <time>2015-04-06T14:56:20Z</time>
      </trkpt>
      <trkpt lat="46.17711" lon="2.47613">
        <ele>446</ele>
        <time>2015-04-06T14:56:22Z</time>
      </trkpt>
      <trkpt lat="46.17712" lon="2.47617">
        <ele>446</ele>
        <time>2015-04-06T14:56:24Z</time>
      </trkpt>
      <trkpt lat="46.17712" lon="2.47621">
        <ele>446</ele>
        <time>2015-04-06T14:56:26Z</time>
      </trkpt>
      <trkpt lat="46.17713" lon="2.47624">
        <ele>446</ele>
        <time>2015-04-06T14:56:28Z</time>
      </trkpt>
      <trkpt lat="46.17714" lon="2.47628">
        <ele>446</ele>
        <time>2015-04-06T14:56:30Z</time>
      </trkpt>
      <trkpt lat="46.17715" lon="2.47633">
        <ele>446</ele>
        <time>2015-04-06T14:56:32Z</time>
      </trkpt>
      <trkpt lat="46.17715" lon="2.47638">
        <ele>446</ele>
        <time>2015-04-06T14:56:34Z</time>
      </trkpt>
      <trkpt lat="46.17716" lon="2.47642">
        <ele>446</ele>
        <time>2015-04-06T14:56:36Z</time>
      </trkpt>
      <trkpt lat="46.17717" lon="2.47646">
        <ele>447</ele>
        <time>2015-04-06T14:56:38Z</time>
      </trkpt>
      <trkpt lat="46.17717" lon="2.4765">
        <ele>447</ele>
        <time>2015-04-06T14:56:40Z</time>
      </trkpt>
      <trkpt lat="46.17718" lon="2.47655">
        <ele>447</ele>
        <time>2015-04-06T14:56:42Z</time>
      </trkpt>
      <trkpt lat="46.17719" lon="2.47658">
        <ele>447</ele>
        <time>2015-04-06T14:56:44Z</time>
      </trkpt>
      <trkpt lat="46.17719" lon="2.47662">
        <ele>447</ele>
        <time>2015-04-06T14:56:46Z</time>
      </trkpt>
      <trkpt lat="46.1772" lon="2.47666">
        <ele>447</ele>
        <time>2015-04-06T14:56:48Z</time>
      </trkpt>
      <trkpt lat="46.17721" lon="2.47671">
        <ele>447</ele>
        <time>2015-04-06T14:56:50Z</time>
      </trkpt>
      <trkpt lat="46.17721" lon="2.47675">
        <ele>448</ele>
        <time>2015-04-06T14:56:52Z</time>
      </trkpt>
      <trkpt lat="46.17722" lon="2.47679">
        <ele>448</ele>
        <time>2015-04-06T14:56:54Z</time>
      </trkpt>
      <trkpt lat="46.17722" lon="2.47683">
        <ele>448</ele>
        <time>2015-04-06T14:56:56Z</time>
      </trkpt>
      <trkpt lat="46.17723" lon="2.47687">
        <ele>448</ele>
        <time>2015-04-06T14:56:58Z</time>
      </trkpt>
      <trkpt lat="46.17724" lon="2.47691">
        <ele>448</ele>
        <time>2015-04-06T14:57:00Z</time>
      </trkpt>
      <trkpt lat="46.17724" lon="2.47695">
        <ele>448</ele>
        <time>2015-04-06T14:57:02Z</time>
      </trkpt>
      <trkpt lat="46.17725" lon="2.47699">
        <ele>448</ele>
        <time>2015-04-06T14:57:04Z</time>
      </trkpt>
      <trkpt lat="46.17725" lon="2.47703">
        <ele>448</ele>
        <time>2015-04-06T14:57:06Z</time>
      </trkpt>
      <trkpt lat="46.17726" lon="2.47708">
        <ele>449</ele>
        <time>2015-04-06T14:57:08Z</time>
      </trkpt>
      <trkpt lat="46.17727" lon="2.47711">
        <ele>449</ele>
        <time>2015-04-06T14:57:10Z</time>
      </trkpt>
      <trkpt lat="46.17727" lon="2.47715">
        <ele>449</ele>
        <time>2015-04-06T14:57:12Z</time>
      </trkpt>
      <trkpt lat="46.17728" lon="2.47719">
        <ele>449</ele>
        <time>2015-04-06T14:57:14Z</time>
      </trkpt>
      <trkpt lat="46.17728" lon="2.47724">
        <ele>449</ele>
        <time>2015-04-06T14:57:16Z</time>
      </trkpt>
      <trkpt lat="46.17729" lon="2.47728">
        <ele>449</ele>
        <time>2015-04-06T14:57:18Z</time>
      </trkpt>
      <trkpt lat="46.17729" lon="2.47732">
        <ele>449</ele>
        <time>2015-04-06T14:57:20Z</time>
      </trkpt>
      <trkpt lat="46.1773" lon="2.47736">
        <ele>449</ele>
        <time>2015-04-06T14:57:22Z</time>
      </trkpt>
      <trkpt lat="46.1773" lon="2.4774">
        <ele>449</ele>
        <time>2015-04-06T14:57:24Z</time>
      </trkpt>
      <trkpt lat="46.17731" lon="2.47744">
        <ele>449</ele>
        <time>2015-04-06T14:57:26Z</time>
      </trkpt>
      <trkpt lat="46.17732" lon="2.4775">
        <ele>449</ele>
        <time>2015-04-06T14:57:29Z</time>
      </trkpt>
      <trkpt lat="46.17732" lon="2.47754">
        <ele>449</ele>
        <time>2015-04-06T14:57:31Z</time>
      </trkpt>
      <trkpt lat="46.17733" lon="2.4776">
        <ele>449</ele>
        <time>2015-04-06T14:57:34Z</time>
      </trkpt>
      <trkpt lat="46.17734" lon="2.47766">
        <ele>449</ele>
        <time>2015-04-06T14:57:37Z</time>
      </trkpt>
      <trkpt lat="46.17735" lon="2.4777">
        <ele>449</ele>
        <time>2015-04-06T14:57:39Z</time>
      </trkpt>
      <trkpt lat="46.17735" lon="2.47774">
        <ele>450</ele>
        <time>2015-04-06T14:57:41Z</time>
      </trkpt>
      <trkpt lat="46.17735" lon="2.47778">
        <ele>450</ele>
        <time>2015-04-06T14:57:43Z</time>
      </trkpt>
      <trkpt lat="46.17736" lon="2.47782">
        <ele>450</ele>
        <time>2015-04-06T14:57:45Z</time>
      </trkpt>
      <trkpt lat="46.17736" lon="2.47786">
        <ele>450</ele>
        <time>2015-04-06T14:57:47Z</time>
      </trkpt>
      <trkpt lat="46.17736" lon="2.4779">
        <ele>450</ele>
        <time>2015-04-06T14:57:49Z</time>
      </trkpt>
      <trkpt lat="46.17737" lon="2.47794">
        <ele>450</ele>
        <time>2015-04-06T14:57:51Z</time>
      </trkpt>
      <trkpt lat="46.17738" lon="2.47799">
        <ele>450</ele>
        <time>2015-04-06T14:57:54Z</time>
      </trkpt>
      <trkpt lat="46.17738" lon="2.47804">
        <ele>450</ele>
        <time>2015-04-06T14:57:56Z</time>
      </trkpt>
      <trkpt lat="46.17738" lon="2.47808">
        <ele>450</ele>
        <time>2015-04-06T14:57:58Z</time>
      </trkpt>
      <trkpt lat="46.17738" lon="2.47813">
        <ele>450</ele>
        <time>2015-04-06T14:58:01Z</time>
      </trkpt>
      <trkpt lat="46.17738" lon="2.47817">
        <ele>450</ele>
        <time>2015-04-06T14:58:03Z</time>
      </trkpt>
      <trkpt lat="46.17738" lon="2.47821">
        <ele>450</ele>
        <time>2015-04-06T14:58:05Z</time>
      </trkpt>
      <trkpt lat="46.17738" lon="2.47825">
        <ele>450</ele>
        <time>2015-04-06T14:58:07Z</time>
      </trkpt>
      <trkpt lat="46.17738" lon="2.47832">
        <ele>450</ele>
        <time>2015-04-06T14:58:10Z</time>
      </trkpt>
      <trkpt lat="46.17738" lon="2.47837">
        <ele>450</ele>
        <time>2015-04-06T14:58:13Z</time>
      </trkpt>
      <trkpt lat="46.17737" lon="2.47841">
        <ele>450</ele>
        <time>2015-04-06T14:58:15Z</time>
      </trkpt>
      <trkpt lat="46.17736" lon="2.47846">
        <ele>450</ele>
        <time>2015-04-06T14:58:17Z</time>
      </trkpt>
      <trkpt lat="46.17735" lon="2.47851">
        <ele>450</ele>
        <time>2015-04-06T14:58:20Z</time>
      </trkpt>
      <trkpt lat="46.17734" lon="2.47855">
        <ele>450</ele>
        <time>2015-04-06T14:58:22Z</time>
      </trkpt>
      <trkpt lat="46.17733" lon="2.47861">
        <ele>450</ele>
        <time>2015-04-06T14:58:25Z</time>
      </trkpt>
      <trkpt lat="46.17731" lon="2.47865">
        <ele>450</ele>
        <time>2015-04-06T14:58:27Z</time>
      </trkpt>
      <trkpt lat="46.1773" lon="2.47871">
        <ele>450</ele>
        <time>2015-04-06T14:58:30Z</time>
      </trkpt>
      <trkpt lat="46.17729" lon="2.47874">
        <ele>450</ele>
        <time>2015-04-06T14:58:32Z</time>
      </trkpt>
      <trkpt lat="46.17728" lon="2.47878">
        <ele>450</ele>
        <time>2015-04-06T14:58:34Z</time>
      </trkpt>
      <trkpt lat="46.17727" lon="2.47884">
        <ele>450</ele>
        <time>2015-04-06T14:58:37Z</time>
      </trkpt>
      <trkpt lat="46.17725" lon="2.47888">
        <ele>450</ele>
        <time>2015-04-06T14:58:40Z</time>
      </trkpt>
      <trkpt lat="46.17723" lon="2.47892">
        <ele>450</ele>
        <time>2015-04-06T14:58:42Z</time>
      </trkpt>
      <trkpt lat="46.17724" lon="2.47895">
        <ele>451</ele>
        <time>2015-04-06T14:58:58Z</time>
      </trkpt>
      <trkpt lat="46.17725" lon="2.47896">
        <ele>454</ele>
        <time>2015-04-06T14:59:22Z</time>
      </trkpt>
      <trkpt lat="46.17724" lon="2.47898">
        <ele>455</ele>
        <time>2015-04-06T15:00:04Z</time>
      </trkpt>
      <trkpt lat="46.17724" lon="2.47899">
        <ele>455</ele>
        <time>2015-04-06T15:00:08Z</time>
      </trkpt>
      <trkpt lat="46.17722" lon="2.47901">
        <ele>455</ele>
        <time>2015-04-06T15:00:15Z</time>
      </trkpt>
      <trkpt lat="46.17719" lon="2.47906">
        <ele>455</ele>
        <time>2015-04-06T15:00:19Z</time>
      </trkpt>
      <trkpt lat="46.17717" lon="2.47909">
        <ele>455</ele>
        <time>2015-04-06T15:00:21Z</time>
      </trkpt>
      <trkpt lat="46.17717" lon="2.47912">
        <ele>455</ele>
        <time>2015-04-06T15:00:23Z</time>
      </trkpt>
      <trkpt lat="46.17716" lon="2.47915">
        <ele>455</ele>
        <time>2015-04-06T15:00:25Z</time>
      </trkpt>
      <trkpt lat="46.17715" lon="2.4792">
        <ele>455</ele>
        <time>2015-04-06T15:00:28Z</time>
      </trkpt>
      <trkpt lat="46.17714" lon="2.47924">
        <ele>455</ele>
        <time>2015-04-06T15:00:30Z</time>
      </trkpt>
      <trkpt lat="46.17714" lon="2.47929">
        <ele>455</ele>
        <time>2015-04-06T15:00:33Z</time>
      </trkpt>
      <trkpt lat="46.17713" lon="2.47933">
        <ele>455</ele>
        <time>2015-04-06T15:00:35Z</time>
      </trkpt>
      <trkpt lat="46.17712" lon="2.47938">
        <ele>455</ele>
        <time>2015-04-06T15:00:38Z</time>
      </trkpt>
      <trkpt lat="46.17711" lon="2.47941">
        <ele>455</ele>
        <time>2015-04-06T15:00:40Z</time>
      </trkpt>
      <trkpt lat="46.17709" lon="2.47945">
        <ele>455</ele>
        <time>2015-04-06T15:00:43Z</time>
      </trkpt>
      <trkpt lat="46.17709" lon="2.47948">
        <ele>455</ele>
        <time>2015-04-06T15:00:45Z</time>
      </trkpt>
      <trkpt lat="46.17708" lon="2.47952">
        <ele>455</ele>
        <time>2015-04-06T15:00:48Z</time>
      </trkpt>
      <trkpt lat="46.17707" lon="2.47954">
        <ele>455</ele>
        <time>2015-04-06T15:01:01Z</time>
      </trkpt>
      <trkpt lat="46.17706" lon="2.47958">
        <ele>455</ele>
        <time>2015-04-06T15:01:04Z</time>
      </trkpt>
      <trkpt lat="46.17705" lon="2.47962">
        <ele>455</ele>
        <time>2015-04-06T15:01:07Z</time>
      </trkpt>
      <trkpt lat="46.17704" lon="2.47967">
        <ele>455</ele>
        <time>2015-04-06T15:01:10Z</time>
      </trkpt>
      <trkpt lat="46.17703" lon="2.47971">
        <ele>455</ele>
        <time>2015-04-06T15:01:12Z</time>
      </trkpt>
      <trkpt lat="46.17702" lon="2.47976">
        <ele>455</ele>
        <time>2015-04-06T15:01:15Z</time>
      </trkpt>
      <trkpt lat="46.17702" lon="2.4798">
        <ele>455</ele>
        <time>2015-04-06T15:01:17Z</time>
      </trkpt>
      <trkpt lat="46.177" lon="2.47985">
        <ele>455</ele>
        <time>2015-04-06T15:01:20Z</time>
      </trkpt>
      <trkpt lat="46.17699" lon="2.47989">
        <ele>455</ele>
        <time>2015-04-06T15:01:22Z</time>
      </trkpt>
      <trkpt lat="46.17698" lon="2.47993">
        <ele>455</ele>
        <time>2015-04-06T15:01:24Z</time>
      </trkpt>
      <trkpt lat="46.17698" lon="2.47997">
        <ele>455</ele>
        <time>2015-04-06T15:01:26Z</time>
      </trkpt>
      <trkpt lat="46.17697" lon="2.48001">
        <ele>455</ele>
        <time>2015-04-06T15:01:28Z</time>
      </trkpt>
      <trkpt lat="46.17696" lon="2.48004">
        <ele>455</ele>
        <time>2015-04-06T15:01:30Z</time>
      </trkpt>
      <trkpt lat="46.17695" lon="2.48008">
        <ele>455</ele>
        <time>2015-04-06T15:01:32Z</time>
      </trkpt>
      <trkpt lat="46.17694" lon="2.48013">
        <ele>455</ele>
        <time>2015-04-06T15:01:35Z</time>
      </trkpt>
      <trkpt lat="46.17693" lon="2.48017">
        <ele>455</ele>
        <time>2015-04-06T15:01:37Z</time>
      </trkpt>
      <trkpt lat="46.17692" lon="2.48023">
        <ele>455</ele>
        <time>2015-04-06T15:01:40Z</time>
      </trkpt>
      <trkpt lat="46.17691" lon="2.48026">
        <ele>455</ele>
        <time>2015-04-06T15:01:42Z</time>
      </trkpt>
      <trkpt lat="46.1769" lon="2.48031">
        <ele>455</ele>
        <time>2015-04-06T15:01:45Z</time>
      </trkpt>
      <trkpt lat="46.17688" lon="2.48035">
        <ele>455</ele>
        <time>2015-04-06T15:01:47Z</time>
      </trkpt>
      <trkpt lat="46.17687" lon="2.4804">
        <ele>455</ele>
        <time>2015-04-06T15:01:50Z</time>
      </trkpt>
      <trkpt lat="46.17686" lon="2.48043">
        <ele>455</ele>
        <time>2015-04-06T15:01:52Z</time>
      </trkpt>
      <trkpt lat="46.17685" lon="2.48049">
        <ele>455</ele>
        <time>2015-04-06T15:01:55Z</time>
      </trkpt>
      <trkpt lat="46.17684" lon="2.48052">
        <ele>455</ele>
        <time>2015-04-06T15:01:57Z</time>
      </trkpt>
      <trkpt lat="46.17683" lon="2.48057">
        <ele>455</ele>
        <time>2015-04-06T15:02:00Z</time>
      </trkpt>
      <trkpt lat="46.17682" lon="2.48061">
        <ele>455</ele>
        <time>2015-04-06T15:02:02Z</time>
      </trkpt>
      <trkpt lat="46.1768" lon="2.48067">
        <ele>455</ele>
        <time>2015-04-06T15:02:05Z</time>
      </trkpt>
      <trkpt lat="46.17678" lon="2.4807">
        <ele>455</ele>
        <time>2015-04-06T15:02:07Z</time>
      </trkpt>
      <trkpt lat="46.17677" lon="2.48076">
        <ele>455</ele>
        <time>2015-04-06T15:02:10Z</time>
      </trkpt>
      <trkpt lat="46.17676" lon="2.48081">
        <ele>455</ele>
        <time>2015-04-06T15:02:12Z</time>
      </trkpt>
      <trkpt lat="46.17675" lon="2.48087">
        <ele>455</ele>
        <time>2015-04-06T15:02:15Z</time>
      </trkpt>
      <trkpt lat="46.17674" lon="2.48091">
        <ele>455</ele>
        <time>2015-04-06T15:02:17Z</time>
      </trkpt>
      <trkpt lat="46.17672" lon="2.48097">
        <ele>455</ele>
        <time>2015-04-06T15:02:20Z</time>
      </trkpt>
      <trkpt lat="46.17672" lon="2.48101">
        <ele>455</ele>
        <time>2015-04-06T15:02:22Z</time>
      </trkpt>
      <trkpt lat="46.17671" lon="2.48108">
        <ele>455</ele>
        <time>2015-04-06T15:02:25Z</time>
      </trkpt>
      <trkpt lat="46.1767" lon="2.48112">
        <ele>455</ele>
        <time>2015-04-06T15:02:27Z</time>
      </trkpt>
      <trkpt lat="46.1767" lon="2.48118">
        <ele>455</ele>
        <time>2015-04-06T15:02:30Z</time>
      </trkpt>
      <trkpt lat="46.1767" lon="2.48122">
        <ele>455</ele>
        <time>2015-04-06T15:02:32Z</time>
      </trkpt>
      <trkpt lat="46.17669" lon="2.48128">
        <ele>455</ele>
        <time>2015-04-06T15:02:35Z</time>
      </trkpt>
      <trkpt lat="46.17669" lon="2.48132">
        <ele>455</ele>
        <time>2015-04-06T15:02:37Z</time>
      </trkpt>
      <trkpt lat="46.17669" lon="2.48137">
        <ele>455</ele>
        <time>2015-04-06T15:02:39Z</time>
      </trkpt>
      <trkpt lat="46.17669" lon="2.48141">
        <ele>455</ele>
        <time>2015-04-06T15:02:41Z</time>
      </trkpt>
      <trkpt lat="46.1767" lon="2.48145">
        <ele>455</ele>
        <time>2015-04-06T15:02:43Z</time>
      </trkpt>
      <trkpt lat="46.17671" lon="2.48148">
        <ele>455</ele>
        <time>2015-04-06T15:02:45Z</time>
      </trkpt>
      <trkpt lat="46.17672" lon="2.48152">
        <ele>455</ele>
        <time>2015-04-06T15:02:47Z</time>
      </trkpt>
      <trkpt lat="46.17675" lon="2.48157">
        <ele>455</ele>
        <time>2015-04-06T15:02:50Z</time>
      </trkpt>
      <trkpt lat="46.17677" lon="2.4816">
        <ele>455</ele>
        <time>2015-04-06T15:02:52Z</time>
      </trkpt>
      <trkpt lat="46.1768" lon="2.48164">
        <ele>455</ele>
        <time>2015-04-06T15:02:55Z</time>
      </trkpt>
      <trkpt lat="46.17682" lon="2.48167">
        <ele>455</ele>
        <time>2015-04-06T15:02:57Z</time>
      </trkpt>
      <trkpt lat="46.17684" lon="2.4817">
        <ele>455</ele>
        <time>2015-04-06T15:02:59Z</time>
      </trkpt>
      <trkpt lat="46.17686" lon="2.48173">
        <ele>455</ele>
        <time>2015-04-06T15:03:01Z</time>
      </trkpt>
      <trkpt lat="46.17688" lon="2.48176">
        <ele>454</ele>
        <time>2015-04-06T15:03:03Z</time>
      </trkpt>
      <trkpt lat="46.17691" lon="2.48179">
        <ele>454</ele>
        <time>2015-04-06T15:03:05Z</time>
      </trkpt>
      <trkpt lat="46.17693" lon="2.48182">
        <ele>454</ele>
        <time>2015-04-06T15:03:07Z</time>
      </trkpt>
      <trkpt lat="46.17697" lon="2.48187">
        <ele>453</ele>
        <time>2015-04-06T15:03:11Z</time>
      </trkpt>
      <trkpt lat="46.17699" lon="2.4819">
        <ele>453</ele>
        <time>2015-04-06T15:03:13Z</time>
      </trkpt>
      <trkpt lat="46.17702" lon="2.48192">
        <ele>452</ele>
        <time>2015-04-06T15:03:15Z</time>
      </trkpt>
      <trkpt lat="46.17704" lon="2.48195">
        <ele>452</ele>
        <time>2015-04-06T15:03:17Z</time>
      </trkpt>
      <trkpt lat="46.17707" lon="2.48198">
        <ele>452</ele>
        <time>2015-04-06T15:03:20Z</time>
      </trkpt>
      <trkpt lat="46.1771" lon="2.48201">
        <ele>452</ele>
        <time>2015-04-06T15:03:22Z</time>
      </trkpt>
      <trkpt lat="46.17712" lon="2.48204">
        <ele>452</ele>
        <time>2015-04-06T15:03:24Z</time>
      </trkpt>
      <trkpt lat="46.17714" lon="2.48207">
        <ele>452</ele>
        <time>2015-04-06T15:03:26Z</time>
      </trkpt>
      <trkpt lat="46.17716" lon="2.4821">
        <ele>452</ele>
        <time>2015-04-06T15:03:28Z</time>
      </trkpt>
      <trkpt lat="46.17718" lon="2.48213">
        <ele>451</ele>
        <time>2015-04-06T15:03:30Z</time>
      </trkpt>
      <trkpt lat="46.1772" lon="2.48216">
        <ele>451</ele>
        <time>2015-04-06T15:03:32Z</time>
      </trkpt>
      <trkpt lat="46.17723" lon="2.48218">
        <ele>451</ele>
        <time>2015-04-06T15:03:34Z</time>
      </trkpt>
      <trkpt lat="46.17725" lon="2.48221">
        <ele>451</ele>
        <time>2015-04-06T15:03:36Z</time>
      </trkpt>
      <trkpt lat="46.17727" lon="2.48224">
        <ele>451</ele>
        <time>2015-04-06T15:03:38Z</time>
      </trkpt>
      <trkpt lat="46.17729" lon="2.48227">
        <ele>451</ele>
        <time>2015-04-06T15:03:40Z</time>
      </trkpt>
      <trkpt lat="46.17731" lon="2.4823">
        <ele>451</ele>
        <time>2015-04-06T15:03:42Z</time>
      </trkpt>
      <trkpt lat="46.17734" lon="2.48232">
        <ele>451</ele>
        <time>2015-04-06T15:03:44Z</time>
      </trkpt>
      <trkpt lat="46.17736" lon="2.48234">
        <ele>451</ele>
        <time>2015-04-06T15:03:46Z</time>
      </trkpt>
      <trkpt lat="46.17739" lon="2.48236">
        <ele>451</ele>
        <time>2015-04-06T15:03:48Z</time>
      </trkpt>
      <trkpt lat="46.17742" lon="2.48238">
        <ele>451</ele>
        <time>2015-04-06T15:03:50Z</time>
      </trkpt>
      <trkpt lat="46.17745" lon="2.48239">
        <ele>451</ele>
        <time>2015-04-06T15:03:52Z</time>
      </trkpt>
      <trkpt lat="46.17747" lon="2.4824">
        <ele>450</ele>
        <time>2015-04-06T15:03:54Z</time>
      </trkpt>
      <trkpt lat="46.1775" lon="2.4824">
        <ele>450</ele>
        <time>2015-04-06T15:03:56Z</time>
      </trkpt>
      <trkpt lat="46.17753" lon="2.48241">
        <ele>450</ele>
        <time>2015-04-06T15:03:59Z</time>
      </trkpt>
      <trkpt lat="46.17756" lon="2.48242">
        <ele>450</ele>
        <time>2015-04-06T15:04:01Z</time>
      </trkpt>
      <trkpt lat="46.17759" lon="2.48243">
        <ele>450</ele>
        <time>2015-04-06T15:04:03Z</time>
      </trkpt>
      <trkpt lat="46.17762" lon="2.48244">
        <ele>450</ele>
        <time>2015-04-06T15:04:05Z</time>
      </trkpt>
      <trkpt lat="46.17765" lon="2.48244">
        <ele>450</ele>
        <time>2015-04-06T15:04:07Z</time>
      </trkpt>
      <trkpt lat="46.17768" lon="2.48243">
        <ele>450</ele>
        <time>2015-04-06T15:04:09Z</time>
      </trkpt>
      <trkpt lat="46.17771" lon="2.48244">
        <ele>450</ele>
        <time>2015-04-06T15:04:11Z</time>
      </trkpt>
      <trkpt lat="46.17773" lon="2.48244">
        <ele>450</ele>
        <time>2015-04-06T15:04:13Z</time>
      </trkpt>
      <trkpt lat="46.17776" lon="2.48245">
        <ele>450</ele>
        <time>2015-04-06T15:04:15Z</time>
      </trkpt>
      <trkpt lat="46.17779" lon="2.48245">
        <ele>450</ele>
        <time>2015-04-06T15:04:17Z</time>
      </trkpt>
      <trkpt lat="46.17781" lon="2.48245">
        <ele>450</ele>
        <time>2015-04-06T15:04:19Z</time>
      </trkpt>
      <trkpt lat="46.17783" lon="2.48248">
        <ele>450</ele>
        <time>2015-04-06T15:04:21Z</time>
      </trkpt>
      <trkpt lat="46.17787" lon="2.48251">
        <ele>450</ele>
        <time>2015-04-06T15:04:24Z</time>
      </trkpt>
      <trkpt lat="46.17789" lon="2.48254">
        <ele>450</ele>
        <time>2015-04-06T15:04:26Z</time>
      </trkpt>
      <trkpt lat="46.17791" lon="2.48258">
        <ele>450</ele>
        <time>2015-04-06T15:04:29Z</time>
      </trkpt>
      <trkpt lat="46.17792" lon="2.48261">
        <ele>450</ele>
        <time>2015-04-06T15:04:31Z</time>
      </trkpt>
      <trkpt lat="46.17791" lon="2.48265">
        <ele>450</ele>
        <time>2015-04-06T15:04:34Z</time>
      </trkpt>
      <trkpt lat="46.1779" lon="2.48268">
        <ele>450</ele>
        <time>2015-04-06T15:04:36Z</time>
      </trkpt>
      <trkpt lat="46.17788" lon="2.48271">
        <ele>450</ele>
        <time>2015-04-06T15:04:38Z</time>
      </trkpt>
      <trkpt lat="46.17786" lon="2.48274">
        <ele>450</ele>
        <time>2015-04-06T15:04:40Z</time>
      </trkpt>
      <trkpt lat="46.17784" lon="2.48277">
        <ele>450</ele>
        <time>2015-04-06T15:04:42Z</time>
      </trkpt>
      <trkpt lat="46.17782" lon="2.48278">
        <ele>450</ele>
        <time>2015-04-06T15:04:44Z</time>
      </trkpt>
      <trkpt lat="46.1778" lon="2.4828">
        <ele>450</ele>
        <time>2015-04-06T15:04:46Z</time>
      </trkpt>
      <trkpt lat="46.17779" lon="2.48282">
        <ele>450</ele>
        <time>2015-04-06T15:04:49Z</time>
      </trkpt>
      <trkpt lat="46.17777" lon="2.48283">
        <ele>450</ele>
        <time>2015-04-06T15:04:51Z</time>
      </trkpt>
      <trkpt lat="46.17776" lon="2.48285">
        <ele>450</ele>
        <time>2015-04-06T15:04:53Z</time>
      </trkpt>
      <trkpt lat="46.17775" lon="2.48286">
        <ele>450</ele>
        <time>2015-04-06T15:04:56Z</time>
      </trkpt>
      <trkpt lat="46.17773" lon="2.48288">
        <ele>450</ele>
        <time>2015-04-06T15:04:58Z</time>
      </trkpt>
      <trkpt lat="46.17772" lon="2.4829">
        <ele>450</ele>
        <time>2015-04-06T15:05:00Z</time>
      </trkpt>
      <trkpt lat="46.1777" lon="2.48292">
        <ele>450</ele>
        <time>2015-04-06T15:05:02Z</time>
      </trkpt>
      <trkpt lat="46.1777" lon="2.48293">
        <ele>450</ele>
        <time>2015-04-06T15:05:04Z</time>
      </trkpt>
      <trkpt lat="46.17769" lon="2.48295">
        <ele>450</ele>
        <time>2015-04-06T15:05:25Z</time>
      </trkpt>
      <trkpt lat="46.17769" lon="2.48297">
        <ele>450</ele>
        <time>2015-04-06T15:05:51Z</time>
      </trkpt>
      <trkpt lat="46.17771" lon="2.483">
        <ele>450</ele>
        <time>2015-04-06T15:05:53Z</time>
      </trkpt>
      <trkpt lat="46.17773" lon="2.48302">
        <ele>450</ele>
        <time>2015-04-06T15:05:55Z</time>
      </trkpt>
      <trkpt lat="46.17775" lon="2.48304">
        <ele>450</ele>
        <time>2015-04-06T15:05:57Z</time>
      </trkpt>
      <trkpt lat="46.17778" lon="2.48306">
        <ele>450</ele>
        <time>2015-04-06T15:05:59Z</time>
      </trkpt>
      <trkpt lat="46.1778" lon="2.48308">
        <ele>450</ele>
        <time>2015-04-06T15:06:01Z</time>
      </trkpt>
      <trkpt lat="46.17783" lon="2.48309">
        <ele>450</ele>
        <time>2015-04-06T15:06:03Z</time>
      </trkpt>
      <trkpt lat="46.17785" lon="2.4831">
        <ele>450</ele>
        <time>2015-04-06T15:06:05Z</time>
      </trkpt>
      <trkpt lat="46.17788" lon="2.48312">
        <ele>450</ele>
        <time>2015-04-06T15:06:07Z</time>
      </trkpt>
      <trkpt lat="46.1779" lon="2.48315">
        <ele>450</ele>
        <time>2015-04-06T15:06:09Z</time>
      </trkpt>
      <trkpt lat="46.17793" lon="2.48319">
        <ele>450</ele>
        <time>2015-04-06T15:06:11Z</time>
      </trkpt>
      <trkpt lat="46.17795" lon="2.48321">
        <ele>450</ele>
        <time>2015-04-06T15:06:13Z</time>
      </trkpt>
      <trkpt lat="46.17797" lon="2.48323">
        <ele>450</ele>
        <time>2015-04-06T15:06:15Z</time>
      </trkpt>
      <trkpt lat="46.178" lon="2.48324">
        <ele>450</ele>
        <time>2015-04-06T15:06:17Z</time>
      </trkpt>
      <trkpt lat="46.17804" lon="2.48325">
        <ele>450</ele>
        <time>2015-04-06T15:06:19Z</time>
      </trkpt>
      <trkpt lat="46.17807" lon="2.48326">
        <ele>450</ele>
        <time>2015-04-06T15:06:21Z</time>
      </trkpt>
      <trkpt lat="46.1781" lon="2.48327">
        <ele>450</ele>
        <time>2015-04-06T15:06:23Z</time>
      </trkpt>
      <trkpt lat="46.17813" lon="2.48329">
        <ele>450</ele>
        <time>2015-04-06T15:06:25Z</time>
      </trkpt>
      <trkpt lat="46.17815" lon="2.4833">
        <ele>450</ele>
        <time>2015-04-06T15:06:27Z</time>
      </trkpt>
      <trkpt lat="46.17818" lon="2.48331">
        <ele>450</ele>
        <time>2015-04-06T15:06:29Z</time>
      </trkpt>
      <trkpt lat="46.17821" lon="2.48332">
        <ele>450</ele>
        <time>2015-04-06T15:06:31Z</time>
      </trkpt>
      <trkpt lat="46.17823" lon="2.48333">
        <ele>450</ele>
        <time>2015-04-06T15:06:33Z</time>
      </trkpt>
      <trkpt lat="46.17826" lon="2.48334">
        <ele>450</ele>
        <time>2015-04-06T15:06:35Z</time>
      </trkpt>
      <trkpt lat="46.17829" lon="2.48335">
        <ele>450</ele>
        <time>2015-04-06T15:06:37Z</time>
      </trkpt>
      <trkpt lat="46.17832" lon="2.48336">
        <ele>450</ele>
        <time>2015-04-06T15:06:39Z</time>
      </trkpt>
      <trkpt lat="46.17835" lon="2.48337">
        <ele>450</ele>
        <time>2015-04-06T15:06:41Z</time>
      </trkpt>
      <trkpt lat="46.17838" lon="2.48339">
        <ele>450</ele>
        <time>2015-04-06T15:06:43Z</time>
      </trkpt>
      <trkpt lat="46.17841" lon="2.4834">
        <ele>450</ele>
        <time>2015-04-06T15:06:45Z</time>
      </trkpt>
      <trkpt lat="46.17844" lon="2.48341">
        <ele>450</ele>
        <time>2015-04-06T15:06:47Z</time>
      </trkpt>
      <trkpt lat="46.17847" lon="2.48342">
        <ele>450</ele>
        <time>2015-04-06T15:06:49Z</time>
      </trkpt>
      <trkpt lat="46.1785" lon="2.48343">
        <ele>450</ele>
        <time>2015-04-06T15:06:51Z</time>
      </trkpt>
      <trkpt lat="46.17853" lon="2.48343">
        <ele>450</ele>
        <time>2015-04-06T15:06:53Z</time>
      </trkpt>
      <trkpt lat="46.17856" lon="2.48344">
        <ele>450</ele>
        <time>2015-04-06T15:06:55Z</time>
      </trkpt>
      <trkpt lat="46.17859" lon="2.48345">
        <ele>450</ele>
        <time>2015-04-06T15:06:57Z</time>
      </trkpt>
      <trkpt lat="46.17861" lon="2.48346">
        <ele>450</ele>
        <time>2015-04-06T15:06:59Z</time>
      </trkpt>
      <trkpt lat="46.17864" lon="2.48348">
        <ele>450</ele>
        <time>2015-04-06T15:07:01Z</time>
      </trkpt>
      <trkpt lat="46.17867" lon="2.48348">
        <ele>450</ele>
        <time>2015-04-06T15:07:03Z</time>
      </trkpt>
      <trkpt lat="46.1787" lon="2.48349">
        <ele>449</ele>
        <time>2015-04-06T15:07:05Z</time>
      </trkpt>
      <trkpt lat="46.17873" lon="2.48349">
        <ele>449</ele>
        <time>2015-04-06T15:07:07Z</time>
      </trkpt>
      <trkpt lat="46.17876" lon="2.48349">
        <ele>449</ele>
        <time>2015-04-06T15:07:09Z</time>
      </trkpt>
      <trkpt lat="46.17879" lon="2.48349">
        <ele>449</ele>
        <time>2015-04-06T15:07:11Z</time>
      </trkpt>
      <trkpt lat="46.17882" lon="2.4835">
        <ele>448</ele>
        <time>2015-04-06T15:07:13Z</time>
      </trkpt>
      <trkpt lat="46.17886" lon="2.48351">
        <ele>448</ele>
        <time>2015-04-06T15:07:15Z</time>
      </trkpt>
      <trkpt lat="46.17889" lon="2.48351">
        <ele>448</ele>
        <time>2015-04-06T15:07:17Z</time>
      </trkpt>
      <trkpt lat="46.17892" lon="2.48351">
        <ele>448</ele>
        <time>2015-04-06T15:07:19Z</time>
      </trkpt>
      <trkpt lat="46.17895" lon="2.48351">
        <ele>448</ele>
        <time>2015-04-06T15:07:21Z</time>
      </trkpt>
      <trkpt lat="46.17898" lon="2.48351">
        <ele>448</ele>
        <time>2015-04-06T15:07:23Z</time>
      </trkpt>
      <trkpt lat="46.17901" lon="2.48351">
        <ele>448</ele>
        <time>2015-04-06T15:07:25Z</time>
      </trkpt>
      <trkpt lat="46.17904" lon="2.4835">
        <ele>448</ele>
        <time>2015-04-06T15:07:27Z</time>
      </trkpt>
      <trkpt lat="46.17907" lon="2.4835">
        <ele>448</ele>
        <time>2015-04-06T15:07:29Z</time>
      </trkpt>
      <trkpt lat="46.17909" lon="2.48351">
        <ele>448</ele>
        <time>2015-04-06T15:07:31Z</time>
      </trkpt>
      <trkpt lat="46.17912" lon="2.48351">
        <ele>447</ele>
        <time>2015-04-06T15:07:33Z</time>
      </trkpt>
      <trkpt lat="46.17915" lon="2.48351">
        <ele>446</ele>
        <time>2015-04-06T15:07:35Z</time>
      </trkpt>
      <trkpt lat="46.17919" lon="2.48351">
        <ele>446</ele>
        <time>2015-04-06T15:07:37Z</time>
      </trkpt>
      <trkpt lat="46.17922" lon="2.48351">
        <ele>446</ele>
        <time>2015-04-06T15:07:39Z</time>
      </trkpt>
      <trkpt lat="46.17925" lon="2.48351">
        <ele>445</ele>
        <time>2015-04-06T15:07:41Z</time>
      </trkpt>
      <trkpt lat="46.17928" lon="2.4835">
        <ele>445</ele>
        <time>2015-04-06T15:07:43Z</time>
      </trkpt>
      <trkpt lat="46.17931" lon="2.4835">
        <ele>445</ele>
        <time>2015-04-06T15:07:45Z</time>
      </trkpt>
      <trkpt lat="46.17934" lon="2.4835">
        <ele>445</ele>
        <time>2015-04-06T15:07:47Z</time>
      </trkpt>
      <trkpt lat="46.17937" lon="2.48349">
        <ele>445</ele>
        <time>2015-04-06T15:07:49Z</time>
      </trkpt>
      <trkpt lat="46.1794" lon="2.48349">
        <ele>445</ele>
        <time>2015-04-06T15:07:51Z</time>
      </trkpt>
      <trkpt lat="46.17943" lon="2.48348">
        <ele>445</ele>
        <time>2015-04-06T15:07:53Z</time>
      </trkpt>
      <trkpt lat="46.17947" lon="2.48347">
        <ele>445</ele>
        <time>2015-04-06T15:07:55Z</time>
      </trkpt>
      <trkpt lat="46.1795" lon="2.48347">
        <ele>445</ele>
        <time>2015-04-06T15:07:57Z</time>
      </trkpt>
      <trkpt lat="46.17953" lon="2.48346">
        <ele>445</ele>
        <time>2015-04-06T15:07:59Z</time>
      </trkpt>
      <trkpt lat="46.17956" lon="2.48346">
        <ele>445</ele>
        <time>2015-04-06T15:08:01Z</time>
      </trkpt>
      <trkpt lat="46.17958" lon="2.48345">
        <ele>444</ele>
        <time>2015-04-06T15:08:03Z</time>
      </trkpt>
      <trkpt lat="46.17961" lon="2.48344">
        <ele>444</ele>
        <time>2015-04-06T15:08:05Z</time>
      </trkpt>
      <trkpt lat="46.17965" lon="2.48343">
        <ele>444</ele>
        <time>2015-04-06T15:08:07Z</time>
      </trkpt>
      <trkpt lat="46.17968" lon="2.48341">
        <ele>444</ele>
        <time>2015-04-06T15:08:09Z</time>
      </trkpt>
      <trkpt lat="46.17971" lon="2.48339">
        <ele>444</ele>
        <time>2015-04-06T15:08:11Z</time>
      </trkpt>
      <trkpt lat="46.17974" lon="2.48338">
        <ele>444</ele>
        <time>2015-04-06T15:08:13Z</time>
      </trkpt>
      <trkpt lat="46.17977" lon="2.48336">
        <ele>444</ele>
        <time>2015-04-06T15:08:15Z</time>
      </trkpt>
      <trkpt lat="46.1798" lon="2.48335">
        <ele>444</ele>
        <time>2015-04-06T15:08:17Z</time>
      </trkpt>
      <trkpt lat="46.17982" lon="2.48333">
        <ele>444</ele>
        <time>2015-04-06T15:08:19Z</time>
      </trkpt>
      <trkpt lat="46.17985" lon="2.48331">
        <ele>444</ele>
        <time>2015-04-06T15:08:21Z</time>
      </trkpt>
      <trkpt lat="46.17988" lon="2.48328">
        <ele>444</ele>
        <time>2015-04-06T15:08:23Z</time>
      </trkpt>
      <trkpt lat="46.17991" lon="2.48327">
        <ele>444</ele>
        <time>2015-04-06T15:08:25Z</time>
      </trkpt>
      <trkpt lat="46.17995" lon="2.48326">
        <ele>444</ele>
        <time>2015-04-06T15:08:27Z</time>
      </trkpt>
      <trkpt lat="46.17997" lon="2.48324">
        <ele>444</ele>
        <time>2015-04-06T15:08:29Z</time>
      </trkpt>
      <trkpt lat="46.18" lon="2.48323">
        <ele>444</ele>
        <time>2015-04-06T15:08:31Z</time>
      </trkpt>
      <trkpt lat="46.18002" lon="2.48322">
        <ele>444</ele>
        <time>2015-04-06T15:08:33Z</time>
      </trkpt>
      <trkpt lat="46.18005" lon="2.48322">
        <ele>444</ele>
        <time>2015-04-06T15:08:35Z</time>
      </trkpt>
      <trkpt lat="46.18008" lon="2.48321">
        <ele>444</ele>
        <time>2015-04-06T15:08:37Z</time>
      </trkpt>
      <trkpt lat="46.1801" lon="2.48318">
        <ele>444</ele>
        <time>2015-04-06T15:08:39Z</time>
      </trkpt>
      <trkpt lat="46.18014" lon="2.48315">
        <ele>444</ele>
        <time>2015-04-06T15:08:42Z</time>
      </trkpt>
      <trkpt lat="46.18017" lon="2.48312">
        <ele>444</ele>
        <time>2015-04-06T15:08:44Z</time>
      </trkpt>
      <trkpt lat="46.18021" lon="2.48312">
        <ele>444</ele>
        <time>2015-04-06T15:08:46Z</time>
      </trkpt>
      <trkpt lat="46.18024" lon="2.4831">
        <ele>444</ele>
        <time>2015-04-06T15:08:48Z</time>
      </trkpt>
      <trkpt lat="46.18026" lon="2.48309">
        <ele>444</ele>
        <time>2015-04-06T15:08:50Z</time>
      </trkpt>
      <trkpt lat="46.18028" lon="2.48307">
        <ele>444</ele>
        <time>2015-04-06T15:08:52Z</time>
      </trkpt>
      <trkpt lat="46.18031" lon="2.48305">
        <ele>444</ele>
        <time>2015-04-06T15:08:54Z</time>
      </trkpt>
      <trkpt lat="46.18033" lon="2.48304">
        <ele>444</ele>
        <time>2015-04-06T15:08:56Z</time>
      </trkpt>
      <trkpt lat="46.18036" lon="2.48302">
        <ele>444</ele>
        <time>2015-04-06T15:08:58Z</time>
      </trkpt>
      <trkpt lat="46.18037" lon="2.48299">
        <ele>444</ele>
        <time>2015-04-06T15:09:00Z</time>
      </trkpt>
      <trkpt lat="46.18039" lon="2.48297">
        <ele>444</ele>
        <time>2015-04-06T15:09:02Z</time>
      </trkpt>
      <trkpt lat="46.18042" lon="2.48294">
        <ele>444</ele>
        <time>2015-04-06T15:09:04Z</time>
      </trkpt>
      <trkpt lat="46.18044" lon="2.48293">
        <ele>444</ele>
        <time>2015-04-06T15:09:06Z</time>
      </trkpt>
      <trkpt lat="46.18046" lon="2.48291">
        <ele>444</ele>
        <time>2015-04-06T15:09:08Z</time>
      </trkpt>
      <trkpt lat="46.18049" lon="2.48289">
        <ele>444</ele>
        <time>2015-04-06T15:09:10Z</time>
      </trkpt>
      <trkpt lat="46.18052" lon="2.48288">
        <ele>444</ele>
        <time>2015-04-06T15:09:12Z</time>
      </trkpt>
      <trkpt lat="46.18054" lon="2.48287">
        <ele>444</ele>
        <time>2015-04-06T15:09:14Z</time>
      </trkpt>
      <trkpt lat="46.18056" lon="2.48285">
        <ele>444</ele>
        <time>2015-04-06T15:09:16Z</time>
      </trkpt>
      <trkpt lat="46.18058" lon="2.48284">
        <ele>444</ele>
        <time>2015-04-06T15:09:18Z</time>
      </trkpt>
      <trkpt lat="46.18061" lon="2.48281">
        <ele>444</ele>
        <time>2015-04-06T15:09:21Z</time>
      </trkpt>
      <trkpt lat="46.18063" lon="2.4828">
        <ele>444</ele>
        <time>2015-04-06T15:09:23Z</time>
      </trkpt>
      <trkpt lat="46.18066" lon="2.48277">
        <ele>444</ele>
        <time>2015-04-06T15:09:26Z</time>
      </trkpt>
      <trkpt lat="46.1807" lon="2.48275">
        <ele>444</ele>
        <time>2015-04-06T15:09:29Z</time>
      </trkpt>
      <trkpt lat="46.18072" lon="2.48273">
        <ele>444</ele>
        <time>2015-04-06T15:09:31Z</time>
      </trkpt>
      <trkpt lat="46.18074" lon="2.48272">
        <ele>444</ele>
        <time>2015-04-06T15:09:33Z</time>
      </trkpt>
      <trkpt lat="46.18077" lon="2.48271">
        <ele>444</ele>
        <time>2015-04-06T15:09:35Z</time>
      </trkpt>
      <trkpt lat="46.1808" lon="2.48271">
        <ele>444</ele>
        <time>2015-04-06T15:09:37Z</time>
      </trkpt>
      <trkpt lat="46.18082" lon="2.48271">
        <ele>444</ele>
        <time>2015-04-06T15:09:39Z</time>
      </trkpt>
      <trkpt lat="46.18085" lon="2.48272">
        <ele>444</ele>
        <time>2015-04-06T15:09:41Z</time>
      </trkpt>
      <trkpt lat="46.18088" lon="2.48273">
        <ele>444</ele>
        <time>2015-04-06T15:09:43Z</time>
      </trkpt>
      <trkpt lat="46.18091" lon="2.48274">
        <ele>444</ele>
        <time>2015-04-06T15:09:45Z</time>
      </trkpt>
      <trkpt lat="46.18093" lon="2.48276">
        <ele>444</ele>
        <time>2015-04-06T15:09:47Z</time>
      </trkpt>
      <trkpt lat="46.18096" lon="2.48277">
        <ele>444</ele>
        <time>2015-04-06T15:09:49Z</time>
      </trkpt>
      <trkpt lat="46.18099" lon="2.48279">
        <ele>444</ele>
        <time>2015-04-06T15:09:51Z</time>
      </trkpt>
      <trkpt lat="46.18101" lon="2.48281">
        <ele>444</ele>
        <time>2015-04-06T15:09:53Z</time>
      </trkpt>
      <trkpt lat="46.18104" lon="2.48283">
        <ele>444</ele>
        <time>2015-04-06T15:09:55Z</time>
      </trkpt>
      <trkpt lat="46.18106" lon="2.48284">
        <ele>444</ele>
        <time>2015-04-06T15:09:57Z</time>
      </trkpt>
      <trkpt lat="46.18109" lon="2.48286">
        <ele>444</ele>
        <time>2015-04-06T15:09:59Z</time>
      </trkpt>
      <trkpt lat="46.18112" lon="2.48287">
        <ele>444</ele>
        <time>2015-04-06T15:10:01Z</time>
      </trkpt>
      <trkpt lat="46.18114" lon="2.48287">
        <ele>444</ele>
        <time>2015-04-06T15:10:03Z</time>
      </trkpt>
      <trkpt lat="46.18117" lon="2.48288">
        <ele>444</ele>
        <time>2015-04-06T15:10:05Z</time>
      </trkpt>
      <trkpt lat="46.18119" lon="2.48288">
        <ele>444</ele>
        <time>2015-04-06T15:10:07Z</time>
      </trkpt>
      <trkpt lat="46.18122" lon="2.48288">
        <ele>444</ele>
        <time>2015-04-06T15:10:09Z</time>
      </trkpt>
      <trkpt lat="46.18124" lon="2.48288">
        <ele>444</ele>
        <time>2015-04-06T15:10:11Z</time>
      </trkpt>
      <trkpt lat="46.18127" lon="2.48288">
        <ele>444</ele>
        <time>2015-04-06T15:10:13Z</time>
      </trkpt>
      <trkpt lat="46.1813" lon="2.48287">
        <ele>444</ele>
        <time>2015-04-06T15:10:15Z</time>
      </trkpt>
      <trkpt lat="46.18132" lon="2.48287">
        <ele>444</ele>
        <time>2015-04-06T15:10:17Z</time>
      </trkpt>
      <trkpt lat="46.18135" lon="2.48285">
        <ele>444</ele>
        <time>2015-04-06T15:10:19Z</time>
      </trkpt>
      <trkpt lat="46.18137" lon="2.48285">
        <ele>444</ele>
        <time>2015-04-06T15:10:21Z</time>
      </trkpt>
      <trkpt lat="46.1814" lon="2.48284">
        <ele>444</ele>
        <time>2015-04-06T15:10:23Z</time>
      </trkpt>
      <trkpt lat="46.18142" lon="2.48284">
        <ele>444</ele>
        <time>2015-04-06T15:10:25Z</time>
      </trkpt>
      <trkpt lat="46.18145" lon="2.48283">
        <ele>444</ele>
        <time>2015-04-06T15:10:27Z</time>
      </trkpt>
      <trkpt lat="46.18147" lon="2.48282">
        <ele>444</ele>
        <time>2015-04-06T15:10:29Z</time>
      </trkpt>
      <trkpt lat="46.1815" lon="2.48282">
        <ele>444</ele>
        <time>2015-04-06T15:10:31Z</time>
      </trkpt>
      <trkpt lat="46.18152" lon="2.48281">
        <ele>444</ele>
        <time>2015-04-06T15:10:34Z</time>
      </trkpt>
      <trkpt lat="46.18154" lon="2.4828">
        <ele>444</ele>
        <time>2015-04-06T15:10:36Z</time>
      </trkpt>
      <trkpt lat="46.18156" lon="2.4828">
        <ele>444</ele>
        <time>2015-04-06T15:10:45Z</time>
      </trkpt>
      <trkpt lat="46.18158" lon="2.48278">
        <ele>444</ele>
        <time>2015-04-06T15:10:47Z</time>
      </trkpt>
      <trkpt lat="46.1816" lon="2.48277">
        <ele>444</ele>
        <time>2015-04-06T15:10:49Z</time>
      </trkpt>
      <trkpt lat="46.18163" lon="2.48276">
        <ele>444</ele>
        <time>2015-04-06T15:10:51Z</time>
      </trkpt>
      <trkpt lat="46.18166" lon="2.48275">
        <ele>444</ele>
        <time>2015-04-06T15:10:53Z</time>
      </trkpt>
      <trkpt lat="46.18169" lon="2.48274">
        <ele>444</ele>
        <time>2015-04-06T15:10:55Z</time>
      </trkpt>
      <trkpt lat="46.18171" lon="2.48273">
        <ele>444</ele>
        <time>2015-04-06T15:10:57Z</time>
      </trkpt>
      <trkpt lat="46.18174" lon="2.48272">
        <ele>444</ele>
        <time>2015-04-06T15:10:59Z</time>
      </trkpt>
      <trkpt lat="46.18177" lon="2.48271">
        <ele>444</ele>
        <time>2015-04-06T15:11:01Z</time>
      </trkpt>
      <trkpt lat="46.1818" lon="2.48271">
        <ele>444</ele>
        <time>2015-04-06T15:11:03Z</time>
      </trkpt>
      <trkpt lat="46.18182" lon="2.48269">
        <ele>444</ele>
        <time>2015-04-06T15:11:05Z</time>
      </trkpt>
      <trkpt lat="46.18185" lon="2.48268">
        <ele>444</ele>
        <time>2015-04-06T15:11:07Z</time>
      </trkpt>
      <trkpt lat="46.18188" lon="2.48267">
        <ele>444</ele>
        <time>2015-04-06T15:11:09Z</time>
      </trkpt>
      <trkpt lat="46.18191" lon="2.48267">
        <ele>444</ele>
        <time>2015-04-06T15:11:11Z</time>
      </trkpt>
      <trkpt lat="46.18195" lon="2.48266">
        <ele>444</ele>
        <time>2015-04-06T15:11:13Z</time>
      </trkpt>
      <trkpt lat="46.18197" lon="2.48265">
        <ele>443</ele>
        <time>2015-04-06T15:11:15Z</time>
      </trkpt>
      <trkpt lat="46.18201" lon="2.48263">
        <ele>443</ele>
        <time>2015-04-06T15:11:17Z</time>
      </trkpt>
      <trkpt lat="46.18204" lon="2.48262">
        <ele>443</ele>
        <time>2015-04-06T15:11:19Z</time>
      </trkpt>
      <trkpt lat="46.18207" lon="2.48261">
        <ele>443</ele>
        <time>2015-04-06T15:11:21Z</time>
      </trkpt>
      <trkpt lat="46.1821" lon="2.48261">
        <ele>442</ele>
        <time>2015-04-06T15:11:23Z</time>
      </trkpt>
      <trkpt lat="46.18213" lon="2.4826">
        <ele>442</ele>
        <time>2015-04-06T15:11:25Z</time>
      </trkpt>
      <trkpt lat="46.18216" lon="2.4826">
        <ele>442</ele>
        <time>2015-04-06T15:11:27Z</time>
      </trkpt>
      <trkpt lat="46.18218" lon="2.48258">
        <ele>441</ele>
        <time>2015-04-06T15:11:29Z</time>
      </trkpt>
      <trkpt lat="46.18221" lon="2.48258">
        <ele>441</ele>
        <time>2015-04-06T15:11:31Z</time>
      </trkpt>
      <trkpt lat="46.18223" lon="2.48257">
        <ele>440</ele>
        <time>2015-04-06T15:11:33Z</time>
      </trkpt>
      <trkpt lat="46.18226" lon="2.48256">
        <ele>440</ele>
        <time>2015-04-06T15:11:35Z</time>
      </trkpt>
      <trkpt lat="46.18228" lon="2.48256">
        <ele>439</ele>
        <time>2015-04-06T15:11:37Z</time>
      </trkpt>
      <trkpt lat="46.1823" lon="2.48257">
        <ele>439</ele>
        <time>2015-04-06T15:11:39Z</time>
      </trkpt>
      <trkpt lat="46.18232" lon="2.4826">
        <ele>439</ele>
        <time>2015-04-06T15:11:41Z</time>
      </trkpt>
      <trkpt lat="46.18232" lon="2.48264">
        <ele>438</ele>
        <time>2015-04-06T15:11:43Z</time>
      </trkpt>
      <trkpt lat="46.18233" lon="2.48268">
        <ele>437</ele>
        <time>2015-04-06T15:11:45Z</time>
      </trkpt>
      <trkpt lat="46.18233" lon="2.48272">
        <ele>437</ele>
        <time>2015-04-06T15:11:47Z</time>
      </trkpt>
      <trkpt lat="46.18233" lon="2.48276">
        <ele>436</ele>
        <time>2015-04-06T15:11:49Z</time>
      </trkpt>
      <trkpt lat="46.18233" lon="2.48281">
        <ele>436</ele>
        <time>2015-04-06T15:11:51Z</time>
      </trkpt>
      <trkpt lat="46.18234" lon="2.48285">
        <ele>435</ele>
        <time>2015-04-06T15:11:53Z</time>
      </trkpt>
      <trkpt lat="46.18234" lon="2.48289">
        <ele>435</ele>
        <time>2015-04-06T15:11:55Z</time>
      </trkpt>
      <trkpt lat="46.18233" lon="2.48292">
        <ele>435</ele>
        <time>2015-04-06T15:11:57Z</time>
      </trkpt>
      <trkpt lat="46.18233" lon="2.48297">
        <ele>434</ele>
        <time>2015-04-06T15:11:59Z</time>
      </trkpt>
      <trkpt lat="46.18233" lon="2.48301">
        <ele>434</ele>
        <time>2015-04-06T15:12:01Z</time>
      </trkpt>
      <trkpt lat="46.18233" lon="2.48306">
        <ele>434</ele>
        <time>2015-04-06T15:12:03Z</time>
      </trkpt>
      <trkpt lat="46.18232" lon="2.4831">
        <ele>434</ele>
        <time>2015-04-06T15:12:05Z</time>
      </trkpt>
      <trkpt lat="46.18232" lon="2.48314">
        <ele>434</ele>
        <time>2015-04-06T15:12:07Z</time>
      </trkpt>
      <trkpt lat="46.18232" lon="2.48318">
        <ele>434</ele>
        <time>2015-04-06T15:12:09Z</time>
      </trkpt>
      <trkpt lat="46.18232" lon="2.48323">
        <ele>434</ele>
        <time>2015-04-06T15:12:11Z</time>
      </trkpt>
      <trkpt lat="46.18231" lon="2.48327">
        <ele>434</ele>
        <time>2015-04-06T15:12:13Z</time>
      </trkpt>
      <trkpt lat="46.18231" lon="2.48331">
        <ele>434</ele>
        <time>2015-04-06T15:12:15Z</time>
      </trkpt>
      <trkpt lat="46.18231" lon="2.48336">
        <ele>434</ele>
        <time>2015-04-06T15:12:17Z</time>
      </trkpt>
      <trkpt lat="46.18231" lon="2.4834">
        <ele>434</ele>
        <time>2015-04-06T15:12:19Z</time>
      </trkpt>
      <trkpt lat="46.18231" lon="2.48344">
        <ele>434</ele>
        <time>2015-04-06T15:12:21Z</time>
      </trkpt>
      <trkpt lat="46.18231" lon="2.48348">
        <ele>434</ele>
        <time>2015-04-06T15:12:23Z</time>
      </trkpt>
      <trkpt lat="46.1823" lon="2.48353">
        <ele>434</ele>
        <time>2015-04-06T15:12:25Z</time>
      </trkpt>
      <trkpt lat="46.18229" lon="2.48357">
        <ele>434</ele>
        <time>2015-04-06T15:12:27Z</time>
      </trkpt>
      <trkpt lat="46.18229" lon="2.48361">
        <ele>434</ele>
        <time>2015-04-06T15:12:29Z</time>
      </trkpt>
      <trkpt lat="46.18228" lon="2.48365">
        <ele>434</ele>
        <time>2015-04-06T15:12:31Z</time>
      </trkpt>
      <trkpt lat="46.18227" lon="2.48369">
        <ele>434</ele>
        <time>2015-04-06T15:12:33Z</time>
      </trkpt>
      <trkpt lat="46.18227" lon="2.48373">
        <ele>434</ele>
        <time>2015-04-06T15:12:35Z</time>
      </trkpt>
      <trkpt lat="46.18227" lon="2.48377">
        <ele>434</ele>
        <time>2015-04-06T15:12:37Z</time>
      </trkpt>
      <trkpt lat="46.18227" lon="2.48381">
        <ele>434</ele>
        <time>2015-04-06T15:12:39Z</time>
      </trkpt>
      <trkpt lat="46.18227" lon="2.48385">
        <ele>434</ele>
        <time>2015-04-06T15:12:41Z</time>
      </trkpt>
      <trkpt lat="46.18225" lon="2.48389">
        <ele>434</ele>
        <time>2015-04-06T15:12:43Z</time>
      </trkpt>
      <trkpt lat="46.18224" lon="2.48393">
        <ele>434</ele>
        <time>2015-04-06T15:12:45Z</time>
      </trkpt>
      <trkpt lat="46.18222" lon="2.48397">
        <ele>434</ele>
        <time>2015-04-06T15:12:47Z</time>
      </trkpt>
      <trkpt lat="46.1822" lon="2.484">
        <ele>434</ele>
        <time>2015-04-06T15:12:49Z</time>
      </trkpt>
      <trkpt lat="46.18218" lon="2.48403">
        <ele>434</ele>
        <time>2015-04-06T15:12:51Z</time>
      </trkpt>
      <trkpt lat="46.18216" lon="2.48406">
        <ele>433</ele>
        <time>2015-04-06T15:12:53Z</time>
      </trkpt>
      <trkpt lat="46.18213" lon="2.48407">
        <ele>433</ele>
        <time>2015-04-06T15:12:55Z</time>
      </trkpt>
      <trkpt lat="46.1821" lon="2.48408">
        <ele>433</ele>
        <time>2015-04-06T15:12:57Z</time>
      </trkpt>
      <trkpt lat="46.18207" lon="2.48409">
        <ele>433</ele>
        <time>2015-04-06T15:12:59Z</time>
      </trkpt>
      <trkpt lat="46.18203" lon="2.48411">
        <ele>433</ele>
        <time>2015-04-06T15:13:01Z</time>
      </trkpt>
      <trkpt lat="46.182" lon="2.48412">
        <ele>433</ele>
        <time>2015-04-06T15:13:03Z</time>
      </trkpt>
      <trkpt lat="46.18197" lon="2.48414">
        <ele>433</ele>
        <time>2015-04-06T15:13:06Z</time>
      </trkpt>
      <trkpt lat="46.18195" lon="2.48416">
        <ele>433</ele>
        <time>2015-04-06T15:13:08Z</time>
      </trkpt>
      <trkpt lat="46.18193" lon="2.48419">
        <ele>433</ele>
        <time>2015-04-06T15:13:10Z</time>
      </trkpt>
      <trkpt lat="46.18192" lon="2.48423">
        <ele>433</ele>
        <time>2015-04-06T15:13:12Z</time>
      </trkpt>
      <trkpt lat="46.18192" lon="2.48427">
        <ele>433</ele>
        <time>2015-04-06T15:13:14Z</time>
      </trkpt>
      <trkpt lat="46.18192" lon="2.4843">
        <ele>433</ele>
        <time>2015-04-06T15:13:16Z</time>
      </trkpt>
      <trkpt lat="46.18193" lon="2.48434">
        <ele>433</ele>
        <time>2015-04-06T15:13:18Z</time>
      </trkpt>
      <trkpt lat="46.18193" lon="2.48438">
        <ele>433</ele>
        <time>2015-04-06T15:13:20Z</time>
      </trkpt>
      <trkpt lat="46.18195" lon="2.48442">
        <ele>433</ele>
        <time>2015-04-06T15:13:22Z</time>
      </trkpt>
      <trkpt lat="46.18196" lon="2.48446">
        <ele>433</ele>
        <time>2015-04-06T15:13:24Z</time>
      </trkpt>
      <trkpt lat="46.18197" lon="2.48449">
        <ele>433</ele>
        <time>2015-04-06T15:13:26Z</time>
      </trkpt>
      <trkpt lat="46.18198" lon="2.48453">
        <ele>433</ele>
        <time>2015-04-06T15:13:28Z</time>
      </trkpt>
      <trkpt lat="46.18199" lon="2.48457">
        <ele>433</ele>
        <time>2015-04-06T15:13:30Z</time>
      </trkpt>
      <trkpt lat="46.182" lon="2.4846">
        <ele>433</ele>
        <time>2015-04-06T15:13:32Z</time>
      </trkpt>
      <trkpt lat="46.18201" lon="2.48463">
        <ele>433</ele>
        <time>2015-04-06T15:13:34Z</time>
      </trkpt>
      <trkpt lat="46.18203" lon="2.48466">
        <ele>433</ele>
        <time>2015-04-06T15:13:36Z</time>
      </trkpt>
      <trkpt lat="46.18204" lon="2.48469">
        <ele>433</ele>
        <time>2015-04-06T15:13:38Z</time>
      </trkpt>
      <trkpt lat="46.18205" lon="2.48472">
        <ele>433</ele>
        <time>2015-04-06T15:13:40Z</time>
      </trkpt>
      <trkpt lat="46.18207" lon="2.48475">
        <ele>433</ele>
        <time>2015-04-06T15:13:42Z</time>
      </trkpt>
      <trkpt lat="46.18209" lon="2.48478">
        <ele>433</ele>
        <time>2015-04-06T15:13:44Z</time>
      </trkpt>
      <trkpt lat="46.18211" lon="2.4848">
        <ele>433</ele>
        <time>2015-04-06T15:13:46Z</time>
      </trkpt>
      <trkpt lat="46.18214" lon="2.48481">
        <ele>433</ele>
        <time>2015-04-06T15:13:48Z</time>
      </trkpt>
      <trkpt lat="46.18216" lon="2.48482">
        <ele>432</ele>
        <time>2015-04-06T15:13:50Z</time>
      </trkpt>
      <trkpt lat="46.18219" lon="2.48483">
        <ele>432</ele>
        <time>2015-04-06T15:13:52Z</time>
      </trkpt>
      <trkpt lat="46.18222" lon="2.48483">
        <ele>431</ele>
        <time>2015-04-06T15:13:54Z</time>
      </trkpt>
      <trkpt lat="46.18224" lon="2.48484">
        <ele>431</ele>
        <time>2015-04-06T15:13:56Z</time>
      </trkpt>
      <trkpt lat="46.18227" lon="2.48483">
        <ele>431</ele>
        <time>2015-04-06T15:13:58Z</time>
      </trkpt>
      <trkpt lat="46.1823" lon="2.48483">
        <ele>431</ele>
        <time>2015-04-06T15:14:00Z</time>
      </trkpt>
      <trkpt lat="46.18234" lon="2.48484">
        <ele>430</ele>
        <time>2015-04-06T15:14:03Z</time>
      </trkpt>
      <trkpt lat="46.18236" lon="2.48485">
        <ele>430</ele>
        <time>2015-04-06T15:14:05Z</time>
      </trkpt>
      <trkpt lat="46.18239" lon="2.48487">
        <ele>430</ele>
        <time>2015-04-06T15:14:07Z</time>
      </trkpt>
      <trkpt lat="46.18242" lon="2.48489">
        <ele>430</ele>
        <time>2015-04-06T15:14:10Z</time>
      </trkpt>
      <trkpt lat="46.18243" lon="2.48492">
        <ele>430</ele>
        <time>2015-04-06T15:14:12Z</time>
      </trkpt>
      <trkpt lat="46.18245" lon="2.48495">
        <ele>429</ele>
        <time>2015-04-06T15:14:14Z</time>
      </trkpt>
      <trkpt lat="46.18247" lon="2.48499">
        <ele>429</ele>
        <time>2015-04-06T15:14:16Z</time>
      </trkpt>
      <trkpt lat="46.18247" lon="2.48502">
        <ele>429</ele>
        <time>2015-04-06T15:14:18Z</time>
      </trkpt>
      <trkpt lat="46.18248" lon="2.48506">
        <ele>428</ele>
        <time>2015-04-06T15:14:20Z</time>
      </trkpt>
      <trkpt lat="46.18251" lon="2.4851">
        <ele>428</ele>
        <time>2015-04-06T15:14:23Z</time>
      </trkpt>
      <trkpt lat="46.18254" lon="2.48511">
        <ele>427</ele>
        <time>2015-04-06T15:14:25Z</time>
      </trkpt>
      <trkpt lat="46.18257" lon="2.48512">
        <ele>427</ele>
        <time>2015-04-06T15:14:27Z</time>
      </trkpt>
      <trkpt lat="46.18259" lon="2.48514">
        <ele>427</ele>
        <time>2015-04-06T15:14:29Z</time>
      </trkpt>
      <trkpt lat="46.18261" lon="2.48516">
        <ele>427</ele>
        <time>2015-04-06T15:14:31Z</time>
      </trkpt>
      <trkpt lat="46.18263" lon="2.48517">
        <ele>426</ele>
        <time>2015-04-06T15:14:33Z</time>
      </trkpt>
      <trkpt lat="46.18265" lon="2.48519">
        <ele>425</ele>
        <time>2015-04-06T15:14:35Z</time>
      </trkpt>
      <trkpt lat="46.18268" lon="2.48523">
        <ele>424</ele>
        <time>2015-04-06T15:14:38Z</time>
      </trkpt>
      <trkpt lat="46.18271" lon="2.48526">
        <ele>424</ele>
        <time>2015-04-06T15:14:40Z</time>
      </trkpt>
      <trkpt lat="46.18275" lon="2.48529">
        <ele>423</ele>
        <time>2015-04-06T15:14:43Z</time>
      </trkpt>
      <trkpt lat="46.18276" lon="2.48532">
        <ele>422</ele>
        <time>2015-04-06T15:14:45Z</time>
      </trkpt>
      <trkpt lat="46.18277" lon="2.48534">
        <ele>421</ele>
        <time>2015-04-06T15:14:47Z</time>
      </trkpt>
      <trkpt lat="46.18278" lon="2.48538">
        <ele>420</ele>
        <time>2015-04-06T15:14:49Z</time>
      </trkpt>
      <trkpt lat="46.18279" lon="2.48542">
        <ele>420</ele>
        <time>2015-04-06T15:14:51Z</time>
      </trkpt>
      <trkpt lat="46.1828" lon="2.48546">
        <ele>419</ele>
        <time>2015-04-06T15:14:53Z</time>
      </trkpt>
      <trkpt lat="46.18282" lon="2.4855">
        <ele>419</ele>
        <time>2015-04-06T15:14:55Z</time>
      </trkpt>
      <trkpt lat="46.18282" lon="2.48554">
        <ele>419</ele>
        <time>2015-04-06T15:14:57Z</time>
      </trkpt>
      <trkpt lat="46.18282" lon="2.48558">
        <ele>419</ele>
        <time>2015-04-06T15:14:59Z</time>
      </trkpt>
      <trkpt lat="46.18283" lon="2.48562">
        <ele>419</ele>
        <time>2015-04-06T15:15:01Z</time>
      </trkpt>
      <trkpt lat="46.18284" lon="2.48565">
        <ele>419</ele>
        <time>2015-04-06T15:15:03Z</time>
      </trkpt>
      <trkpt lat="46.18284" lon="2.48568">
        <ele>418</ele>
        <time>2015-04-06T15:15:05Z</time>
      </trkpt>
      <trkpt lat="46.18285" lon="2.48569">
        <ele>418</ele>
        <time>2015-04-06T15:15:07Z</time>
      </trkpt>
      <trkpt lat="46.18287" lon="2.4857">
        <ele>418</ele>
        <time>2015-04-06T15:15:09Z</time>
      </trkpt>
      <trkpt lat="46.18288" lon="2.4857">
        <ele>418</ele>
        <time>2015-04-06T15:15:11Z</time>
      </trkpt>
      <trkpt lat="46.1829" lon="2.4857">
        <ele>418</ele>
        <time>2015-04-06T15:15:13Z</time>
      </trkpt>
      <trkpt lat="46.18291" lon="2.48569">
        <ele>418</ele>
        <time>2015-04-06T15:15:15Z</time>
      </trkpt>
      <trkpt lat="46.18292" lon="2.48571">
        <ele>418</ele>
        <time>2015-04-06T15:15:20Z</time>
      </trkpt>
      <trkpt lat="46.18293" lon="2.48569">
        <ele>418</ele>
        <time>2015-04-06T15:15:24Z</time>
      </trkpt>
      <trkpt lat="46.18292" lon="2.48566">
        <ele>418</ele>
        <time>2015-04-06T15:15:26Z</time>
      </trkpt>
      <trkpt lat="46.18292" lon="2.48563">
        <ele>418</ele>
        <time>2015-04-06T15:15:28Z</time>
      </trkpt>
      <trkpt lat="46.18291" lon="2.48558">
        <ele>418</ele>
        <time>2015-04-06T15:15:30Z</time>
      </trkpt>
      <trkpt lat="46.1829" lon="2.48554">
        <ele>418</ele>
        <time>2015-04-06T15:15:32Z</time>
      </trkpt>
      <trkpt lat="46.18289" lon="2.48551">
        <ele>418</ele>
        <time>2015-04-06T15:15:34Z</time>
      </trkpt>
      <trkpt lat="46.1829" lon="2.48547">
        <ele>418</ele>
        <time>2015-04-06T15:15:36Z</time>
      </trkpt>
      <trkpt lat="46.18289" lon="2.48543">
        <ele>418</ele>
        <time>2015-04-06T15:15:38Z</time>
      </trkpt>
      <trkpt lat="46.18288" lon="2.48539">
        <ele>418</ele>
        <time>2015-04-06T15:15:41Z</time>
      </trkpt>
      <trkpt lat="46.18288" lon="2.48536">
        <ele>418</ele>
        <time>2015-04-06T15:15:43Z</time>
      </trkpt>
      <trkpt lat="46.18288" lon="2.48533">
        <ele>418</ele>
        <time>2015-04-06T15:15:45Z</time>
      </trkpt>
      <trkpt lat="46.18288" lon="2.48532">
        <ele>418</ele>
        <time>2015-04-06T15:15:47Z</time>
      </trkpt>
      <trkpt lat="46.18289" lon="2.48529">
        <ele>418</ele>
        <time>2015-04-06T15:15:49Z</time>
      </trkpt>
      <trkpt lat="46.18289" lon="2.48526">
        <ele>420</ele>
        <time>2015-04-06T15:15:51Z</time>
      </trkpt>
      <trkpt lat="46.18289" lon="2.48523">
        <ele>421</ele>
        <time>2015-04-06T15:15:53Z</time>
      </trkpt>
      <trkpt lat="46.18289" lon="2.48519">
        <ele>422</ele>
        <time>2015-04-06T15:15:55Z</time>
      </trkpt>
      <trkpt lat="46.18288" lon="2.48514">
        <ele>422</ele>
        <time>2015-04-06T15:15:57Z</time>
      </trkpt>
      <trkpt lat="46.18288" lon="2.4851">
        <ele>423</ele>
        <time>2015-04-06T15:15:59Z</time>
      </trkpt>
      <trkpt lat="46.18288" lon="2.48506">
        <ele>423</ele>
        <time>2015-04-06T15:16:01Z</time>
      </trkpt>
      <trkpt lat="46.18289" lon="2.48503">
        <ele>423</ele>
        <time>2015-04-06T15:16:03Z</time>
      </trkpt>
      <trkpt lat="46.18291" lon="2.48501">
        <ele>423</ele>
        <time>2015-04-06T15:16:05Z</time>
      </trkpt>
      <trkpt lat="46.18293" lon="2.48499">
        <ele>423</ele>
        <time>2015-04-06T15:16:07Z</time>
      </trkpt>
      <trkpt lat="46.18294" lon="2.48498">
        <ele>423</ele>
        <time>2015-04-06T15:16:09Z</time>
      </trkpt>
      <trkpt lat="46.18296" lon="2.48496">
        <ele>423</ele>
        <time>2015-04-06T15:16:12Z</time>
      </trkpt>
      <trkpt lat="46.18296" lon="2.48494">
        <ele>423</ele>
        <time>2015-04-06T15:16:14Z</time>
      </trkpt>
      <trkpt lat="46.18297" lon="2.48491">
        <ele>423</ele>
        <time>2015-04-06T15:16:16Z</time>
      </trkpt>
      <trkpt lat="46.18297" lon="2.48489">
        <ele>423</ele>
        <time>2015-04-06T15:16:18Z</time>
      </trkpt>
      <trkpt lat="46.18295" lon="2.48487">
        <ele>423</ele>
        <time>2015-04-06T15:16:20Z</time>
      </trkpt>
      <trkpt lat="46.18294" lon="2.48484">
        <ele>423</ele>
        <time>2015-04-06T15:16:22Z</time>
      </trkpt>
      <trkpt lat="46.18294" lon="2.48481">
        <ele>423</ele>
        <time>2015-04-06T15:16:24Z</time>
      </trkpt>
      <trkpt lat="46.18293" lon="2.48476">
        <ele>423</ele>
        <time>2015-04-06T15:16:26Z</time>
      </trkpt>
      <trkpt lat="46.18293" lon="2.48471">
        <ele>423</ele>
        <time>2015-04-06T15:16:28Z</time>
      </trkpt>
      <trkpt lat="46.18292" lon="2.48467">
        <ele>423</ele>
        <time>2015-04-06T15:16:30Z</time>
      </trkpt>
      <trkpt lat="46.18292" lon="2.48463">
        <ele>423</ele>
        <time>2015-04-06T15:16:32Z</time>
      </trkpt>
      <trkpt lat="46.18292" lon="2.48459">
        <ele>423</ele>
        <time>2015-04-06T15:16:34Z</time>
      </trkpt>
      <trkpt lat="46.18291" lon="2.48455">
        <ele>423</ele>
        <time>2015-04-06T15:16:36Z</time>
      </trkpt>
      <trkpt lat="46.18291" lon="2.48451">
        <ele>423</ele>
        <time>2015-04-06T15:16:38Z</time>
      </trkpt>
      <trkpt lat="46.18291" lon="2.48447">
        <ele>423</ele>
        <time>2015-04-06T15:16:40Z</time>
      </trkpt>
      <trkpt lat="46.1829" lon="2.48442">
        <ele>423</ele>
        <time>2015-04-06T15:16:42Z</time>
      </trkpt>
      <trkpt lat="46.18288" lon="2.48437">
        <ele>424</ele>
        <time>2015-04-06T15:16:44Z</time>
      </trkpt>
      <trkpt lat="46.18288" lon="2.48432">
        <ele>426</ele>
        <time>2015-04-06T15:16:46Z</time>
      </trkpt>
      <trkpt lat="46.18286" lon="2.48428">
        <ele>427</ele>
        <time>2015-04-06T15:16:48Z</time>
      </trkpt>
      <trkpt lat="46.18285" lon="2.48424">
        <ele>428</ele>
        <time>2015-04-06T15:16:51Z</time>
      </trkpt>
      <trkpt lat="46.18283" lon="2.48421">
        <ele>428</ele>
        <time>2015-04-06T15:16:53Z</time>
      </trkpt>
      <trkpt lat="46.18281" lon="2.48418">
        <ele>428</ele>
        <time>2015-04-06T15:16:55Z</time>
      </trkpt>
      <trkpt lat="46.18281" lon="2.48415">
        <ele>428</ele>
        <time>2015-04-06T15:16:58Z</time>
      </trkpt>
      <trkpt lat="46.1828" lon="2.48413">
        <ele>428</ele>
        <time>2015-04-06T15:17:00Z</time>
      </trkpt>
      <trkpt lat="46.18279" lon="2.48409">
        <ele>428</ele>
        <time>2015-04-06T15:17:03Z</time>
      </trkpt>
      <trkpt lat="46.18277" lon="2.48406">
        <ele>428</ele>
        <time>2015-04-06T15:17:05Z</time>
      </trkpt>
      <trkpt lat="46.18277" lon="2.48402">
        <ele>428</ele>
        <time>2015-04-06T15:17:07Z</time>
      </trkpt>
      <trkpt lat="46.18275" lon="2.48399">
        <ele>428</ele>
        <time>2015-04-06T15:17:10Z</time>
      </trkpt>
      <trkpt lat="46.18274" lon="2.48396">
        <ele>428</ele>
        <time>2015-04-06T15:17:12Z</time>
      </trkpt>
      <trkpt lat="46.18273" lon="2.48392">
        <ele>428</ele>
        <time>2015-04-06T15:17:15Z</time>
      </trkpt>
      <trkpt lat="46.18272" lon="2.4839">
        <ele>428</ele>
        <time>2015-04-06T15:17:17Z</time>
      </trkpt>
      <trkpt lat="46.18271" lon="2.48388">
        <ele>428</ele>
        <time>2015-04-06T15:17:19Z</time>
      </trkpt>
      <trkpt lat="46.1827" lon="2.48384">
        <ele>428</ele>
        <time>2015-04-06T15:17:21Z</time>
      </trkpt>
      <trkpt lat="46.18268" lon="2.48383">
        <ele>428</ele>
        <time>2015-04-06T15:17:23Z</time>
      </trkpt>
      <trkpt lat="46.18266" lon="2.48379">
        <ele>428</ele>
        <time>2015-04-06T15:17:25Z</time>
      </trkpt>
      <trkpt lat="46.18264" lon="2.48376">
        <ele>428</ele>
        <time>2015-04-06T15:17:27Z</time>
      </trkpt>
      <trkpt lat="46.18262" lon="2.48372">
        <ele>428</ele>
        <time>2015-04-06T15:17:29Z</time>
      </trkpt>
      <trkpt lat="46.18261" lon="2.48369">
        <ele>428</ele>
        <time>2015-04-06T15:17:31Z</time>
      </trkpt>
      <trkpt lat="46.18259" lon="2.48365">
        <ele>428</ele>
        <time>2015-04-06T15:17:33Z</time>
      </trkpt>
      <trkpt lat="46.18257" lon="2.48363">
        <ele>428</ele>
        <time>2015-04-06T15:17:35Z</time>
      </trkpt>
      <trkpt lat="46.18255" lon="2.48358">
        <ele>428</ele>
        <time>2015-04-06T15:17:37Z</time>
      </trkpt>
      <trkpt lat="46.18254" lon="2.48355">
        <ele>428</ele>
        <time>2015-04-06T15:17:40Z</time>
      </trkpt>
      <trkpt lat="46.18253" lon="2.48353">
        <ele>428</ele>
        <time>2015-04-06T15:17:42Z</time>
      </trkpt>
      <trkpt lat="46.18251" lon="2.48349">
        <ele>428</ele>
        <time>2015-04-06T15:17:44Z</time>
      </trkpt>
      <trkpt lat="46.1825" lon="2.48345">
        <ele>428</ele>
        <time>2015-04-06T15:17:47Z</time>
      </trkpt>
      <trkpt lat="46.18249" lon="2.48342">
        <ele>428</ele>
        <time>2015-04-06T15:17:49Z</time>
      </trkpt>
      <trkpt lat="46.18248" lon="2.48338">
        <ele>428</ele>
        <time>2015-04-06T15:17:51Z</time>
      </trkpt>
      <trkpt lat="46.18247" lon="2.48334">
        <ele>428</ele>
        <time>2015-04-06T15:17:53Z</time>
      </trkpt>
      <trkpt lat="46.18247" lon="2.4833">
        <ele>428</ele>
        <time>2015-04-06T15:17:55Z</time>
      </trkpt>
      <trkpt lat="46.18246" lon="2.48325">
        <ele>428</ele>
        <time>2015-04-06T15:17:58Z</time>
      </trkpt>
      <trkpt lat="46.18244" lon="2.48321">
        <ele>428</ele>
        <time>2015-04-06T15:18:00Z</time>
      </trkpt>
      <trkpt lat="46.18244" lon="2.48317">
        <ele>428</ele>
        <time>2015-04-06T15:18:02Z</time>
      </trkpt>
      <trkpt lat="46.18243" lon="2.48313">
        <ele>428</ele>
        <time>2015-04-06T15:18:04Z</time>
      </trkpt>
      <trkpt lat="46.18243" lon="2.4831">
        <ele>428</ele>
        <time>2015-04-06T15:18:06Z</time>
      </trkpt>
      <trkpt lat="46.18243" lon="2.48306">
        <ele>428</ele>
        <time>2015-04-06T15:18:08Z</time>
      </trkpt>
      <trkpt lat="46.18243" lon="2.48301">
        <ele>428</ele>
        <time>2015-04-06T15:18:10Z</time>
      </trkpt>
      <trkpt lat="46.18243" lon="2.48298">
        <ele>428</ele>
        <time>2015-04-06T15:18:12Z</time>
      </trkpt>
      <trkpt lat="46.18242" lon="2.48293">
        <ele>428</ele>
        <time>2015-04-06T15:18:14Z</time>
      </trkpt>
      <trkpt lat="46.18242" lon="2.48289">
        <ele>428</ele>
        <time>2015-04-06T15:18:17Z</time>
      </trkpt>
      <trkpt lat="46.18241" lon="2.48287">
        <ele>428</ele>
        <time>2015-04-06T15:18:19Z</time>
      </trkpt>
      <trkpt lat="46.18241" lon="2.48284">
        <ele>428</ele>
        <time>2015-04-06T15:18:21Z</time>
      </trkpt>
      <trkpt lat="46.18241" lon="2.4828">
        <ele>428</ele>
        <time>2015-04-06T15:18:23Z</time>
      </trkpt>
      <trkpt lat="46.18241" lon="2.48276">
        <ele>428</ele>
        <time>2015-04-06T15:18:25Z</time>
      </trkpt>
      <trkpt lat="46.18242" lon="2.48273">
        <ele>429</ele>
        <time>2015-04-06T15:18:27Z</time>
      </trkpt>
      <trkpt lat="46.18243" lon="2.48273">
        <ele>429</ele>
        <time>2015-04-06T15:18:29Z</time>
      </trkpt>
      <trkpt lat="46.18244" lon="2.48276">
        <ele>429</ele>
        <time>2015-04-06T15:18:31Z</time>
      </trkpt>
      <trkpt lat="46.18244" lon="2.4828">
        <ele>429</ele>
        <time>2015-04-06T15:18:33Z</time>
      </trkpt>
      <trkpt lat="46.18243" lon="2.48284">
        <ele>429</ele>
        <time>2015-04-06T15:18:35Z</time>
      </trkpt>
      <trkpt lat="46.18243" lon="2.48287">
        <ele>429</ele>
        <time>2015-04-06T15:18:37Z</time>
      </trkpt>
      <trkpt lat="46.18244" lon="2.4829">
        <ele>429</ele>
        <time>2015-04-06T15:18:39Z</time>
      </trkpt>
      <trkpt lat="46.18245" lon="2.48294">
        <ele>429</ele>
        <time>2015-04-06T15:18:41Z</time>
      </trkpt>
      <trkpt lat="46.18245" lon="2.48297">
        <ele>429</ele>
        <time>2015-04-06T15:18:43Z</time>
      </trkpt>
      <trkpt lat="46.18246" lon="2.483">
        <ele>429</ele>
        <time>2015-04-06T15:18:45Z</time>
      </trkpt>
      <trkpt lat="46.18247" lon="2.48303">
        <ele>429</ele>
        <time>2015-04-06T15:18:47Z</time>
      </trkpt>
      <trkpt lat="46.18248" lon="2.48306">
        <ele>429</ele>
        <time>2015-04-06T15:18:49Z</time>
      </trkpt>
      <trkpt lat="46.18248" lon="2.4831">
        <ele>429</ele>
        <time>2015-04-06T15:18:51Z</time>
      </trkpt>
      <trkpt lat="46.18249" lon="2.48315">
        <ele>429</ele>
        <time>2015-04-06T15:18:54Z</time>
      </trkpt>
      <trkpt lat="46.1825" lon="2.48318">
        <ele>429</ele>
        <time>2015-04-06T15:18:56Z</time>
      </trkpt>
      <trkpt lat="46.18251" lon="2.48322">
        <ele>429</ele>
        <time>2015-04-06T15:18:58Z</time>
      </trkpt>
      <trkpt lat="46.18253" lon="2.48325">
        <ele>429</ele>
        <time>2015-04-06T15:19:00Z</time>
      </trkpt>
      <trkpt lat="46.18254" lon="2.48328">
        <ele>429</ele>
        <time>2015-04-06T15:19:02Z</time>
      </trkpt>
      <trkpt lat="46.18255" lon="2.48331">
        <ele>429</ele>
        <time>2015-04-06T15:19:04Z</time>
      </trkpt>
      <trkpt lat="46.18256" lon="2.48336">
        <ele>429</ele>
        <time>2015-04-06T15:19:06Z</time>
      </trkpt>
      <trkpt lat="46.18259" lon="2.48337">
        <ele>429</ele>
        <time>2015-04-06T15:19:08Z</time>
      </trkpt>
      <trkpt lat="46.1826" lon="2.48339">
        <ele>429</ele>
        <time>2015-04-06T15:19:10Z</time>
      </trkpt>
      <trkpt lat="46.18262" lon="2.48343">
        <ele>429</ele>
        <time>2015-04-06T15:19:13Z</time>
      </trkpt>
      <trkpt lat="46.18264" lon="2.48348">
        <ele>429</ele>
        <time>2015-04-06T15:19:15Z</time>
      </trkpt>
      <trkpt lat="46.18267" lon="2.48349">
        <ele>429</ele>
        <time>2015-04-06T15:19:17Z</time>
      </trkpt>
      <trkpt lat="46.18269" lon="2.48353">
        <ele>429</ele>
        <time>2015-04-06T15:19:19Z</time>
      </trkpt>
      <trkpt lat="46.18269" lon="2.48358">
        <ele>429</ele>
        <time>2015-04-06T15:19:21Z</time>
      </trkpt>
      <trkpt lat="46.1827" lon="2.48363">
        <ele>429</ele>
        <time>2015-04-06T15:19:23Z</time>
      </trkpt>
      <trkpt lat="46.18272" lon="2.48366">
        <ele>429</ele>
        <time>2015-04-06T15:19:25Z</time>
      </trkpt>
      <trkpt lat="46.18274" lon="2.4837">
        <ele>429</ele>
        <time>2015-04-06T15:19:27Z</time>
      </trkpt>
      <trkpt lat="46.18275" lon="2.48374">
        <ele>429</ele>
        <time>2015-04-06T15:19:29Z</time>
      </trkpt>
      <trkpt lat="46.18278" lon="2.48375">
        <ele>429</ele>
        <time>2015-04-06T15:19:31Z</time>
      </trkpt>
      <trkpt lat="46.18281" lon="2.48374">
        <ele>429</ele>
        <time>2015-04-06T15:19:33Z</time>
      </trkpt>
      <trkpt lat="46.18282" lon="2.48375">
        <ele>429</ele>
        <time>2015-04-06T15:19:35Z</time>
      </trkpt>
      <trkpt lat="46.18284" lon="2.48375">
        <ele>429</ele>
        <time>2015-04-06T15:19:38Z</time>
      </trkpt>
      <trkpt lat="46.18287" lon="2.48377">
        <ele>428</ele>
        <time>2015-04-06T15:19:41Z</time>
      </trkpt>
      <trkpt lat="46.1829" lon="2.48378">
        <ele>428</ele>
        <time>2015-04-06T15:19:43Z</time>
      </trkpt>
      <trkpt lat="46.18292" lon="2.48376">
        <ele>428</ele>
        <time>2015-04-06T15:19:45Z</time>
      </trkpt>
      <trkpt lat="46.18291" lon="2.48376">
        <ele>428</ele>
        <time>2015-04-06T15:19:51Z</time>
      </trkpt>
      <trkpt lat="46.1829" lon="2.48375">
        <ele>428</ele>
        <time>2015-04-06T15:19:58Z</time>
      </trkpt>
      <trkpt lat="46.18292" lon="2.48375">
        <ele>424</ele>
        <time>2015-04-06T15:20:09Z</time>
      </trkpt>
      <trkpt lat="46.18293" lon="2.48375">
        <ele>424</ele>
        <time>2015-04-06T15:20:11Z</time>
      </trkpt>
      <trkpt lat="46.18295" lon="2.48376">
        <ele>424</ele>
        <time>2015-04-06T15:20:16Z</time>
      </trkpt>
      <trkpt lat="46.18293" lon="2.48379">
        <ele>424</ele>
        <time>2015-04-06T15:20:18Z</time>
      </trkpt>
      <trkpt lat="46.18292" lon="2.48382">
        <ele>424</ele>
        <time>2015-04-06T15:20:20Z</time>
      </trkpt>
      <trkpt lat="46.1829" lon="2.48385">
        <ele>424</ele>
        <time>2015-04-06T15:20:22Z</time>
      </trkpt>
      <trkpt lat="46.18291" lon="2.48389">
        <ele>424</ele>
        <time>2015-04-06T15:20:25Z</time>
      </trkpt>
      <trkpt lat="46.18291" lon="2.48392">
        <ele>424</ele>
        <time>2015-04-06T15:20:27Z</time>
      </trkpt>
      <trkpt lat="46.18292" lon="2.48395">
        <ele>424</ele>
        <time>2015-04-06T15:20:29Z</time>
      </trkpt>
      <trkpt lat="46.18293" lon="2.484">
        <ele>424</ele>
        <time>2015-04-06T15:20:32Z</time>
      </trkpt>
      <trkpt lat="46.18295" lon="2.48404">
        <ele>424</ele>
        <time>2015-04-06T15:20:34Z</time>
      </trkpt>
      <trkpt lat="46.18296" lon="2.48408">
        <ele>424</ele>
        <time>2015-04-06T15:20:36Z</time>
      </trkpt>
      <trkpt lat="46.18298" lon="2.48412">
        <ele>424</ele>
        <time>2015-04-06T15:20:39Z</time>
      </trkpt>
      <trkpt lat="46.18301" lon="2.48415">
        <ele>424</ele>
        <time>2015-04-06T15:20:41Z</time>
      </trkpt>
      <trkpt lat="46.18301" lon="2.48419">
        <ele>424</ele>
        <time>2015-04-06T15:20:43Z</time>
      </trkpt>
      <trkpt lat="46.18302" lon="2.48424">
        <ele>424</ele>
        <time>2015-04-06T15:20:45Z</time>
      </trkpt>
      <trkpt lat="46.18304" lon="2.48426">
        <ele>424</ele>
        <time>2015-04-06T15:20:47Z</time>
      </trkpt>
      <trkpt lat="46.18306" lon="2.4843">
        <ele>424</ele>
        <time>2015-04-06T15:20:50Z</time>
      </trkpt>
      <trkpt lat="46.18307" lon="2.48434">
        <ele>424</ele>
        <time>2015-04-06T15:20:52Z</time>
      </trkpt>
      <trkpt lat="46.18308" lon="2.48439">
        <ele>424</ele>
        <time>2015-04-06T15:20:54Z</time>
      </trkpt>
      <trkpt lat="46.18308" lon="2.48445">
        <ele>424</ele>
        <time>2015-04-06T15:20:56Z</time>
      </trkpt>
      <trkpt lat="46.18309" lon="2.48449">
        <ele>424</ele>
        <time>2015-04-06T15:20:58Z</time>
      </trkpt>
      <trkpt lat="46.1831" lon="2.48454">
        <ele>424</ele>
        <time>2015-04-06T15:21:00Z</time>
      </trkpt>
      <trkpt lat="46.18311" lon="2.48457">
        <ele>424</ele>
        <time>2015-04-06T15:21:02Z</time>
      </trkpt>
      <trkpt lat="46.18312" lon="2.48461">
        <ele>424</ele>
        <time>2015-04-06T15:21:04Z</time>
      </trkpt>
      <trkpt lat="46.18313" lon="2.48465">
        <ele>424</ele>
        <time>2015-04-06T15:21:06Z</time>
      </trkpt>
      <trkpt lat="46.18314" lon="2.48468">
        <ele>423</ele>
        <time>2015-04-06T15:21:08Z</time>
      </trkpt>
      <trkpt lat="46.18316" lon="2.48472">
        <ele>423</ele>
        <time>2015-04-06T15:21:10Z</time>
      </trkpt>
      <trkpt lat="46.18316" lon="2.48475">
        <ele>423</ele>
        <time>2015-04-06T15:21:12Z</time>
      </trkpt>
      <trkpt lat="46.18317" lon="2.48478">
        <ele>423</ele>
        <time>2015-04-06T15:21:14Z</time>
      </trkpt>
      <trkpt lat="46.18319" lon="2.4848">
        <ele>422</ele>
        <time>2015-04-06T15:21:16Z</time>
      </trkpt>
      <trkpt lat="46.18319" lon="2.48486">
        <ele>422</ele>
        <time>2015-04-06T15:21:18Z</time>
      </trkpt>
      <trkpt lat="46.1832" lon="2.4849">
        <ele>422</ele>
        <time>2015-04-06T15:21:20Z</time>
      </trkpt>
      <trkpt lat="46.18321" lon="2.48494">
        <ele>421</ele>
        <time>2015-04-06T15:21:22Z</time>
      </trkpt>
      <trkpt lat="46.18322" lon="2.48496">
        <ele>421</ele>
        <time>2015-04-06T15:21:24Z</time>
      </trkpt>
      <trkpt lat="46.18324" lon="2.48498">
        <ele>420</ele>
        <time>2015-04-06T15:21:26Z</time>
      </trkpt>
      <trkpt lat="46.18326" lon="2.48501">
        <ele>419</ele>
        <time>2015-04-06T15:21:28Z</time>
      </trkpt>
      <trkpt lat="46.18327" lon="2.48505">
        <ele>418</ele>
        <time>2015-04-06T15:21:30Z</time>
      </trkpt>
      <trkpt lat="46.18328" lon="2.48509">
        <ele>417</ele>
        <time>2015-04-06T15:21:32Z</time>
      </trkpt>
      <trkpt lat="46.1833" lon="2.48513">
        <ele>417</ele>
        <time>2015-04-06T15:21:34Z</time>
      </trkpt>
      <trkpt lat="46.18332" lon="2.48517">
        <ele>417</ele>
        <time>2015-04-06T15:21:36Z</time>
      </trkpt>
      <trkpt lat="46.18334" lon="2.48521">
        <ele>417</ele>
        <time>2015-04-06T15:21:38Z</time>
      </trkpt>
      <trkpt lat="46.18335" lon="2.48526">
        <ele>417</ele>
        <time>2015-04-06T15:21:40Z</time>
      </trkpt>
      <trkpt lat="46.18335" lon="2.48531">
        <ele>417</ele>
        <time>2015-04-06T15:21:42Z</time>
      </trkpt>
      <trkpt lat="46.18337" lon="2.48535">
        <ele>417</ele>
        <time>2015-04-06T15:21:44Z</time>
      </trkpt>
      <trkpt lat="46.18339" lon="2.4854">
        <ele>417</ele>
        <time>2015-04-06T15:21:46Z</time>
      </trkpt>
      <trkpt lat="46.1834" lon="2.48546">
        <ele>417</ele>
        <time>2015-04-06T15:21:48Z</time>
      </trkpt>
      <trkpt lat="46.18341" lon="2.4855">
        <ele>417</ele>
        <time>2015-04-06T15:21:50Z</time>
      </trkpt>
      <trkpt lat="46.18341" lon="2.48554">
        <ele>417</ele>
        <time>2015-04-06T15:21:52Z</time>
      </trkpt>
      <trkpt lat="46.1834" lon="2.48559">
        <ele>417</ele>
        <time>2015-04-06T15:21:54Z</time>
      </trkpt>
      <trkpt lat="46.18341" lon="2.48565">
        <ele>417</ele>
        <time>2015-04-06T15:21:56Z</time>
      </trkpt>
      <trkpt lat="46.18342" lon="2.48568">
        <ele>417</ele>
        <time>2015-04-06T15:21:58Z</time>
      </trkpt>
      <trkpt lat="46.18344" lon="2.48573">
        <ele>417</ele>
        <time>2015-04-06T15:22:00Z</time>
      </trkpt>
      <trkpt lat="46.18343" lon="2.48577">
        <ele>417</ele>
        <time>2015-04-06T15:22:02Z</time>
      </trkpt>
      <trkpt lat="46.18344" lon="2.48579">
        <ele>417</ele>
        <time>2015-04-06T15:22:04Z</time>
      </trkpt>
      <trkpt lat="46.18346" lon="2.48581">
        <ele>417</ele>
        <time>2015-04-06T15:22:07Z</time>
      </trkpt>
      <trkpt lat="46.18346" lon="2.48584">
        <ele>416</ele>
        <time>2015-04-06T15:22:09Z</time>
      </trkpt>
      <trkpt lat="46.18347" lon="2.48587">
        <ele>414</ele>
        <time>2015-04-06T15:22:11Z</time>
      </trkpt>
      <trkpt lat="46.18347" lon="2.4859">
        <ele>413</ele>
        <time>2015-04-06T15:22:13Z</time>
      </trkpt>
      <trkpt lat="46.18348" lon="2.48594">
        <ele>411</ele>
        <time>2015-04-06T15:22:15Z</time>
      </trkpt>
      <trkpt lat="46.18348" lon="2.48597">
        <ele>410</ele>
        <time>2015-04-06T15:22:17Z</time>
      </trkpt>
      <trkpt lat="46.18349" lon="2.486">
        <ele>409</ele>
        <time>2015-04-06T15:22:19Z</time>
      </trkpt>
      <trkpt lat="46.1835" lon="2.48604">
        <ele>409</ele>
        <time>2015-04-06T15:22:21Z</time>
      </trkpt>
      <trkpt lat="46.18351" lon="2.48607">
        <ele>408</ele>
        <time>2015-04-06T15:22:23Z</time>
      </trkpt>
      <trkpt lat="46.18352" lon="2.48611">
        <ele>407</ele>
        <time>2015-04-06T15:22:25Z</time>
      </trkpt>
      <trkpt lat="46.18354" lon="2.48614">
        <ele>407</ele>
        <time>2015-04-06T15:22:27Z</time>
      </trkpt>
      <trkpt lat="46.18355" lon="2.48618">
        <ele>406</ele>
        <time>2015-04-06T15:22:29Z</time>
      </trkpt>
      <trkpt lat="46.18357" lon="2.48621">
        <ele>405</ele>
        <time>2015-04-06T15:22:31Z</time>
      </trkpt>
      <trkpt lat="46.18358" lon="2.48624">
        <ele>405</ele>
        <time>2015-04-06T15:22:33Z</time>
      </trkpt>
      <trkpt lat="46.1836" lon="2.48627">
        <ele>404</ele>
        <time>2015-04-06T15:22:35Z</time>
      </trkpt>
      <trkpt lat="46.18362" lon="2.4863">
        <ele>404</ele>
        <time>2015-04-06T15:22:37Z</time>
      </trkpt>
      <trkpt lat="46.18363" lon="2.48633">
        <ele>403</ele>
        <time>2015-04-06T15:22:39Z</time>
      </trkpt>
      <trkpt lat="46.18364" lon="2.48637">
        <ele>403</ele>
        <time>2015-04-06T15:22:41Z</time>
      </trkpt>
      <trkpt lat="46.18364" lon="2.48639">
        <ele>403</ele>
        <time>2015-04-06T15:22:43Z</time>
      </trkpt>
      <trkpt lat="46.18366" lon="2.48643">
        <ele>403</ele>
        <time>2015-04-06T15:22:46Z</time>
      </trkpt>
      <trkpt lat="46.18367" lon="2.48645">
        <ele>403</ele>
        <time>2015-04-06T15:22:49Z</time>
      </trkpt>
      <trkpt lat="46.18368" lon="2.48648">
        <ele>403</ele>
        <time>2015-04-06T15:22:51Z</time>
      </trkpt>
      <trkpt lat="46.18369" lon="2.48652">
        <ele>403</ele>
        <time>2015-04-06T15:22:54Z</time>
      </trkpt>
      <trkpt lat="46.1837" lon="2.48655">
        <ele>403</ele>
        <time>2015-04-06T15:22:56Z</time>
      </trkpt>
      <trkpt lat="46.18371" lon="2.48657">
        <ele>403</ele>
        <time>2015-04-06T15:22:58Z</time>
      </trkpt>
      <trkpt lat="46.18373" lon="2.4866">
        <ele>403</ele>
        <time>2015-04-06T15:23:00Z</time>
      </trkpt>
      <trkpt lat="46.18375" lon="2.48664">
        <ele>403</ele>
        <time>2015-04-06T15:23:03Z</time>
      </trkpt>
      <trkpt lat="46.18377" lon="2.48667">
        <ele>403</ele>
        <time>2015-04-06T15:23:05Z</time>
      </trkpt>
      <trkpt lat="46.18378" lon="2.4867">
        <ele>402</ele>
        <time>2015-04-06T15:23:07Z</time>
      </trkpt>
      <trkpt lat="46.1838" lon="2.48673">
        <ele>401</ele>
        <time>2015-04-06T15:23:09Z</time>
      </trkpt>
      <trkpt lat="46.18381" lon="2.48678">
        <ele>401</ele>
        <time>2015-04-06T15:23:11Z</time>
      </trkpt>
      <trkpt lat="46.18381" lon="2.48682">
        <ele>400</ele>
        <time>2015-04-06T15:23:13Z</time>
      </trkpt>
      <trkpt lat="46.18382" lon="2.48685">
        <ele>400</ele>
        <time>2015-04-06T15:23:15Z</time>
      </trkpt>
      <trkpt lat="46.18381" lon="2.4869">
        <ele>399</ele>
        <time>2015-04-06T15:23:17Z</time>
      </trkpt>
      <trkpt lat="46.1838" lon="2.48693">
        <ele>398</ele>
        <time>2015-04-06T15:23:19Z</time>
      </trkpt>
      <trkpt lat="46.18377" lon="2.48697">
        <ele>397</ele>
        <time>2015-04-06T15:23:22Z</time>
      </trkpt>
      <trkpt lat="46.18374" lon="2.487">
        <ele>397</ele>
        <time>2015-04-06T15:23:24Z</time>
      </trkpt>
      <trkpt lat="46.18373" lon="2.48703">
        <ele>397</ele>
        <time>2015-04-06T15:23:26Z</time>
      </trkpt>
      <trkpt lat="46.18372" lon="2.48706">
        <ele>397</ele>
        <time>2015-04-06T15:23:28Z</time>
      </trkpt>
      <trkpt lat="46.18369" lon="2.48709">
        <ele>397</ele>
        <time>2015-04-06T15:23:30Z</time>
      </trkpt>
      <trkpt lat="46.18367" lon="2.48711">
        <ele>397</ele>
        <time>2015-04-06T15:23:32Z</time>
      </trkpt>
      <trkpt lat="46.18364" lon="2.48713">
        <ele>397</ele>
        <time>2015-04-06T15:23:34Z</time>
      </trkpt>
      <trkpt lat="46.18362" lon="2.48716">
        <ele>397</ele>
        <time>2015-04-06T15:23:36Z</time>
      </trkpt>
      <trkpt lat="46.18361" lon="2.4872">
        <ele>397</ele>
        <time>2015-04-06T15:23:38Z</time>
      </trkpt>
      <trkpt lat="46.1836" lon="2.48724">
        <ele>397</ele>
        <time>2015-04-06T15:23:40Z</time>
      </trkpt>
      <trkpt lat="46.18359" lon="2.48727">
        <ele>396</ele>
        <time>2015-04-06T15:23:42Z</time>
      </trkpt>
      <trkpt lat="46.18358" lon="2.48732">
        <ele>395</ele>
        <time>2015-04-06T15:23:44Z</time>
      </trkpt>
      <trkpt lat="46.18357" lon="2.48736">
        <ele>395</ele>
        <time>2015-04-06T15:23:46Z</time>
      </trkpt>
      <trkpt lat="46.18357" lon="2.4874">
        <ele>394</ele>
        <time>2015-04-06T15:23:48Z</time>
      </trkpt>
      <trkpt lat="46.18356" lon="2.48744">
        <ele>394</ele>
        <time>2015-04-06T15:23:50Z</time>
      </trkpt>
      <trkpt lat="46.18355" lon="2.48747">
        <ele>394</ele>
        <time>2015-04-06T15:23:52Z</time>
      </trkpt>
      <trkpt lat="46.18354" lon="2.48751">
        <ele>393</ele>
        <time>2015-04-06T15:23:54Z</time>
      </trkpt>
      <trkpt lat="46.18353" lon="2.48755">
        <ele>393</ele>
        <time>2015-04-06T15:23:56Z</time>
      </trkpt>
      <trkpt lat="46.18352" lon="2.48759">
        <ele>393</ele>
        <time>2015-04-06T15:23:58Z</time>
      </trkpt>
      <trkpt lat="46.18351" lon="2.48764">
        <ele>392</ele>
        <time>2015-04-06T15:24:00Z</time>
      </trkpt>
      <trkpt lat="46.1835" lon="2.48767">
        <ele>392</ele>
        <time>2015-04-06T15:24:02Z</time>
      </trkpt>
      <trkpt lat="46.18349" lon="2.48771">
        <ele>392</ele>
        <time>2015-04-06T15:24:04Z</time>
      </trkpt>
      <trkpt lat="46.18348" lon="2.48776">
        <ele>392</ele>
        <time>2015-04-06T15:24:06Z</time>
      </trkpt>
      <trkpt lat="46.18346" lon="2.4878">
        <ele>392</ele>
        <time>2015-04-06T15:24:09Z</time>
      </trkpt>
      <trkpt lat="46.18345" lon="2.48784">
        <ele>392</ele>
        <time>2015-04-06T15:24:11Z</time>
      </trkpt>
      <trkpt lat="46.18343" lon="2.48788">
        <ele>392</ele>
        <time>2015-04-06T15:24:13Z</time>
      </trkpt>
      <trkpt lat="46.18342" lon="2.48791">
        <ele>392</ele>
        <time>2015-04-06T15:24:15Z</time>
      </trkpt>
      <trkpt lat="46.18341" lon="2.48796">
        <ele>392</ele>
        <time>2015-04-06T15:24:17Z</time>
      </trkpt>
      <trkpt lat="46.1834" lon="2.48798">
        <ele>392</ele>
        <time>2015-04-06T15:24:19Z</time>
      </trkpt>
      <trkpt lat="46.18339" lon="2.48802">
        <ele>392</ele>
        <time>2015-04-06T15:24:21Z</time>
      </trkpt>
      <trkpt lat="46.18338" lon="2.48806">
        <ele>392</ele>
        <time>2015-04-06T15:24:23Z</time>
      </trkpt>
      <trkpt lat="46.18337" lon="2.4881">
        <ele>392</ele>
        <time>2015-04-06T15:24:25Z</time>
      </trkpt>
      <trkpt lat="46.18336" lon="2.48813">
        <ele>392</ele>
        <time>2015-04-06T15:24:27Z</time>
      </trkpt>
      <trkpt lat="46.18335" lon="2.48816">
        <ele>392</ele>
        <time>2015-04-06T15:24:29Z</time>
      </trkpt>
      <trkpt lat="46.18334" lon="2.4882">
        <ele>392</ele>
        <time>2015-04-06T15:24:31Z</time>
      </trkpt>
      <trkpt lat="46.18335" lon="2.48823">
        <ele>392</ele>
        <time>2015-04-06T15:24:33Z</time>
      </trkpt>
      <trkpt lat="46.18336" lon="2.48827">
        <ele>392</ele>
        <time>2015-04-06T15:24:35Z</time>
      </trkpt>
      <trkpt lat="46.18338" lon="2.48829">
        <ele>392</ele>
        <time>2015-04-06T15:24:37Z</time>
      </trkpt>
      <trkpt lat="46.18342" lon="2.48831">
        <ele>392</ele>
        <time>2015-04-06T15:24:39Z</time>
      </trkpt>
      <trkpt lat="46.18344" lon="2.48834">
        <ele>392</ele>
        <time>2015-04-06T15:24:41Z</time>
      </trkpt>
      <trkpt lat="46.18347" lon="2.48836">
        <ele>392</ele>
        <time>2015-04-06T15:24:43Z</time>
      </trkpt>
      <trkpt lat="46.18348" lon="2.48839">
        <ele>392</ele>
        <time>2015-04-06T15:24:45Z</time>
      </trkpt>
      <trkpt lat="46.1835" lon="2.48841">
        <ele>392</ele>
        <time>2015-04-06T15:24:47Z</time>
      </trkpt>
      <trkpt lat="46.18351" lon="2.48844">
        <ele>392</ele>
        <time>2015-04-06T15:24:49Z</time>
      </trkpt>
      <trkpt lat="46.18353" lon="2.48847">
        <ele>392</ele>
        <time>2015-04-06T15:24:51Z</time>
      </trkpt>
      <trkpt lat="46.18355" lon="2.48849">
        <ele>392</ele>
        <time>2015-04-06T15:24:53Z</time>
      </trkpt>
      <trkpt lat="46.18357" lon="2.48851">
        <ele>392</ele>
        <time>2015-04-06T15:24:55Z</time>
      </trkpt>
      <trkpt lat="46.1836" lon="2.48853">
        <ele>392</ele>
        <time>2015-04-06T15:24:57Z</time>
      </trkpt>
      <trkpt lat="46.18362" lon="2.48856">
        <ele>393</ele>
        <time>2015-04-06T15:24:59Z</time>
      </trkpt>
      <trkpt lat="46.18364" lon="2.4886">
        <ele>393</ele>
        <time>2015-04-06T15:25:01Z</time>
      </trkpt>
      <trkpt lat="46.18366" lon="2.48862">
        <ele>393</ele>
        <time>2015-04-06T15:25:03Z</time>
      </trkpt>
      <trkpt lat="46.18367" lon="2.48866">
        <ele>393</ele>
        <time>2015-04-06T15:25:05Z</time>
      </trkpt>
      <trkpt lat="46.18369" lon="2.4887">
        <ele>393</ele>
        <time>2015-04-06T15:25:08Z</time>
      </trkpt>
      <trkpt lat="46.1837" lon="2.48874">
        <ele>393</ele>
        <time>2015-04-06T15:25:10Z</time>
      </trkpt>
      <trkpt lat="46.18373" lon="2.48877">
        <ele>393</ele>
        <time>2015-04-06T15:25:12Z</time>
      </trkpt>
      <trkpt lat="46.18375" lon="2.48881">
        <ele>393</ele>
        <time>2015-04-06T15:25:15Z</time>
      </trkpt>
      <trkpt lat="46.18377" lon="2.48884">
        <ele>393</ele>
        <time>2015-04-06T15:25:17Z</time>
      </trkpt>
      <trkpt lat="46.18378" lon="2.48886">
        <ele>393</ele>
        <time>2015-04-06T15:25:19Z</time>
      </trkpt>
      <trkpt lat="46.18379" lon="2.4889">
        <ele>393</ele>
        <time>2015-04-06T15:25:21Z</time>
      </trkpt>
      <trkpt lat="46.18381" lon="2.48894">
        <ele>394</ele>
        <time>2015-04-06T15:25:24Z</time>
      </trkpt>
      <trkpt lat="46.18382" lon="2.48897">
        <ele>394</ele>
        <time>2015-04-06T15:25:26Z</time>
      </trkpt>
      <trkpt lat="46.18383" lon="2.48901">
        <ele>394</ele>
        <time>2015-04-06T15:25:28Z</time>
      </trkpt>
      <trkpt lat="46.18385" lon="2.48904">
        <ele>394</ele>
        <time>2015-04-06T15:25:30Z</time>
      </trkpt>
      <trkpt lat="46.18385" lon="2.48909">
        <ele>394</ele>
        <time>2015-04-06T15:25:32Z</time>
      </trkpt>
      <trkpt lat="46.18385" lon="2.48914">
        <ele>394</ele>
        <time>2015-04-06T15:25:34Z</time>
      </trkpt>
      <trkpt lat="46.18385" lon="2.48918">
        <ele>394</ele>
        <time>2015-04-06T15:25:36Z</time>
      </trkpt>
      <trkpt lat="46.18385" lon="2.48921">
        <ele>395</ele>
        <time>2015-04-06T15:25:38Z</time>
      </trkpt>
      <trkpt lat="46.18386" lon="2.48926">
        <ele>396</ele>
        <time>2015-04-06T15:25:40Z</time>
      </trkpt>
      <trkpt lat="46.18386" lon="2.48929">
        <ele>396</ele>
        <time>2015-04-06T15:25:42Z</time>
      </trkpt>
      <trkpt lat="46.18386" lon="2.48932">
        <ele>396</ele>
        <time>2015-04-06T15:25:44Z</time>
      </trkpt>
      <trkpt lat="46.18386" lon="2.48936">
        <ele>396</ele>
        <time>2015-04-06T15:25:46Z</time>
      </trkpt>
      <trkpt lat="46.18385" lon="2.4894">
        <ele>396</ele>
        <time>2015-04-06T15:25:48Z</time>
      </trkpt>
      <trkpt lat="46.18385" lon="2.48943">
        <ele>396</ele>
        <time>2015-04-06T15:25:50Z</time>
      </trkpt>
      <trkpt lat="46.18384" lon="2.48947">
        <ele>396</ele>
        <time>2015-04-06T15:25:53Z</time>
      </trkpt>
      <trkpt lat="46.18383" lon="2.4895">
        <ele>396</ele>
        <time>2015-04-06T15:25:55Z</time>
      </trkpt>
      <trkpt lat="46.18383" lon="2.48955">
        <ele>396</ele>
        <time>2015-04-06T15:25:57Z</time>
      </trkpt>
      <trkpt lat="46.18381" lon="2.48958">
        <ele>396</ele>
        <time>2015-04-06T15:25:59Z</time>
      </trkpt>
      <trkpt lat="46.1838" lon="2.48961">
        <ele>396</ele>
        <time>2015-04-06T15:26:01Z</time>
      </trkpt>
      <trkpt lat="46.18379" lon="2.48966">
        <ele>397</ele>
        <time>2015-04-06T15:26:03Z</time>
      </trkpt>
      <trkpt lat="46.18378" lon="2.4897">
        <ele>397</ele>
        <time>2015-04-06T15:26:05Z</time>
      </trkpt>
      <trkpt lat="46.18377" lon="2.48973">
        <ele>397</ele>
        <time>2015-04-06T15:26:07Z</time>
      </trkpt>
      <trkpt lat="46.18375" lon="2.48976">
        <ele>397</ele>
        <time>2015-04-06T15:26:09Z</time>
      </trkpt>
      <trkpt lat="46.18375" lon="2.48979">
        <ele>397</ele>
        <time>2015-04-06T15:26:11Z</time>
      </trkpt>
      <trkpt lat="46.18372" lon="2.48984">
        <ele>397</ele>
        <time>2015-04-06T15:26:14Z</time>
      </trkpt>
      <trkpt lat="46.18371" lon="2.48986">
        <ele>397</ele>
        <time>2015-04-06T15:26:16Z</time>
      </trkpt>
      <trkpt lat="46.1837" lon="2.4899">
        <ele>397</ele>
        <time>2015-04-06T15:26:18Z</time>
      </trkpt>
      <trkpt lat="46.18368" lon="2.48993">
        <ele>397</ele>
        <time>2015-04-06T15:26:20Z</time>
      </trkpt>
      <trkpt lat="46.18367" lon="2.48996">
        <ele>397</ele>
        <time>2015-04-06T15:26:22Z</time>
      </trkpt>
      <trkpt lat="46.18365" lon="2.49">
        <ele>397</ele>
        <time>2015-04-06T15:26:24Z</time>
      </trkpt>
      <trkpt lat="46.18364" lon="2.49004">
        <ele>398</ele>
        <time>2015-04-06T15:26:26Z</time>
      </trkpt>
      <trkpt lat="46.18362" lon="2.49007">
        <ele>398</ele>
        <time>2015-04-06T15:26:28Z</time>
      </trkpt>
      <trkpt lat="46.1836" lon="2.49009">
        <ele>399</ele>
        <time>2015-04-06T15:26:30Z</time>
      </trkpt>
      <trkpt lat="46.18359" lon="2.49012">
        <ele>399</ele>
        <time>2015-04-06T15:26:32Z</time>
      </trkpt>
      <trkpt lat="46.18356" lon="2.49014">
        <ele>399</ele>
        <time>2015-04-06T15:26:34Z</time>
      </trkpt>
      <trkpt lat="46.18353" lon="2.49018">
        <ele>400</ele>
        <time>2015-04-06T15:26:37Z</time>
      </trkpt>
      <trkpt lat="46.1835" lon="2.49019">
        <ele>400</ele>
        <time>2015-04-06T15:26:39Z</time>
      </trkpt>
      <trkpt lat="46.18348" lon="2.49021">
        <ele>401</ele>
        <time>2015-04-06T15:26:41Z</time>
      </trkpt>
      <trkpt lat="46.18345" lon="2.49022">
        <ele>401</ele>
        <time>2015-04-06T15:26:43Z</time>
      </trkpt>
      <trkpt lat="46.18343" lon="2.49023">
        <ele>401</ele>
        <time>2015-04-06T15:26:45Z</time>
      </trkpt>
      <trkpt lat="46.18341" lon="2.49023">
        <ele>401</ele>
        <time>2015-04-06T15:26:47Z</time>
      </trkpt>
      <trkpt lat="46.18339" lon="2.49024">
        <ele>401</ele>
        <time>2015-04-06T15:26:49Z</time>
      </trkpt>
      <trkpt lat="46.18336" lon="2.49024">
        <ele>401</ele>
        <time>2015-04-06T15:26:51Z</time>
      </trkpt>
      <trkpt lat="46.18335" lon="2.49024">
        <ele>401</ele>
        <time>2015-04-06T15:26:53Z</time>
      </trkpt>
      <trkpt lat="46.18333" lon="2.49024">
        <ele>401</ele>
        <time>2015-04-06T15:26:55Z</time>
      </trkpt>
      <trkpt lat="46.1833" lon="2.49024">
        <ele>401</ele>
        <time>2015-04-06T15:26:57Z</time>
      </trkpt>
      <trkpt lat="46.18327" lon="2.49024">
        <ele>401</ele>
        <time>2015-04-06T15:26:59Z</time>
      </trkpt>
      <trkpt lat="46.18325" lon="2.49023">
        <ele>401</ele>
        <time>2015-04-06T15:27:01Z</time>
      </trkpt>
      <trkpt lat="46.18323" lon="2.49021">
        <ele>401</ele>
        <time>2015-04-06T15:27:03Z</time>
      </trkpt>
      <trkpt lat="46.1832" lon="2.49019">
        <ele>401</ele>
        <time>2015-04-06T15:27:05Z</time>
      </trkpt>
      <trkpt lat="46.18317" lon="2.49017">
        <ele>401</ele>
        <time>2015-04-06T15:27:08Z</time>
      </trkpt>
      <trkpt lat="46.18316" lon="2.49015">
        <ele>401</ele>
        <time>2015-04-06T15:27:10Z</time>
      </trkpt>
      <trkpt lat="46.18313" lon="2.49015">
        <ele>401</ele>
        <time>2015-04-06T15:27:12Z</time>
      </trkpt>
      <trkpt lat="46.18311" lon="2.49012">
        <ele>401</ele>
        <time>2015-04-06T15:27:14Z</time>
      </trkpt>
      <trkpt lat="46.18308" lon="2.49008">
        <ele>401</ele>
        <time>2015-04-06T15:27:16Z</time>
      </trkpt>
      <trkpt lat="46.18306" lon="2.49006">
        <ele>401</ele>
        <time>2015-04-06T15:27:18Z</time>
      </trkpt>
      <trkpt lat="46.18304" lon="2.49003">
        <ele>401</ele>
        <time>2015-04-06T15:27:20Z</time>
      </trkpt>
      <trkpt lat="46.18301" lon="2.49">
        <ele>401</ele>
        <time>2015-04-06T15:27:22Z</time>
      </trkpt>
      <trkpt lat="46.18298" lon="2.48996">
        <ele>401</ele>
        <time>2015-04-06T15:27:25Z</time>
      </trkpt>
      <trkpt lat="46.18295" lon="2.48992">
        <ele>401</ele>
        <time>2015-04-06T15:27:27Z</time>
      </trkpt>
      <trkpt lat="46.18293" lon="2.48989">
        <ele>401</ele>
        <time>2015-04-06T15:27:29Z</time>
      </trkpt>
      <trkpt lat="46.18291" lon="2.48987">
        <ele>401</ele>
        <time>2015-04-06T15:27:31Z</time>
      </trkpt>
      <trkpt lat="46.18289" lon="2.48984">
        <ele>401</ele>
        <time>2015-04-06T15:27:33Z</time>
      </trkpt>
      <trkpt lat="46.18287" lon="2.4898">
        <ele>402</ele>
        <time>2015-04-06T15:27:35Z</time>
      </trkpt>
      <trkpt lat="46.18284" lon="2.48976">
        <ele>404</ele>
        <time>2015-04-06T15:27:37Z</time>
      </trkpt>
      <trkpt lat="46.18282" lon="2.48973">
        <ele>405</ele>
        <time>2015-04-06T15:27:39Z</time>
      </trkpt>
      <trkpt lat="46.18279" lon="2.48969">
        <ele>406</ele>
        <time>2015-04-06T15:27:42Z</time>
      </trkpt>
      <trkpt lat="46.18277" lon="2.48966">
        <ele>407</ele>
        <time>2015-04-06T15:27:44Z</time>
      </trkpt>
      <trkpt lat="46.18275" lon="2.48964">
        <ele>407</ele>
        <time>2015-04-06T15:27:46Z</time>
      </trkpt>
      <trkpt lat="46.18272" lon="2.48959">
        <ele>408</ele>
        <time>2015-04-06T15:27:49Z</time>
      </trkpt>
      <trkpt lat="46.1827" lon="2.48957">
        <ele>408</ele>
        <time>2015-04-06T15:27:51Z</time>
      </trkpt>
      <trkpt lat="46.18268" lon="2.48955">
        <ele>408</ele>
        <time>2015-04-06T15:27:53Z</time>
      </trkpt>
      <trkpt lat="46.18265" lon="2.48951">
        <ele>408</ele>
        <time>2015-04-06T15:27:56Z</time>
      </trkpt>
      <trkpt lat="46.18263" lon="2.48948">
        <ele>408</ele>
        <time>2015-04-06T15:27:58Z</time>
      </trkpt>
      <trkpt lat="46.18262" lon="2.48946">
        <ele>408</ele>
        <time>2015-04-06T15:28:00Z</time>
      </trkpt>
      <trkpt lat="46.1826" lon="2.48943">
        <ele>409</ele>
        <time>2015-04-06T15:28:02Z</time>
      </trkpt>
      <trkpt lat="46.18258" lon="2.4894">
        <ele>409</ele>
        <time>2015-04-06T15:28:04Z</time>
      </trkpt>
      <trkpt lat="46.18256" lon="2.48938">
        <ele>409</ele>
        <time>2015-04-06T15:28:06Z</time>
      </trkpt>
      <trkpt lat="46.18254" lon="2.48935">
        <ele>409</ele>
        <time>2015-04-06T15:28:08Z</time>
      </trkpt>
      <trkpt lat="46.18253" lon="2.48933">
        <ele>409</ele>
        <time>2015-04-06T15:28:10Z</time>
      </trkpt>
      <trkpt lat="46.18251" lon="2.4893">
        <ele>409</ele>
        <time>2015-04-06T15:28:12Z</time>
      </trkpt>
      <trkpt lat="46.18249" lon="2.48926">
        <ele>409</ele>
        <time>2015-04-06T15:28:15Z</time>
      </trkpt>
      <trkpt lat="46.18248" lon="2.48924">
        <ele>409</ele>
        <time>2015-04-06T15:28:17Z</time>
      </trkpt>
      <trkpt lat="46.18245" lon="2.48921">
        <ele>409</ele>
        <time>2015-04-06T15:28:19Z</time>
      </trkpt>
      <trkpt lat="46.18243" lon="2.48917">
        <ele>409</ele>
        <time>2015-04-06T15:28:22Z</time>
      </trkpt>
      <trkpt lat="46.1824" lon="2.48913">
        <ele>409</ele>
        <time>2015-04-06T15:28:24Z</time>
      </trkpt>
      <trkpt lat="46.18237" lon="2.4891">
        <ele>409</ele>
        <time>2015-04-06T15:28:26Z</time>
      </trkpt>
      <trkpt lat="46.18234" lon="2.48907">
        <ele>409</ele>
        <time>2015-04-06T15:28:28Z</time>
      </trkpt>
      <trkpt lat="46.18233" lon="2.48905">
        <ele>409</ele>
        <time>2015-04-06T15:28:30Z</time>
      </trkpt>
      <trkpt lat="46.18231" lon="2.48903">
        <ele>409</ele>
        <time>2015-04-06T15:28:32Z</time>
      </trkpt>
      <trkpt lat="46.1823" lon="2.489">
        <ele>409</ele>
        <time>2015-04-06T15:28:34Z</time>
      </trkpt>
      <trkpt lat="46.18228" lon="2.48899">
        <ele>409</ele>
        <time>2015-04-06T15:28:36Z</time>
      </trkpt>
      <trkpt lat="46.18227" lon="2.48895">
        <ele>409</ele>
        <time>2015-04-06T15:28:38Z</time>
      </trkpt>
      <trkpt lat="46.18225" lon="2.48893">
        <ele>409</ele>
        <time>2015-04-06T15:28:40Z</time>
      </trkpt>
      <trkpt lat="46.18224" lon="2.4889">
        <ele>409</ele>
        <time>2015-04-06T15:28:42Z</time>
      </trkpt>
      <trkpt lat="46.18222" lon="2.48887">
        <ele>409</ele>
        <time>2015-04-06T15:28:44Z</time>
      </trkpt>
      <trkpt lat="46.1822" lon="2.48883">
        <ele>409</ele>
        <time>2015-04-06T15:28:47Z</time>
      </trkpt>
      <trkpt lat="46.18218" lon="2.4888">
        <ele>409</ele>
        <time>2015-04-06T15:28:49Z</time>
      </trkpt>
      <trkpt lat="46.18217" lon="2.48879">
        <ele>409</ele>
        <time>2015-04-06T15:28:51Z</time>
      </trkpt>
      <trkpt lat="46.18216" lon="2.48877">
        <ele>409</ele>
        <time>2015-04-06T15:28:53Z</time>
      </trkpt>
      <trkpt lat="46.18214" lon="2.48874">
        <ele>409</ele>
        <time>2015-04-06T15:28:55Z</time>
      </trkpt>
      <trkpt lat="46.18212" lon="2.4887">
        <ele>409</ele>
        <time>2015-04-06T15:28:57Z</time>
      </trkpt>
      <trkpt lat="46.18209" lon="2.48866">
        <ele>409</ele>
        <time>2015-04-06T15:29:00Z</time>
      </trkpt>
      <trkpt lat="46.18207" lon="2.48863">
        <ele>409</ele>
        <time>2015-04-06T15:29:02Z</time>
      </trkpt>
      <trkpt lat="46.18204" lon="2.48858">
        <ele>409</ele>
        <time>2015-04-06T15:29:05Z</time>
      </trkpt>
      <trkpt lat="46.18203" lon="2.48855">
        <ele>409</ele>
        <time>2015-04-06T15:29:07Z</time>
      </trkpt>
      <trkpt lat="46.18201" lon="2.48851">
        <ele>409</ele>
        <time>2015-04-06T15:29:09Z</time>
      </trkpt>
      <trkpt lat="46.182" lon="2.48847">
        <ele>409</ele>
        <time>2015-04-06T15:29:11Z</time>
      </trkpt>
      <trkpt lat="46.18198" lon="2.48842">
        <ele>409</ele>
        <time>2015-04-06T15:29:13Z</time>
      </trkpt>
      <trkpt lat="46.18195" lon="2.48837">
        <ele>409</ele>
        <time>2015-04-06T15:29:15Z</time>
      </trkpt>
      <trkpt lat="46.18193" lon="2.48834">
        <ele>409</ele>
        <time>2015-04-06T15:29:17Z</time>
      </trkpt>
      <trkpt lat="46.1819" lon="2.4883">
        <ele>410</ele>
        <time>2015-04-06T15:29:19Z</time>
      </trkpt>
      <trkpt lat="46.18188" lon="2.48825">
        <ele>410</ele>
        <time>2015-04-06T15:29:21Z</time>
      </trkpt>
      <trkpt lat="46.18186" lon="2.48821">
        <ele>411</ele>
        <time>2015-04-06T15:29:23Z</time>
      </trkpt>
      <trkpt lat="46.18183" lon="2.48817">
        <ele>411</ele>
        <time>2015-04-06T15:29:25Z</time>
      </trkpt>
      <trkpt lat="46.18181" lon="2.48812">
        <ele>412</ele>
        <time>2015-04-06T15:29:27Z</time>
      </trkpt>
      <trkpt lat="46.18179" lon="2.48807">
        <ele>412</ele>
        <time>2015-04-06T15:29:29Z</time>
      </trkpt>
      <trkpt lat="46.18177" lon="2.48802">
        <ele>412</ele>
        <time>2015-04-06T15:29:31Z</time>
      </trkpt>
      <trkpt lat="46.18177" lon="2.488">
        <ele>413</ele>
        <time>2015-04-06T15:29:33Z</time>
      </trkpt>
      <trkpt lat="46.18176" lon="2.48797">
        <ele>413</ele>
        <time>2015-04-06T15:29:35Z</time>
      </trkpt>
      <trkpt lat="46.18174" lon="2.48795">
        <ele>414</ele>
        <time>2015-04-06T15:29:37Z</time>
      </trkpt>
      <trkpt lat="46.18172" lon="2.48792">
        <ele>414</ele>
        <time>2015-04-06T15:29:39Z</time>
      </trkpt>
      <trkpt lat="46.18169" lon="2.4879">
        <ele>414</ele>
        <time>2015-04-06T15:29:41Z</time>
      </trkpt>
      <trkpt lat="46.18167" lon="2.48787">
        <ele>414</ele>
        <time>2015-04-06T15:29:43Z</time>
      </trkpt>
      <trkpt lat="46.18166" lon="2.48785">
        <ele>414</ele>
        <time>2015-04-06T15:29:45Z</time>
      </trkpt>
      <trkpt lat="46.18164" lon="2.4878">
        <ele>414</ele>
        <time>2015-04-06T15:29:48Z</time>
      </trkpt>
      <trkpt lat="46.18161" lon="2.48775">
        <ele>414</ele>
        <time>2015-04-06T15:29:51Z</time>
      </trkpt>
      <trkpt lat="46.18159" lon="2.48772">
        <ele>414</ele>
        <time>2015-04-06T15:29:53Z</time>
      </trkpt>
      <trkpt lat="46.18156" lon="2.4877">
        <ele>414</ele>
        <time>2015-04-06T15:29:55Z</time>
      </trkpt>
      <trkpt lat="46.18153" lon="2.48767">
        <ele>414</ele>
        <time>2015-04-06T15:29:57Z</time>
      </trkpt>
      <trkpt lat="46.18151" lon="2.48764">
        <ele>414</ele>
        <time>2015-04-06T15:29:59Z</time>
      </trkpt>
      <trkpt lat="46.18148" lon="2.48762">
        <ele>414</ele>
        <time>2015-04-06T15:30:01Z</time>
      </trkpt>
      <trkpt lat="46.18146" lon="2.4876">
        <ele>414</ele>
        <time>2015-04-06T15:30:03Z</time>
      </trkpt>
      <trkpt lat="46.18144" lon="2.48756">
        <ele>414</ele>
        <time>2015-04-06T15:30:06Z</time>
      </trkpt>
      <trkpt lat="46.18142" lon="2.48753">
        <ele>414</ele>
        <time>2015-04-06T15:30:08Z</time>
      </trkpt>
      <trkpt lat="46.18139" lon="2.48751">
        <ele>414</ele>
        <time>2015-04-06T15:30:10Z</time>
      </trkpt>
      <trkpt lat="46.18136" lon="2.48747">
        <ele>414</ele>
        <time>2015-04-06T15:30:12Z</time>
      </trkpt>
      <trkpt lat="46.18133" lon="2.48745">
        <ele>414</ele>
        <time>2015-04-06T15:30:14Z</time>
      </trkpt>
      <trkpt lat="46.18131" lon="2.48743">
        <ele>414</ele>
        <time>2015-04-06T15:30:16Z</time>
      </trkpt>
      <trkpt lat="46.18129" lon="2.48742">
        <ele>414</ele>
        <time>2015-04-06T15:30:18Z</time>
      </trkpt>
      <trkpt lat="46.18126" lon="2.4874">
        <ele>414</ele>
        <time>2015-04-06T15:30:20Z</time>
      </trkpt>
      <trkpt lat="46.18123" lon="2.48738">
        <ele>414</ele>
        <time>2015-04-06T15:30:22Z</time>
      </trkpt>
      <trkpt lat="46.1812" lon="2.48735">
        <ele>414</ele>
        <time>2015-04-06T15:30:24Z</time>
      </trkpt>
      <trkpt lat="46.18118" lon="2.48734">
        <ele>414</ele>
        <time>2015-04-06T15:30:26Z</time>
      </trkpt>
      <trkpt lat="46.18115" lon="2.48732">
        <ele>414</ele>
        <time>2015-04-06T15:30:28Z</time>
      </trkpt>
      <trkpt lat="46.18113" lon="2.4873">
        <ele>414</ele>
        <time>2015-04-06T15:30:30Z</time>
      </trkpt>
      <trkpt lat="46.1811" lon="2.48727">
        <ele>414</ele>
        <time>2015-04-06T15:30:32Z</time>
      </trkpt>
      <trkpt lat="46.18107" lon="2.48724">
        <ele>414</ele>
        <time>2015-04-06T15:30:34Z</time>
      </trkpt>
      <trkpt lat="46.18105" lon="2.48721">
        <ele>414</ele>
        <time>2015-04-06T15:30:36Z</time>
      </trkpt>
      <trkpt lat="46.18102" lon="2.48719">
        <ele>414</ele>
        <time>2015-04-06T15:30:38Z</time>
      </trkpt>
      <trkpt lat="46.181" lon="2.48715">
        <ele>414</ele>
        <time>2015-04-06T15:30:40Z</time>
      </trkpt>
      <trkpt lat="46.18098" lon="2.48713">
        <ele>414</ele>
        <time>2015-04-06T15:30:42Z</time>
      </trkpt>
      <trkpt lat="46.18096" lon="2.48711">
        <ele>414</ele>
        <time>2015-04-06T15:30:44Z</time>
      </trkpt>
      <trkpt lat="46.18095" lon="2.48708">
        <ele>414</ele>
        <time>2015-04-06T15:30:46Z</time>
      </trkpt>
      <trkpt lat="46.18092" lon="2.48706">
        <ele>415</ele>
        <time>2015-04-06T15:30:48Z</time>
      </trkpt>
      <trkpt lat="46.18089" lon="2.48703">
        <ele>416</ele>
        <time>2015-04-06T15:30:51Z</time>
      </trkpt>
      <trkpt lat="46.18085" lon="2.48701">
        <ele>416</ele>
        <time>2015-04-06T15:30:53Z</time>
      </trkpt>
      <trkpt lat="46.18082" lon="2.48701">
        <ele>416</ele>
        <time>2015-04-06T15:30:55Z</time>
      </trkpt>
      <trkpt lat="46.18078" lon="2.487">
        <ele>416</ele>
        <time>2015-04-06T15:30:57Z</time>
      </trkpt>
      <trkpt lat="46.18075" lon="2.48698">
        <ele>417</ele>
        <time>2015-04-06T15:30:59Z</time>
      </trkpt>
      <trkpt lat="46.18071" lon="2.48697">
        <ele>417</ele>
        <time>2015-04-06T15:31:01Z</time>
      </trkpt>
      <trkpt lat="46.18068" lon="2.48695">
        <ele>418</ele>
        <time>2015-04-06T15:31:03Z</time>
      </trkpt>
      <trkpt lat="46.18065" lon="2.48693">
        <ele>419</ele>
        <time>2015-04-06T15:31:05Z</time>
      </trkpt>
      <trkpt lat="46.18061" lon="2.48692">
        <ele>419</ele>
        <time>2015-04-06T15:31:07Z</time>
      </trkpt>
      <trkpt lat="46.18058" lon="2.48691">
        <ele>420</ele>
        <time>2015-04-06T15:31:09Z</time>
      </trkpt>
      <trkpt lat="46.18055" lon="2.4869">
        <ele>420</ele>
        <time>2015-04-06T15:31:11Z</time>
      </trkpt>
      <trkpt lat="46.18052" lon="2.48689">
        <ele>420</ele>
        <time>2015-04-06T15:31:13Z</time>
      </trkpt>
      <trkpt lat="46.18048" lon="2.48688">
        <ele>420</ele>
        <time>2015-04-06T15:31:15Z</time>
      </trkpt>
      <trkpt lat="46.18045" lon="2.48688">
        <ele>421</ele>
        <time>2015-04-06T15:31:17Z</time>
      </trkpt>
      <trkpt lat="46.18042" lon="2.48687">
        <ele>421</ele>
        <time>2015-04-06T15:31:19Z</time>
      </trkpt>
      <trkpt lat="46.18038" lon="2.48686">
        <ele>422</ele>
        <time>2015-04-06T15:31:21Z</time>
      </trkpt>
      <trkpt lat="46.18035" lon="2.48685">
        <ele>422</ele>
        <time>2015-04-06T15:31:23Z</time>
      </trkpt>
      <trkpt lat="46.18033" lon="2.48684">
        <ele>422</ele>
        <time>2015-04-06T15:31:25Z</time>
      </trkpt>
      <trkpt lat="46.18029" lon="2.48683">
        <ele>422</ele>
        <time>2015-04-06T15:31:27Z</time>
      </trkpt>
      <trkpt lat="46.18027" lon="2.48682">
        <ele>423</ele>
        <time>2015-04-06T15:31:29Z</time>
      </trkpt>
      <trkpt lat="46.18023" lon="2.48681">
        <ele>424</ele>
        <time>2015-04-06T15:31:31Z</time>
      </trkpt>
      <trkpt lat="46.1802" lon="2.4868">
        <ele>424</ele>
        <time>2015-04-06T15:31:33Z</time>
      </trkpt>
      <trkpt lat="46.18017" lon="2.48679">
        <ele>425</ele>
        <time>2015-04-06T15:31:35Z</time>
      </trkpt>
      <trkpt lat="46.18013" lon="2.48679">
        <ele>425</ele>
        <time>2015-04-06T15:31:37Z</time>
      </trkpt>
      <trkpt lat="46.1801" lon="2.48678">
        <ele>425</ele>
        <time>2015-04-06T15:31:39Z</time>
      </trkpt>
      <trkpt lat="46.18007" lon="2.48678">
        <ele>425</ele>
        <time>2015-04-06T15:31:41Z</time>
      </trkpt>
      <trkpt lat="46.18004" lon="2.48678">
        <ele>425</ele>
        <time>2015-04-06T15:31:43Z</time>
      </trkpt>
      <trkpt lat="46.18" lon="2.48677">
        <ele>425</ele>
        <time>2015-04-06T15:31:45Z</time>
      </trkpt>
      <trkpt lat="46.17997" lon="2.48677">
        <ele>425</ele>
        <time>2015-04-06T15:31:47Z</time>
      </trkpt>
      <trkpt lat="46.17994" lon="2.48677">
        <ele>425</ele>
        <time>2015-04-06T15:31:49Z</time>
      </trkpt>
      <trkpt lat="46.17991" lon="2.48676">
        <ele>425</ele>
        <time>2015-04-06T15:31:51Z</time>
      </trkpt>
      <trkpt lat="46.17988" lon="2.48675">
        <ele>425</ele>
        <time>2015-04-06T15:31:53Z</time>
      </trkpt>
      <trkpt lat="46.17985" lon="2.48674">
        <ele>425</ele>
        <time>2015-04-06T15:31:55Z</time>
      </trkpt>
      <trkpt lat="46.17981" lon="2.48673">
        <ele>425</ele>
        <time>2015-04-06T15:31:57Z</time>
      </trkpt>
      <trkpt lat="46.17978" lon="2.48672">
        <ele>425</ele>
        <time>2015-04-06T15:31:59Z</time>
      </trkpt>
      <trkpt lat="46.17975" lon="2.48671">
        <ele>425</ele>
        <time>2015-04-06T15:32:01Z</time>
      </trkpt>
      <trkpt lat="46.17972" lon="2.48669">
        <ele>425</ele>
        <time>2015-04-06T15:32:03Z</time>
      </trkpt>
      <trkpt lat="46.17969" lon="2.48669">
        <ele>425</ele>
        <time>2015-04-06T15:32:05Z</time>
      </trkpt>
      <trkpt lat="46.17966" lon="2.48669">
        <ele>426</ele>
        <time>2015-04-06T15:32:07Z</time>
      </trkpt>
      <trkpt lat="46.17963" lon="2.48669">
        <ele>426</ele>
        <time>2015-04-06T15:32:09Z</time>
      </trkpt>
      <trkpt lat="46.1796" lon="2.48668">
        <ele>426</ele>
        <time>2015-04-06T15:32:11Z</time>
      </trkpt>
      <trkpt lat="46.17957" lon="2.48667">
        <ele>426</ele>
        <time>2015-04-06T15:32:13Z</time>
      </trkpt>
      <trkpt lat="46.17955" lon="2.48666">
        <ele>426</ele>
        <time>2015-04-06T15:32:15Z</time>
      </trkpt>
      <trkpt lat="46.17952" lon="2.48666">
        <ele>426</ele>
        <time>2015-04-06T15:32:17Z</time>
      </trkpt>
      <trkpt lat="46.17949" lon="2.48666">
        <ele>426</ele>
        <time>2015-04-06T15:32:19Z</time>
      </trkpt>
      <trkpt lat="46.17946" lon="2.48666">
        <ele>426</ele>
        <time>2015-04-06T15:32:21Z</time>
      </trkpt>
      <trkpt lat="46.17943" lon="2.48667">
        <ele>426</ele>
        <time>2015-04-06T15:32:23Z</time>
      </trkpt>
      <trkpt lat="46.1794" lon="2.48669">
        <ele>426</ele>
        <time>2015-04-06T15:32:25Z</time>
      </trkpt>
      <trkpt lat="46.17937" lon="2.48673">
        <ele>426</ele>
        <time>2015-04-06T15:32:28Z</time>
      </trkpt>
      <trkpt lat="46.17934" lon="2.48674">
        <ele>426</ele>
        <time>2015-04-06T15:32:30Z</time>
      </trkpt>
      <trkpt lat="46.17931" lon="2.48677">
        <ele>427</ele>
        <time>2015-04-06T15:32:33Z</time>
      </trkpt>
      <trkpt lat="46.17928" lon="2.48678">
        <ele>427</ele>
        <time>2015-04-06T15:32:35Z</time>
      </trkpt>
      <trkpt lat="46.17926" lon="2.48679">
        <ele>427</ele>
        <time>2015-04-06T15:32:37Z</time>
      </trkpt>
      <trkpt lat="46.17923" lon="2.4868">
        <ele>427</ele>
        <time>2015-04-06T15:32:39Z</time>
      </trkpt>
      <trkpt lat="46.17922" lon="2.48682">
        <ele>428</ele>
        <time>2015-04-06T15:32:41Z</time>
      </trkpt>
      <trkpt lat="46.1792" lon="2.48684">
        <ele>428</ele>
        <time>2015-04-06T15:32:43Z</time>
      </trkpt>
      <trkpt lat="46.17918" lon="2.48686">
        <ele>428</ele>
        <time>2015-04-06T15:32:45Z</time>
      </trkpt>
      <trkpt lat="46.17916" lon="2.48687">
        <ele>428</ele>
        <time>2015-04-06T15:32:47Z</time>
      </trkpt>
      <trkpt lat="46.17913" lon="2.48689">
        <ele>428</ele>
        <time>2015-04-06T15:32:49Z</time>
      </trkpt>
      <trkpt lat="46.1791" lon="2.4869">
        <ele>429</ele>
        <time>2015-04-06T15:32:51Z</time>
      </trkpt>
      <trkpt lat="46.17907" lon="2.48692">
        <ele>429</ele>
        <time>2015-04-06T15:32:53Z</time>
      </trkpt>
      <trkpt lat="46.17905" lon="2.48692">
        <ele>430</ele>
        <time>2015-04-06T15:32:55Z</time>
      </trkpt>
      <trkpt lat="46.17903" lon="2.48693">
        <ele>430</ele>
        <time>2015-04-06T15:32:57Z</time>
      </trkpt>
      <trkpt lat="46.17901" lon="2.48695">
        <ele>430</ele>
        <time>2015-04-06T15:32:59Z</time>
      </trkpt>
      <trkpt lat="46.179" lon="2.48698">
        <ele>430</ele>
        <time>2015-04-06T15:33:01Z</time>
      </trkpt>
      <trkpt lat="46.17899" lon="2.48702">
        <ele>431</ele>
        <time>2015-04-06T15:33:03Z</time>
      </trkpt>
      <trkpt lat="46.17898" lon="2.48706">
        <ele>432</ele>
        <time>2015-04-06T15:33:05Z</time>
      </trkpt>
      <trkpt lat="46.17898" lon="2.48709">
        <ele>433</ele>
        <time>2015-04-06T15:33:07Z</time>
      </trkpt>
      <trkpt lat="46.17898" lon="2.48713">
        <ele>433</ele>
        <time>2015-04-06T15:33:09Z</time>
      </trkpt>
      <trkpt lat="46.17898" lon="2.48717">
        <ele>434</ele>
        <time>2015-04-06T15:33:11Z</time>
      </trkpt>
      <trkpt lat="46.17898" lon="2.4872">
        <ele>435</ele>
        <time>2015-04-06T15:33:13Z</time>
      </trkpt>
      <trkpt lat="46.17897" lon="2.48724">
        <ele>435</ele>
        <time>2015-04-06T15:33:15Z</time>
      </trkpt>
      <trkpt lat="46.17897" lon="2.48729">
        <ele>436</ele>
        <time>2015-04-06T15:33:17Z</time>
      </trkpt>
      <trkpt lat="46.17897" lon="2.48733">
        <ele>436</ele>
        <time>2015-04-06T15:33:19Z</time>
      </trkpt>
      <trkpt lat="46.17897" lon="2.48738">
        <ele>437</ele>
        <time>2015-04-06T15:33:21Z</time>
      </trkpt>
      <trkpt lat="46.17897" lon="2.48742">
        <ele>437</ele>
        <time>2015-04-06T15:33:23Z</time>
      </trkpt>
      <trkpt lat="46.17897" lon="2.48746">
        <ele>437</ele>
        <time>2015-04-06T15:33:25Z</time>
      </trkpt>
      <trkpt lat="46.17897" lon="2.48751">
        <ele>437</ele>
        <time>2015-04-06T15:33:27Z</time>
      </trkpt>
      <trkpt lat="46.17897" lon="2.48755">
        <ele>438</ele>
        <time>2015-04-06T15:33:29Z</time>
      </trkpt>
      <trkpt lat="46.17896" lon="2.48759">
        <ele>438</ele>
        <time>2015-04-06T15:33:31Z</time>
      </trkpt>
      <trkpt lat="46.17896" lon="2.48763">
        <ele>438</ele>
        <time>2015-04-06T15:33:33Z</time>
      </trkpt>
      <trkpt lat="46.17896" lon="2.48767">
        <ele>438</ele>
        <time>2015-04-06T15:33:35Z</time>
      </trkpt>
      <trkpt lat="46.17895" lon="2.48772">
        <ele>439</ele>
        <time>2015-04-06T15:33:37Z</time>
      </trkpt>
      <trkpt lat="46.17894" lon="2.48776">
        <ele>440</ele>
        <time>2015-04-06T15:33:39Z</time>
      </trkpt>
      <trkpt lat="46.17894" lon="2.48781">
        <ele>440</ele>
        <time>2015-04-06T15:33:41Z</time>
      </trkpt>
      <trkpt lat="46.17894" lon="2.48784">
        <ele>441</ele>
        <time>2015-04-06T15:33:43Z</time>
      </trkpt>
      <trkpt lat="46.17895" lon="2.48788">
        <ele>441</ele>
        <time>2015-04-06T15:33:45Z</time>
      </trkpt>
      <trkpt lat="46.17896" lon="2.48792">
        <ele>442</ele>
        <time>2015-04-06T15:33:48Z</time>
      </trkpt>
      <trkpt lat="46.17895" lon="2.48795">
        <ele>442</ele>
        <time>2015-04-06T15:33:50Z</time>
      </trkpt>
      <trkpt lat="46.17894" lon="2.48799">
        <ele>442</ele>
        <time>2015-04-06T15:33:52Z</time>
      </trkpt>
      <trkpt lat="46.17892" lon="2.48803">
        <ele>442</ele>
        <time>2015-04-06T15:33:54Z</time>
      </trkpt>
      <trkpt lat="46.17891" lon="2.48806">
        <ele>443</ele>
        <time>2015-04-06T15:33:56Z</time>
      </trkpt>
      <trkpt lat="46.17889" lon="2.4881">
        <ele>443</ele>
        <time>2015-04-06T15:33:58Z</time>
      </trkpt>
      <trkpt lat="46.17887" lon="2.48814">
        <ele>444</ele>
        <time>2015-04-06T15:34:00Z</time>
      </trkpt>
      <trkpt lat="46.17886" lon="2.48818">
        <ele>444</ele>
        <time>2015-04-06T15:34:02Z</time>
      </trkpt>
      <trkpt lat="46.17886" lon="2.48822">
        <ele>444</ele>
        <time>2015-04-06T15:34:04Z</time>
      </trkpt>
      <trkpt lat="46.17885" lon="2.48826">
        <ele>445</ele>
        <time>2015-04-06T15:34:06Z</time>
      </trkpt>
      <trkpt lat="46.17886" lon="2.4883">
        <ele>445</ele>
        <time>2015-04-06T15:34:08Z</time>
      </trkpt>
      <trkpt lat="46.17887" lon="2.48834">
        <ele>445</ele>
        <time>2015-04-06T15:34:10Z</time>
      </trkpt>
      <trkpt lat="46.17887" lon="2.48838">
        <ele>445</ele>
        <time>2015-04-06T15:34:12Z</time>
      </trkpt>
      <trkpt lat="46.17886" lon="2.48841">
        <ele>445</ele>
        <time>2015-04-06T15:34:14Z</time>
      </trkpt>
      <trkpt lat="46.17884" lon="2.48845">
        <ele>446</ele>
        <time>2015-04-06T15:34:16Z</time>
      </trkpt>
      <trkpt lat="46.17883" lon="2.48849">
        <ele>446</ele>
        <time>2015-04-06T15:34:18Z</time>
      </trkpt>
      <trkpt lat="46.17882" lon="2.48853">
        <ele>446</ele>
        <time>2015-04-06T15:34:20Z</time>
      </trkpt>
      <trkpt lat="46.17881" lon="2.48857">
        <ele>447</ele>
        <time>2015-04-06T15:34:22Z</time>
      </trkpt>
      <trkpt lat="46.1788" lon="2.48861">
        <ele>447</ele>
        <time>2015-04-06T15:34:24Z</time>
      </trkpt>
      <trkpt lat="46.17879" lon="2.48865">
        <ele>447</ele>
        <time>2015-04-06T15:34:26Z</time>
      </trkpt>
      <trkpt lat="46.17879" lon="2.48868">
        <ele>447</ele>
        <time>2015-04-06T15:34:28Z</time>
      </trkpt>
      <trkpt lat="46.17877" lon="2.48871">
        <ele>447</ele>
        <time>2015-04-06T15:34:30Z</time>
      </trkpt>
      <trkpt lat="46.17875" lon="2.48874">
        <ele>447</ele>
        <time>2015-04-06T15:34:32Z</time>
      </trkpt>
      <trkpt lat="46.17873" lon="2.48878">
        <ele>447</ele>
        <time>2015-04-06T15:34:34Z</time>
      </trkpt>
      <trkpt lat="46.17871" lon="2.48882">
        <ele>447</ele>
        <time>2015-04-06T15:34:36Z</time>
      </trkpt>
      <trkpt lat="46.1787" lon="2.48885">
        <ele>447</ele>
        <time>2015-04-06T15:34:38Z</time>
      </trkpt>
      <trkpt lat="46.17868" lon="2.48888">
        <ele>447</ele>
        <time>2015-04-06T15:34:40Z</time>
      </trkpt>
      <trkpt lat="46.17867" lon="2.48891">
        <ele>447</ele>
        <time>2015-04-06T15:34:42Z</time>
      </trkpt>
      <trkpt lat="46.17865" lon="2.48895">
        <ele>447</ele>
        <time>2015-04-06T15:34:44Z</time>
      </trkpt>
      <trkpt lat="46.17866" lon="2.48898">
        <ele>447</ele>
        <time>2015-04-06T15:34:46Z</time>
      </trkpt>
      <trkpt lat="46.17866" lon="2.489">
        <ele>447</ele>
        <time>2015-04-06T15:34:48Z</time>
      </trkpt>
      <trkpt lat="46.17866" lon="2.48901">
        <ele>447</ele>
        <time>2015-04-06T15:34:55Z</time>
      </trkpt>
    </trkseg>
  </trk>
</gpx>